<?xml version='1.0' encoding='UTF-8'?><gpx version="1.1" creator="JPX - https://github.com/jenetics/jpx" xmlns="http://www.topografix.com/GPX/1/1"><trk><trkseg><trkpt lat="40.902985155846224" lon="9.103991893683235"><ele>566.0</ele><time>2026-04-30T11:09:42Z</time></trkpt><trkpt lat="40.902874638849404" lon="9.103947787444332"><ele>566.0</ele><time>2026-04-30T11:09:44Z</time></trkpt><trkpt lat="40.90279292126029" lon="9.103895392642551"><ele>566.0</ele><time>2026-04-30T11:09:46Z</time></trkpt><trkpt lat="40.902715780565835" lon="9.10385535239138"><ele>566.0</ele><time>2026-04-30T11:09:48Z</time></trkpt><trkpt lat="40.90266154964097" lon="9.10380085742344"><ele>566.0</ele><time>2026-04-30T11:09:50Z</time></trkpt><trkpt lat="40.90260899215489" lon="9.103746097738934"><ele>566.0</ele><time>2026-04-30T11:09:54Z</time></trkpt><trkpt lat="40.90259105557048" lon="9.103656458650997"><ele>566.5</ele><time>2026-04-30T11:10:24Z</time></trkpt><trkpt lat="40.90251564982623" lon="9.10361357129322"><ele>567.0</ele><time>2026-04-30T11:10:26Z</time></trkpt><trkpt lat="40.902440003544946" lon="9.103669594089949"><ele>567.5</ele><time>2026-04-30T11:10:32Z</time></trkpt><trkpt lat="40.902417387452815" lon="9.103765664684408"><ele>568.0</ele><time>2026-04-30T11:10:34Z</time></trkpt><trkpt lat="40.90238188228995" lon="9.10384874570002"><ele>568.5</ele><time>2026-04-30T11:10:36Z</time></trkpt><trkpt lat="40.90234287198187" lon="9.10393830700108"><ele>569.0</ele><time>2026-04-30T11:10:38Z</time></trkpt><trkpt lat="40.902309152398495" lon="9.104032255506171"><ele>568.5</ele><time>2026-04-30T11:10:41Z</time></trkpt><trkpt lat="40.9022465137377" lon="9.1041288269383"><ele>568.0</ele><time>2026-04-30T11:10:49Z</time></trkpt><trkpt lat="40.90217623891111" lon="9.104220524481166"><ele>567.5</ele><time>2026-04-30T11:10:51Z</time></trkpt><trkpt lat="40.902160871806565" lon="9.104302817658162"><ele>567.0</ele><time>2026-04-30T11:10:56Z</time></trkpt><trkpt lat="40.902229195761166" lon="9.104429353555522"><ele>566.5</ele><time>2026-04-30T11:10:59Z</time></trkpt><trkpt lat="40.90226706034642" lon="9.104498469931917"><ele>566.0</ele><time>2026-04-30T11:11:00.001Z</time></trkpt><trkpt lat="40.902327664117266" lon="9.104582686837555"><ele>566.0</ele><time>2026-04-30T11:11:02.001Z</time></trkpt><trkpt lat="40.90233223133764" lon="9.104671454334683"><ele>566.0</ele><time>2026-04-30T11:11:06.001Z</time></trkpt><trkpt lat="40.90225766549563" lon="9.104754251969664"><ele>566.0</ele><time>2026-04-30T11:11:08.999Z</time></trkpt><trkpt lat="40.902202496218" lon="9.104822403867518"><ele>566.0</ele><time>2026-04-30T11:11:11.999Z</time></trkpt><trkpt lat="40.90214828695541" lon="9.104872467305988"><ele>566.0</ele><time>2026-04-30T11:11:13.999Z</time></trkpt><trkpt lat="40.902141853105064" lon="9.104992919981242"><ele>566.0</ele><time>2026-04-30T11:11:16.999Z</time></trkpt><trkpt lat="40.902180045591216" lon="9.105070313783212"><ele>565.0</ele><time>2026-04-30T11:11:18.999Z</time></trkpt><trkpt lat="40.90222402470418" lon="9.10516515977397"><ele>564.0</ele><time>2026-04-30T11:11:20.999Z</time></trkpt><trkpt lat="40.90226554697175" lon="9.10524818501891"><ele>563.0</ele><time>2026-04-30T11:11:22.999Z</time></trkpt><trkpt lat="40.90226976910779" lon="9.105331646086311"><ele>562.0</ele><time>2026-04-30T11:11:24.999Z</time></trkpt><trkpt lat="40.90223572385643" lon="9.105449231132727"><ele>561.0</ele><time>2026-04-30T11:11:27.999Z</time></trkpt><trkpt lat="40.902195493210094" lon="9.105529638872534"><ele>560.0</ele><time>2026-04-30T11:11:30.999Z</time></trkpt><trkpt lat="40.902174385521484" lon="9.105615702245785"><ele>560.0</ele><time>2026-04-30T11:11:32.999Z</time></trkpt><trkpt lat="40.902126707198946" lon="9.105705586691554"><ele>560.0</ele><time>2026-04-30T11:11:35Z</time></trkpt><trkpt lat="40.902095418564045" lon="9.105798426443377"><ele>560.0</ele><time>2026-04-30T11:11:37Z</time></trkpt><trkpt lat="40.90209576034489" lon="9.105884295824872"><ele>560.0</ele><time>2026-04-30T11:11:39Z</time></trkpt><trkpt lat="40.90207102660192" lon="9.105997203080266"><ele>560.0</ele><time>2026-04-30T11:11:56Z</time></trkpt><trkpt lat="40.902019407244694" lon="9.106078433471309"><ele>560.0</ele><time>2026-04-30T11:12:00Z</time></trkpt><trkpt lat="40.901954993695306" lon="9.106194493105095"><ele>559.0</ele><time>2026-04-30T11:12:02Z</time></trkpt><trkpt lat="40.90188311906914" lon="9.10630657026614"><ele>558.0</ele><time>2026-04-30T11:12:04Z</time></trkpt><trkpt lat="40.901847144646375" lon="9.106374947034764"><ele>557.0</ele><time>2026-04-30T11:12:05Z</time></trkpt><trkpt lat="40.90180868230974" lon="9.106456046278197"><ele>556.0</ele><time>2026-04-30T11:12:06Z</time></trkpt><trkpt lat="40.90175801592818" lon="9.106538275349871"><ele>555.0</ele><time>2026-04-30T11:12:07Z</time></trkpt><trkpt lat="40.90173497039129" lon="9.106631675182978"><ele>554.0</ele><time>2026-04-30T11:12:08Z</time></trkpt><trkpt lat="40.901729698633225" lon="9.10673157890738"><ele>553.5</ele><time>2026-04-30T11:12:09Z</time></trkpt><trkpt lat="40.901715557671956" lon="9.106828871928773"><ele>553.0</ele><time>2026-04-30T11:12:10Z</time></trkpt><trkpt lat="40.90169891167596" lon="9.106919104337893"><ele>552.5</ele><time>2026-04-30T11:12:11Z</time></trkpt><trkpt lat="40.90168289878205" lon="9.107008437295832"><ele>552.0</ele><time>2026-04-30T11:12:12Z</time></trkpt><trkpt lat="40.901678928332174" lon="9.107103674185431"><ele>551.5</ele><time>2026-04-30T11:12:13Z</time></trkpt><trkpt lat="40.90168557485403" lon="9.107209438896087"><ele>551.0</ele><time>2026-04-30T11:12:14Z</time></trkpt><trkpt lat="40.90169966551426" lon="9.107322501102553"><ele>550.0</ele><time>2026-04-30T11:12:15Z</time></trkpt><trkpt lat="40.90171558088642" lon="9.107437916811742"><ele>549.0</ele><time>2026-04-30T11:12:16Z</time></trkpt><trkpt lat="40.9017314258846" lon="9.107559127654318"><ele>548.0</ele><time>2026-04-30T11:12:17Z</time></trkpt><trkpt lat="40.90175638782119" lon="9.107686253215958"><ele>547.0</ele><time>2026-04-30T11:12:18Z</time></trkpt><trkpt lat="40.901784757312825" lon="9.107812775290494"><ele>546.0</ele><time>2026-04-30T11:12:19Z</time></trkpt><trkpt lat="40.90181193850673" lon="9.107948595857403"><ele>544.4</ele><time>2026-04-30T11:12:20Z</time></trkpt><trkpt lat="40.901841681865456" lon="9.10808044823323"><ele>542.8</ele><time>2026-04-30T11:12:21Z</time></trkpt><trkpt lat="40.90186005508312" lon="9.108214984940334"><ele>541.1999999999999</ele><time>2026-04-30T11:12:22Z</time></trkpt><trkpt lat="40.90189459404538" lon="9.10833982579572"><ele>539.6</ele><time>2026-04-30T11:12:23Z</time></trkpt><trkpt lat="40.90195256384126" lon="9.108453147551643"><ele>538.0</ele><time>2026-04-30T11:12:24Z</time></trkpt><trkpt lat="40.901996274473575" lon="9.108573460182706"><ele>537.0</ele><time>2026-04-30T11:12:25Z</time></trkpt><trkpt lat="40.90202861469396" lon="9.108697037297462"><ele>536.0</ele><time>2026-04-30T11:12:26Z</time></trkpt><trkpt lat="40.9020796492102" lon="9.10880835510584"><ele>535.0</ele><time>2026-04-30T11:12:27Z</time></trkpt><trkpt lat="40.902136701522615" lon="9.10892267527297"><ele>534.0</ele><time>2026-04-30T11:12:28Z</time></trkpt><trkpt lat="40.902201729876495" lon="9.10904425972088"><ele>533.0</ele><time>2026-04-30T11:12:29Z</time></trkpt><trkpt lat="40.90227953681605" lon="9.109165156339506"><ele>533.0</ele><time>2026-04-30T11:12:30Z</time></trkpt><trkpt lat="40.90237237439447" lon="9.10927142550466"><ele>533.0</ele><time>2026-04-30T11:12:31Z</time></trkpt><trkpt lat="40.9024538116836" lon="9.109385502523052"><ele>533.0</ele><time>2026-04-30T11:12:32Z</time></trkpt><trkpt lat="40.90253825328925" lon="9.10949212090444"><ele>533.0</ele><time>2026-04-30T11:12:33Z</time></trkpt><trkpt lat="40.90262696656192" lon="9.10959420327186"><ele>530.5</ele><time>2026-04-30T11:12:34Z</time></trkpt><trkpt lat="40.90271552175374" lon="9.109697988606577"><ele>528.0</ele><time>2026-04-30T11:12:35Z</time></trkpt><trkpt lat="40.902804995568815" lon="9.109798914019262"><ele>525.5</ele><time>2026-04-30T11:12:36Z</time></trkpt><trkpt lat="40.902899388437014" lon="9.109895994049264"><ele>523.0</ele><time>2026-04-30T11:12:37Z</time></trkpt><trkpt lat="40.90299093576079" lon="9.10999033378291"><ele>523.0</ele><time>2026-04-30T11:12:38Z</time></trkpt><trkpt lat="40.90308663637326" lon="9.110076727605751"><ele>523.0</ele><time>2026-04-30T11:12:39Z</time></trkpt><trkpt lat="40.90318534596367" lon="9.110153481093612"><ele>523.0</ele><time>2026-04-30T11:12:40Z</time></trkpt><trkpt lat="40.903285902376396" lon="9.110227828469126"><ele>523.0</ele><time>2026-04-30T11:12:41Z</time></trkpt><trkpt lat="40.90338621371254" lon="9.110304718289786"><ele>522.0</ele><time>2026-04-30T11:12:42Z</time></trkpt><trkpt lat="40.90348889098635" lon="9.110378363597244"><ele>521.0</ele><time>2026-04-30T11:12:43.001Z</time></trkpt><trkpt lat="40.903588742171316" lon="9.11045994486624"><ele>520.0</ele><time>2026-04-30T11:12:44.001Z</time></trkpt><trkpt lat="40.90367482698299" lon="9.110554050653578"><ele>519.0</ele><time>2026-04-30T11:12:45.001Z</time></trkpt><trkpt lat="40.903750672950046" lon="9.110677135742801"><ele>518.75</ele><time>2026-04-30T11:12:46.001Z</time></trkpt><trkpt lat="40.90380505134834" lon="9.110827061189084"><ele>518.5</ele><time>2026-04-30T11:12:47.001Z</time></trkpt><trkpt lat="40.90384696932543" lon="9.110989601503396"><ele>518.25</ele><time>2026-04-30T11:12:48.001Z</time></trkpt><trkpt lat="40.90388753993594" lon="9.111156522460409"><ele>518.0</ele><time>2026-04-30T11:12:49.001Z</time></trkpt><trkpt lat="40.90393027452564" lon="9.111325003456598"><ele>518.0</ele><time>2026-04-30T11:12:50.001Z</time></trkpt><trkpt lat="40.903975234599855" lon="9.111494533265862"><ele>518.0</ele><time>2026-04-30T11:12:51.001Z</time></trkpt><trkpt lat="40.9040187238215" lon="9.111664367702181"><ele>518.0</ele><time>2026-04-30T11:12:52.001Z</time></trkpt><trkpt lat="40.90406049082769" lon="9.111834926391193"><ele>518.0</ele><time>2026-04-30T11:12:53.001Z</time></trkpt><trkpt lat="40.90410010735258" lon="9.11200536230033"><ele>516.75</ele><time>2026-04-30T11:12:54.001Z</time></trkpt><trkpt lat="40.90414069950793" lon="9.112179666822938"><ele>515.5</ele><time>2026-04-30T11:12:55.001Z</time></trkpt><trkpt lat="40.90418189364006" lon="9.11235271877971"><ele>514.25</ele><time>2026-04-30T11:12:56.001Z</time></trkpt><trkpt lat="40.90422489723601" lon="9.112524972468549"><ele>513.0</ele><time>2026-04-30T11:12:57.001Z</time></trkpt><trkpt lat="40.904271597143" lon="9.112699943613285"><ele>511.0</ele><time>2026-04-30T11:12:58.001Z</time></trkpt><trkpt lat="40.90432403233552" lon="9.112877952857119"><ele>509.0</ele><time>2026-04-30T11:12:59.001Z</time></trkpt><trkpt lat="40.90438287681127" lon="9.113057670114484"><ele>507.0</ele><time>2026-04-30T11:13:00.001Z</time></trkpt><trkpt lat="40.904445858348375" lon="9.113233520380474"><ele>505.0</ele><time>2026-04-30T11:13:01.001Z</time></trkpt><trkpt lat="40.90451441502998" lon="9.11340417941601"><ele>503.5</ele><time>2026-04-30T11:13:02.001Z</time></trkpt><trkpt lat="40.90458964714501" lon="9.113568590296618"><ele>502.0</ele><time>2026-04-30T11:13:03.001Z</time></trkpt><trkpt lat="40.90467170427266" lon="9.11372768748509"><ele>500.5</ele><time>2026-04-30T11:13:04.001Z</time></trkpt><trkpt lat="40.904756583470956" lon="9.113879573861533"><ele>499.0</ele><time>2026-04-30T11:13:05.001Z</time></trkpt><trkpt lat="40.904843115079295" lon="9.114024228974165"><ele>499.0</ele><time>2026-04-30T11:13:06.001Z</time></trkpt><trkpt lat="40.904926258981924" lon="9.114160634862019"><ele>499.0</ele><time>2026-04-30T11:13:07.001Z</time></trkpt><trkpt lat="40.905006185198864" lon="9.114299510230545"><ele>499.0</ele><time>2026-04-30T11:13:08.001Z</time></trkpt><trkpt lat="40.90507647324623" lon="9.114447921541503"><ele>499.0</ele><time>2026-04-30T11:13:09.001Z</time></trkpt><trkpt lat="40.90513636740997" lon="9.114606797393815"><ele>499.0</ele><time>2026-04-30T11:13:10.001Z</time></trkpt><trkpt lat="40.90518454476887" lon="9.114773536010675"><ele>499.0</ele><time>2026-04-30T11:13:11.001Z</time></trkpt><trkpt lat="40.905221688699875" lon="9.114943487326448"><ele>499.0</ele><time>2026-04-30T11:13:12.001Z</time></trkpt><trkpt lat="40.90524462624861" lon="9.115116297032568"><ele>499.0</ele><time>2026-04-30T11:13:13.001Z</time></trkpt><trkpt lat="40.905253282548124" lon="9.115293799704315"><ele>497.75</ele><time>2026-04-30T11:13:14.001Z</time></trkpt><trkpt lat="40.905244688633175" lon="9.115476314585734"><ele>496.5</ele><time>2026-04-30T11:13:14.998Z</time></trkpt><trkpt lat="40.90522141772717" lon="9.115659536786703"><ele>495.25</ele><time>2026-04-30T11:13:15.998Z</time></trkpt><trkpt lat="40.90519538538943" lon="9.115847518619386"><ele>494.0</ele><time>2026-04-30T11:13:16.998Z</time></trkpt><trkpt lat="40.90517556322582" lon="9.11603989695691"><ele>492.25</ele><time>2026-04-30T11:13:17.998Z</time></trkpt><trkpt lat="40.905205443527265" lon="9.11624707653802"><ele>490.5</ele><time>2026-04-30T11:13:18.998Z</time></trkpt><trkpt lat="40.905236469957146" lon="9.11644234143953"><ele>488.75</ele><time>2026-04-30T11:13:19.998Z</time></trkpt><trkpt lat="40.90527467034815" lon="9.11661882481136"><ele>487.0</ele><time>2026-04-30T11:13:20.998Z</time></trkpt><trkpt lat="40.905302873831374" lon="9.116791968856948"><ele>487.0</ele><time>2026-04-30T11:13:21.998Z</time></trkpt><trkpt lat="40.905360529398834" lon="9.116933075685838"><ele>487.0</ele><time>2026-04-30T11:13:22.999Z</time></trkpt><trkpt lat="40.90538797046364" lon="9.117082618075797"><ele>487.0</ele><time>2026-04-30T11:13:23.999Z</time></trkpt><trkpt lat="40.90540131125905" lon="9.117238396705227"><ele>487.0</ele><time>2026-04-30T11:13:24.999Z</time></trkpt><trkpt lat="40.90538878527911" lon="9.117413025616518"><ele>485.25</ele><time>2026-04-30T11:13:25.999Z</time></trkpt><trkpt lat="40.90535736106778" lon="9.117589395191066"><ele>483.5</ele><time>2026-04-30T11:13:26.999Z</time></trkpt><trkpt lat="40.905323630407146" lon="9.117766269541416"><ele>481.75</ele><time>2026-04-30T11:13:27.999Z</time></trkpt><trkpt lat="40.90528238091716" lon="9.117949219865954"><ele>480.0</ele><time>2026-04-30T11:13:28.999Z</time></trkpt><trkpt lat="40.905241843792695" lon="9.118140491582718"><ele>479.0</ele><time>2026-04-30T11:13:29.999Z</time></trkpt><trkpt lat="40.90520257438693" lon="9.118332505286853"><ele>478.0</ele><time>2026-04-30T11:13:30.999Z</time></trkpt><trkpt lat="40.90516336397578" lon="9.118523188682856"><ele>477.0</ele><time>2026-04-30T11:13:31.999Z</time></trkpt><trkpt lat="40.905125212933214" lon="9.118717843583186"><ele>477.0</ele><time>2026-04-30T11:13:32.999Z</time></trkpt><trkpt lat="40.90508710420694" lon="9.118918611445586"><ele>477.0</ele><time>2026-04-30T11:13:33.999Z</time></trkpt><trkpt lat="40.905048608906746" lon="9.119120327714832"><ele>477.0</ele><time>2026-04-30T11:13:34.999Z</time></trkpt><trkpt lat="40.90500479753059" lon="9.119324820086971"><ele>476.33333333333337</ele><time>2026-04-30T11:13:35.999Z</time></trkpt><trkpt lat="40.904962992544824" lon="9.119532979776098"><ele>475.6666666666667</ele><time>2026-04-30T11:13:36.999Z</time></trkpt><trkpt lat="40.90492114412525" lon="9.119743801713595"><ele>475.0</ele><time>2026-04-30T11:13:37.999Z</time></trkpt><trkpt lat="40.90488005513753" lon="9.11994980784486"><ele>474.0</ele><time>2026-04-30T11:13:38.999Z</time></trkpt><trkpt lat="40.90483637647502" lon="9.120156776029017"><ele>473.0</ele><time>2026-04-30T11:13:39.999Z</time></trkpt><trkpt lat="40.9047945637381" lon="9.120361178902721"><ele>472.0</ele><time>2026-04-30T11:13:40.999Z</time></trkpt><trkpt lat="40.904752209380774" lon="9.120559736386888"><ele>472.0</ele><time>2026-04-30T11:13:41.999Z</time></trkpt><trkpt lat="40.90471159498391" lon="9.120753377660197"><ele>472.0</ele><time>2026-04-30T11:13:42.999Z</time></trkpt><trkpt lat="40.90466865304624" lon="9.120934063192303"><ele>472.0</ele><time>2026-04-30T11:13:43.999Z</time></trkpt><trkpt lat="40.90463031463507" lon="9.121100677304542"><ele>472.0</ele><time>2026-04-30T11:13:44.999Z</time></trkpt><trkpt lat="40.904598966688404" lon="9.121247505738545"><ele>472.00000000000006</ele><time>2026-04-30T11:13:45.999Z</time></trkpt><trkpt lat="40.90456701126616" lon="9.121375173379473"><ele>472.0</ele><time>2026-04-30T11:13:46.999Z</time></trkpt><trkpt lat="40.904528279690254" lon="9.121483554331382"><ele>472.0</ele><time>2026-04-30T11:13:47.999Z</time></trkpt><trkpt lat="40.90447886823703" lon="9.12156518718143"><ele>472.0</ele><time>2026-04-30T11:13:49Z</time></trkpt><trkpt lat="40.904427209323686" lon="9.121618253155312"><ele>472.00000000000006</ele><time>2026-04-30T11:13:50Z</time></trkpt><trkpt lat="40.90436564332608" lon="9.121653863970707"><ele>472.0</ele><time>2026-04-30T11:13:51Z</time></trkpt><trkpt lat="40.90429564378841" lon="9.121690459718925"><ele>473.1666666666667</ele><time>2026-04-30T11:13:52Z</time></trkpt><trkpt lat="40.90422861980588" lon="9.121732290866365"><ele>474.33333333333337</ele><time>2026-04-30T11:13:53Z</time></trkpt><trkpt lat="40.90416999019849" lon="9.121805346302192"><ele>475.5</ele><time>2026-04-30T11:13:54Z</time></trkpt><trkpt lat="40.90413174907068" lon="9.121900824006051"><ele>476.66666666666663</ele><time>2026-04-30T11:13:55Z</time></trkpt><trkpt lat="40.904125542905845" lon="9.122017179220947"><ele>477.8333333333333</ele><time>2026-04-30T11:13:56Z</time></trkpt><trkpt lat="40.90415469771821" lon="9.122138250880626"><ele>479.0</ele><time>2026-04-30T11:13:57Z</time></trkpt><trkpt lat="40.90421247500958" lon="9.122253575899736"><ele>479.25</ele><time>2026-04-30T11:13:58Z</time></trkpt><trkpt lat="40.90428177213252" lon="9.122378273034787"><ele>479.5</ele><time>2026-04-30T11:13:59Z</time></trkpt><trkpt lat="40.904340535006945" lon="9.1225315075462"><ele>479.75</ele><time>2026-04-30T11:14:00Z</time></trkpt><trkpt lat="40.90439679923269" lon="9.122702247047723"><ele>480.0</ele><time>2026-04-30T11:14:01Z</time></trkpt><trkpt lat="40.904457503333745" lon="9.122875441312207"><ele>480.0</ele><time>2026-04-30T11:14:02Z</time></trkpt><trkpt lat="40.90452490721282" lon="9.123058438228576"><ele>480.0</ele><time>2026-04-30T11:14:03Z</time></trkpt><trkpt lat="40.90459563268013" lon="9.123246433691838"><ele>480.0</ele><time>2026-04-30T11:14:04Z</time></trkpt><trkpt lat="40.9046700870508" lon="9.12344087972004"><ele>481.0</ele><time>2026-04-30T11:14:05Z</time></trkpt><trkpt lat="40.90474625308258" lon="9.123641557405241"><ele>482.0</ele><time>2026-04-30T11:14:06Z</time></trkpt><trkpt lat="40.90482495568539" lon="9.123845919150082"><ele>483.0</ele><time>2026-04-30T11:14:07Z</time></trkpt><trkpt lat="40.904906192493975" lon="9.124050133550828"><ele>485.0</ele><time>2026-04-30T11:14:08Z</time></trkpt><trkpt lat="40.904987205407686" lon="9.124256456325238"><ele>487.0</ele><time>2026-04-30T11:14:09Z</time></trkpt><trkpt lat="40.90506853538317" lon="9.124462955427237"><ele>489.0</ele><time>2026-04-30T11:14:10Z</time></trkpt><trkpt lat="40.90515047278011" lon="9.124667394776115"><ele>489.66666666666663</ele><time>2026-04-30T11:14:11Z</time></trkpt><trkpt lat="40.90523093292623" lon="9.12486896798841"><ele>490.3333333333333</ele><time>2026-04-30T11:14:12Z</time></trkpt><trkpt lat="40.905309317318874" lon="9.125072857417582"><ele>491.0</ele><time>2026-04-30T11:14:13Z</time></trkpt><trkpt lat="40.905384968384915" lon="9.125273507215379"><ele>493.3333333333333</ele><time>2026-04-30T11:14:14Z</time></trkpt><trkpt lat="40.90545510339647" lon="9.125464792408112"><ele>495.66666666666663</ele><time>2026-04-30T11:14:15Z</time></trkpt><trkpt lat="40.90551981332604" lon="9.125638225308416"><ele>498.0</ele><time>2026-04-30T11:14:16Z</time></trkpt><trkpt lat="40.905582926897864" lon="9.125811689894174"><ele>498.0</ele><time>2026-04-30T11:14:17Z</time></trkpt><trkpt lat="40.90564088842852" lon="9.125977602934721"><ele>498.0</ele><time>2026-04-30T11:14:18Z</time></trkpt><trkpt lat="40.90569695304987" lon="9.126135471155576"><ele>498.0</ele><time>2026-04-30T11:14:19Z</time></trkpt><trkpt lat="40.905753700298156" lon="9.12629060474231"><ele>498.0</ele><time>2026-04-30T11:14:20Z</time></trkpt><trkpt lat="40.90580946065696" lon="9.126448190325734"><ele>497.25</ele><time>2026-04-30T11:14:21Z</time></trkpt><trkpt lat="40.90586722872285" lon="9.12660867279405"><ele>496.5</ele><time>2026-04-30T11:14:22Z</time></trkpt><trkpt lat="40.905924216502356" lon="9.126768470090878"><ele>495.75</ele><time>2026-04-30T11:14:23Z</time></trkpt><trkpt lat="40.905982962342314" lon="9.126929616369349"><ele>495.0</ele><time>2026-04-30T11:14:24Z</time></trkpt><trkpt lat="40.9060424677692" lon="9.12708863907933"><ele>494.75</ele><time>2026-04-30T11:14:25Z</time></trkpt><trkpt lat="40.90610264408594" lon="9.127250142960728"><ele>494.5</ele><time>2026-04-30T11:14:26Z</time></trkpt><trkpt lat="40.906162645855765" lon="9.127413326699841"><ele>494.25</ele><time>2026-04-30T11:14:27Z</time></trkpt><trkpt lat="40.906223242776285" lon="9.127582835172728"><ele>494.0</ele><time>2026-04-30T11:14:28Z</time></trkpt><trkpt lat="40.90627306683798" lon="9.127738104319747"><ele>493.75</ele><time>2026-04-30T11:14:29Z</time></trkpt><trkpt lat="40.90631907145692" lon="9.127880376560606"><ele>493.5</ele><time>2026-04-30T11:14:30Z</time></trkpt><trkpt lat="40.906370341518574" lon="9.128007134289366"><ele>493.25</ele><time>2026-04-30T11:14:31Z</time></trkpt><trkpt lat="40.906391326174244" lon="9.128142388006948"><ele>493.0</ele><time>2026-04-30T11:14:32Z</time></trkpt><trkpt lat="40.90651831617796" lon="9.12823963364544"><ele>492.25</ele><time>2026-04-30T11:14:33Z</time></trkpt><trkpt lat="40.906604564986715" lon="9.128359777378327"><ele>491.5</ele><time>2026-04-30T11:14:34Z</time></trkpt><trkpt lat="40.90669649884243" lon="9.128495152029025"><ele>490.75</ele><time>2026-04-30T11:14:35Z</time></trkpt><trkpt lat="40.90678185147802" lon="9.128634758554833"><ele>490.0</ele><time>2026-04-30T11:14:36Z</time></trkpt><trkpt lat="40.90686349692692" lon="9.128763871775675"><ele>489.5</ele><time>2026-04-30T11:14:37Z</time></trkpt><trkpt lat="40.90694146227287" lon="9.128888459943097"><ele>489.0</ele><time>2026-04-30T11:14:38Z</time></trkpt><trkpt lat="40.90702082391373" lon="9.129015385270128"><ele>488.5</ele><time>2026-04-30T11:14:39.001Z</time></trkpt><trkpt lat="40.90710521048508" lon="9.129149313411737"><ele>488.0</ele><time>2026-04-30T11:14:40.001Z</time></trkpt><trkpt lat="40.90718688224288" lon="9.129283729892043"><ele>488.0</ele><time>2026-04-30T11:14:41.001Z</time></trkpt><trkpt lat="40.907270267647526" lon="9.129417394858633"><ele>488.0</ele><time>2026-04-30T11:14:42.001Z</time></trkpt><trkpt lat="40.907357931597964" lon="9.12954869737474"><ele>488.0</ele><time>2026-04-30T11:14:43.001Z</time></trkpt><trkpt lat="40.90744326062626" lon="9.12968170787632"><ele>488.0</ele><time>2026-04-30T11:14:44.001Z</time></trkpt><trkpt lat="40.907525270377135" lon="9.129813788393864"><ele>487.75</ele><time>2026-04-30T11:14:45.001Z</time></trkpt><trkpt lat="40.90760145388726" lon="9.129946971527099"><ele>487.5</ele><time>2026-04-30T11:14:46.001Z</time></trkpt><trkpt lat="40.90768363922516" lon="9.130078699741457"><ele>487.25</ele><time>2026-04-30T11:14:47.001Z</time></trkpt><trkpt lat="40.907764926114005" lon="9.130212492083452"><ele>487.0</ele><time>2026-04-30T11:14:48.001Z</time></trkpt><trkpt lat="40.907840591174086" lon="9.13034638873582"><ele>487.0</ele><time>2026-04-30T11:14:49.001Z</time></trkpt><trkpt lat="40.90791638172241" lon="9.130477156869757"><ele>487.0</ele><time>2026-04-30T11:14:50.001Z</time></trkpt><trkpt lat="40.907993805633645" lon="9.130607272689227"><ele>487.0</ele><time>2026-04-30T11:14:51.001Z</time></trkpt><trkpt lat="40.908073253171594" lon="9.13073496207417"><ele>487.0</ele><time>2026-04-30T11:14:52.001Z</time></trkpt><trkpt lat="40.90815055796376" lon="9.130859606864137"><ele>487.0</ele><time>2026-04-30T11:14:53.001Z</time></trkpt><trkpt lat="40.90822853268788" lon="9.130983906184618"><ele>487.0</ele><time>2026-04-30T11:14:54.001Z</time></trkpt><trkpt lat="40.908315728981265" lon="9.131103454034495"><ele>487.0</ele><time>2026-04-30T11:14:55.001Z</time></trkpt><trkpt lat="40.90841063355628" lon="9.131227592152102"><ele>487.0</ele><time>2026-04-30T11:14:56.001Z</time></trkpt><trkpt lat="40.90850489873448" lon="9.131349798150042"><ele>486.25</ele><time>2026-04-30T11:14:57.001Z</time></trkpt><trkpt lat="40.90859577149332" lon="9.131470901247289"><ele>485.5</ele><time>2026-04-30T11:14:58.001Z</time></trkpt><trkpt lat="40.90868020373838" lon="9.131593606406447"><ele>484.75</ele><time>2026-04-30T11:14:59.001Z</time></trkpt><trkpt lat="40.90875676132256" lon="9.131729906355838"><ele>484.0</ele><time>2026-04-30T11:15:00.001Z</time></trkpt><trkpt lat="40.90881502132706" lon="9.131882009232706"><ele>483.75</ele><time>2026-04-30T11:15:01.001Z</time></trkpt><trkpt lat="40.90885252916853" lon="9.13205792932115"><ele>483.5</ele><time>2026-04-30T11:15:02.001Z</time></trkpt><trkpt lat="40.90888004771758" lon="9.132249635816708"><ele>483.25</ele><time>2026-04-30T11:15:03.001Z</time></trkpt><trkpt lat="40.90889966176135" lon="9.132438680345459"><ele>483.0</ele><time>2026-04-30T11:15:04.001Z</time></trkpt><trkpt lat="40.90891685115509" lon="9.132622078160097"><ele>480.75</ele><time>2026-04-30T11:15:05.001Z</time></trkpt><trkpt lat="40.90893340932152" lon="9.132790146177918"><ele>478.5</ele><time>2026-04-30T11:15:06.001Z</time></trkpt><trkpt lat="40.90895722944313" lon="9.132954758622011"><ele>476.25</ele><time>2026-04-30T11:15:07.001Z</time></trkpt><trkpt lat="40.90899262959266" lon="9.133098948824987"><ele>474.0</ele><time>2026-04-30T11:15:08.001Z</time></trkpt><trkpt lat="40.909048660882355" lon="9.133230399500016"><ele>473.75</ele><time>2026-04-30T11:15:09.001Z</time></trkpt><trkpt lat="40.90912598153349" lon="9.133341923808995"><ele>473.5</ele><time>2026-04-30T11:15:10.001Z</time></trkpt><trkpt lat="40.909224151446814" lon="9.133434638363374"><ele>473.25</ele><time>2026-04-30T11:15:11.001Z</time></trkpt><trkpt lat="40.90934433302449" lon="9.133507564839482"><ele>473.0</ele><time>2026-04-30T11:15:12.001Z</time></trkpt><trkpt lat="40.90947962903569" lon="9.133560508705445"><ele>472.75</ele><time>2026-04-30T11:15:13.001Z</time></trkpt><trkpt lat="40.90961637254865" lon="9.133604721109055"><ele>472.5</ele><time>2026-04-30T11:15:14.001Z</time></trkpt><trkpt lat="40.90973900591375" lon="9.13365940284124"><ele>472.25</ele><time>2026-04-30T11:15:15.001Z</time></trkpt><trkpt lat="40.90984572203741" lon="9.133733462930515"><ele>472.0</ele><time>2026-04-30T11:15:16.001Z</time></trkpt><trkpt lat="40.90994216646082" lon="9.133827046659048"><ele>472.0</ele><time>2026-04-30T11:15:17.001Z</time></trkpt><trkpt lat="40.91002354250554" lon="9.133939222226761"><ele>472.0</ele><time>2026-04-30T11:15:18.001Z</time></trkpt><trkpt lat="40.91009164072709" lon="9.134070465303582"><ele>472.0</ele><time>2026-04-30T11:15:19.001Z</time></trkpt><trkpt lat="40.910156093871734" lon="9.13421840059462"><ele>472.0</ele><time>2026-04-30T11:15:20.001Z</time></trkpt><trkpt lat="40.91021706619177" lon="9.134373795781812"><ele>471.75</ele><time>2026-04-30T11:15:20.999Z</time></trkpt><trkpt lat="40.9102806632496" lon="9.134529714358038"><ele>471.5</ele><time>2026-04-30T11:15:21.999Z</time></trkpt><trkpt lat="40.91036137002444" lon="9.134683356663347"><ele>471.25</ele><time>2026-04-30T11:15:22.999Z</time></trkpt><trkpt lat="40.910462442986145" lon="9.134826566401449"><ele>471.0</ele><time>2026-04-30T11:15:23.999Z</time></trkpt><trkpt lat="40.91057985624879" lon="9.134956593214483"><ele>470.33333333333337</ele><time>2026-04-30T11:15:24.999Z</time></trkpt><trkpt lat="40.91070596110797" lon="9.13507862361472"><ele>469.6666666666667</ele><time>2026-04-30T11:15:25.999Z</time></trkpt><trkpt lat="40.91083537310831" lon="9.13519507578722"><ele>469.0</ele><time>2026-04-30T11:15:26.999Z</time></trkpt><trkpt lat="40.9109575255256" lon="9.135308979413484"><ele>469.0</ele><time>2026-04-30T11:15:27.999Z</time></trkpt><trkpt lat="40.911071710023705" lon="9.135421928415614"><ele>469.0</ele><time>2026-04-30T11:15:28.999Z</time></trkpt><trkpt lat="40.91117916511225" lon="9.135535526050187"><ele>469.0</ele><time>2026-04-30T11:15:29.999Z</time></trkpt><trkpt lat="40.91128457341098" lon="9.13564255606768"><ele>469.0</ele><time>2026-04-30T11:15:30.999Z</time></trkpt><trkpt lat="40.91139276969691" lon="9.135733917125597"><ele>466.0</ele><time>2026-04-30T11:15:31.999Z</time></trkpt><trkpt lat="40.91150846354708" lon="9.135800372672755"><ele>463.0</ele><time>2026-04-30T11:15:32.999Z</time></trkpt><trkpt lat="40.91163434084305" lon="9.135860257158376"><ele>460.0</ele><time>2026-04-30T11:15:33.999Z</time></trkpt><trkpt lat="40.91176853762424" lon="9.135874534107357"><ele>457.0</ele><time>2026-04-30T11:15:34.999Z</time></trkpt><trkpt lat="40.911904184105175" lon="9.135883325626725"><ele>456.5</ele><time>2026-04-30T11:15:35.999Z</time></trkpt><trkpt lat="40.912032011508465" lon="9.13587684229818"><ele>456.0</ele><time>2026-04-30T11:15:36.999Z</time></trkpt><trkpt lat="40.91214743210274" lon="9.135931008503297"><ele>455.5</ele><time>2026-04-30T11:15:37.999Z</time></trkpt><trkpt lat="40.912252811398865" lon="9.136014304512099"><ele>455.0</ele><time>2026-04-30T11:15:38.999Z</time></trkpt><trkpt lat="40.91233944265051" lon="9.136124441191754"><ele>455.0</ele><time>2026-04-30T11:15:39.999Z</time></trkpt><trkpt lat="40.912406460292644" lon="9.13625897890686"><ele>455.0</ele><time>2026-04-30T11:15:40.999Z</time></trkpt><trkpt lat="40.91246420972484" lon="9.13641192787742"><ele>455.0</ele><time>2026-04-30T11:15:41.999Z</time></trkpt><trkpt lat="40.91251435188675" lon="9.136568991279468"><ele>455.0</ele><time>2026-04-30T11:15:42.999Z</time></trkpt><trkpt lat="40.912565139666825" lon="9.136727031490189"><ele>452.25</ele><time>2026-04-30T11:15:43.999Z</time></trkpt><trkpt lat="40.912615575743175" lon="9.136888816689924"><ele>449.5</ele><time>2026-04-30T11:15:44.999Z</time></trkpt><trkpt lat="40.912666553281824" lon="9.13705313816366"><ele>446.75</ele><time>2026-04-30T11:15:46Z</time></trkpt><trkpt lat="40.9127191999687" lon="9.137226588256748"><ele>444.0</ele><time>2026-04-30T11:15:47Z</time></trkpt><trkpt lat="40.912776683872416" lon="9.137406048983419"><ele>443.75</ele><time>2026-04-30T11:15:48Z</time></trkpt><trkpt lat="40.91283486512071" lon="9.137586291100765"><ele>443.5</ele><time>2026-04-30T11:15:49Z</time></trkpt><trkpt lat="40.912890452991604" lon="9.137766293664315"><ele>443.25</ele><time>2026-04-30T11:15:50Z</time></trkpt><trkpt lat="40.91295069213061" lon="9.137940071363918"><ele>443.0</ele><time>2026-04-30T11:15:51Z</time></trkpt><trkpt lat="40.91300878710528" lon="9.138124240623105"><ele>444.0</ele><time>2026-04-30T11:15:52Z</time></trkpt><trkpt lat="40.9130995070564" lon="9.138303966367882"><ele>445.0</ele><time>2026-04-30T11:15:53Z</time></trkpt><trkpt lat="40.913202408965226" lon="9.138477232887643"><ele>446.0</ele><time>2026-04-30T11:15:54Z</time></trkpt><trkpt lat="40.91331164975315" lon="9.138655403115996"><ele>446.66666666666663</ele><time>2026-04-30T11:15:55Z</time></trkpt><trkpt lat="40.91343000571526" lon="9.13881747212741"><ele>447.33333333333337</ele><time>2026-04-30T11:15:56Z</time></trkpt><trkpt lat="40.91352512477096" lon="9.13900606431285"><ele>448.0</ele><time>2026-04-30T11:15:57Z</time></trkpt><trkpt lat="40.91359382967686" lon="9.139208203322415"><ele>448.0</ele><time>2026-04-30T11:15:58Z</time></trkpt><trkpt lat="40.913653151914424" lon="9.139429133015753"><ele>448.0</ele><time>2026-04-30T11:15:59Z</time></trkpt><trkpt lat="40.91370327448527" lon="9.139670542263849"><ele>448.0</ele><time>2026-04-30T11:16:00Z</time></trkpt><trkpt lat="40.913754923346666" lon="9.139935919851833"><ele>449.0</ele><time>2026-04-30T11:16:01Z</time></trkpt><trkpt lat="40.913808431907384" lon="9.14022065794292"><ele>450.0</ele><time>2026-04-30T11:16:02Z</time></trkpt><trkpt lat="40.91386797835166" lon="9.140513441032198"><ele>451.5</ele><time>2026-04-30T11:16:03Z</time></trkpt><trkpt lat="40.913927073529585" lon="9.14081736117146"><ele>453.0</ele><time>2026-04-30T11:16:04Z</time></trkpt><trkpt lat="40.91399094939161" lon="9.141132730478581"><ele>453.0</ele><time>2026-04-30T11:16:05Z</time></trkpt><trkpt lat="40.914049776893805" lon="9.141423472066554"><ele>453.0</ele><time>2026-04-30T11:16:06Z</time></trkpt><trkpt lat="40.91410798860891" lon="9.14170973987607"><ele>454.66666666666663</ele><time>2026-04-30T11:16:07Z</time></trkpt><trkpt lat="40.91415619645016" lon="9.141974151265728"><ele>456.3333333333333</ele><time>2026-04-30T11:16:08Z</time></trkpt><trkpt lat="40.91420441879851" lon="9.142223988791516"><ele>458.0</ele><time>2026-04-30T11:16:09Z</time></trkpt><trkpt lat="40.914252455095045" lon="9.142458308718258"><ele>462.0</ele><time>2026-04-30T11:16:10Z</time></trkpt><trkpt lat="40.91429866428142" lon="9.142671245534945"><ele>466.0</ele><time>2026-04-30T11:16:11Z</time></trkpt><trkpt lat="40.914330584358424" lon="9.142871688288087"><ele>470.0</ele><time>2026-04-30T11:16:12Z</time></trkpt><trkpt lat="40.91439370668429" lon="9.143055074177107"><ele>470.0</ele><time>2026-04-30T11:16:13Z</time></trkpt><trkpt lat="40.914504462650655" lon="9.143209236468673"><ele>470.0</ele><time>2026-04-30T11:16:14Z</time></trkpt><trkpt lat="40.914638418850046" lon="9.143330607065476"><ele>470.0</ele><time>2026-04-30T11:16:15Z</time></trkpt><trkpt lat="40.914794840062925" lon="9.143439923169092"><ele>470.66666666666663</ele><time>2026-04-30T11:16:16Z</time></trkpt><trkpt lat="40.914943593979366" lon="9.143584378394424"><ele>471.33333333333337</ele><time>2026-04-30T11:16:17Z</time></trkpt><trkpt lat="40.91510391225765" lon="9.14371406654743"><ele>472.0</ele><time>2026-04-30T11:16:18Z</time></trkpt><trkpt lat="40.915265166101285" lon="9.14384451145651"><ele>473.33333333333337</ele><time>2026-04-30T11:16:19Z</time></trkpt><trkpt lat="40.91542926376456" lon="9.14395779527509"><ele>474.66666666666663</ele><time>2026-04-30T11:16:20Z</time></trkpt><trkpt lat="40.91558055225731" lon="9.144107029241582"><ele>476.0</ele><time>2026-04-30T11:16:21Z</time></trkpt><trkpt lat="40.91572226611771" lon="9.144274518719703"><ele>476.0</ele><time>2026-04-30T11:16:22Z</time></trkpt><trkpt lat="40.91585787000755" lon="9.144458488197571"><ele>476.0</ele><time>2026-04-30T11:16:23Z</time></trkpt><trkpt lat="40.915990529513174" lon="9.144662412606047"><ele>476.0</ele><time>2026-04-30T11:16:24Z</time></trkpt><trkpt lat="40.91611751582631" lon="9.14488046499775"><ele>477.66666666666663</ele><time>2026-04-30T11:16:25Z</time></trkpt><trkpt lat="40.91624291064237" lon="9.145117559181239"><ele>479.33333333333337</ele><time>2026-04-30T11:16:26Z</time></trkpt><trkpt lat="40.91635559257255" lon="9.145331528582979"><ele>481.0</ele><time>2026-04-30T11:16:27.001Z</time></trkpt><trkpt lat="40.91646503218033" lon="9.14551450783214"><ele>481.0</ele><time>2026-04-30T11:16:28.001Z</time></trkpt><trkpt lat="40.91658062519183" lon="9.14566074759565"><ele>481.0</ele><time>2026-04-30T11:16:29.001Z</time></trkpt><trkpt lat="40.916713370146944" lon="9.145777162801469"><ele>481.0</ele><time>2026-04-30T11:16:30.001Z</time></trkpt><trkpt lat="40.91686887840529" lon="9.145861663963966"><ele>482.6666666666667</ele><time>2026-04-30T11:16:31.001Z</time></trkpt><trkpt lat="40.91704648070296" lon="9.145923837886837"><ele>484.33333333333337</ele><time>2026-04-30T11:16:32.001Z</time></trkpt><trkpt lat="40.9172308934093" lon="9.145977709822446"><ele>486.0</ele><time>2026-04-30T11:16:33.001Z</time></trkpt><trkpt lat="40.917405370200356" lon="9.14602922964986"><ele>486.0</ele><time>2026-04-30T11:16:34.001Z</time></trkpt><trkpt lat="40.917560922325194" lon="9.146078398219107"><ele>486.0</ele><time>2026-04-30T11:16:35.001Z</time></trkpt><trkpt lat="40.91769160882756" lon="9.146125818312546"><ele>486.0</ele><time>2026-04-30T11:16:36.001Z</time></trkpt><trkpt lat="40.91780255461514" lon="9.146187566433966"><ele>486.0</ele><time>2026-04-30T11:16:37.001Z</time></trkpt><trkpt lat="40.917885923772026" lon="9.146270605063707"><ele>486.4</ele><time>2026-04-30T11:16:38.001Z</time></trkpt><trkpt lat="40.91794952214889" lon="9.146373133875306"><ele>486.8</ele><time>2026-04-30T11:16:39.001Z</time></trkpt><trkpt lat="40.91799877262399" lon="9.146494270243506"><ele>487.19999999999993</ele><time>2026-04-30T11:16:40.001Z</time></trkpt><trkpt lat="40.91802932441384" lon="9.14662918454233"><ele>487.59999999999997</ele><time>2026-04-30T11:16:41.001Z</time></trkpt><trkpt lat="40.9180563832481" lon="9.14676095321923"><ele>488.0</ele><time>2026-04-30T11:16:42.001Z</time></trkpt><trkpt lat="40.918083134735646" lon="9.14687988657017"><ele>489.2</ele><time>2026-04-30T11:16:43.001Z</time></trkpt><trkpt lat="40.9181121332468" lon="9.14700149047224"><ele>490.4</ele><time>2026-04-30T11:16:44.001Z</time></trkpt><trkpt lat="40.918145194778745" lon="9.147117320093114"><ele>491.59999999999997</ele><time>2026-04-30T11:16:45.001Z</time></trkpt><trkpt lat="40.918188740958904" lon="9.147227515934823"><ele>492.79999999999995</ele><time>2026-04-30T11:16:46.001Z</time></trkpt><trkpt lat="40.918251304955135" lon="9.147320943479977"><ele>494.0</ele><time>2026-04-30T11:16:47.001Z</time></trkpt><trkpt lat="40.91832944322116" lon="9.147417209489864"><ele>495.25</ele><time>2026-04-30T11:16:48.001Z</time></trkpt><trkpt lat="40.918423295357016" lon="9.14751703558605"><ele>496.5</ele><time>2026-04-30T11:16:49.001Z</time></trkpt><trkpt lat="40.918529862250935" lon="9.147623098997466"><ele>497.75</ele><time>2026-04-30T11:16:50.001Z</time></trkpt><trkpt lat="40.9186424863128" lon="9.147736635634352"><ele>499.0</ele><time>2026-04-30T11:16:51.001Z</time></trkpt><trkpt lat="40.918766704786336" lon="9.147863289127285"><ele>499.0</ele><time>2026-04-30T11:16:52.001Z</time></trkpt><trkpt lat="40.91886977576028" lon="9.14796301712686"><ele>499.0</ele><time>2026-04-30T11:16:53.001Z</time></trkpt><trkpt lat="40.91895422233477" lon="9.148044331800966"><ele>499.0</ele><time>2026-04-30T11:16:54.001Z</time></trkpt><trkpt lat="40.919024498444934" lon="9.148119692897824"><ele>499.0</ele><time>2026-04-30T11:16:55.001Z</time></trkpt><trkpt lat="40.91907098622967" lon="9.148199980851428"><ele>499.0</ele><time>2026-04-30T11:16:56.001Z</time></trkpt><trkpt lat="40.9190991535034" lon="9.148289799542479"><ele>498.79999999999995</ele><time>2026-04-30T11:16:57.001Z</time></trkpt><trkpt lat="40.91912304656862" lon="9.148390607783824"><ele>498.59999999999997</ele><time>2026-04-30T11:16:58.001Z</time></trkpt><trkpt lat="40.9191616625861" lon="9.148507459085605"><ele>498.4</ele><time>2026-04-30T11:16:59.001Z</time></trkpt><trkpt lat="40.91921154896458" lon="9.148618955435433"><ele>498.2</ele><time>2026-04-30T11:17:00.001Z</time></trkpt><trkpt lat="40.91924662295755" lon="9.148724368856787"><ele>498.0</ele><time>2026-04-30T11:17:01.001Z</time></trkpt><trkpt lat="40.91926255363589" lon="9.148849038663398"><ele>497.5</ele><time>2026-04-30T11:17:02.001Z</time></trkpt><trkpt lat="40.919266559888335" lon="9.148998065545927"><ele>497.0</ele><time>2026-04-30T11:17:03.001Z</time></trkpt><trkpt lat="40.919267617430826" lon="9.149170041776262"><ele>496.5</ele><time>2026-04-30T11:17:04.001Z</time></trkpt><trkpt lat="40.919270282731596" lon="9.149351415860973"><ele>496.0</ele><time>2026-04-30T11:17:05.001Z</time></trkpt><trkpt lat="40.91926906880843" lon="9.149541016853135"><ele>496.0</ele><time>2026-04-30T11:17:06.001Z</time></trkpt><trkpt lat="40.9192684757972" lon="9.149723430652402"><ele>496.0</ele><time>2026-04-30T11:17:07.001Z</time></trkpt><trkpt lat="40.91926878226768" lon="9.149898422249834"><ele>496.0</ele><time>2026-04-30T11:17:08.001Z</time></trkpt><trkpt lat="40.91925377687337" lon="9.150064155867907"><ele>496.0</ele><time>2026-04-30T11:17:09.001Z</time></trkpt><trkpt lat="40.919217294968234" lon="9.150217587168779"><ele>494.75</ele><time>2026-04-30T11:17:10.001Z</time></trkpt><trkpt lat="40.91915812656358" lon="9.150351108993808"><ele>493.5</ele><time>2026-04-30T11:17:11.001Z</time></trkpt><trkpt lat="40.91907553516321" lon="9.150462878461832"><ele>492.25</ele><time>2026-04-30T11:17:12.001Z</time></trkpt><trkpt lat="40.9189918718413" lon="9.150564838053828"><ele>491.0</ele><time>2026-04-30T11:17:13.001Z</time></trkpt><trkpt lat="40.91888584862677" lon="9.150651168896562"><ele>489.25</ele><time>2026-04-30T11:17:14.001Z</time></trkpt><trkpt lat="40.91876605633367" lon="9.150727655797802"><ele>487.5</ele><time>2026-04-30T11:17:15.001Z</time></trkpt><trkpt lat="40.91864550053298" lon="9.150810529134034"><ele>485.75</ele><time>2026-04-30T11:17:16.001Z</time></trkpt><trkpt lat="40.91853123249898" lon="9.150900531882725"><ele>484.0</ele><time>2026-04-30T11:17:17.002Z</time></trkpt><trkpt lat="40.9184299382192" lon="9.150993293520074"><ele>484.1666666666667</ele><time>2026-04-30T11:17:18.002Z</time></trkpt><trkpt lat="40.91834368811934" lon="9.151075399169127"><ele>484.33333333333337</ele><time>2026-04-30T11:17:19.002Z</time></trkpt><trkpt lat="40.91826898123388" lon="9.151124521218597"><ele>484.5</ele><time>2026-04-30T11:17:20.002Z</time></trkpt><trkpt lat="40.91819596585991" lon="9.15114312339093"><ele>484.66666666666663</ele><time>2026-04-30T11:17:21.002Z</time></trkpt><trkpt lat="40.91811105502759" lon="9.151127236557327"><ele>484.8333333333333</ele><time>2026-04-30T11:17:22.002Z</time></trkpt><trkpt lat="40.91802726201756" lon="9.151157736675831"><ele>485.0</ele><time>2026-04-30T11:17:23.002Z</time></trkpt><trkpt lat="40.91795233176146" lon="9.151168347803575"><ele>485.0</ele><time>2026-04-30T11:17:24.002Z</time></trkpt><trkpt lat="40.91788755496831" lon="9.151188728029643"><ele>485.0</ele><time>2026-04-30T11:17:25.002Z</time></trkpt><trkpt lat="40.91777721434816" lon="9.151265081375765"><ele>485.0</ele><time>2026-04-30T11:17:26.999Z</time></trkpt><trkpt lat="40.91773670706356" lon="9.151341817717693"><ele>485.0</ele><time>2026-04-30T11:17:27.999Z</time></trkpt><trkpt lat="40.91769552720573" lon="9.151455835960082"><ele>485.0</ele><time>2026-04-30T11:17:28.999Z</time></trkpt><trkpt lat="40.91764132378337" lon="9.151576955756726"><ele>486.0</ele><time>2026-04-30T11:17:29.999Z</time></trkpt><trkpt lat="40.91759350827262" lon="9.151696902748695"><ele>487.0</ele><time>2026-04-30T11:17:30.999Z</time></trkpt><trkpt lat="40.917546741689414" lon="9.1518290218462"><ele>488.0</ele><time>2026-04-30T11:17:31.999Z</time></trkpt><trkpt lat="40.9175115638585" lon="9.151955478465608"><ele>489.0</ele><time>2026-04-30T11:17:32.999Z</time></trkpt><trkpt lat="40.91748239225766" lon="9.152069894847028"><ele>490.0</ele><time>2026-04-30T11:17:33.999Z</time></trkpt><trkpt lat="40.91745142267058" lon="9.152177827216944"><ele>490.0</ele><time>2026-04-30T11:17:34.999Z</time></trkpt><trkpt lat="40.91742501534757" lon="9.152280570736796"><ele>490.0</ele><time>2026-04-30T11:17:35.999Z</time></trkpt><trkpt lat="40.91738542710526" lon="9.152373559385596"><ele>490.0</ele><time>2026-04-30T11:17:36.999Z</time></trkpt><trkpt lat="40.91733702602937" lon="9.152471690107195"><ele>490.0</ele><time>2026-04-30T11:17:37.999Z</time></trkpt><trkpt lat="40.91727122292933" lon="9.152577839947366"><ele>490.0</ele><time>2026-04-30T11:17:38.999Z</time></trkpt><trkpt lat="40.91719649431869" lon="9.152684941885628"><ele>487.5</ele><time>2026-04-30T11:17:39.999Z</time></trkpt><trkpt lat="40.91712179830572" lon="9.152803445932701"><ele>485.0</ele><time>2026-04-30T11:17:40.999Z</time></trkpt><trkpt lat="40.917036527448005" lon="9.152929669056517"><ele>482.5</ele><time>2026-04-30T11:17:41.999Z</time></trkpt><trkpt lat="40.9169397245314" lon="9.153045396166254"><ele>480.0</ele><time>2026-04-30T11:17:43Z</time></trkpt><trkpt lat="40.91685296700312" lon="9.153182479051496"><ele>481.25</ele><time>2026-04-30T11:17:44Z</time></trkpt><trkpt lat="40.91676881582452" lon="9.153322920716308"><ele>482.5</ele><time>2026-04-30T11:17:45Z</time></trkpt><trkpt lat="40.916699154124295" lon="9.153470028061776"><ele>483.75</ele><time>2026-04-30T11:17:46Z</time></trkpt><trkpt lat="40.91661610304164" lon="9.15360595699207"><ele>485.0</ele><time>2026-04-30T11:17:47Z</time></trkpt><trkpt lat="40.91655149900231" lon="9.153759059240704"><ele>485.0</ele><time>2026-04-30T11:17:48Z</time></trkpt><trkpt lat="40.916504431504606" lon="9.153910201361079"><ele>485.0</ele><time>2026-04-30T11:17:49Z</time></trkpt><trkpt lat="40.91646803430678" lon="9.15406805711703"><ele>485.0</ele><time>2026-04-30T11:17:50Z</time></trkpt><trkpt lat="40.91644641047723" lon="9.154240747057761"><ele>485.0</ele><time>2026-04-30T11:17:51Z</time></trkpt><trkpt lat="40.91642874324262" lon="9.15442600094207"><ele>483.75</ele><time>2026-04-30T11:17:52Z</time></trkpt><trkpt lat="40.91641540309924" lon="9.15460872763362"><ele>482.5</ele><time>2026-04-30T11:17:53Z</time></trkpt><trkpt lat="40.91640369411724" lon="9.154785953008775"><ele>481.25</ele><time>2026-04-30T11:17:54Z</time></trkpt><trkpt lat="40.9163967342301" lon="9.15494339390722"><ele>480.0</ele><time>2026-04-30T11:17:55Z</time></trkpt><trkpt lat="40.916381155524164" lon="9.155092929381833"><ele>480.0</ele><time>2026-04-30T11:17:56Z</time></trkpt><trkpt lat="40.91635062992594" lon="9.15523965319961"><ele>480.0</ele><time>2026-04-30T11:17:57Z</time></trkpt><trkpt lat="40.91629680580985" lon="9.155378084861221"><ele>480.0</ele><time>2026-04-30T11:17:58Z</time></trkpt><trkpt lat="40.91623316356841" lon="9.155502265494656"><ele>480.0</ele><time>2026-04-30T11:17:59Z</time></trkpt><trkpt lat="40.91615805515476" lon="9.155624967961392"><ele>480.0</ele><time>2026-04-30T11:18:00Z</time></trkpt><trkpt lat="40.91607863798775" lon="9.155734986637965"><ele>480.0</ele><time>2026-04-30T11:18:01Z</time></trkpt><trkpt lat="40.91600272170301" lon="9.155837465370103"><ele>480.0</ele><time>2026-04-30T11:18:02Z</time></trkpt><trkpt lat="40.915907495070066" lon="9.155925226265584"><ele>480.0</ele><time>2026-04-30T11:18:03Z</time></trkpt><trkpt lat="40.915793125423" lon="9.155989155714769"><ele>480.0</ele><time>2026-04-30T11:18:04Z</time></trkpt><trkpt lat="40.91565549070786" lon="9.156001744339173"><ele>480.0</ele><time>2026-04-30T11:18:05Z</time></trkpt><trkpt lat="40.915514340332" lon="9.156051255981463"><ele>480.0</ele><time>2026-04-30T11:18:06Z</time></trkpt><trkpt lat="40.915370015734325" lon="9.15607734971335"><ele>480.0</ele><time>2026-04-30T11:18:07Z</time></trkpt><trkpt lat="40.91523010330081" lon="9.156102558380466"><ele>480.0</ele><time>2026-04-30T11:18:08Z</time></trkpt><trkpt lat="40.91509961291998" lon="9.156134944044592"><ele>480.0</ele><time>2026-04-30T11:18:09Z</time></trkpt><trkpt lat="40.91497070150854" lon="9.156163193153512"><ele>480.0</ele><time>2026-04-30T11:18:10Z</time></trkpt><trkpt lat="40.914855179529845" lon="9.1562397586414"><ele>480.0</ele><time>2026-04-30T11:18:11Z</time></trkpt><trkpt lat="40.914755076280976" lon="9.156341650003233"><ele>479.75</ele><time>2026-04-30T11:18:12Z</time></trkpt><trkpt lat="40.91466024812557" lon="9.156455689122273"><ele>479.5</ele><time>2026-04-30T11:18:13Z</time></trkpt><trkpt lat="40.91457211840304" lon="9.156592634960369"><ele>479.25</ele><time>2026-04-30T11:18:14Z</time></trkpt><trkpt lat="40.914463837609375" lon="9.156717529368947"><ele>479.0</ele><time>2026-04-30T11:18:15Z</time></trkpt><trkpt lat="40.91435719525527" lon="9.156832768475102"><ele>476.0</ele><time>2026-04-30T11:18:16Z</time></trkpt><trkpt lat="40.91426103687074" lon="9.156951526273904"><ele>473.0</ele><time>2026-04-30T11:18:17.001Z</time></trkpt><trkpt lat="40.91418175345634" lon="9.15708245219646"><ele>470.0</ele><time>2026-04-30T11:18:18.001Z</time></trkpt><trkpt lat="40.91412616568963" lon="9.157239347884001"><ele>467.0</ele><time>2026-04-30T11:18:19.001Z</time></trkpt><trkpt lat="40.91409542171263" lon="9.157422970435254"><ele>464.3333333333333</ele><time>2026-04-30T11:18:20.001Z</time></trkpt><trkpt lat="40.914076748185245" lon="9.157628656713335"><ele>461.66666666666663</ele><time>2026-04-30T11:18:21.001Z</time></trkpt><trkpt lat="40.91404359563276" lon="9.15783561488608"><ele>459.0</ele><time>2026-04-30T11:18:22.001Z</time></trkpt><trkpt lat="40.914041508099125" lon="9.158032769562606"><ele>458.75</ele><time>2026-04-30T11:18:23.001Z</time></trkpt><trkpt lat="40.914010433881955" lon="9.158209522620457"><ele>458.5</ele><time>2026-04-30T11:18:24.001Z</time></trkpt><trkpt lat="40.91395577464372" lon="9.158366454855093"><ele>458.25</ele><time>2026-04-30T11:18:25.001Z</time></trkpt><trkpt lat="40.913872569182" lon="9.158510507459335"><ele>458.0</ele><time>2026-04-30T11:18:26.001Z</time></trkpt><trkpt lat="40.913774135016176" lon="9.158631892582019"><ele>458.0</ele><time>2026-04-30T11:18:27.001Z</time></trkpt><trkpt lat="40.913654406669416" lon="9.158711667930891"><ele>458.0</ele><time>2026-04-30T11:18:28.001Z</time></trkpt><trkpt lat="40.913523658749526" lon="9.158759222346305"><ele>458.0</ele><time>2026-04-30T11:18:29.001Z</time></trkpt><trkpt lat="40.9133969003118" lon="9.158825048089684"><ele>458.0</ele><time>2026-04-30T11:18:30.001Z</time></trkpt><trkpt lat="40.91329603748566" lon="9.1589210059706"><ele>458.0</ele><time>2026-04-30T11:18:31.001Z</time></trkpt><trkpt lat="40.91322236880404" lon="9.159037390003345"><ele>458.0</ele><time>2026-04-30T11:18:32.001Z</time></trkpt><trkpt lat="40.91317821400618" lon="9.1591761127707"><ele>458.0</ele><time>2026-04-30T11:18:33.001Z</time></trkpt><trkpt lat="40.9131558936059" lon="9.159335270216339"><ele>458.0</ele><time>2026-04-30T11:18:34.001Z</time></trkpt><trkpt lat="40.91316965060836" lon="9.159488070391829"><ele>458.0</ele><time>2026-04-30T11:18:35.001Z</time></trkpt><trkpt lat="40.913213071504735" lon="9.15963819259944"><ele>458.0</ele><time>2026-04-30T11:18:36.001Z</time></trkpt><trkpt lat="40.91327963258425" lon="9.159791464748109"><ele>458.0</ele><time>2026-04-30T11:18:37.001Z</time></trkpt><trkpt lat="40.91336536289991" lon="9.159939386484174"><ele>458.0</ele><time>2026-04-30T11:18:38.001Z</time></trkpt><trkpt lat="40.91343052553792" lon="9.160079762291215"><ele>458.5</ele><time>2026-04-30T11:18:39.001Z</time></trkpt><trkpt lat="40.91346489470859" lon="9.160224404737844"><ele>459.0</ele><time>2026-04-30T11:18:40.001Z</time></trkpt><trkpt lat="40.913462952191026" lon="9.160393699961066"><ele>459.5</ele><time>2026-04-30T11:18:41.001Z</time></trkpt><trkpt lat="40.91342762376462" lon="9.160569175405543"><ele>460.0</ele><time>2026-04-30T11:18:42.001Z</time></trkpt><trkpt lat="40.91336487089685" lon="9.16075247495451"><ele>460.0</ele><time>2026-04-30T11:18:43.001Z</time></trkpt><trkpt lat="40.913293049890235" lon="9.160931546305706"><ele>460.0</ele><time>2026-04-30T11:18:44.001Z</time></trkpt><trkpt lat="40.91318514124545" lon="9.161102766186294"><ele>460.0</ele><time>2026-04-30T11:18:45.001Z</time></trkpt><trkpt lat="40.913062753431305" lon="9.16126657843887"><ele>460.0</ele><time>2026-04-30T11:18:46.001Z</time></trkpt><trkpt lat="40.91293754068257" lon="9.161406247071941"><ele>460.0</ele><time>2026-04-30T11:18:47.001Z</time></trkpt><trkpt lat="40.912825274491865" lon="9.161552116419989"><ele>460.0</ele><time>2026-04-30T11:18:48.001Z</time></trkpt><trkpt lat="40.9127338112085" lon="9.161670955931184"><ele>460.0</ele><time>2026-04-30T11:18:49.001Z</time></trkpt><trkpt lat="40.9126428506841" lon="9.16178201023275"><ele>457.75</ele><time>2026-04-30T11:18:50.001Z</time></trkpt><trkpt lat="40.91255143467268" lon="9.161880667380267"><ele>455.5</ele><time>2026-04-30T11:18:51.001Z</time></trkpt><trkpt lat="40.912455904600016" lon="9.161966983108018"><ele>453.25</ele><time>2026-04-30T11:18:52.001Z</time></trkpt><trkpt lat="40.91234504587003" lon="9.16199915322285"><ele>451.0</ele><time>2026-04-30T11:18:53.001Z</time></trkpt><trkpt lat="40.912235815430854" lon="9.162018293488533"><ele>451.00000000000006</ele><time>2026-04-30T11:18:54.001Z</time></trkpt><trkpt lat="40.912134024814314" lon="9.162042574538813"><ele>451.0</ele><time>2026-04-30T11:18:55.001Z</time></trkpt><trkpt lat="40.912040777095804" lon="9.162081007930338"><ele>451.0</ele><time>2026-04-30T11:18:56.001Z</time></trkpt><trkpt lat="40.91196355415835" lon="9.162136046814775"><ele>451.0</ele><time>2026-04-30T11:18:57.001Z</time></trkpt><trkpt lat="40.91190469864041" lon="9.162198721457788"><ele>451.00000000000006</ele><time>2026-04-30T11:18:58.001Z</time></trkpt><trkpt lat="40.91185774473106" lon="9.162255638895322"><ele>451.0</ele><time>2026-04-30T11:18:59.001Z</time></trkpt><trkpt lat="40.911789575758505" lon="9.162352398381794"><ele>450.20000000000005</ele><time>2026-04-30T11:19:01.001Z</time></trkpt><trkpt lat="40.91174079212467" lon="9.162419601755241"><ele>449.40000000000003</ele><time>2026-04-30T11:19:55Z</time></trkpt><trkpt lat="40.91175503825886" lon="9.162537729577224"><ele>448.6</ele><time>2026-04-30T11:20:01.001Z</time></trkpt><trkpt lat="40.91172142049103" lon="9.16268184427784"><ele>447.8</ele><time>2026-04-30T11:20:03.001Z</time></trkpt><trkpt lat="40.91172375030264" lon="9.162829460402909"><ele>447.0</ele><time>2026-04-30T11:20:05.001Z</time></trkpt><trkpt lat="40.911703475995644" lon="9.162992379693302"><ele>446.40000000000003</ele><time>2026-04-30T11:20:07.001Z</time></trkpt><trkpt lat="40.911706953472155" lon="9.163140089216457"><ele>445.80000000000007</ele><time>2026-04-30T11:20:09.001Z</time></trkpt><trkpt lat="40.911696212485936" lon="9.163279457203515"><ele>445.2</ele><time>2026-04-30T11:20:11.001Z</time></trkpt><trkpt lat="40.911641323850816" lon="9.163419380423193"><ele>444.6</ele><time>2026-04-30T11:20:13.001Z</time></trkpt><trkpt lat="40.91160243742286" lon="9.163514365179129"><ele>444.0</ele><time>2026-04-30T11:20:14.001Z</time></trkpt><trkpt lat="40.911566654639486" lon="9.163610659719124"><ele>443.8333333333333</ele><time>2026-04-30T11:20:15.001Z</time></trkpt><trkpt lat="40.91153766236992" lon="9.163714388853395"><ele>443.66666666666663</ele><time>2026-04-30T11:20:16.001Z</time></trkpt><trkpt lat="40.911511757052764" lon="9.163811331993326"><ele>443.5</ele><time>2026-04-30T11:20:17.001Z</time></trkpt><trkpt lat="40.91148537317328" lon="9.163906595248896"><ele>443.3333333333333</ele><time>2026-04-30T11:20:18.001Z</time></trkpt><trkpt lat="40.91146063912594" lon="9.163988718848913"><ele>443.16666666666663</ele><time>2026-04-30T11:20:19.001Z</time></trkpt><trkpt lat="40.9114107349083" lon="9.164129195431302"><ele>443.0</ele><time>2026-04-30T11:20:21.001Z</time></trkpt><trkpt lat="40.91134435256215" lon="9.164256612431364"><ele>443.0</ele><time>2026-04-30T11:20:23.001Z</time></trkpt><trkpt lat="40.911314673804235" lon="9.164331474445405"><ele>443.0</ele><time>2026-04-30T11:20:24.001Z</time></trkpt><trkpt lat="40.91127810959237" lon="9.164423706824815"><ele>443.0</ele><time>2026-04-30T11:20:25.001Z</time></trkpt><trkpt lat="40.91124261437581" lon="9.164500402082265"><ele>443.0</ele><time>2026-04-30T11:20:26.001Z</time></trkpt><trkpt lat="40.911218931558224" lon="9.164593741448027"><ele>443.0</ele><time>2026-04-30T11:20:27.001Z</time></trkpt><trkpt lat="40.91117862753576" lon="9.164678166612529"><ele>443.0</ele><time>2026-04-30T11:20:28.001Z</time></trkpt><trkpt lat="40.91113809772286" lon="9.164760919272018"><ele>443.0</ele><time>2026-04-30T11:20:29.001Z</time></trkpt><trkpt lat="40.9110968140833" lon="9.164843583411912"><ele>442.42857142857144</ele><time>2026-04-30T11:20:30.001Z</time></trkpt><trkpt lat="40.91106014494421" lon="9.164923383288464"><ele>441.8571428571429</ele><time>2026-04-30T11:20:31.001Z</time></trkpt><trkpt lat="40.911021904545215" lon="9.165015899179252"><ele>441.2857142857143</ele><time>2026-04-30T11:20:32.001Z</time></trkpt><trkpt lat="40.911000421538304" lon="9.16511116290921"><ele>440.7142857142857</ele><time>2026-04-30T11:20:33.001Z</time></trkpt><trkpt lat="40.911002227749385" lon="9.165202902194416"><ele>440.1428571428571</ele><time>2026-04-30T11:20:34.001Z</time></trkpt><trkpt lat="40.91099342282025" lon="9.165302530400844"><ele>439.57142857142856</ele><time>2026-04-30T11:20:35.001Z</time></trkpt><trkpt lat="40.91096913567469" lon="9.165392905468506"><ele>439.0</ele><time>2026-04-30T11:20:36.001Z</time></trkpt><trkpt lat="40.910963056699806" lon="9.165476326935616"><ele>439.0</ele><time>2026-04-30T11:20:37.001Z</time></trkpt><trkpt lat="40.91091873773323" lon="9.165635999457027"><ele>439.0</ele><time>2026-04-30T11:20:39.001Z</time></trkpt><trkpt lat="40.91089429459216" lon="9.165738532055977"><ele>439.0</ele><time>2026-04-30T11:20:40.001Z</time></trkpt><trkpt lat="40.910847356215896" lon="9.165835912499057"><ele>439.0</ele><time>2026-04-30T11:20:41.001Z</time></trkpt><trkpt lat="40.910803536721346" lon="9.165938731755164"><ele>439.0</ele><time>2026-04-30T11:20:42.001Z</time></trkpt><trkpt lat="40.910747357818984" lon="9.166043207133146"><ele>438.6666666666667</ele><time>2026-04-30T11:20:43.001Z</time></trkpt><trkpt lat="40.91070304012626" lon="9.166156022556331"><ele>438.33333333333337</ele><time>2026-04-30T11:20:44.001Z</time></trkpt><trkpt lat="40.910664769808086" lon="9.166258896261896"><ele>438.0</ele><time>2026-04-30T11:20:45.001Z</time></trkpt><trkpt lat="40.910625508554396" lon="9.166364937325955"><ele>437.66666666666663</ele><time>2026-04-30T11:20:46.001Z</time></trkpt><trkpt lat="40.91059139105678" lon="9.16646368489801"><ele>437.3333333333333</ele><time>2026-04-30T11:20:47.001Z</time></trkpt><trkpt lat="40.91055780679352" lon="9.166557802103528"><ele>437.0</ele><time>2026-04-30T11:20:48.001Z</time></trkpt><trkpt lat="40.91050560305986" lon="9.166637444159717"><ele>436.85714285714283</ele><time>2026-04-30T11:20:49.001Z</time></trkpt><trkpt lat="40.91047882673002" lon="9.166734822304123"><ele>436.7142857142857</ele><time>2026-04-30T11:20:50.001Z</time></trkpt><trkpt lat="40.9104406324996" lon="9.166820410468778"><ele>436.57142857142856</ele><time>2026-04-30T11:20:51.001Z</time></trkpt><trkpt lat="40.910397721214444" lon="9.166904047082726"><ele>436.42857142857144</ele><time>2026-04-30T11:20:52.002Z</time></trkpt><trkpt lat="40.910358411893284" lon="9.166984707437058"><ele>436.28571428571433</ele><time>2026-04-30T11:20:53.002Z</time></trkpt><trkpt lat="40.91030427790408" lon="9.16704799270114"><ele>436.14285714285717</ele><time>2026-04-30T11:20:54.002Z</time></trkpt><trkpt lat="40.910268565157445" lon="9.167133509647535"><ele>436.0</ele><time>2026-04-30T11:20:55.002Z</time></trkpt><trkpt lat="40.910212559968926" lon="9.167197561959917"><ele>436.00000000000006</ele><time>2026-04-30T11:20:56.002Z</time></trkpt><trkpt lat="40.910152646084065" lon="9.167252897435555"><ele>436.0</ele><time>2026-04-30T11:20:57.002Z</time></trkpt><trkpt lat="40.91009834438043" lon="9.167296607524525"><ele>436.0</ele><time>2026-04-30T11:20:58.002Z</time></trkpt><trkpt lat="40.909979604684544" lon="9.167333346575226"><ele>436.0</ele><time>2026-04-30T11:21:00.002Z</time></trkpt><trkpt lat="40.90991420749152" lon="9.167334078467904"><ele>436.00000000000006</ele><time>2026-04-30T11:21:01.002Z</time></trkpt><trkpt lat="40.909851304105615" lon="9.167318933400608"><ele>436.0</ele><time>2026-04-30T11:21:02.002Z</time></trkpt><trkpt lat="40.90973877039157" lon="9.167251941477963"><ele>436.20000000000005</ele><time>2026-04-30T11:21:04.002Z</time></trkpt><trkpt lat="40.90969176628592" lon="9.167184006941707"><ele>436.40000000000003</ele><time>2026-04-30T11:21:05.002Z</time></trkpt><trkpt lat="40.90962829963161" lon="9.167123800026522"><ele>436.6</ele><time>2026-04-30T11:21:06.002Z</time></trkpt><trkpt lat="40.909543905620076" lon="9.167066829685362"><ele>436.8</ele><time>2026-04-30T11:21:07.002Z</time></trkpt><trkpt lat="40.90946290747613" lon="9.166970281297429"><ele>437.0</ele><time>2026-04-30T11:21:08.002Z</time></trkpt><trkpt lat="40.90938279314282" lon="9.166883359742965"><ele>436.99999999999994</ele><time>2026-04-30T11:21:09.002Z</time></trkpt><trkpt lat="40.90930615170886" lon="9.166805616549418"><ele>437.0</ele><time>2026-04-30T11:21:10.002Z</time></trkpt><trkpt lat="40.90923982617402" lon="9.166728100923498"><ele>437.0</ele><time>2026-04-30T11:21:11.002Z</time></trkpt><trkpt lat="40.90917486656015" lon="9.166663679910092"><ele>437.0</ele><time>2026-04-30T11:21:12.002Z</time></trkpt><trkpt lat="40.909125913674515" lon="9.166601243602052"><ele>436.99999999999994</ele><time>2026-04-30T11:21:13.002Z</time></trkpt><trkpt lat="40.90906986126227" lon="9.166542593812082"><ele>437.0</ele><time>2026-04-30T11:21:14.002Z</time></trkpt><trkpt lat="40.90897541244575" lon="9.166456229985359"><ele>436.8333333333333</ele><time>2026-04-30T11:21:16.002Z</time></trkpt><trkpt lat="40.90888846253324" lon="9.166422023584468"><ele>436.66666666666663</ele><time>2026-04-30T11:21:18.002Z</time></trkpt><trkpt lat="40.90880790374253" lon="9.166534316423567"><ele>436.5</ele><time>2026-04-30T11:21:20.002Z</time></trkpt><trkpt lat="40.90880738683339" lon="9.166634786662494"><ele>436.33333333333337</ele><time>2026-04-30T11:21:21.002Z</time></trkpt><trkpt lat="40.90879724254726" lon="9.166736047991582"><ele>436.1666666666667</ele><time>2026-04-30T11:21:22.002Z</time></trkpt><trkpt lat="40.90877282790648" lon="9.166839473490963"><ele>436.0</ele><time>2026-04-30T11:21:23.002Z</time></trkpt><trkpt lat="40.9087368130811" lon="9.167035346534513"><ele>436.0</ele><time>2026-04-30T11:21:25.002Z</time></trkpt><trkpt lat="40.90870363007866" lon="9.167139905461363"><ele>436.0</ele><time>2026-04-30T11:21:26.002Z</time></trkpt><trkpt lat="40.908664215868335" lon="9.167247720259848"><ele>436.0</ele><time>2026-04-30T11:21:27.002Z</time></trkpt><trkpt lat="40.908612272856125" lon="9.167364058189232"><ele>436.0</ele><time>2026-04-30T11:21:28.002Z</time></trkpt><trkpt lat="40.908556537193" lon="9.167481312886785"><ele>436.0</ele><time>2026-04-30T11:21:29.002Z</time></trkpt><trkpt lat="40.90849978525681" lon="9.167598490687004"><ele>436.0</ele><time>2026-04-30T11:21:30.002Z</time></trkpt><trkpt lat="40.90844527337199" lon="9.16771104342442"><ele>436.0</ele><time>2026-04-30T11:21:31.002Z</time></trkpt><trkpt lat="40.90840231733398" lon="9.16783025167529"><ele>436.0</ele><time>2026-04-30T11:21:32.002Z</time></trkpt><trkpt lat="40.908357881186376" lon="9.167934672711246"><ele>436.0</ele><time>2026-04-30T11:21:33.002Z</time></trkpt><trkpt lat="40.90831973284121" lon="9.16803405481391"><ele>436.0</ele><time>2026-04-30T11:21:34.002Z</time></trkpt><trkpt lat="40.90828434121163" lon="9.168135923162618"><ele>436.6666666666667</ele><time>2026-04-30T11:21:35.002Z</time></trkpt><trkpt lat="40.90825018692803" lon="9.168232092658258"><ele>437.33333333333337</ele><time>2026-04-30T11:21:36.002Z</time></trkpt><trkpt lat="40.90821878357953" lon="9.16831486803275"><ele>438.0</ele><time>2026-04-30T11:21:37.002Z</time></trkpt><trkpt lat="40.908187419527486" lon="9.168404166335236"><ele>438.66666666666663</ele><time>2026-04-30T11:21:38.002Z</time></trkpt><trkpt lat="40.90814622392857" lon="9.16853307140252"><ele>439.3333333333333</ele><time>2026-04-30T11:21:40.001Z</time></trkpt><trkpt lat="40.90815806618554" lon="9.16862562791871"><ele>440.0</ele><time>2026-04-30T11:21:42.001Z</time></trkpt><trkpt lat="40.90820924184759" lon="9.168695785633451"><ele>439.99999999999994</ele><time>2026-04-30T11:21:45.001Z</time></trkpt><trkpt lat="40.9082571129077" lon="9.168758325640587"><ele>440.0</ele><time>2026-04-30T11:21:48.001Z</time></trkpt><trkpt lat="40.908313323725636" lon="9.168841483495875"><ele>440.0</ele><time>2026-04-30T11:21:51.001Z</time></trkpt><trkpt lat="40.908400715668975" lon="9.168859139959315"><ele>440.0</ele><time>2026-04-30T11:22:01.001Z</time></trkpt><trkpt lat="40.90849235832327" lon="9.168826125428689"><ele>439.99999999999994</ele><time>2026-04-30T11:22:03.001Z</time></trkpt><trkpt lat="40.908586566525386" lon="9.168824174746584"><ele>440.0</ele><time>2026-04-30T11:22:05.001Z</time></trkpt><trkpt lat="40.90865468164241" lon="9.168794269580582"><ele>439.66666666666663</ele><time>2026-04-30T11:22:06.001Z</time></trkpt><trkpt lat="40.90874410507137" lon="9.168818597297943"><ele>439.3333333333333</ele><time>2026-04-30T11:22:08.001Z</time></trkpt><trkpt lat="40.908812205287866" lon="9.168881300622155"><ele>439.0</ele><time>2026-04-30T11:22:10.001Z</time></trkpt><trkpt lat="40.90888249967741" lon="9.169005784783856"><ele>438.66666666666663</ele><time>2026-04-30T11:22:12.001Z</time></trkpt><trkpt lat="40.90892240021717" lon="9.169086270707696"><ele>438.3333333333333</ele><time>2026-04-30T11:22:13.001Z</time></trkpt><trkpt lat="40.908958314715896" lon="9.169164213837886"><ele>438.0</ele><time>2026-04-30T11:22:14.001Z</time></trkpt><trkpt lat="40.9089957339105" lon="9.169241264293937"><ele>438.0</ele><time>2026-04-30T11:22:15.001Z</time></trkpt><trkpt lat="40.909064508013394" lon="9.169370484081965"><ele>437.99999999999994</ele><time>2026-04-30T11:22:17.001Z</time></trkpt><trkpt lat="40.909135877139065" lon="9.169492507369343"><ele>437.99999999999994</ele><time>2026-04-30T11:22:19.001Z</time></trkpt><trkpt lat="40.909183033247515" lon="9.169564111913079"><ele>438.0</ele><time>2026-04-30T11:22:20.001Z</time></trkpt><trkpt lat="40.90922802302855" lon="9.169625408687116"><ele>438.0</ele><time>2026-04-30T11:22:21.001Z</time></trkpt><trkpt lat="40.90930905614935" lon="9.169730959331003"><ele>437.79999999999995</ele><time>2026-04-30T11:22:23.001Z</time></trkpt><trkpt lat="40.90938984935471" lon="9.169823090048684"><ele>437.59999999999997</ele><time>2026-04-30T11:22:25.001Z</time></trkpt><trkpt lat="40.90948947161225" lon="9.169931547700681"><ele>437.40000000000003</ele><time>2026-04-30T11:22:27.001Z</time></trkpt><trkpt lat="40.909563167465166" lon="9.170011147202942"><ele>437.20000000000005</ele><time>2026-04-30T11:22:28.001Z</time></trkpt><trkpt lat="40.90964244667732" lon="9.170102502346438"><ele>437.0</ele><time>2026-04-30T11:22:29.001Z</time></trkpt><trkpt lat="40.909717728258194" lon="9.17017847365305"><ele>436.99999999999994</ele><time>2026-04-30T11:22:30.001Z</time></trkpt><trkpt lat="40.909771901727865" lon="9.170234869063373"><ele>437.0</ele><time>2026-04-30T11:22:31.001Z</time></trkpt><trkpt lat="40.90985728440071" lon="9.170320823262559"><ele>437.0</ele><time>2026-04-30T11:22:33.001Z</time></trkpt><trkpt lat="40.90994563138618" lon="9.170397222181021"><ele>437.0</ele><time>2026-04-30T11:22:35.001Z</time></trkpt><trkpt lat="40.91000409546052" lon="9.170470159406966"><ele>436.99999999999994</ele><time>2026-04-30T11:22:37.001Z</time></trkpt><trkpt lat="40.91003302696097" lon="9.170571228755795"><ele>437.0</ele><time>2026-04-30T11:22:39.001Z</time></trkpt><trkpt lat="40.9100470917201" lon="9.170705299905267"><ele>438.6</ele><time>2026-04-30T11:22:41.001Z</time></trkpt><trkpt lat="40.91008897505563" lon="9.170807361191459"><ele>440.20000000000005</ele><time>2026-04-30T11:22:43.001Z</time></trkpt><trkpt lat="40.91017910033123" lon="9.170915007928569"><ele>441.8</ele><time>2026-04-30T11:22:45.001Z</time></trkpt><trkpt lat="40.910228041262556" lon="9.170974886035522"><ele>443.4</ele><time>2026-04-30T11:22:46.001Z</time></trkpt><trkpt lat="40.91027744071626" lon="9.17102931919879"><ele>445.0</ele><time>2026-04-30T11:22:47.001Z</time></trkpt><trkpt lat="40.910368452856176" lon="9.17115070299173"><ele>445.00000000000006</ele><time>2026-04-30T11:22:49.002Z</time></trkpt><trkpt lat="40.91040647514177" lon="9.17122035370183"><ele>445.0</ele><time>2026-04-30T11:22:50.002Z</time></trkpt><trkpt lat="40.910447802757304" lon="9.171292032546955"><ele>445.0</ele><time>2026-04-30T11:22:51.002Z</time></trkpt><trkpt lat="40.91048663010614" lon="9.171359730796615"><ele>445.0</ele><time>2026-04-30T11:22:52.002Z</time></trkpt><trkpt lat="40.91055984635158" lon="9.171487162879483"><ele>445.00000000000006</ele><time>2026-04-30T11:22:54.002Z</time></trkpt><trkpt lat="40.91060634016142" lon="9.171546519385691"><ele>445.0</ele><time>2026-04-30T11:22:55.002Z</time></trkpt><trkpt lat="40.91070253285361" lon="9.171629996430568"><ele>445.8571428571429</ele><time>2026-04-30T11:22:57.002Z</time></trkpt><trkpt lat="40.91075652771707" lon="9.171672832235986"><ele>446.71428571428567</ele><time>2026-04-30T11:22:58.002Z</time></trkpt><trkpt lat="40.910831958312365" lon="9.171735945867075"><ele>447.57142857142856</ele><time>2026-04-30T11:23:00.002Z</time></trkpt><trkpt lat="40.910870722004496" lon="9.171804755701652"><ele>448.42857142857144</ele><time>2026-04-30T11:23:35.002Z</time></trkpt><trkpt lat="40.91091482890969" lon="9.171900597167761"><ele>449.28571428571433</ele><time>2026-04-30T11:23:40.002Z</time></trkpt><trkpt lat="40.910905491233" lon="9.171992438850522"><ele>450.1428571428571</ele><time>2026-04-30T11:23:42.002Z</time></trkpt><trkpt lat="40.91091569584693" lon="9.172089802134517"><ele>451.0</ele><time>2026-04-30T11:23:44.002Z</time></trkpt><trkpt lat="40.91093961912481" lon="9.172216297798752"><ele>452.4</ele><time>2026-04-30T11:23:46.001Z</time></trkpt><trkpt lat="40.91098462858163" lon="9.172326337230063"><ele>453.8</ele><time>2026-04-30T11:23:48.001Z</time></trkpt><trkpt lat="40.91103193492336" lon="9.172430409508625"><ele>455.19999999999993</ele><time>2026-04-30T11:23:50.001Z</time></trkpt><trkpt lat="40.91109149754755" lon="9.172534827790946"><ele>456.59999999999997</ele><time>2026-04-30T11:23:52.001Z</time></trkpt><trkpt lat="40.91117389951664" lon="9.17265445801794"><ele>458.0</ele><time>2026-04-30T11:23:54.001Z</time></trkpt><trkpt lat="40.91120878840962" lon="9.17278805410474"><ele>459.59999999999997</ele><time>2026-04-30T11:23:56.001Z</time></trkpt><trkpt lat="40.911263609416714" lon="9.172890169132145"><ele>461.19999999999993</ele><time>2026-04-30T11:23:58.001Z</time></trkpt><trkpt lat="40.91131643497957" lon="9.173033810530464"><ele>462.8</ele><time>2026-04-30T11:24:00.001Z</time></trkpt><trkpt lat="40.911379610564275" lon="9.17318003326421"><ele>464.4</ele><time>2026-04-30T11:24:02.001Z</time></trkpt><trkpt lat="40.91143265467412" lon="9.173235628861475"><ele>466.0</ele><time>2026-04-30T11:24:03.001Z</time></trkpt><trkpt lat="40.91149436138884" lon="9.173345918553272"><ele>466.4</ele><time>2026-04-30T11:24:05.001Z</time></trkpt><trkpt lat="40.911569820053025" lon="9.173443285022588"><ele>466.8</ele><time>2026-04-30T11:24:07.001Z</time></trkpt><trkpt lat="40.91167167334348" lon="9.17351442682609"><ele>467.19999999999993</ele><time>2026-04-30T11:24:09.001Z</time></trkpt><trkpt lat="40.9117937112559" lon="9.173540448443052"><ele>467.59999999999997</ele><time>2026-04-30T11:24:11.001Z</time></trkpt><trkpt lat="40.91185338252877" lon="9.17357222498792"><ele>468.0</ele><time>2026-04-30T11:24:12.001Z</time></trkpt><trkpt lat="40.91194026423983" lon="9.173658288462814"><ele>470.2</ele><time>2026-04-30T11:24:14.001Z</time></trkpt><trkpt lat="40.911992654830826" lon="9.173756938417924"><ele>472.4</ele><time>2026-04-30T11:24:16.001Z</time></trkpt><trkpt lat="40.912044270688874" lon="9.17387505518303"><ele>474.59999999999997</ele><time>2026-04-30T11:24:18.001Z</time></trkpt><trkpt lat="40.9121117279605" lon="9.173981923583895"><ele>476.79999999999995</ele><time>2026-04-30T11:24:20.001Z</time></trkpt><trkpt lat="40.91217619348336" lon="9.174107907630674"><ele>479.0</ele><time>2026-04-30T11:24:22.001Z</time></trkpt><trkpt lat="40.91223919413171" lon="9.174240212779084"><ele>479.0</ele><time>2026-04-30T11:24:24.001Z</time></trkpt><trkpt lat="40.91230329753172" lon="9.174361210128707"><ele>479.0</ele><time>2026-04-30T11:24:26.001Z</time></trkpt><trkpt lat="40.91236810959772" lon="9.17445793195942"><ele>479.0</ele><time>2026-04-30T11:24:28.001Z</time></trkpt><trkpt lat="40.91246904916544" lon="9.174512975757926"><ele>479.0</ele><time>2026-04-30T11:24:30.001Z</time></trkpt><trkpt lat="40.912534672963666" lon="9.174544198611981"><ele>479.0</ele><time>2026-04-30T11:24:31.001Z</time></trkpt><trkpt lat="40.91259943677529" lon="9.174576219806722"><ele>478.99999999999994</ele><time>2026-04-30T11:24:32.001Z</time></trkpt><trkpt lat="40.91266199942363" lon="9.174614328651515"><ele>479.0</ele><time>2026-04-30T11:24:33.001Z</time></trkpt><trkpt lat="40.91271879898081" lon="9.174655351628891"><ele>479.0</ele><time>2026-04-30T11:24:34.001Z</time></trkpt><trkpt lat="40.91276903537189" lon="9.174722596051438"><ele>479.0</ele><time>2026-04-30T11:24:35.001Z</time></trkpt><trkpt lat="40.91282873496125" lon="9.174753081853861"><ele>478.99999999999994</ele><time>2026-04-30T11:24:36.001Z</time></trkpt><trkpt lat="40.912922712571266" lon="9.174836316146541"><ele>479.0</ele><time>2026-04-30T11:24:38.001Z</time></trkpt><trkpt lat="40.91300622446696" lon="9.174893667341626"><ele>479.79999999999995</ele><time>2026-04-30T11:24:40.001Z</time></trkpt><trkpt lat="40.913120182146166" lon="9.174920996607241"><ele>480.59999999999997</ele><time>2026-04-30T11:24:42.001Z</time></trkpt><trkpt lat="40.9131964707511" lon="9.174953808445537"><ele>481.4</ele><time>2026-04-30T11:25:12.002Z</time></trkpt><trkpt lat="40.91323856953661" lon="9.175082979109014"><ele>482.2</ele><time>2026-04-30T11:25:14.002Z</time></trkpt><trkpt lat="40.91329614797477" lon="9.175203789475075"><ele>483.0</ele><time>2026-04-30T11:25:16.002Z</time></trkpt><trkpt lat="40.91334860802822" lon="9.175312936074652"><ele>483.0</ele><time>2026-04-30T11:25:18.002Z</time></trkpt><trkpt lat="40.91338262680977" lon="9.175383714382669"><ele>482.99999999999994</ele><time>2026-04-30T11:25:19.002Z</time></trkpt><trkpt lat="40.91342075287779" lon="9.1754601542141"><ele>482.99999999999994</ele><time>2026-04-30T11:25:20.002Z</time></trkpt><trkpt lat="40.913496555705194" lon="9.175598591537181"><ele>483.0</ele><time>2026-04-30T11:25:22.002Z</time></trkpt><trkpt lat="40.91352689359303" lon="9.17575347850532"><ele>483.0</ele><time>2026-04-30T11:25:24.002Z</time></trkpt><trkpt lat="40.91355556758633" lon="9.175900352365122"><ele>483.79999999999995</ele><time>2026-04-30T11:25:26.002Z</time></trkpt><trkpt lat="40.91357984314304" lon="9.176047450746799"><ele>484.59999999999997</ele><time>2026-04-30T11:25:28.002Z</time></trkpt><trkpt lat="40.913609995854436" lon="9.176172266942974"><ele>485.40000000000003</ele><time>2026-04-30T11:25:30.002Z</time></trkpt><trkpt lat="40.91364132755188" lon="9.17630552169103"><ele>486.20000000000005</ele><time>2026-04-30T11:25:32.002Z</time></trkpt><trkpt lat="40.913692294087596" lon="9.176442260083984"><ele>487.0</ele><time>2026-04-30T11:25:34.002Z</time></trkpt><trkpt lat="40.913732621846066" lon="9.176585933772627"><ele>488.0</ele><time>2026-04-30T11:25:36.002Z</time></trkpt><trkpt lat="40.91380716152626" lon="9.17672407246588"><ele>489.00000000000006</ele><time>2026-04-30T11:25:38.002Z</time></trkpt><trkpt lat="40.91385761944047" lon="9.176851739510242"><ele>490.00000000000006</ele><time>2026-04-30T11:25:40.002Z</time></trkpt><trkpt lat="40.91390842175572" lon="9.176932105183615"><ele>491.0</ele><time>2026-04-30T11:25:42.002Z</time></trkpt><trkpt lat="40.9138755703189" lon="9.177014387407441"><ele>492.0</ele><time>2026-04-30T11:25:45.002Z</time></trkpt><trkpt lat="40.91385198571405" lon="9.177108935332281"><ele>492.0</ele><time>2026-04-30T11:25:54.001Z</time></trkpt><trkpt lat="40.91381853517716" lon="9.177196271779177"><ele>492.0</ele><time>2026-04-30T11:25:56.001Z</time></trkpt><trkpt lat="40.91378263055915" lon="9.17727113866179"><ele>492.0</ele><time>2026-04-30T11:25:58.001Z</time></trkpt><trkpt lat="40.91374245152431" lon="9.177352988357221"><ele>492.0</ele><time>2026-04-30T11:26:02Z</time></trkpt><trkpt lat="40.91373443348821" lon="9.177471800315173"><ele>492.0</ele><time>2026-04-30T11:26:18.001Z</time></trkpt><trkpt lat="40.91372442406491" lon="9.177573971681372"><ele>492.0</ele><time>2026-04-30T11:26:20.001Z</time></trkpt><trkpt lat="40.91372817699248" lon="9.17771810617503"><ele>493.1666666666667</ele><time>2026-04-30T11:26:22.001Z</time></trkpt><trkpt lat="40.91374285675756" lon="9.177846194927051"><ele>494.33333333333337</ele><time>2026-04-30T11:26:24.001Z</time></trkpt><trkpt lat="40.91375845808595" lon="9.177939013449272"><ele>495.5</ele><time>2026-04-30T11:26:25.001Z</time></trkpt><trkpt lat="40.91377691392393" lon="9.178046043727086"><ele>496.6666666666667</ele><time>2026-04-30T11:26:26.001Z</time></trkpt><trkpt lat="40.9137972207677" lon="9.178134335833496"><ele>497.83333333333337</ele><time>2026-04-30T11:26:27.001Z</time></trkpt><trkpt lat="40.91381257679626" lon="9.178285799056239"><ele>499.0</ele><time>2026-04-30T11:26:29.001Z</time></trkpt><trkpt lat="40.91383549546012" lon="9.178428822018375"><ele>499.2</ele><time>2026-04-30T11:26:31.001Z</time></trkpt><trkpt lat="40.913843929730945" lon="9.178548232801111"><ele>499.4</ele><time>2026-04-30T11:26:33.001Z</time></trkpt><trkpt lat="40.91386876581927" lon="9.178659539192093"><ele>499.6</ele><time>2026-04-30T11:26:35.001Z</time></trkpt><trkpt lat="40.9138782398329" lon="9.17878763915065"><ele>499.8</ele><time>2026-04-30T11:26:37.001Z</time></trkpt><trkpt lat="40.91390114034632" lon="9.178916707368"><ele>500.0</ele><time>2026-04-30T11:26:39.001Z</time></trkpt><trkpt lat="40.913982737941126" lon="9.179037842762396"><ele>499.71428571428567</ele><time>2026-04-30T11:26:41.001Z</time></trkpt><trkpt lat="40.914041078663715" lon="9.179098451707052"><ele>499.42857142857144</ele><time>2026-04-30T11:26:42.001Z</time></trkpt><trkpt lat="40.9140948246985" lon="9.17915359282231"><ele>499.1428571428571</ele><time>2026-04-30T11:26:43.001Z</time></trkpt><trkpt lat="40.914151669036194" lon="9.179206770227998"><ele>498.85714285714283</ele><time>2026-04-30T11:26:44.001Z</time></trkpt><trkpt lat="40.91420842269953" lon="9.179261335088043"><ele>498.57142857142856</ele><time>2026-04-30T11:26:45.001Z</time></trkpt><trkpt lat="40.91425460959297" lon="9.179322021353673"><ele>498.2857142857143</ele><time>2026-04-30T11:26:46.001Z</time></trkpt><trkpt lat="40.91433763789415" lon="9.179391088986876"><ele>498.0</ele><time>2026-04-30T11:26:48.001Z</time></trkpt><trkpt lat="40.914402631224384" lon="9.17946173413942"><ele>497.79999999999995</ele><time>2026-04-30T11:26:50.001Z</time></trkpt><trkpt lat="40.91446730809099" lon="9.179546405433044"><ele>497.59999999999997</ele><time>2026-04-30T11:26:52.001Z</time></trkpt><trkpt lat="40.9145651731397" lon="9.17961570869672"><ele>497.40000000000003</ele><time>2026-04-30T11:26:54.001Z</time></trkpt><trkpt lat="40.914671785656786" lon="9.179676172817304"><ele>497.20000000000005</ele><time>2026-04-30T11:26:56.001Z</time></trkpt><trkpt lat="40.91473812806472" lon="9.179712415366206"><ele>497.0</ele><time>2026-04-30T11:26:57.001Z</time></trkpt><trkpt lat="40.914801101084144" lon="9.179759842715136"><ele>496.99999999999994</ele><time>2026-04-30T11:26:58.001Z</time></trkpt><trkpt lat="40.914861867137795" lon="9.179792236301488"><ele>497.0</ele><time>2026-04-30T11:26:59.001Z</time></trkpt><trkpt lat="40.914965635252976" lon="9.17985622103233"><ele>497.0</ele><time>2026-04-30T11:27:01.001Z</time></trkpt><trkpt lat="40.915069584541286" lon="9.179946684475219"><ele>497.0</ele><time>2026-04-30T11:27:03.001Z</time></trkpt><trkpt lat="40.91512556734658" lon="9.180003671033768"><ele>496.99999999999994</ele><time>2026-04-30T11:27:04.001Z</time></trkpt><trkpt lat="40.91517433602389" lon="9.180057448066998"><ele>497.0</ele><time>2026-04-30T11:27:05.001Z</time></trkpt><trkpt lat="40.91526634299448" lon="9.180164340407407"><ele>494.16666666666663</ele><time>2026-04-30T11:27:07.001Z</time></trkpt><trkpt lat="40.91533512834334" lon="9.180211306824674"><ele>491.3333333333333</ele><time>2026-04-30T11:27:08.001Z</time></trkpt><trkpt lat="40.915391881111994" lon="9.18028600519031"><ele>488.5</ele><time>2026-04-30T11:27:09.001Z</time></trkpt><trkpt lat="40.9154654769688" lon="9.180320357481552"><ele>485.66666666666663</ele><time>2026-04-30T11:27:10.001Z</time></trkpt><trkpt lat="40.91551767279588" lon="9.180378332053692"><ele>482.8333333333333</ele><time>2026-04-30T11:27:11.001Z</time></trkpt><trkpt lat="40.9155752737137" lon="9.180430658232696"><ele>480.0</ele><time>2026-04-30T11:27:12.001Z</time></trkpt><trkpt lat="40.91568174428148" lon="9.180516865754171"><ele>480.0</ele><time>2026-04-30T11:27:14.001Z</time></trkpt><trkpt lat="40.915748820730556" lon="9.18055494067575"><ele>480.0</ele><time>2026-04-30T11:27:15.001Z</time></trkpt><trkpt lat="40.915818264553" lon="9.180586377382944"><ele>480.0</ele><time>2026-04-30T11:27:16.001Z</time></trkpt><trkpt lat="40.91588527107207" lon="9.180618726250477"><ele>480.0</ele><time>2026-04-30T11:27:17.001Z</time></trkpt><trkpt lat="40.915962509027274" lon="9.180668634095603"><ele>480.0</ele><time>2026-04-30T11:27:18.001Z</time></trkpt><trkpt lat="40.91603398508326" lon="9.180709341736243"><ele>480.0</ele><time>2026-04-30T11:27:19.001Z</time></trkpt><trkpt lat="40.91609233771013" lon="9.180757864883933"><ele>481.28571428571433</ele><time>2026-04-30T11:27:20.001Z</time></trkpt><trkpt lat="40.916152042020386" lon="9.180791383782731"><ele>482.57142857142856</ele><time>2026-04-30T11:27:21.001Z</time></trkpt><trkpt lat="40.91621786429884" lon="9.180808139306974"><ele>483.8571428571429</ele><time>2026-04-30T11:27:22.001Z</time></trkpt><trkpt lat="40.91627483525905" lon="9.18085598480863"><ele>485.14285714285717</ele><time>2026-04-30T11:27:23.001Z</time></trkpt><trkpt lat="40.91633388765135" lon="9.180902913121093"><ele>486.42857142857144</ele><time>2026-04-30T11:27:24.001Z</time></trkpt><trkpt lat="40.91639554757908" lon="9.180951680183263"><ele>487.7142857142857</ele><time>2026-04-30T11:27:25.001Z</time></trkpt><trkpt lat="40.91646152201141" lon="9.180996906043864"><ele>489.0</ele><time>2026-04-30T11:27:26.001Z</time></trkpt><trkpt lat="40.91653605281418" lon="9.181041719282138"><ele>489.0</ele><time>2026-04-30T11:27:27.001Z</time></trkpt><trkpt lat="40.91659807763612" lon="9.181079817929033"><ele>489.0</ele><time>2026-04-30T11:27:28.001Z</time></trkpt><trkpt lat="40.91669059888015" lon="9.181135032074042"><ele>489.0</ele><time>2026-04-30T11:27:30.001Z</time></trkpt><trkpt lat="40.91675840084396" lon="9.181182305255955"><ele>489.0</ele><time>2026-04-30T11:27:32.001Z</time></trkpt><trkpt lat="40.916765048337844" lon="9.181273110468753"><ele>489.0</ele><time>2026-04-30T11:27:34.001Z</time></trkpt><trkpt lat="40.91674923544042" lon="9.18136223935738"><ele>489.0</ele><time>2026-04-30T11:27:36.001Z</time></trkpt><trkpt lat="40.916723727367355" lon="9.18145097585649"><ele>491.0</ele><time>2026-04-30T11:27:38.001Z</time></trkpt><trkpt lat="40.91674687697884" lon="9.181569372530129"><ele>493.0</ele><time>2026-04-30T11:27:40.002Z</time></trkpt><trkpt lat="40.916817585225346" lon="9.181675860724676"><ele>495.0</ele><time>2026-04-30T11:27:42.002Z</time></trkpt><trkpt lat="40.916866127149405" lon="9.181733642008247"><ele>497.0</ele><time>2026-04-30T11:27:43.002Z</time></trkpt><trkpt lat="40.916936642361584" lon="9.181838180787825"><ele>499.0</ele><time>2026-04-30T11:27:45.002Z</time></trkpt><trkpt lat="40.91699106658739" lon="9.181892877966899"><ele>501.0</ele><time>2026-04-30T11:27:46.002Z</time></trkpt><trkpt lat="40.91707395039971" lon="9.181974761057246"><ele>501.0</ele><time>2026-04-30T11:27:48.002Z</time></trkpt><trkpt lat="40.91714793345791" lon="9.182035060398107"><ele>501.0</ele><time>2026-04-30T11:27:50.002Z</time></trkpt><trkpt lat="40.91721011298161" lon="9.182075831658542"><ele>501.0</ele><time>2026-04-30T11:27:52.002Z</time></trkpt><trkpt lat="40.91729696741986" lon="9.182120881906757"><ele>501.0</ele><time>2026-04-30T11:27:55.002Z</time></trkpt><trkpt lat="40.917407876955586" lon="9.182132586146766"><ele>501.0</ele><time>2026-04-30T11:27:57.001Z</time></trkpt><trkpt lat="40.91753278952661" lon="9.182170224333099"><ele>501.6666666666667</ele><time>2026-04-30T11:27:59.001Z</time></trkpt><trkpt lat="40.91764660499113" lon="9.182194174846156"><ele>502.33333333333337</ele><time>2026-04-30T11:28:01.001Z</time></trkpt><trkpt lat="40.91771652229711" lon="9.182203091453669"><ele>503.0</ele><time>2026-04-30T11:28:03.001Z</time></trkpt><trkpt lat="40.917800144045614" lon="9.182271823410797"><ele>503.6666666666667</ele><time>2026-04-30T11:28:05.001Z</time></trkpt><trkpt lat="40.91785169926774" lon="9.182355235999808"><ele>504.33333333333337</ele><time>2026-04-30T11:28:07.001Z</time></trkpt><trkpt lat="40.91791595320486" lon="9.182359021390917"><ele>505.0</ele><time>2026-04-30T11:28:08.001Z</time></trkpt><trkpt lat="40.91800370455122" lon="9.182421311536956"><ele>505.0</ele><time>2026-04-30T11:28:10.001Z</time></trkpt><trkpt lat="40.91804767853514" lon="9.182549920890107"><ele>505.0</ele><time>2026-04-30T11:28:12.001Z</time></trkpt><trkpt lat="40.91813318776755" lon="9.182581374625498"><ele>505.0</ele><time>2026-04-30T11:28:14.001Z</time></trkpt><trkpt lat="40.91822392241742" lon="9.182668376109408"><ele>505.0</ele><time>2026-04-30T11:28:16.001Z</time></trkpt><trkpt lat="40.91828864780656" lon="9.182774051476567"><ele>505.0</ele><time>2026-04-30T11:28:18.001Z</time></trkpt><trkpt lat="40.91834043472447" lon="9.182890002482486"><ele>505.00000000000006</ele><time>2026-04-30T11:28:20.001Z</time></trkpt><trkpt lat="40.91838727259438" lon="9.183038357756718"><ele>505.0</ele><time>2026-04-30T11:28:22.001Z</time></trkpt><trkpt lat="40.91841548973834" lon="9.18312581089022"><ele>505.0</ele><time>2026-04-30T11:28:23.001Z</time></trkpt><trkpt lat="40.918442815905905" lon="9.183221137589596"><ele>505.0</ele><time>2026-04-30T11:28:24.001Z</time></trkpt><trkpt lat="40.91845468353977" lon="9.183336647017393"><ele>505.00000000000006</ele><time>2026-04-30T11:28:25.001Z</time></trkpt><trkpt lat="40.91847569032431" lon="9.183451679326513"><ele>505.0</ele><time>2026-04-30T11:28:26.001Z</time></trkpt><trkpt lat="40.9185158036975" lon="9.183608641005403"><ele>502.6</ele><time>2026-04-30T11:28:27.001Z</time></trkpt><trkpt lat="40.91854105129457" lon="9.183741699721335"><ele>500.2</ele><time>2026-04-30T11:28:28.001Z</time></trkpt><trkpt lat="40.91855044554979" lon="9.183877622005108"><ele>497.79999999999995</ele><time>2026-04-30T11:28:29.001Z</time></trkpt><trkpt lat="40.91857531052896" lon="9.184008450221464"><ele>495.4</ele><time>2026-04-30T11:28:30.001Z</time></trkpt><trkpt lat="40.91858962519413" lon="9.18414579659605"><ele>493.0</ele><time>2026-04-30T11:28:31.001Z</time></trkpt><trkpt lat="40.91860749412887" lon="9.184285125967333"><ele>492.0</ele><time>2026-04-30T11:28:32.001Z</time></trkpt><trkpt lat="40.91861598539514" lon="9.184411262064954"><ele>490.99999999999994</ele><time>2026-04-30T11:28:33.001Z</time></trkpt><trkpt lat="40.91862368469319" lon="9.184538768166732"><ele>489.99999999999994</ele><time>2026-04-30T11:28:34.001Z</time></trkpt><trkpt lat="40.918635871756166" lon="9.184664546140658"><ele>489.0</ele><time>2026-04-30T11:28:35.001Z</time></trkpt><trkpt lat="40.918662267303226" lon="9.184779004692285"><ele>488.0</ele><time>2026-04-30T11:28:36.001Z</time></trkpt><trkpt lat="40.91868247010728" lon="9.18489793076735"><ele>488.0</ele><time>2026-04-30T11:28:37.001Z</time></trkpt><trkpt lat="40.91872392568934" lon="9.18504267655311"><ele>488.0</ele><time>2026-04-30T11:28:38.001Z</time></trkpt><trkpt lat="40.91876864011431" lon="9.185181800214608"><ele>488.0</ele><time>2026-04-30T11:28:39.001Z</time></trkpt><trkpt lat="40.91881943697878" lon="9.18532381081161"><ele>488.0</ele><time>2026-04-30T11:28:40.001Z</time></trkpt><trkpt lat="40.9188648371446" lon="9.185459300861217"><ele>488.0</ele><time>2026-04-30T11:28:41.001Z</time></trkpt><trkpt lat="40.91891156206651" lon="9.18558604453602"><ele>487.99999999999994</ele><time>2026-04-30T11:28:42.001Z</time></trkpt><trkpt lat="40.918948311017076" lon="9.185706772743684"><ele>487.99999999999994</ele><time>2026-04-30T11:28:43.001Z</time></trkpt><trkpt lat="40.91899183639376" lon="9.185819672548789"><ele>488.0</ele><time>2026-04-30T11:28:44.001Z</time></trkpt><trkpt lat="40.919022192321066" lon="9.185932940686078"><ele>488.0</ele><time>2026-04-30T11:28:45.001Z</time></trkpt><trkpt lat="40.919064989939976" lon="9.186030628301117"><ele>488.66666666666663</ele><time>2026-04-30T11:28:46.001Z</time></trkpt><trkpt lat="40.91911158138475" lon="9.18612652553688"><ele>489.3333333333333</ele><time>2026-04-30T11:28:47.001Z</time></trkpt><trkpt lat="40.919159098650525" lon="9.186214919721094"><ele>490.0</ele><time>2026-04-30T11:28:48.001Z</time></trkpt><trkpt lat="40.91921561781857" lon="9.18629108370287"><ele>490.66666666666663</ele><time>2026-04-30T11:28:49.001Z</time></trkpt><trkpt lat="40.91928806670417" lon="9.186361989713939"><ele>491.3333333333333</ele><time>2026-04-30T11:28:50.001Z</time></trkpt><trkpt lat="40.91936337819883" lon="9.186424407054542"><ele>492.0</ele><time>2026-04-30T11:28:51.001Z</time></trkpt><trkpt lat="40.91942904289058" lon="9.186484097849963"><ele>490.8333333333333</ele><time>2026-04-30T11:28:52.001Z</time></trkpt><trkpt lat="40.919495629965624" lon="9.186545303781823"><ele>489.66666666666663</ele><time>2026-04-30T11:28:53.001Z</time></trkpt><trkpt lat="40.91955474028915" lon="9.186608982463522"><ele>488.5</ele><time>2026-04-30T11:28:54.001Z</time></trkpt><trkpt lat="40.919613403381554" lon="9.186678001961221"><ele>487.3333333333333</ele><time>2026-04-30T11:28:55.001Z</time></trkpt><trkpt lat="40.9196629050139" lon="9.186757039750006"><ele>486.16666666666663</ele><time>2026-04-30T11:28:56.001Z</time></trkpt><trkpt lat="40.919708026136426" lon="9.186849771191238"><ele>485.0</ele><time>2026-04-30T11:28:57.001Z</time></trkpt><trkpt lat="40.919750045863005" lon="9.186951162299154"><ele>484.99999999999994</ele><time>2026-04-30T11:28:58.001Z</time></trkpt><trkpt lat="40.91978170440811" lon="9.187057865091393"><ele>485.0</ele><time>2026-04-30T11:28:59.001Z</time></trkpt><trkpt lat="40.919805851509274" lon="9.187161632721416"><ele>485.0</ele><time>2026-04-30T11:29:00.001Z</time></trkpt><trkpt lat="40.91982772468731" lon="9.187279280452989"><ele>485.0</ele><time>2026-04-30T11:29:01.001Z</time></trkpt><trkpt lat="40.9198442152281" lon="9.187400268656134"><ele>484.99999999999994</ele><time>2026-04-30T11:29:02.001Z</time></trkpt><trkpt lat="40.919863867391065" lon="9.187522662661847"><ele>485.0</ele><time>2026-04-30T11:29:03.001Z</time></trkpt><trkpt lat="40.919881935777" lon="9.187654198946163"><ele>485.8</ele><time>2026-04-30T11:29:04.001Z</time></trkpt><trkpt lat="40.91990417603243" lon="9.187793740598224"><ele>486.6</ele><time>2026-04-30T11:29:05.001Z</time></trkpt><trkpt lat="40.91992480632129" lon="9.187933236903547"><ele>487.4</ele><time>2026-04-30T11:29:06.001Z</time></trkpt><trkpt lat="40.91994863395599" lon="9.188066981932991"><ele>488.2</ele><time>2026-04-30T11:29:07.001Z</time></trkpt><trkpt lat="40.91997224335927" lon="9.188199581714175"><ele>489.0</ele><time>2026-04-30T11:29:08.001Z</time></trkpt><trkpt lat="40.919993247360175" lon="9.188342295418003"><ele>489.0</ele><time>2026-04-30T11:29:09.001Z</time></trkpt><trkpt lat="40.92002025464911" lon="9.1884780950013"><ele>489.0</ele><time>2026-04-30T11:29:10.001Z</time></trkpt><trkpt lat="40.9200311652787" lon="9.188600214833397"><ele>489.0</ele><time>2026-04-30T11:29:11.001Z</time></trkpt><trkpt lat="40.92003939890085" lon="9.188721401210772"><ele>489.0</ele><time>2026-04-30T11:29:12.001Z</time></trkpt><trkpt lat="40.92006643499206" lon="9.188833153036594"><ele>489.0</ele><time>2026-04-30T11:29:13.001Z</time></trkpt><trkpt lat="40.9200843359353" lon="9.18894690542684"><ele>487.8333333333333</ele><time>2026-04-30T11:29:14.001Z</time></trkpt><trkpt lat="40.920100301405036" lon="9.189060639699425"><ele>486.66666666666663</ele><time>2026-04-30T11:29:15.001Z</time></trkpt><trkpt lat="40.920147496506104" lon="9.18917176578732"><ele>485.5</ele><time>2026-04-30T11:29:16.001Z</time></trkpt><trkpt lat="40.92018458060959" lon="9.18927186097371"><ele>484.3333333333333</ele><time>2026-04-30T11:29:17.001Z</time></trkpt><trkpt lat="40.920222602151334" lon="9.18936693794919"><ele>483.16666666666663</ele><time>2026-04-30T11:29:18.001Z</time></trkpt><trkpt lat="40.92027332555908" lon="9.18944310032841"><ele>482.0</ele><time>2026-04-30T11:29:19.001Z</time></trkpt><trkpt lat="40.92031662856642" lon="9.189526502664801"><ele>482.0</ele><time>2026-04-30T11:29:20.001Z</time></trkpt><trkpt lat="40.92037743416223" lon="9.189598661374022"><ele>482.00000000000006</ele><time>2026-04-30T11:29:21.001Z</time></trkpt><trkpt lat="40.920451673711874" lon="9.189641503603308"><ele>482.0</ele><time>2026-04-30T11:29:22.001Z</time></trkpt><trkpt lat="40.92051799228744" lon="9.189687856328772"><ele>482.0</ele><time>2026-04-30T11:29:23.001Z</time></trkpt><trkpt lat="40.920584278094836" lon="9.189718813589117"><ele>482.00000000000006</ele><time>2026-04-30T11:29:24.001Z</time></trkpt><trkpt lat="40.92065472069572" lon="9.189742506369296"><ele>482.0</ele><time>2026-04-30T11:29:25.001Z</time></trkpt><trkpt lat="40.92071938590972" lon="9.189771808345553"><ele>482.0</ele><time>2026-04-30T11:29:26.001Z</time></trkpt><trkpt lat="40.92081040958575" lon="9.189827082160736"><ele>483.40000000000003</ele><time>2026-04-30T11:29:28.001Z</time></trkpt><trkpt lat="40.920745374530156" lon="9.189957980976667"><ele>484.80000000000007</ele><time>2026-04-30T11:29:46.001Z</time></trkpt><trkpt lat="40.92069065582058" lon="9.190040304338973"><ele>486.2</ele><time>2026-04-30T11:29:47.001Z</time></trkpt><trkpt lat="40.9206414598824" lon="9.190146550350155"><ele>487.6</ele><time>2026-04-30T11:29:48.001Z</time></trkpt><trkpt lat="40.92061376226627" lon="9.190279047287381"><ele>489.0</ele><time>2026-04-30T11:29:49.001Z</time></trkpt><trkpt lat="40.92055779360638" lon="9.19039940862802"><ele>489.0</ele><time>2026-04-30T11:29:50.002Z</time></trkpt><trkpt lat="40.920525519876456" lon="9.190543274752867"><ele>489.0</ele><time>2026-04-30T11:29:51.002Z</time></trkpt><trkpt lat="40.920471038293265" lon="9.190678505383547"><ele>489.0</ele><time>2026-04-30T11:29:52.002Z</time></trkpt><trkpt lat="40.92042007671389" lon="9.190810554704392"><ele>489.0</ele><time>2026-04-30T11:29:53.002Z</time></trkpt><trkpt lat="40.92037564512778" lon="9.190947907249031"><ele>492.25</ele><time>2026-04-30T11:29:54.002Z</time></trkpt><trkpt lat="40.92033220422272" lon="9.19109371878643"><ele>495.5</ele><time>2026-04-30T11:29:55.002Z</time></trkpt><trkpt lat="40.92029020904456" lon="9.191251226359247"><ele>498.75</ele><time>2026-04-30T11:29:56.002Z</time></trkpt><trkpt lat="40.92025588488845" lon="9.191424418824996"><ele>502.0</ele><time>2026-04-30T11:29:57.002Z</time></trkpt><trkpt lat="40.92023512623879" lon="9.191569974588734"><ele>503.0</ele><time>2026-04-30T11:29:58.002Z</time></trkpt><trkpt lat="40.92023323698465" lon="9.191709975988601"><ele>504.00000000000006</ele><time>2026-04-30T11:29:59.002Z</time></trkpt><trkpt lat="40.92024516944348" lon="9.191847624528739"><ele>505.00000000000006</ele><time>2026-04-30T11:30:00.002Z</time></trkpt><trkpt lat="40.92030629492821" lon="9.191967506049492"><ele>506.0</ele><time>2026-04-30T11:30:01.002Z</time></trkpt><trkpt lat="40.920363348342775" lon="9.192082971310866"><ele>507.0</ele><time>2026-04-30T11:30:02.002Z</time></trkpt><trkpt lat="40.92042223823706" lon="9.192202894551478"><ele>507.0</ele><time>2026-04-30T11:30:03Z</time></trkpt><trkpt lat="40.92050669548351" lon="9.192287998909135"><ele>507.00000000000006</ele><time>2026-04-30T11:30:04Z</time></trkpt><trkpt lat="40.920582995059085" lon="9.19238217111828"><ele>507.00000000000006</ele><time>2026-04-30T11:30:05Z</time></trkpt><trkpt lat="40.92065965318166" lon="9.192467607582971"><ele>507.0</ele><time>2026-04-30T11:30:06Z</time></trkpt><trkpt lat="40.920736712976655" lon="9.192549950806907"><ele>507.0</ele><time>2026-04-30T11:30:07Z</time></trkpt><trkpt lat="40.920819405779234" lon="9.192627329485951"><ele>507.6</ele><time>2026-04-30T11:30:08Z</time></trkpt><trkpt lat="40.920901065659315" lon="9.192727089514527"><ele>508.20000000000005</ele><time>2026-04-30T11:30:09Z</time></trkpt><trkpt lat="40.920999242716995" lon="9.192793567021177"><ele>508.8</ele><time>2026-04-30T11:30:10Z</time></trkpt><trkpt lat="40.92107368493496" lon="9.192879912508062"><ele>509.4</ele><time>2026-04-30T11:30:11Z</time></trkpt><trkpt lat="40.921137674741345" lon="9.19297850683397"><ele>510.0</ele><time>2026-04-30T11:30:12Z</time></trkpt><trkpt lat="40.921141374697754" lon="9.19309097461424"><ele>510.0</ele><time>2026-04-30T11:30:13Z</time></trkpt><trkpt lat="40.92112552391384" lon="9.193190907007796"><ele>510.0</ele><time>2026-04-30T11:30:14Z</time></trkpt><trkpt lat="40.921102561168404" lon="9.19331520615049"><ele>510.0</ele><time>2026-04-30T11:30:15Z</time></trkpt><trkpt lat="40.9210415368235" lon="9.193439825359764"><ele>510.0</ele><time>2026-04-30T11:30:16Z</time></trkpt><trkpt lat="40.92097310037184" lon="9.193582211080342"><ele>510.0</ele><time>2026-04-30T11:30:17Z</time></trkpt><trkpt lat="40.92089065103934" lon="9.193737148758345"><ele>511.0</ele><time>2026-04-30T11:30:18Z</time></trkpt><trkpt lat="40.920817367259666" lon="9.193908862401019"><ele>512.0</ele><time>2026-04-30T11:30:19Z</time></trkpt><trkpt lat="40.9207136551704" lon="9.194062356682858"><ele>513.0</ele><time>2026-04-30T11:30:20Z</time></trkpt><trkpt lat="40.92063252770169" lon="9.194237829803544"><ele>513.0</ele><time>2026-04-30T11:30:21Z</time></trkpt><trkpt lat="40.920572256832536" lon="9.19442737667382"><ele>513.0</ele><time>2026-04-30T11:30:22Z</time></trkpt><trkpt lat="40.920523104970194" lon="9.194608966898988"><ele>513.0</ele><time>2026-04-30T11:30:23Z</time></trkpt><trkpt lat="40.9204931114645" lon="9.19478377942311"><ele>513.0</ele><time>2026-04-30T11:30:24Z</time></trkpt><trkpt lat="40.92045972120439" lon="9.19494902468489"><ele>514.5</ele><time>2026-04-30T11:30:25Z</time></trkpt><trkpt lat="40.920426391417045" lon="9.195101657840524"><ele>516.0</ele><time>2026-04-30T11:30:26Z</time></trkpt><trkpt lat="40.920379871554445" lon="9.195241226280674"><ele>517.5</ele><time>2026-04-30T11:30:27Z</time></trkpt><trkpt lat="40.92034176414247" lon="9.195385891733679"><ele>519.0</ele><time>2026-04-30T11:30:28Z</time></trkpt><trkpt lat="40.92027977108636" lon="9.195511646154706"><ele>519.0</ele><time>2026-04-30T11:30:29Z</time></trkpt><trkpt lat="40.92023116379183" lon="9.19563037283356"><ele>519.0</ele><time>2026-04-30T11:30:30Z</time></trkpt><trkpt lat="40.920167185766495" lon="9.19572864294543"><ele>519.0</ele><time>2026-04-30T11:30:31Z</time></trkpt><trkpt lat="40.920100989433735" lon="9.195821170294114"><ele>519.0</ele><time>2026-04-30T11:30:32Z</time></trkpt><trkpt lat="40.92004915104628" lon="9.195905607829337"><ele>519.0</ele><time>2026-04-30T11:30:33Z</time></trkpt><trkpt lat="40.919982388171114" lon="9.195983429910168"><ele>518.5</ele><time>2026-04-30T11:30:34Z</time></trkpt><trkpt lat="40.91991398383961" lon="9.19603259088232"><ele>518.0</ele><time>2026-04-30T11:30:35Z</time></trkpt><trkpt lat="40.919857242947344" lon="9.19608254675259"><ele>517.5</ele><time>2026-04-30T11:30:36Z</time></trkpt><trkpt lat="40.91980793244606" lon="9.196139892645046"><ele>517.0</ele><time>2026-04-30T11:30:37Z</time></trkpt><trkpt lat="40.91972684633519" lon="9.196182223182575"><ele>516.5</ele><time>2026-04-30T11:30:39Z</time></trkpt><trkpt lat="40.91965960327291" lon="9.196235255258106"><ele>516.0</ele><time>2026-04-30T11:31:28.001Z</time></trkpt><trkpt lat="40.91974355642723" lon="9.196294376913704"><ele>516.0</ele><time>2026-04-30T11:31:31.001Z</time></trkpt><trkpt lat="40.919824724349155" lon="9.196313753500737"><ele>516.0</ele><time>2026-04-30T11:31:33.001Z</time></trkpt><trkpt lat="40.91994960985519" lon="9.19635023473589"><ele>516.0</ele><time>2026-04-30T11:31:35.001Z</time></trkpt><trkpt lat="40.920012630450046" lon="9.196349974836599"><ele>516.0</ele><time>2026-04-30T11:31:36.001Z</time></trkpt><trkpt lat="40.92014166590493" lon="9.196353409243942"><ele>516.0</ele><time>2026-04-30T11:31:38.001Z</time></trkpt><trkpt lat="40.920218768830956" lon="9.196350364718391"><ele>516.8333333333334</ele><time>2026-04-30T11:31:39.001Z</time></trkpt><trkpt lat="40.92029787770732" lon="9.19633939330815"><ele>517.6666666666666</ele><time>2026-04-30T11:31:40.001Z</time></trkpt><trkpt lat="40.92038442565379" lon="9.196339624361581"><ele>518.5</ele><time>2026-04-30T11:31:41.001Z</time></trkpt><trkpt lat="40.92046978455077" lon="9.196338997424963"><ele>519.3333333333333</ele><time>2026-04-30T11:31:42.001Z</time></trkpt><trkpt lat="40.92054609943257" lon="9.19633162066524"><ele>520.1666666666666</ele><time>2026-04-30T11:31:43.001Z</time></trkpt><trkpt lat="40.9206236126116" lon="9.196329466312294"><ele>521.0</ele><time>2026-04-30T11:31:44.001Z</time></trkpt><trkpt lat="40.92069779572867" lon="9.196334396133523"><ele>521.0</ele><time>2026-04-30T11:31:45.001Z</time></trkpt><trkpt lat="40.920771430923125" lon="9.196331989947907"><ele>521.0</ele><time>2026-04-30T11:31:46.001Z</time></trkpt><trkpt lat="40.92084978639393" lon="9.19632942957284"><ele>521.0</ele><time>2026-04-30T11:31:47.001Z</time></trkpt><trkpt lat="40.92092635062547" lon="9.196317068392885"><ele>521.0</ele><time>2026-04-30T11:31:48.001Z</time></trkpt><trkpt lat="40.920999612504765" lon="9.1962620822702"><ele>521.0</ele><time>2026-04-30T11:31:49.001Z</time></trkpt><trkpt lat="40.921079401152255" lon="9.196225160264497"><ele>521.0</ele><time>2026-04-30T11:31:50.001Z</time></trkpt><trkpt lat="40.92113160974777" lon="9.196177079252696"><ele>522.3333333333333</ele><time>2026-04-30T11:31:51.001Z</time></trkpt><trkpt lat="40.921213988779165" lon="9.196109488672306"><ele>523.6666666666666</ele><time>2026-04-30T11:31:52.001Z</time></trkpt><trkpt lat="40.921276772309085" lon="9.196058074097785"><ele>525.0</ele><time>2026-04-30T11:31:53.001Z</time></trkpt><trkpt lat="40.92133772202966" lon="9.196008161117817"><ele>526.3333333333334</ele><time>2026-04-30T11:31:54.001Z</time></trkpt><trkpt lat="40.92139997411891" lon="9.19595416174041"><ele>527.6666666666667</ele><time>2026-04-30T11:31:55.001Z</time></trkpt><trkpt lat="40.921491781824685" lon="9.19587047319959"><ele>529.0</ele><time>2026-04-30T11:31:57.001Z</time></trkpt><trkpt lat="40.92156615281315" lon="9.195787365487151"><ele>529.0</ele><time>2026-04-30T11:31:59.001Z</time></trkpt><trkpt lat="40.921629785176115" lon="9.195785513992476"><ele>529.0</ele><time>2026-04-30T11:32:01.001Z</time></trkpt><trkpt lat="40.92169653754688" lon="9.195836150528644"><ele>529.0</ele><time>2026-04-30T11:32:03.001Z</time></trkpt><trkpt lat="40.92177967145103" lon="9.195930689480933"><ele>529.0</ele><time>2026-04-30T11:32:05.001Z</time></trkpt><trkpt lat="40.92185281740053" lon="9.196004357482144"><ele>529.0</ele><time>2026-04-30T11:32:07.001Z</time></trkpt><trkpt lat="40.92193740873657" lon="9.1960400835372"><ele>529.0</ele><time>2026-04-30T11:32:08.999Z</time></trkpt><trkpt lat="40.92201133427654" lon="9.1961060681236"><ele>529.0</ele><time>2026-04-30T11:32:10.999Z</time></trkpt><trkpt lat="40.92206267017555" lon="9.196190645928162"><ele>529.0</ele><time>2026-04-30T11:32:13.999Z</time></trkpt><trkpt lat="40.92205732296795" lon="9.19627675782627"><ele>529.0</ele><time>2026-04-30T11:32:14.999Z</time></trkpt><trkpt lat="40.922096264451994" lon="9.19640537240222"><ele>529.0</ele><time>2026-04-30T11:32:18Z</time></trkpt><trkpt lat="40.92218004662887" lon="9.196438146970468"><ele>529.0</ele><time>2026-04-30T11:32:19Z</time></trkpt><trkpt lat="40.922266056654706" lon="9.196466308815893"><ele>529.0</ele><time>2026-04-30T11:32:21Z</time></trkpt><trkpt lat="40.92228199301053" lon="9.196566799024684"><ele>531.25</ele><time>2026-04-30T11:32:23Z</time></trkpt><trkpt lat="40.922241252980236" lon="9.19666328240689"><ele>533.5</ele><time>2026-04-30T11:32:25Z</time></trkpt><trkpt lat="40.92217127104643" lon="9.19676569413333"><ele>535.75</ele><time>2026-04-30T11:32:27Z</time></trkpt><trkpt lat="40.92211907436926" lon="9.196850020058903"><ele>538.0</ele><time>2026-04-30T11:32:30Z</time></trkpt><trkpt lat="40.92226016498453" lon="9.196999091054069"><ele>538.0</ele><time>2026-04-30T11:32:32Z</time></trkpt><trkpt lat="40.92231416067279" lon="9.19704779580965"><ele>538.0</ele><time>2026-04-30T11:32:33Z</time></trkpt><trkpt lat="40.92235385319062" lon="9.197118987996026"><ele>538.0</ele><time>2026-04-30T11:32:34Z</time></trkpt><trkpt lat="40.92239297072092" lon="9.197192581129666"><ele>538.0</ele><time>2026-04-30T11:32:35Z</time></trkpt><trkpt lat="40.92242935585226" lon="9.197265940972335"><ele>538.0</ele><time>2026-04-30T11:32:36Z</time></trkpt><trkpt lat="40.92246879791243" lon="9.197333236185012"><ele>538.0</ele><time>2026-04-30T11:32:37Z</time></trkpt><trkpt lat="40.92253399936703" lon="9.197442123913742"><ele>538.0</ele><time>2026-04-30T11:32:39Z</time></trkpt><trkpt lat="40.9225583186051" lon="9.197545402634205"><ele>537.0</ele><time>2026-04-30T11:32:41Z</time></trkpt><trkpt lat="40.92258925997824" lon="9.197691666839768"><ele>536.0</ele><time>2026-04-30T11:32:43Z</time></trkpt><trkpt lat="40.92267020523022" lon="9.19777097131916"><ele>535.0</ele><time>2026-04-30T11:32:44Z</time></trkpt><trkpt lat="40.92271179396177" lon="9.19783705564055"><ele>534.0</ele><time>2026-04-30T11:32:45Z</time></trkpt><trkpt lat="40.922728857578385" lon="9.197917293743055"><ele>533.0</ele><time>2026-04-30T11:32:46Z</time></trkpt><trkpt lat="40.922746351916764" lon="9.198000894544606"><ele>532.0</ele><time>2026-04-30T11:32:47Z</time></trkpt><trkpt lat="40.92274491761734" lon="9.198101871387312"><ele>532.0</ele><time>2026-04-30T11:32:48Z</time></trkpt><trkpt lat="40.92275500558668" lon="9.19819687561395"><ele>532.0</ele><time>2026-04-30T11:32:49Z</time></trkpt><trkpt lat="40.922766037527964" lon="9.198293178736511"><ele>532.0</ele><time>2026-04-30T11:32:50Z</time></trkpt><trkpt lat="40.92277997689118" lon="9.198381319350036"><ele>532.0</ele><time>2026-04-30T11:32:51Z</time></trkpt><trkpt lat="40.922821127610824" lon="9.198510660049044"><ele>532.0</ele><time>2026-04-30T11:32:53Z</time></trkpt><trkpt lat="40.92285900458611" lon="9.198587163480683"><ele>532.0</ele><time>2026-04-30T11:32:55Z</time></trkpt><trkpt lat="40.9229377472082" lon="9.19865216884891"><ele>532.0</ele><time>2026-04-30T11:32:58Z</time></trkpt><trkpt lat="40.922996477710214" lon="9.198701258529042"><ele>532.0</ele><time>2026-04-30T11:33:00Z</time></trkpt><trkpt lat="40.923078553044114" lon="9.198588162604025"><ele>532.0</ele><time>2026-04-30T11:33:01Z</time></trkpt><trkpt lat="40.92312567500967" lon="9.198515029977518"><ele>532.0</ele><time>2026-04-30T11:33:03Z</time></trkpt><trkpt lat="40.92314892293277" lon="9.198434842117786"><ele>532.0</ele><time>2026-04-30T11:33:06Z</time></trkpt><trkpt lat="40.92316118504201" lon="9.19833240718406"><ele>532.0</ele><time>2026-04-30T11:34:19.999Z</time></trkpt><trkpt lat="40.923196607718886" lon="9.198188256072534"><ele>532.0</ele><time>2026-04-30T11:34:21.999Z</time></trkpt><trkpt lat="40.92324916311701" lon="9.198021742792923"><ele>532.0</ele><time>2026-04-30T11:34:23.999Z</time></trkpt><trkpt lat="40.92325092280504" lon="9.197911914562672"><ele>532.0</ele><time>2026-04-30T11:34:24.999Z</time></trkpt><trkpt lat="40.923250045406476" lon="9.19780579839357"><ele>532.0</ele><time>2026-04-30T11:34:25.999Z</time></trkpt><trkpt lat="40.92324793103798" lon="9.197705979855408"><ele>532.0</ele><time>2026-04-30T11:34:26.999Z</time></trkpt><trkpt lat="40.92324223394226" lon="9.197600686013228"><ele>532.0</ele><time>2026-04-30T11:34:27.999Z</time></trkpt><trkpt lat="40.923234264768794" lon="9.197477857507879"><ele>532.0</ele><time>2026-04-30T11:34:28.999Z</time></trkpt><trkpt lat="40.923226616422326" lon="9.197364824299845"><ele>532.0</ele><time>2026-04-30T11:34:29.999Z</time></trkpt><trkpt lat="40.92321917382887" lon="9.197254831886013"><ele>532.0</ele><time>2026-04-30T11:34:30.999Z</time></trkpt><trkpt lat="40.92321098040686" lon="9.19713374315716"><ele>532.0</ele><time>2026-04-30T11:34:31.999Z</time></trkpt><trkpt lat="40.92320349733628" lon="9.197021513936113"><ele>532.0</ele><time>2026-04-30T11:34:32.999Z</time></trkpt><trkpt lat="40.92319720750221" lon="9.196914811239084"><ele>531.5</ele><time>2026-04-30T11:34:33.999Z</time></trkpt><trkpt lat="40.92319102790986" lon="9.196809978724414"><ele>531.0</ele><time>2026-04-30T11:34:34.999Z</time></trkpt><trkpt lat="40.923185269303694" lon="9.19671228793753"><ele>530.5</ele><time>2026-04-30T11:34:35.999Z</time></trkpt><trkpt lat="40.92318003533981" lon="9.196623497363186"><ele>530.0</ele><time>2026-04-30T11:34:36.999Z</time></trkpt><trkpt lat="40.92317106733458" lon="9.196471361331312"><ele>529.5</ele><time>2026-04-30T11:34:38.999Z</time></trkpt><trkpt lat="40.92316275282854" lon="9.196353983405587"><ele>529.0</ele><time>2026-04-30T11:34:40.999Z</time></trkpt><trkpt lat="40.92317902788156" lon="9.196234403127425"><ele>529.0</ele><time>2026-04-30T11:34:46Z</time></trkpt><trkpt lat="40.92323951241253" lon="9.196138981678924"><ele>529.0</ele><time>2026-04-30T11:34:48Z</time></trkpt><trkpt lat="40.923288075064285" lon="9.196018680986592"><ele>529.0</ele><time>2026-04-30T11:34:50Z</time></trkpt><trkpt lat="40.923314256146654" lon="9.195901407240237"><ele>529.0</ele><time>2026-04-30T11:34:52Z</time></trkpt><trkpt lat="40.9233236926135" lon="9.195746115894005"><ele>529.0</ele><time>2026-04-30T11:34:54Z</time></trkpt><trkpt lat="40.92332533558028" lon="9.195658253620923"><ele>528.0</ele><time>2026-04-30T11:34:55Z</time></trkpt><trkpt lat="40.923314872002464" lon="9.195500663486936"><ele>527.0</ele><time>2026-04-30T11:34:57Z</time></trkpt><trkpt lat="40.92332060568663" lon="9.195362119367564"><ele>526.0</ele><time>2026-04-30T11:34:59Z</time></trkpt><trkpt lat="40.923301977978525" lon="9.195265095463093"><ele>525.0</ele><time>2026-04-30T11:35:01Z</time></trkpt><trkpt lat="40.92327417495147" lon="9.195178498134643"><ele>524.0</ele><time>2026-04-30T11:35:07Z</time></trkpt><trkpt lat="40.9232124928422" lon="9.19510373171817"><ele>524.0</ele><time>2026-04-30T11:35:09Z</time></trkpt><trkpt lat="40.92334362682316" lon="9.194975813865224"><ele>524.0</ele><time>2026-04-30T11:35:11Z</time></trkpt><trkpt lat="40.92337683677931" lon="9.194852643565925"><ele>524.0</ele><time>2026-04-30T11:35:13Z</time></trkpt><trkpt lat="40.92339902714909" lon="9.194737364776714"><ele>524.0</ele><time>2026-04-30T11:35:15Z</time></trkpt><trkpt lat="40.92341626536865" lon="9.194650247252431"><ele>524.0</ele><time>2026-04-30T11:35:17Z</time></trkpt><trkpt lat="40.923412615870596" lon="9.19454529486095"><ele>523.4</ele><time>2026-04-30T11:35:20Z</time></trkpt><trkpt lat="40.92334632523849" lon="9.194457448581517"><ele>522.8</ele><time>2026-04-30T11:35:23Z</time></trkpt><trkpt lat="40.9233672687578" lon="9.194312680518836"><ele>522.2</ele><time>2026-04-30T11:35:25Z</time></trkpt><trkpt lat="40.923371229955" lon="9.194192618633002"><ele>521.6</ele><time>2026-04-30T11:35:27Z</time></trkpt><trkpt lat="40.92342207300011" lon="9.19410231053624"><ele>521.0</ele><time>2026-04-30T11:35:29Z</time></trkpt><trkpt lat="40.92347409157679" lon="9.194033234637779"><ele>518.2</ele><time>2026-04-30T11:35:31.001Z</time></trkpt><trkpt lat="40.92350697007065" lon="9.193919616337773"><ele>515.4000000000001</ele><time>2026-04-30T11:35:33.001Z</time></trkpt><trkpt lat="40.92353885915701" lon="9.193766980957461"><ele>512.6</ele><time>2026-04-30T11:35:35.001Z</time></trkpt><trkpt lat="40.92355672000314" lon="9.193685715721218"><ele>509.8</ele><time>2026-04-30T11:35:36.001Z</time></trkpt><trkpt lat="40.92357144840432" lon="9.193603628610914"><ele>507.0</ele><time>2026-04-30T11:35:37.001Z</time></trkpt><trkpt lat="40.92358026233736" lon="9.19345193288304"><ele>507.0</ele><time>2026-04-30T11:35:39.001Z</time></trkpt><trkpt lat="40.923608438921896" lon="9.193322111054252"><ele>507.00000000000006</ele><time>2026-04-30T11:35:41.001Z</time></trkpt><trkpt lat="40.92362477785962" lon="9.193189593533079"><ele>507.00000000000006</ele><time>2026-04-30T11:35:43.001Z</time></trkpt><trkpt lat="40.92363903305755" lon="9.19306157935633"><ele>507.0</ele><time>2026-04-30T11:35:45.001Z</time></trkpt><trkpt lat="40.92365348533178" lon="9.192923694615558"><ele>507.0</ele><time>2026-04-30T11:35:47.001Z</time></trkpt><trkpt lat="40.923654534922484" lon="9.192800448404125"><ele>506.8333333333333</ele><time>2026-04-30T11:35:49.001Z</time></trkpt><trkpt lat="40.92367500753524" lon="9.192713345538287"><ele>506.66666666666663</ele><time>2026-04-30T11:35:52.001Z</time></trkpt><trkpt lat="40.92363390854792" lon="9.19261249674821"><ele>506.5</ele><time>2026-04-30T11:35:59.001Z</time></trkpt><trkpt lat="40.92356791944173" lon="9.192569196937352"><ele>506.3333333333333</ele><time>2026-04-30T11:36:01.001Z</time></trkpt><trkpt lat="40.92349966297101" lon="9.192564815132195"><ele>506.16666666666663</ele><time>2026-04-30T11:36:02.001Z</time></trkpt><trkpt lat="40.923393488931275" lon="9.192523828622477"><ele>506.0</ele><time>2026-04-30T11:36:04.001Z</time></trkpt><trkpt lat="40.92329284503089" lon="9.192517337070216"><ele>506.6</ele><time>2026-04-30T11:36:06.001Z</time></trkpt><trkpt lat="40.923191757606226" lon="9.192479356686606"><ele>507.20000000000005</ele><time>2026-04-30T11:36:08.001Z</time></trkpt><trkpt lat="40.923095152351216" lon="9.192494449818206"><ele>507.79999999999995</ele><time>2026-04-30T11:36:10.001Z</time></trkpt><trkpt lat="40.92300764197482" lon="9.192513752750568"><ele>508.4</ele><time>2026-04-30T11:36:12.001Z</time></trkpt><trkpt lat="40.922927308178345" lon="9.192534291448395"><ele>509.0</ele><time>2026-04-30T11:36:14.001Z</time></trkpt><trkpt lat="40.92282584173289" lon="9.19255921834497"><ele>508.99999999999994</ele><time>2026-04-30T11:36:16.001Z</time></trkpt><trkpt lat="40.92273121105166" lon="9.19256542443202"><ele>509.0</ele><time>2026-04-30T11:36:18.001Z</time></trkpt><trkpt lat="40.92262566317606" lon="9.19257083102785"><ele>509.0</ele><time>2026-04-30T11:36:20.001Z</time></trkpt><trkpt lat="40.922533438538366" lon="9.19253072301555"><ele>509.0</ele><time>2026-04-30T11:36:22Z</time></trkpt><trkpt lat="40.92245678118118" lon="9.19250953425827"><ele>508.99999999999994</ele><time>2026-04-30T11:36:24Z</time></trkpt><trkpt lat="40.92241273793983" lon="9.192442858481103"><ele>509.0</ele><time>2026-04-30T11:36:26Z</time></trkpt><trkpt lat="40.92241093370015" lon="9.1923184680745"><ele>508.8333333333333</ele><time>2026-04-30T11:36:28Z</time></trkpt><trkpt lat="40.92242997843784" lon="9.192152338163"><ele>508.66666666666663</ele><time>2026-04-30T11:36:30Z</time></trkpt><trkpt lat="40.92244058032254" lon="9.192066891583393"><ele>508.5</ele><time>2026-04-30T11:36:31Z</time></trkpt><trkpt lat="40.92244795237326" lon="9.191977576989876"><ele>508.33333333333337</ele><time>2026-04-30T11:36:32Z</time></trkpt><trkpt lat="40.922457446448036" lon="9.19188155336917"><ele>508.1666666666667</ele><time>2026-04-30T11:36:33Z</time></trkpt><trkpt lat="40.922473873181346" lon="9.191799615237953"><ele>508.0</ele><time>2026-04-30T11:36:34Z</time></trkpt><trkpt lat="40.92249256120614" lon="9.191718850492194"><ele>508.00000000000006</ele><time>2026-04-30T11:36:35Z</time></trkpt><trkpt lat="40.92255507238348" lon="9.191575851184353"><ele>508.0</ele><time>2026-04-30T11:36:37Z</time></trkpt><trkpt lat="40.92259563754151" lon="9.191505911803329"><ele>508.0</ele><time>2026-04-30T11:36:38Z</time></trkpt><trkpt lat="40.92263796444632" lon="9.191429009389738"><ele>508.0</ele><time>2026-04-30T11:36:39Z</time></trkpt><trkpt lat="40.922679012957325" lon="9.191348878506016"><ele>508.00000000000006</ele><time>2026-04-30T11:36:40Z</time></trkpt><trkpt lat="40.92272391782405" lon="9.19125739783071"><ele>508.0</ele><time>2026-04-30T11:36:41Z</time></trkpt><trkpt lat="40.92278140437664" lon="9.191185671159843"><ele>507.1666666666667</ele><time>2026-04-30T11:36:42Z</time></trkpt><trkpt lat="40.92282564843051" lon="9.191103945270191"><ele>506.33333333333337</ele><time>2026-04-30T11:36:43Z</time></trkpt><trkpt lat="40.922868465755215" lon="9.191024480417552"><ele>505.5</ele><time>2026-04-30T11:36:44Z</time></trkpt><trkpt lat="40.92291464588113" lon="9.19093678752198"><ele>504.66666666666663</ele><time>2026-04-30T11:36:45Z</time></trkpt><trkpt lat="40.92296905061756" lon="9.190832783424412"><ele>503.8333333333333</ele><time>2026-04-30T11:36:46Z</time></trkpt><trkpt lat="40.923013577830766" lon="9.190713379758366"><ele>503.0</ele><time>2026-04-30T11:36:47Z</time></trkpt><trkpt lat="40.92308298841745" lon="9.190587675441929"><ele>500.75</ele><time>2026-04-30T11:36:48Z</time></trkpt><trkpt lat="40.92315503724207" lon="9.190461868596923"><ele>498.5</ele><time>2026-04-30T11:36:49Z</time></trkpt><trkpt lat="40.923222738628034" lon="9.190335259841888"><ele>496.25</ele><time>2026-04-30T11:36:50Z</time></trkpt><trkpt lat="40.92328764268816" lon="9.19021496904112"><ele>494.0</ele><time>2026-04-30T11:36:51Z</time></trkpt><trkpt lat="40.92335089063464" lon="9.190094721630834"><ele>493.2</ele><time>2026-04-30T11:36:52Z</time></trkpt><trkpt lat="40.92341929554222" lon="9.189978290110341"><ele>492.4</ele><time>2026-04-30T11:36:53Z</time></trkpt><trkpt lat="40.92347941281101" lon="9.189863395905736"><ele>491.6</ele><time>2026-04-30T11:36:54Z</time></trkpt><trkpt lat="40.923535288147235" lon="9.189755945827347"><ele>490.8</ele><time>2026-04-30T11:36:55Z</time></trkpt><trkpt lat="40.923584702665806" lon="9.18965075113762"><ele>490.0</ele><time>2026-04-30T11:36:56Z</time></trkpt><trkpt lat="40.92363322983295" lon="9.189545163788209"><ele>489.2</ele><time>2026-04-30T11:36:57Z</time></trkpt><trkpt lat="40.923638024161015" lon="9.189417472731119"><ele>488.4</ele><time>2026-04-30T11:36:58Z</time></trkpt><trkpt lat="40.92360994159042" lon="9.189279793947225"><ele>487.6</ele><time>2026-04-30T11:36:59Z</time></trkpt><trkpt lat="40.92356062392962" lon="9.189152294998332"><ele>486.8</ele><time>2026-04-30T11:37:00Z</time></trkpt><trkpt lat="40.92354233324945" lon="9.189022627236993"><ele>486.0</ele><time>2026-04-30T11:37:01Z</time></trkpt><trkpt lat="40.923514734375466" lon="9.188904731482051"><ele>485.0</ele><time>2026-04-30T11:37:02Z</time></trkpt><trkpt lat="40.923484703753715" lon="9.18879746143475"><ele>484.0</ele><time>2026-04-30T11:37:03Z</time></trkpt><trkpt lat="40.92350361564163" lon="9.188683716100748"><ele>483.0</ele><time>2026-04-30T11:37:04Z</time></trkpt><trkpt lat="40.92355731494732" lon="9.18856286027564"><ele>482.0</ele><time>2026-04-30T11:37:05Z</time></trkpt><trkpt lat="40.92363023633301" lon="9.188426656274205"><ele>481.0</ele><time>2026-04-30T11:37:06.001Z</time></trkpt><trkpt lat="40.92369479164075" lon="9.188297659835106"><ele>480.6</ele><time>2026-04-30T11:37:07.001Z</time></trkpt><trkpt lat="40.9237415102216" lon="9.188175443998631"><ele>480.20000000000005</ele><time>2026-04-30T11:37:08.001Z</time></trkpt><trkpt lat="40.92375914243351" lon="9.188054164370707"><ele>479.79999999999995</ele><time>2026-04-30T11:37:09.001Z</time></trkpt><trkpt lat="40.92374645888298" lon="9.187936123965597"><ele>479.4</ele><time>2026-04-30T11:37:10.001Z</time></trkpt><trkpt lat="40.923704841886945" lon="9.187806079256788"><ele>479.0</ele><time>2026-04-30T11:37:11.001Z</time></trkpt><trkpt lat="40.92365562589271" lon="9.187672023080573"><ele>479.0</ele><time>2026-04-30T11:37:12.001Z</time></trkpt><trkpt lat="40.92361606843812" lon="9.187523248373784"><ele>479.0</ele><time>2026-04-30T11:37:13.001Z</time></trkpt><trkpt lat="40.923596370360784" lon="9.187370822973534"><ele>479.0</ele><time>2026-04-30T11:37:14.001Z</time></trkpt><trkpt lat="40.923585222831704" lon="9.187217398937795"><ele>479.0</ele><time>2026-04-30T11:37:15.001Z</time></trkpt><trkpt lat="40.92358648683531" lon="9.187067223836292"><ele>480.0</ele><time>2026-04-30T11:37:16.001Z</time></trkpt><trkpt lat="40.923600371776516" lon="9.186933152136646"><ele>481.0</ele><time>2026-04-30T11:37:17.001Z</time></trkpt><trkpt lat="40.92363785362305" lon="9.186811588442731"><ele>482.0</ele><time>2026-04-30T11:37:18.001Z</time></trkpt><trkpt lat="40.923707761377834" lon="9.1867153231952"><ele>483.0</ele><time>2026-04-30T11:37:19.001Z</time></trkpt><trkpt lat="40.92379829129463" lon="9.18662554465038"><ele>484.0</ele><time>2026-04-30T11:37:20.001Z</time></trkpt><trkpt lat="40.92390349979804" lon="9.186532801041231"><ele>483.0</ele><time>2026-04-30T11:37:21.001Z</time></trkpt><trkpt lat="40.92400923821715" lon="9.186436057711072"><ele>482.0</ele><time>2026-04-30T11:37:22.001Z</time></trkpt><trkpt lat="40.924103210137815" lon="9.186341697079776"><ele>481.0</ele><time>2026-04-30T11:37:23.001Z</time></trkpt><trkpt lat="40.924176228371444" lon="9.186242137561146"><ele>480.0</ele><time>2026-04-30T11:37:24.001Z</time></trkpt><trkpt lat="40.924239821928666" lon="9.186131336050364"><ele>480.0</ele><time>2026-04-30T11:37:25.001Z</time></trkpt><trkpt lat="40.92425510112891" lon="9.185979572727929"><ele>480.0</ele><time>2026-04-30T11:37:26.001Z</time></trkpt><trkpt lat="40.924219988134276" lon="9.185828778145565"><ele>480.0</ele><time>2026-04-30T11:37:27.001Z</time></trkpt><trkpt lat="40.9241761871548" lon="9.185678663984598"><ele>480.0</ele><time>2026-04-30T11:37:28.001Z</time></trkpt><trkpt lat="40.924129612183336" lon="9.185518330665666"><ele>479.5</ele><time>2026-04-30T11:37:29.001Z</time></trkpt><trkpt lat="40.924084241187295" lon="9.185344998180714"><ele>479.0</ele><time>2026-04-30T11:37:30.001Z</time></trkpt><trkpt lat="40.924036288181824" lon="9.185169159738056"><ele>478.5</ele><time>2026-04-30T11:37:31.001Z</time></trkpt><trkpt lat="40.923990247640425" lon="9.184998265832276"><ele>478.0</ele><time>2026-04-30T11:37:32.001Z</time></trkpt><trkpt lat="40.92394758355593" lon="9.184831973964448"><ele>477.0</ele><time>2026-04-30T11:37:33.001Z</time></trkpt><trkpt lat="40.923903615112756" lon="9.184668840609659"><ele>476.0</ele><time>2026-04-30T11:37:34.001Z</time></trkpt><trkpt lat="40.92387320651569" lon="9.184512698986486"><ele>475.0</ele><time>2026-04-30T11:37:35.001Z</time></trkpt><trkpt lat="40.923867895649686" lon="9.184351574833435"><ele>474.0</ele><time>2026-04-30T11:37:36.001Z</time></trkpt><trkpt lat="40.92390409433908" lon="9.184198720565822"><ele>474.0</ele><time>2026-04-30T11:37:37.001Z</time></trkpt><trkpt lat="40.92397145880897" lon="9.184048643169893"><ele>474.0</ele><time>2026-04-30T11:37:38.001Z</time></trkpt><trkpt lat="40.924024629251996" lon="9.183880929204111"><ele>474.0</ele><time>2026-04-30T11:37:39.001Z</time></trkpt><trkpt lat="40.92404842088352" lon="9.183695928615938"><ele>474.0</ele><time>2026-04-30T11:37:40.001Z</time></trkpt><trkpt lat="40.924058476393796" lon="9.183506772222557"><ele>473.5</ele><time>2026-04-30T11:37:41.001Z</time></trkpt><trkpt lat="40.92406524199395" lon="9.183306228158852"><ele>473.0</ele><time>2026-04-30T11:37:42.001Z</time></trkpt><trkpt lat="40.924069832644534" lon="9.183108635305697"><ele>472.5</ele><time>2026-04-30T11:37:43.001Z</time></trkpt><trkpt lat="40.924077369176885" lon="9.182928185186851"><ele>472.0</ele><time>2026-04-30T11:37:44.001Z</time></trkpt><trkpt lat="40.924085467124144" lon="9.182764207813532"><ele>470.40000000000003</ele><time>2026-04-30T11:37:45.001Z</time></trkpt><trkpt lat="40.92409613358352" lon="9.182612345491288"><ele>468.80000000000007</ele><time>2026-04-30T11:37:46.001Z</time></trkpt><trkpt lat="40.92410891547924" lon="9.182487021354188"><ele>467.2</ele><time>2026-04-30T11:37:47.001Z</time></trkpt><trkpt lat="40.92413173761597" lon="9.182380081480417"><ele>465.6</ele><time>2026-04-30T11:37:48.001Z</time></trkpt><trkpt lat="40.92416727963352" lon="9.182279426652183"><ele>464.0</ele><time>2026-04-30T11:37:49.001Z</time></trkpt><trkpt lat="40.92421097842995" lon="9.182174368651365"><ele>463.0</ele><time>2026-04-30T11:37:50.001Z</time></trkpt><trkpt lat="40.92426082751138" lon="9.182051593194148"><ele>462.0</ele><time>2026-04-30T11:37:51.001Z</time></trkpt><trkpt lat="40.92431434658749" lon="9.181921298435043"><ele>461.0</ele><time>2026-04-30T11:37:52.001Z</time></trkpt><trkpt lat="40.9243743954015" lon="9.181772962846887"><ele>460.0</ele><time>2026-04-30T11:37:53.001Z</time></trkpt><trkpt lat="40.924437974037616" lon="9.181611634543525"><ele>459.75</ele><time>2026-04-30T11:37:54.001Z</time></trkpt><trkpt lat="40.92449932787245" lon="9.181446829106157"><ele>459.5</ele><time>2026-04-30T11:37:55.001Z</time></trkpt><trkpt lat="40.924557633181585" lon="9.181279483110112"><ele>459.25</ele><time>2026-04-30T11:37:56.001Z</time></trkpt><trkpt lat="40.92461692552339" lon="9.18111290909081"><ele>459.0</ele><time>2026-04-30T11:37:57.001Z</time></trkpt><trkpt lat="40.924663746228575" lon="9.180939827450741"><ele>459.0</ele><time>2026-04-30T11:37:58.001Z</time></trkpt><trkpt lat="40.92470453097648" lon="9.18076374177488"><ele>459.0</ele><time>2026-04-30T11:37:59.001Z</time></trkpt><trkpt lat="40.924737201868965" lon="9.180584007151927"><ele>459.0</ele><time>2026-04-30T11:38:00.001Z</time></trkpt><trkpt lat="40.924766558908146" lon="9.180408176734725"><ele>459.0</ele><time>2026-04-30T11:38:01.001Z</time></trkpt><trkpt lat="40.924794326692066" lon="9.180237113767658"><ele>459.75</ele><time>2026-04-30T11:38:02.001Z</time></trkpt><trkpt lat="40.92482002130985" lon="9.18006611861338"><ele>460.5</ele><time>2026-04-30T11:38:03.001Z</time></trkpt><trkpt lat="40.92484467760991" lon="9.1799052993296"><ele>461.25</ele><time>2026-04-30T11:38:04.001Z</time></trkpt><trkpt lat="40.92487003532597" lon="9.179753849475642"><ele>462.0</ele><time>2026-04-30T11:38:05.002Z</time></trkpt><trkpt lat="40.92489295094341" lon="9.17961306526997"><ele>462.20000000000005</ele><time>2026-04-30T11:38:06.002Z</time></trkpt><trkpt lat="40.924914828146065" lon="9.179484400765281"><ele>462.40000000000003</ele><time>2026-04-30T11:38:07.002Z</time></trkpt><trkpt lat="40.924942385332926" lon="9.179362344668975"><ele>462.59999999999997</ele><time>2026-04-30T11:38:08.002Z</time></trkpt><trkpt lat="40.92498280379221" lon="9.17924265088012"><ele>462.79999999999995</ele><time>2026-04-30T11:38:09.002Z</time></trkpt><trkpt lat="40.92503335233684" lon="9.1790980286718"><ele>463.0</ele><time>2026-04-30T11:38:10.002Z</time></trkpt><trkpt lat="40.92511254618469" lon="9.178983683831055"><ele>465.75</ele><time>2026-04-30T11:38:11.002Z</time></trkpt><trkpt lat="40.925183242102186" lon="9.178828554932517"><ele>468.5</ele><time>2026-04-30T11:38:12.002Z</time></trkpt><trkpt lat="40.92521061189922" lon="9.178654065652136"><ele>471.25</ele><time>2026-04-30T11:38:13.002Z</time></trkpt><trkpt lat="40.92530145396198" lon="9.1784725209655"><ele>474.0</ele><time>2026-04-30T11:38:14.002Z</time></trkpt><trkpt lat="40.92535623048227" lon="9.178277094262063"><ele>473.0</ele><time>2026-04-30T11:38:15.002Z</time></trkpt><trkpt lat="40.92540946211301" lon="9.178085442912074"><ele>472.0</ele><time>2026-04-30T11:38:16.002Z</time></trkpt><trkpt lat="40.92545762260591" lon="9.177905705992359"><ele>471.0</ele><time>2026-04-30T11:38:17.002Z</time></trkpt><trkpt lat="40.92549826602269" lon="9.177738760854899"><ele>470.0</ele><time>2026-04-30T11:38:18.002Z</time></trkpt><trkpt lat="40.92554105750349" lon="9.177583036473987"><ele>470.0</ele><time>2026-04-30T11:38:19.002Z</time></trkpt><trkpt lat="40.92560055377002" lon="9.177436435260617"><ele>470.0</ele><time>2026-04-30T11:38:20.002Z</time></trkpt><trkpt lat="40.92568413901669" lon="9.177315919776769"><ele>470.0</ele><time>2026-04-30T11:38:21.002Z</time></trkpt><trkpt lat="40.92578709534373" lon="9.177211624528107"><ele>470.0</ele><time>2026-04-30T11:38:22.002Z</time></trkpt><trkpt lat="40.92589250728886" lon="9.177121951113088"><ele>470.0</ele><time>2026-04-30T11:38:23.002Z</time></trkpt><trkpt lat="40.92599306864848" lon="9.177049485943142"><ele>470.0</ele><time>2026-04-30T11:38:24.002Z</time></trkpt><trkpt lat="40.926098515621106" lon="9.177017120908204"><ele>470.0</ele><time>2026-04-30T11:38:25.002Z</time></trkpt><trkpt lat="40.92619962465752" lon="9.17703581357788"><ele>470.0</ele><time>2026-04-30T11:38:26.002Z</time></trkpt><trkpt lat="40.926299819745154" lon="9.177095820694536"><ele>470.0</ele><time>2026-04-30T11:38:27.001Z</time></trkpt><trkpt lat="40.9263955539107" lon="9.177191442454014"><ele>470.0</ele><time>2026-04-30T11:38:28.001Z</time></trkpt><trkpt lat="40.92649089610747" lon="9.177313388449768"><ele>470.0</ele><time>2026-04-30T11:38:29.001Z</time></trkpt><trkpt lat="40.92660096316284" lon="9.177435492591368"><ele>470.0</ele><time>2026-04-30T11:38:30.001Z</time></trkpt><trkpt lat="40.92672485834511" lon="9.17754956480833"><ele>470.0</ele><time>2026-04-30T11:38:31.001Z</time></trkpt><trkpt lat="40.92685042465422" lon="9.177658636188418"><ele>470.5</ele><time>2026-04-30T11:38:32.001Z</time></trkpt><trkpt lat="40.9269726260979" lon="9.177761038966988"><ele>471.0</ele><time>2026-04-30T11:38:33.001Z</time></trkpt><trkpt lat="40.927090717994936" lon="9.177860329285895"><ele>471.5</ele><time>2026-04-30T11:38:34.001Z</time></trkpt><trkpt lat="40.92720028365361" lon="9.177948974343963"><ele>472.0</ele><time>2026-04-30T11:38:35.001Z</time></trkpt><trkpt lat="40.92730202775621" lon="9.178027590833503"><ele>472.0</ele><time>2026-04-30T11:38:36.001Z</time></trkpt><trkpt lat="40.92739258482049" lon="9.17810090280171"><ele>472.00000000000006</ele><time>2026-04-30T11:38:37.001Z</time></trkpt><trkpt lat="40.92746861025777" lon="9.178180412120394"><ele>472.00000000000006</ele><time>2026-04-30T11:38:38.001Z</time></trkpt><trkpt lat="40.92752948448518" lon="9.178271644534172"><ele>472.0</ele><time>2026-04-30T11:38:39.001Z</time></trkpt><trkpt lat="40.927579077918644" lon="9.17838917312793"><ele>472.0</ele><time>2026-04-30T11:38:40.001Z</time></trkpt><trkpt lat="40.92762028938527" lon="9.17853461734408"><ele>471.5</ele><time>2026-04-30T11:38:41.001Z</time></trkpt><trkpt lat="40.927676194630585" lon="9.17868747657302"><ele>471.0</ele><time>2026-04-30T11:38:42.001Z</time></trkpt><trkpt lat="40.92770259043083" lon="9.178886064130717"><ele>470.5</ele><time>2026-04-30T11:38:43.001Z</time></trkpt><trkpt lat="40.927744952928876" lon="9.17907764465856"><ele>470.0</ele><time>2026-04-30T11:38:44.001Z</time></trkpt><trkpt lat="40.9277902436143" lon="9.179262775048825"><ele>470.0</ele><time>2026-04-30T11:38:45.001Z</time></trkpt><trkpt lat="40.927854623673284" lon="9.179449182027447"><ele>470.0</ele><time>2026-04-30T11:38:46.001Z</time></trkpt><trkpt lat="40.927941351771274" lon="9.179630050995563"><ele>470.0</ele><time>2026-04-30T11:38:47.001Z</time></trkpt><trkpt lat="40.928038045051444" lon="9.179811126051874"><ele>467.66666666666663</ele><time>2026-04-30T11:38:48.001Z</time></trkpt><trkpt lat="40.92813637493588" lon="9.17998341743594"><ele>465.33333333333337</ele><time>2026-04-30T11:38:49.001Z</time></trkpt><trkpt lat="40.928228426788216" lon="9.180152986333438"><ele>463.0</ele><time>2026-04-30T11:38:50.001Z</time></trkpt><trkpt lat="40.92831929555281" lon="9.180313158154929"><ele>464.75</ele><time>2026-04-30T11:38:51.001Z</time></trkpt><trkpt lat="40.92840904352382" lon="9.180463879547661"><ele>466.5</ele><time>2026-04-30T11:38:52.001Z</time></trkpt><trkpt lat="40.92850673257056" lon="9.180597436667968"><ele>468.25</ele><time>2026-04-30T11:38:53.001Z</time></trkpt><trkpt lat="40.92861507073589" lon="9.180703292348296"><ele>470.0</ele><time>2026-04-30T11:38:54.001Z</time></trkpt><trkpt lat="40.92873832562738" lon="9.18078863549461"><ele>464.3333333333333</ele><time>2026-04-30T11:38:55.001Z</time></trkpt><trkpt lat="40.92887764669381" lon="9.180848172470785"><ele>458.66666666666663</ele><time>2026-04-30T11:38:56.001Z</time></trkpt><trkpt lat="40.92902713918688" lon="9.180891397872754"><ele>453.0</ele><time>2026-04-30T11:38:57.001Z</time></trkpt><trkpt lat="40.92918328676128" lon="9.180930017021955"><ele>455.33333333333337</ele><time>2026-04-30T11:38:58.001Z</time></trkpt><trkpt lat="40.92934384744419" lon="9.18097387416225"><ele>457.6666666666667</ele><time>2026-04-30T11:38:59.001Z</time></trkpt><trkpt lat="40.92950481304497" lon="9.181027311852203"><ele>460.0</ele><time>2026-04-30T11:39:00.001Z</time></trkpt><trkpt lat="40.929665684225164" lon="9.181099920103382"><ele>460.0</ele><time>2026-04-30T11:39:01.001Z</time></trkpt><trkpt lat="40.92981981099397" lon="9.181188597483649"><ele>460.0</ele><time>2026-04-30T11:39:02.001Z</time></trkpt><trkpt lat="40.92997080679322" lon="9.181290127384578"><ele>460.0</ele><time>2026-04-30T11:39:03.001Z</time></trkpt><trkpt lat="40.930125380284224" lon="9.181397694461793"><ele>460.6666666666667</ele><time>2026-04-30T11:39:04.001Z</time></trkpt><trkpt lat="40.9302750432008" lon="9.181498757221751"><ele>461.33333333333337</ele><time>2026-04-30T11:39:05.001Z</time></trkpt><trkpt lat="40.93041716851722" lon="9.181587665589717"><ele>462.0</ele><time>2026-04-30T11:39:06.001Z</time></trkpt><trkpt lat="40.93056030231372" lon="9.181655810479176"><ele>455.0</ele><time>2026-04-30T11:39:07.001Z</time></trkpt><trkpt lat="40.93071039330834" lon="9.181693776233537"><ele>448.0</ele><time>2026-04-30T11:39:08.001Z</time></trkpt><trkpt lat="40.9308675380378" lon="9.181693322723035"><ele>441.0</ele><time>2026-04-30T11:39:09.001Z</time></trkpt><trkpt lat="40.93103850459374" lon="9.181675483844996"><ele>438.66666666666663</ele><time>2026-04-30T11:39:10.001Z</time></trkpt><trkpt lat="40.93121636067322" lon="9.181669927472077"><ele>436.3333333333333</ele><time>2026-04-30T11:39:11.001Z</time></trkpt><trkpt lat="40.93139772581634" lon="9.181692899656394"><ele>434.0</ele><time>2026-04-30T11:39:12.001Z</time></trkpt><trkpt lat="40.93158170532563" lon="9.181741844272787"><ele>437.3333333333333</ele><time>2026-04-30T11:39:13.001Z</time></trkpt><trkpt lat="40.93176933922328" lon="9.18181384237054"><ele>440.66666666666663</ele><time>2026-04-30T11:39:14.001Z</time></trkpt><trkpt lat="40.931957420193136" lon="9.181890741140993"><ele>444.0</ele><time>2026-04-30T11:39:15.001Z</time></trkpt><trkpt lat="40.93213602871887" lon="9.181958693393444"><ele>444.0</ele><time>2026-04-30T11:39:16.001Z</time></trkpt><trkpt lat="40.93230731446761" lon="9.182023577108975"><ele>444.0</ele><time>2026-04-30T11:39:17.001Z</time></trkpt><trkpt lat="40.9324731157986" lon="9.182089565991992"><ele>444.0</ele><time>2026-04-30T11:39:18.001Z</time></trkpt><trkpt lat="40.93262882087903" lon="9.182157438957855"><ele>445.33333333333337</ele><time>2026-04-30T11:39:19.001Z</time></trkpt><trkpt lat="40.93277090109821" lon="9.18225082696814"><ele>446.6666666666667</ele><time>2026-04-30T11:39:20.001Z</time></trkpt><trkpt lat="40.932897556941356" lon="9.182380973116437"><ele>448.0</ele><time>2026-04-30T11:39:21.001Z</time></trkpt><trkpt lat="40.933007370097506" lon="9.182554710174342"><ele>441.33333333333337</ele><time>2026-04-30T11:39:22.001Z</time></trkpt><trkpt lat="40.9330969539805" lon="9.182757663847477"><ele>434.66666666666663</ele><time>2026-04-30T11:39:23.001Z</time></trkpt><trkpt lat="40.933169477252235" lon="9.182992925522575"><ele>428.0</ele><time>2026-04-30T11:39:24.001Z</time></trkpt><trkpt lat="40.933235051805035" lon="9.18324152663749"><ele>424.0</ele><time>2026-04-30T11:39:25.001Z</time></trkpt><trkpt lat="40.933304057969515" lon="9.183505383672022"><ele>420.0</ele><time>2026-04-30T11:39:26.001Z</time></trkpt><trkpt lat="40.93337139381036" lon="9.183752795618723"><ele>416.0</ele><time>2026-04-30T11:39:27.001Z</time></trkpt><trkpt lat="40.93343685121601" lon="9.183993235763777"><ele>420.0</ele><time>2026-04-30T11:39:28.001Z</time></trkpt><trkpt lat="40.93350475065485" lon="9.18422185904083"><ele>424.0</ele><time>2026-04-30T11:39:29.001Z</time></trkpt><trkpt lat="40.933589280680074" lon="9.184446403751851"><ele>428.0</ele><time>2026-04-30T11:39:30.001Z</time></trkpt><trkpt lat="40.93369448480793" lon="9.184659382735214"><ele>421.0</ele><time>2026-04-30T11:39:31.001Z</time></trkpt><trkpt lat="40.933816514134776" lon="9.184859441807205"><ele>414.0</ele><time>2026-04-30T11:39:32.001Z</time></trkpt><trkpt lat="40.93396182428624" lon="9.185057631776614"><ele>407.0</ele><time>2026-04-30T11:39:33.001Z</time></trkpt><trkpt lat="40.93413066015015" lon="9.185265084694738"><ele>405.0</ele><time>2026-04-30T11:39:34.001Z</time></trkpt><trkpt lat="40.934311258317756" lon="9.185478040110585"><ele>403.0</ele><time>2026-04-30T11:39:35.001Z</time></trkpt><trkpt lat="40.93448963864938" lon="9.185696753590422"><ele>403.0</ele><time>2026-04-30T11:39:36.001Z</time></trkpt><trkpt lat="40.93465835420725" lon="9.185911480927981"><ele>403.0</ele><time>2026-04-30T11:39:37.001Z</time></trkpt><trkpt lat="40.93482380023861" lon="9.186120941907108"><ele>403.0</ele><time>2026-04-30T11:39:38.001Z</time></trkpt><trkpt lat="40.93498201069344" lon="9.186321777444057"><ele>403.0</ele><time>2026-04-30T11:39:39.001Z</time></trkpt><trkpt lat="40.93512994075809" lon="9.186513443587593"><ele>403.0</ele><time>2026-04-30T11:39:40.001Z</time></trkpt><trkpt lat="40.93527032862099" lon="9.186693688466837"><ele>402.6666666666667</ele><time>2026-04-30T11:39:41.001Z</time></trkpt><trkpt lat="40.9354023654392" lon="9.186859688823898"><ele>402.33333333333337</ele><time>2026-04-30T11:39:42.001Z</time></trkpt><trkpt lat="40.93553662597604" lon="9.18700926884673"><ele>402.0</ele><time>2026-04-30T11:39:43.001Z</time></trkpt><trkpt lat="40.93568451903408" lon="9.187141389391945"><ele>402.0</ele><time>2026-04-30T11:39:44.001Z</time></trkpt><trkpt lat="40.93585297336749" lon="9.187254683335247"><ele>402.0</ele><time>2026-04-30T11:39:45.001Z</time></trkpt><trkpt lat="40.93604265699825" lon="9.187350601063942"><ele>402.0</ele><time>2026-04-30T11:39:46.001Z</time></trkpt><trkpt lat="40.93624475633665" lon="9.187435608134075"><ele>403.0</ele><time>2026-04-30T11:39:47.001Z</time></trkpt><trkpt lat="40.93645653591533" lon="9.18752321365802"><ele>404.0</ele><time>2026-04-30T11:39:48.001Z</time></trkpt><trkpt lat="40.93666053401042" lon="9.18762160130746"><ele>405.0</ele><time>2026-04-30T11:39:49.001Z</time></trkpt><trkpt lat="40.93684988217196" lon="9.187741632554735"><ele>405.0</ele><time>2026-04-30T11:39:50.001Z</time></trkpt><trkpt lat="40.937035802655394" lon="9.187888012374277"><ele>405.0</ele><time>2026-04-30T11:39:51.002Z</time></trkpt><trkpt lat="40.93721975759712" lon="9.18805730518598"><ele>405.0</ele><time>2026-04-30T11:39:52.002Z</time></trkpt><trkpt lat="40.937402469515725" lon="9.188233368199956"><ele>402.0</ele><time>2026-04-30T11:39:53.002Z</time></trkpt><trkpt lat="40.937586052131394" lon="9.188415201795365"><ele>399.0</ele><time>2026-04-30T11:39:54.002Z</time></trkpt><trkpt lat="40.93776456123459" lon="9.188595045646117"><ele>399.0</ele><time>2026-04-30T11:39:55.002Z</time></trkpt><trkpt lat="40.9379359576298" lon="9.188769069517368"><ele>399.0</ele><time>2026-04-30T11:39:56.002Z</time></trkpt><trkpt lat="40.938100061645606" lon="9.188938035987832"><ele>399.0</ele><time>2026-04-30T11:39:57.002Z</time></trkpt><trkpt lat="40.93824946717364" lon="9.189098236669114"><ele>392.0</ele><time>2026-04-30T11:39:58.002Z</time></trkpt><trkpt lat="40.938391413405164" lon="9.189238312960374"><ele>385.0</ele><time>2026-04-30T11:39:59.002Z</time></trkpt><trkpt lat="40.938529853892405" lon="9.189347171838218"><ele>378.0</ele><time>2026-04-30T11:40:00.002Z</time></trkpt><trkpt lat="40.93868163378002" lon="9.189444932700841"><ele>378.0</ele><time>2026-04-30T11:40:01.002Z</time></trkpt><trkpt lat="40.938857574581256" lon="9.189490055854817"><ele>378.0</ele><time>2026-04-30T11:40:02.002Z</time></trkpt><trkpt lat="40.93904347635136" lon="9.189495626082673"><ele>378.0</ele><time>2026-04-30T11:40:03.002Z</time></trkpt><trkpt lat="40.939214710640655" lon="9.189543737024007"><ele>377.6666666666667</ele><time>2026-04-30T11:40:04.002Z</time></trkpt><trkpt lat="40.93939485859157" lon="9.18962764546237"><ele>377.33333333333337</ele><time>2026-04-30T11:40:05.002Z</time></trkpt><trkpt lat="40.93958518955995" lon="9.189744606937932"><ele>377.0</ele><time>2026-04-30T11:40:06.002Z</time></trkpt><trkpt lat="40.939781028475686" lon="9.189878374666575"><ele>374.0</ele><time>2026-04-30T11:40:07.002Z</time></trkpt><trkpt lat="40.93997721554356" lon="9.19002605696252"><ele>371.0</ele><time>2026-04-30T11:40:08.002Z</time></trkpt><trkpt lat="40.94016830156607" lon="9.190179398684185"><ele>368.0</ele><time>2026-04-30T11:40:09.002Z</time></trkpt><trkpt lat="40.94035731341688" lon="9.190334262819608"><ele>368.0</ele><time>2026-04-30T11:40:10.002Z</time></trkpt><trkpt lat="40.94054504125464" lon="9.190487472689163"><ele>368.0</ele><time>2026-04-30T11:40:11.002Z</time></trkpt><trkpt lat="40.94072843545165" lon="9.190637518079342"><ele>368.0</ele><time>2026-04-30T11:40:12.002Z</time></trkpt><trkpt lat="40.94091210358582" lon="9.190784707066825"><ele>365.0</ele><time>2026-04-30T11:40:13.002Z</time></trkpt><trkpt lat="40.941091670918986" lon="9.1909303043991"><ele>362.0</ele><time>2026-04-30T11:40:14.002Z</time></trkpt><trkpt lat="40.94127048425816" lon="9.191075982845813"><ele>359.0</ele><time>2026-04-30T11:40:15.002Z</time></trkpt><trkpt lat="40.94144868481167" lon="9.191219507478623"><ele>359.0</ele><time>2026-04-30T11:40:16.002Z</time></trkpt><trkpt lat="40.94162197856259" lon="9.191356657672248"><ele>359.0</ele><time>2026-04-30T11:40:17.002Z</time></trkpt><trkpt lat="40.94178981413221" lon="9.191493284071159"><ele>359.0</ele><time>2026-04-30T11:40:18.002Z</time></trkpt><trkpt lat="40.9419538636354" lon="9.191623665435058"><ele>357.0</ele><time>2026-04-30T11:40:19.002Z</time></trkpt><trkpt lat="40.94211316248272" lon="9.191753153596666"><ele>355.0</ele><time>2026-04-30T11:40:20.002Z</time></trkpt><trkpt lat="40.94226081606897" lon="9.19187113115716"><ele>353.0</ele><time>2026-04-30T11:40:21.002Z</time></trkpt><trkpt lat="40.94240387602044" lon="9.191983276883605"><ele>354.6666666666667</ele><time>2026-04-30T11:40:22.002Z</time></trkpt><trkpt lat="40.942551772693214" lon="9.192077721200844"><ele>356.3333333333333</ele><time>2026-04-30T11:40:23.002Z</time></trkpt><trkpt lat="40.94271571038575" lon="9.192148623482058"><ele>358.0</ele><time>2026-04-30T11:40:24.002Z</time></trkpt><trkpt lat="40.9428879577309" lon="9.192187860839068"><ele>358.0</ele><time>2026-04-30T11:40:25.002Z</time></trkpt><trkpt lat="40.9430660510611" lon="9.192208128780674"><ele>358.0</ele><time>2026-04-30T11:40:26.002Z</time></trkpt><trkpt lat="40.943253314570015" lon="9.192224081891295"><ele>358.0</ele><time>2026-04-30T11:40:27.002Z</time></trkpt><trkpt lat="40.94344653402018" lon="9.192248240342293"><ele>358.66666666666663</ele><time>2026-04-30T11:40:28.002Z</time></trkpt><trkpt lat="40.943631029080244" lon="9.192272488643269"><ele>359.3333333333333</ele><time>2026-04-30T11:40:29.002Z</time></trkpt><trkpt lat="40.943805840680206" lon="9.192295578275436"><ele>360.0</ele><time>2026-04-30T11:40:30.002Z</time></trkpt><trkpt lat="40.94397046291549" lon="9.192307676274302"><ele>360.0</ele><time>2026-04-30T11:40:31.002Z</time></trkpt><trkpt lat="40.94412522025742" lon="9.192320946535226"><ele>360.0</ele><time>2026-04-30T11:40:32.002Z</time></trkpt><trkpt lat="40.94426966692195" lon="9.192345304119723"><ele>360.0</ele><time>2026-04-30T11:40:33.002Z</time></trkpt><trkpt lat="40.9444032678351" lon="9.192403790102954"><ele>360.0</ele><time>2026-04-30T11:40:34.002Z</time></trkpt><trkpt lat="40.944515672199394" lon="9.19250125019988"><ele>359.0</ele><time>2026-04-30T11:40:35.002Z</time></trkpt><trkpt lat="40.944600706388485" lon="9.192630200836701"><ele>358.0</ele><time>2026-04-30T11:40:36.002Z</time></trkpt><trkpt lat="40.94465789176809" lon="9.192795289637218"><ele>357.0</ele><time>2026-04-30T11:40:37.001Z</time></trkpt><trkpt lat="40.94468446350782" lon="9.192976802823777"><ele>356.0</ele><time>2026-04-30T11:40:38.001Z</time></trkpt><trkpt lat="40.94466772967475" lon="9.193178703638226"><ele>351.33333333333337</ele><time>2026-04-30T11:40:39.001Z</time></trkpt><trkpt lat="40.94465888643591" lon="9.193399664115452"><ele>346.6666666666667</ele><time>2026-04-30T11:40:40.001Z</time></trkpt><trkpt lat="40.94466410762774" lon="9.193615330433591"><ele>342.0</ele><time>2026-04-30T11:40:41.001Z</time></trkpt><trkpt lat="40.944661072952655" lon="9.19381349690221"><ele>338.75</ele><time>2026-04-30T11:40:42.001Z</time></trkpt><trkpt lat="40.94465805416142" lon="9.194006584749893"><ele>335.5</ele><time>2026-04-30T11:40:43.001Z</time></trkpt><trkpt lat="40.94470284221573" lon="9.194184561085317"><ele>332.25</ele><time>2026-04-30T11:40:44.001Z</time></trkpt><trkpt lat="40.944773012467465" lon="9.194342012542071"><ele>329.0</ele><time>2026-04-30T11:40:45.001Z</time></trkpt><trkpt lat="40.9448516786986" lon="9.194488085680513"><ele>329.0</ele><time>2026-04-30T11:40:46.001Z</time></trkpt><trkpt lat="40.94495333682604" lon="9.194619775791823"><ele>329.0</ele><time>2026-04-30T11:40:47.001Z</time></trkpt><trkpt lat="40.945041001938584" lon="9.194753817891993"><ele>329.0</ele><time>2026-04-30T11:40:48.001Z</time></trkpt><trkpt lat="40.945224083760785" lon="9.194834036565664"><ele>324.0</ele><time>2026-04-30T11:40:49.001Z</time></trkpt><trkpt lat="40.94533651302591" lon="9.194937912527756"><ele>319.0</ele><time>2026-04-30T11:40:50.001Z</time></trkpt><trkpt lat="40.94557945378647" lon="9.1948417549576"><ele>314.0</ele><time>2026-04-30T11:40:51.001Z</time></trkpt><trkpt lat="40.945678420675286" lon="9.194965558814168"><ele>314.0</ele><time>2026-04-30T11:40:52.001Z</time></trkpt><trkpt lat="40.94574164429887" lon="9.195122601659913"><ele>314.0</ele><time>2026-04-30T11:40:53.001Z</time></trkpt><trkpt lat="40.94578117494258" lon="9.195305157673614"><ele>314.0</ele><time>2026-04-30T11:40:54.001Z</time></trkpt><trkpt lat="40.94579873634194" lon="9.195507311638288"><ele>314.0</ele><time>2026-04-30T11:40:55.001Z</time></trkpt><trkpt lat="40.94578020560803" lon="9.195717762346204"><ele>314.0</ele><time>2026-04-30T11:40:56.001Z</time></trkpt><trkpt lat="40.94577474888477" lon="9.195941164825577"><ele>314.0</ele><time>2026-04-30T11:40:57.001Z</time></trkpt><trkpt lat="40.945768566645114" lon="9.196175020822071"><ele>314.0</ele><time>2026-04-30T11:40:58.001Z</time></trkpt><trkpt lat="40.94577720691053" lon="9.196410441153322"><ele>312.0</ele><time>2026-04-30T11:40:59.001Z</time></trkpt><trkpt lat="40.94576993075903" lon="9.196629157110122"><ele>310.0</ele><time>2026-04-30T11:41:00.001Z</time></trkpt><trkpt lat="40.94574995634685" lon="9.19682932518977"><ele>308.0</ele><time>2026-04-30T11:41:01.001Z</time></trkpt><trkpt lat="40.94575094813099" lon="9.197020464996061"><ele>308.0</ele><time>2026-04-30T11:41:02.001Z</time></trkpt><trkpt lat="40.945764003900145" lon="9.197198576656827"><ele>308.0</ele><time>2026-04-30T11:41:03.001Z</time></trkpt><trkpt lat="40.94580064016917" lon="9.197365291905356"><ele>308.0</ele><time>2026-04-30T11:41:04.001Z</time></trkpt><trkpt lat="40.94586936728921" lon="9.19750613205121"><ele>308.0</ele><time>2026-04-30T11:41:05.001Z</time></trkpt><trkpt lat="40.945921952417194" lon="9.197654892508261"><ele>307.25</ele><time>2026-04-30T11:41:06.001Z</time></trkpt><trkpt lat="40.94599501847681" lon="9.197794316170594"><ele>306.5</ele><time>2026-04-30T11:41:07.001Z</time></trkpt><trkpt lat="40.94607873781331" lon="9.197928338406744"><ele>305.75</ele><time>2026-04-30T11:41:08.001Z</time></trkpt><trkpt lat="40.94617899936151" lon="9.198047121157567"><ele>305.0</ele><time>2026-04-30T11:41:09.001Z</time></trkpt><trkpt lat="40.946277527939806" lon="9.198177719059274"><ele>305.0</ele><time>2026-04-30T11:41:10.001Z</time></trkpt><trkpt lat="40.94638850731203" lon="9.19829828508841"><ele>305.0</ele><time>2026-04-30T11:41:11.001Z</time></trkpt><trkpt lat="40.94651172253416" lon="9.198419914914291"><ele>305.0</ele><time>2026-04-30T11:41:12.001Z</time></trkpt><trkpt lat="40.94663856288497" lon="9.198557935459942"><ele>310.33333333333337</ele><time>2026-04-30T11:41:13.001Z</time></trkpt><trkpt lat="40.94677298150818" lon="9.198699599221777"><ele>315.6666666666667</ele><time>2026-04-30T11:41:14.001Z</time></trkpt><trkpt lat="40.94690214246217" lon="9.198839605036454"><ele>321.0</ele><time>2026-04-30T11:41:15.001Z</time></trkpt><trkpt lat="40.9470269430044" lon="9.198974480830579"><ele>312.6666666666667</ele><time>2026-04-30T11:41:16.001Z</time></trkpt><trkpt lat="40.94715226135372" lon="9.199108064106085"><ele>304.33333333333337</ele><time>2026-04-30T11:41:17.001Z</time></trkpt><trkpt lat="40.947280421767694" lon="9.199239592659113"><ele>296.0</ele><time>2026-04-30T11:41:18.001Z</time></trkpt><trkpt lat="40.947418509432964" lon="9.199371757666935"><ele>298.6666666666667</ele><time>2026-04-30T11:41:19.001Z</time></trkpt><trkpt lat="40.947572067258214" lon="9.199488962366479"><ele>301.3333333333333</ele><time>2026-04-30T11:41:20.001Z</time></trkpt><trkpt lat="40.94774449432834" lon="9.19958454190727"><ele>304.0</ele><time>2026-04-30T11:41:21.001Z</time></trkpt><trkpt lat="40.947936594058035" lon="9.199653273725463"><ele>304.0</ele><time>2026-04-30T11:41:22.001Z</time></trkpt><trkpt lat="40.94813997591448" lon="9.199707879413099"><ele>304.0</ele><time>2026-04-30T11:41:23.001Z</time></trkpt><trkpt lat="40.948337919688846" lon="9.199757099898934"><ele>304.0</ele><time>2026-04-30T11:41:24.001Z</time></trkpt><trkpt lat="40.94852411368675" lon="9.199805978406701"><ele>299.0</ele><time>2026-04-30T11:41:25.001Z</time></trkpt><trkpt lat="40.948701799187134" lon="9.199858477745261"><ele>294.0</ele><time>2026-04-30T11:41:26.001Z</time></trkpt><trkpt lat="40.94886779982472" lon="9.199932685646596"><ele>289.0</ele><time>2026-04-30T11:41:27.001Z</time></trkpt><trkpt lat="40.94902033756951" lon="9.200037353597521"><ele>289.0</ele><time>2026-04-30T11:41:28.001Z</time></trkpt><trkpt lat="40.94915622784013" lon="9.20018111358045"><ele>289.0</ele><time>2026-04-30T11:41:29.001Z</time></trkpt><trkpt lat="40.949274986516755" lon="9.200369834802457"><ele>289.0</ele><time>2026-04-30T11:41:30.001Z</time></trkpt><trkpt lat="40.94938800744915" lon="9.200583565639977"><ele>289.66666666666663</ele><time>2026-04-30T11:41:31.001Z</time></trkpt><trkpt lat="40.949499880773345" lon="9.200800895668667"><ele>290.3333333333333</ele><time>2026-04-30T11:41:32.001Z</time></trkpt><trkpt lat="40.94960550183059" lon="9.20099814909445"><ele>291.0</ele><time>2026-04-30T11:41:33.001Z</time></trkpt><trkpt lat="40.949719548761585" lon="9.201182373489052"><ele>291.0</ele><time>2026-04-30T11:41:34.001Z</time></trkpt><trkpt lat="40.94985986257332" lon="9.201340239565305"><ele>291.0</ele><time>2026-04-30T11:41:35.001Z</time></trkpt><trkpt lat="40.950019564689434" lon="9.201469791144964"><ele>291.0</ele><time>2026-04-30T11:41:36.001Z</time></trkpt><trkpt lat="40.95019150002832" lon="9.201584355411097"><ele>290.3333333333333</ele><time>2026-04-30T11:41:37.001Z</time></trkpt><trkpt lat="40.9503681461463" lon="9.201696753547324"><ele>289.66666666666663</ele><time>2026-04-30T11:41:38.001Z</time></trkpt><trkpt lat="40.95055253183821" lon="9.201809029324094"><ele>289.0</ele><time>2026-04-30T11:41:39.001Z</time></trkpt><trkpt lat="40.95074643784975" lon="9.201912848068805"><ele>291.66666666666663</ele><time>2026-04-30T11:41:40.001Z</time></trkpt><trkpt lat="40.95095068891764" lon="9.201992237442834"><ele>294.3333333333333</ele><time>2026-04-30T11:41:41.001Z</time></trkpt><trkpt lat="40.95115545406356" lon="9.2020502887628"><ele>297.0</ele><time>2026-04-30T11:41:42.001Z</time></trkpt><trkpt lat="40.9513491480906" lon="9.202100832910913"><ele>297.0</ele><time>2026-04-30T11:41:43.001Z</time></trkpt><trkpt lat="40.95153197335039" lon="9.202161277491095"><ele>297.0</ele><time>2026-04-30T11:41:44.001Z</time></trkpt><trkpt lat="40.951702855394224" lon="9.202244165989935"><ele>297.0</ele><time>2026-04-30T11:41:45.001Z</time></trkpt><trkpt lat="40.951867509477836" lon="9.202360794686324"><ele>291.6666666666667</ele><time>2026-04-30T11:41:46.001Z</time></trkpt><trkpt lat="40.952030223312946" lon="9.202512081814552"><ele>286.33333333333337</ele><time>2026-04-30T11:41:47.001Z</time></trkpt><trkpt lat="40.95219372302795" lon="9.202684263670564"><ele>281.0</ele><time>2026-04-30T11:41:48.001Z</time></trkpt><trkpt lat="40.952359618576146" lon="9.202863511051765"><ele>281.0</ele><time>2026-04-30T11:41:49.001Z</time></trkpt><trkpt lat="40.95252587443056" lon="9.203035936565788"><ele>281.0</ele><time>2026-04-30T11:41:50.001Z</time></trkpt><trkpt lat="40.95269385017625" lon="9.203204030355252"><ele>281.0</ele><time>2026-04-30T11:41:51.001Z</time></trkpt><trkpt lat="40.95285291398042" lon="9.203376210388402"><ele>277.0</ele><time>2026-04-30T11:41:52.001Z</time></trkpt><trkpt lat="40.953014171347945" lon="9.203535921476538"><ele>273.0</ele><time>2026-04-30T11:41:53.001Z</time></trkpt><trkpt lat="40.953163689260116" lon="9.203692231244403"><ele>269.0</ele><time>2026-04-30T11:41:54.001Z</time></trkpt><trkpt lat="40.95330712411837" lon="9.203846664532051"><ele>266.33333333333337</ele><time>2026-04-30T11:41:55.001Z</time></trkpt><trkpt lat="40.95343503423405" lon="9.204003079752885"><ele>263.6666666666667</ele><time>2026-04-30T11:41:56.001Z</time></trkpt><trkpt lat="40.95354871340797" lon="9.20416939637513"><ele>261.0</ele><time>2026-04-30T11:41:57.001Z</time></trkpt><trkpt lat="40.95364439499416" lon="9.204343660938457"><ele>261.0</ele><time>2026-04-30T11:41:58.001Z</time></trkpt><trkpt lat="40.95372315206439" lon="9.204543796409135"><ele>261.0</ele><time>2026-04-30T11:41:59.001Z</time></trkpt><trkpt lat="40.95378064590459" lon="9.204761735272987"><ele>261.0</ele><time>2026-04-30T11:42:00.001Z</time></trkpt><trkpt lat="40.953818260697304" lon="9.204986761335547"><ele>258.3333333333333</ele><time>2026-04-30T11:42:01.001Z</time></trkpt><trkpt lat="40.95384871060004" lon="9.205214054361313"><ele>255.66666666666666</ele><time>2026-04-30T11:42:02.001Z</time></trkpt><trkpt lat="40.953881511369495" lon="9.20543597935986"><ele>253.0</ele><time>2026-04-30T11:42:03.001Z</time></trkpt><trkpt lat="40.9539291523671" lon="9.205648805436006"><ele>251.66666666666666</ele><time>2026-04-30T11:42:04.001Z</time></trkpt><trkpt lat="40.9539940691488" lon="9.205853149121129"><ele>250.33333333333331</ele><time>2026-04-30T11:42:05.001Z</time></trkpt><trkpt lat="40.95407633801802" lon="9.206045110711042"><ele>249.0</ele><time>2026-04-30T11:42:06.001Z</time></trkpt><trkpt lat="40.9541760659324" lon="9.206223604950466"><ele>246.33333333333331</ele><time>2026-04-30T11:42:07.001Z</time></trkpt><trkpt lat="40.95429217951658" lon="9.206384906483425"><ele>243.66666666666666</ele><time>2026-04-30T11:42:08.001Z</time></trkpt><trkpt lat="40.95442185874573" lon="9.206529194648438"><ele>241.0</ele><time>2026-04-30T11:42:09.001Z</time></trkpt><trkpt lat="40.95456236951652" lon="9.20665480980779"><ele>239.66666666666666</ele><time>2026-04-30T11:42:10.001Z</time></trkpt><trkpt lat="40.954709458732296" lon="9.2067480735276"><ele>238.33333333333331</ele><time>2026-04-30T11:42:11.001Z</time></trkpt><trkpt lat="40.95485857464947" lon="9.206816481428095"><ele>237.0</ele><time>2026-04-30T11:42:12.001Z</time></trkpt><trkpt lat="40.95501627334167" lon="9.206866065622563"><ele>235.0</ele><time>2026-04-30T11:42:13.002Z</time></trkpt><trkpt lat="40.95518113013843" lon="9.20689590681341"><ele>233.0</ele><time>2026-04-30T11:42:14.002Z</time></trkpt><trkpt lat="40.95534777307916" lon="9.206898367480592"><ele>231.0</ele><time>2026-04-30T11:42:15.002Z</time></trkpt><trkpt lat="40.9555208433302" lon="9.206870157486224"><ele>231.0</ele><time>2026-04-30T11:42:16.002Z</time></trkpt><trkpt lat="40.95568925208996" lon="9.206816695705621"><ele>231.0</ele><time>2026-04-30T11:42:17.002Z</time></trkpt><trkpt lat="40.95585509442082" lon="9.206732912488778"><ele>231.0</ele><time>2026-04-30T11:42:18.002Z</time></trkpt><trkpt lat="40.956026338497225" lon="9.206618015396101"><ele>230.66666666666669</ele><time>2026-04-30T11:42:19.002Z</time></trkpt><trkpt lat="40.95618593201846" lon="9.206493389014629"><ele>230.33333333333334</ele><time>2026-04-30T11:42:20.002Z</time></trkpt><trkpt lat="40.956336795185784" lon="9.206370579933848"><ele>230.0</ele><time>2026-04-30T11:42:21.002Z</time></trkpt><trkpt lat="40.95647894183394" lon="9.20625856015778"><ele>230.0</ele><time>2026-04-30T11:42:22.002Z</time></trkpt><trkpt lat="40.95662006806756" lon="9.206176379164322"><ele>230.0</ele><time>2026-04-30T11:42:23.002Z</time></trkpt><trkpt lat="40.95676282811455" lon="9.20613149783274"><ele>230.0</ele><time>2026-04-30T11:42:24.002Z</time></trkpt><trkpt lat="40.956903776716395" lon="9.206130316116615"><ele>230.0</ele><time>2026-04-30T11:42:25.002Z</time></trkpt><trkpt lat="40.957046053730934" lon="9.206162379323121"><ele>228.33333333333334</ele><time>2026-04-30T11:42:26.002Z</time></trkpt><trkpt lat="40.95719510020163" lon="9.206232851835821"><ele>226.66666666666669</ele><time>2026-04-30T11:42:27.002Z</time></trkpt><trkpt lat="40.957361651428535" lon="9.206299267323494"><ele>225.0</ele><time>2026-04-30T11:42:28.002Z</time></trkpt><trkpt lat="40.957522162024105" lon="9.206388208877673"><ele>226.66666666666669</ele><time>2026-04-30T11:42:29.002Z</time></trkpt><trkpt lat="40.9576792263323" lon="9.20649167837734"><ele>228.33333333333334</ele><time>2026-04-30T11:42:30.002Z</time></trkpt><trkpt lat="40.9578383940871" lon="9.206596683215297"><ele>230.0</ele><time>2026-04-30T11:42:31.002Z</time></trkpt><trkpt lat="40.957999857058226" lon="9.206704302346028"><ele>225.0</ele><time>2026-04-30T11:42:32.002Z</time></trkpt><trkpt lat="40.95816647112699" lon="9.206801635463849"><ele>220.0</ele><time>2026-04-30T11:42:33.002Z</time></trkpt><trkpt lat="40.958346636804286" lon="9.20688421650072"><ele>215.0</ele><time>2026-04-30T11:42:34.002Z</time></trkpt><trkpt lat="40.958540593649204" lon="9.206952836533697"><ele>215.0</ele><time>2026-04-30T11:42:35.002Z</time></trkpt><trkpt lat="40.95875215226203" lon="9.207012879656553"><ele>215.0</ele><time>2026-04-30T11:42:36.002Z</time></trkpt><trkpt lat="40.95897435571086" lon="9.207074409970854"><ele>215.0</ele><time>2026-04-30T11:42:37.002Z</time></trkpt><trkpt lat="40.95919860643914" lon="9.207142060167639"><ele>213.5</ele><time>2026-04-30T11:42:38.002Z</time></trkpt><trkpt lat="40.95942407478524" lon="9.207204092217175"><ele>212.0</ele><time>2026-04-30T11:42:39.001Z</time></trkpt><trkpt lat="40.95964884565045" lon="9.207263938459954"><ele>212.5</ele><time>2026-04-30T11:42:40.001Z</time></trkpt><trkpt lat="40.95987349493934" lon="9.20732820982178"><ele>213.0</ele><time>2026-04-30T11:42:41.001Z</time></trkpt><trkpt lat="40.96008987930544" lon="9.207389607916088"><ele>213.0</ele><time>2026-04-30T11:42:42.001Z</time></trkpt><trkpt lat="40.960299926754594" lon="9.207452058119237"><ele>213.0</ele><time>2026-04-30T11:42:43.001Z</time></trkpt><trkpt lat="40.96050676274455" lon="9.207510889461584"><ele>213.0</ele><time>2026-04-30T11:42:44.001Z</time></trkpt><trkpt lat="40.96070711023273" lon="9.207562389308013"><ele>213.0</ele><time>2026-04-30T11:42:45.001Z</time></trkpt><trkpt lat="40.96090341108256" lon="9.207610637435732"><ele>213.0</ele><time>2026-04-30T11:42:46.001Z</time></trkpt><trkpt lat="40.96108432596987" lon="9.207655662235217"><ele>213.0</ele><time>2026-04-30T11:42:47.001Z</time></trkpt><trkpt lat="40.96125453285727" lon="9.207703701294784"><ele>213.0</ele><time>2026-04-30T11:42:48.001Z</time></trkpt><trkpt lat="40.9614166567665" lon="9.207756467963215"><ele>213.0</ele><time>2026-04-30T11:42:49.001Z</time></trkpt><trkpt lat="40.9615784311815" lon="9.207829392501855"><ele>213.0</ele><time>2026-04-30T11:42:50.001Z</time></trkpt><trkpt lat="40.96173555684572" lon="9.207931680642826"><ele>210.33333333333331</ele><time>2026-04-30T11:42:51.001Z</time></trkpt><trkpt lat="40.96189244089656" lon="9.208066889226863"><ele>207.66666666666666</ele><time>2026-04-30T11:42:52.001Z</time></trkpt><trkpt lat="40.962045438742024" lon="9.208214625773405"><ele>205.0</ele><time>2026-04-30T11:42:53.001Z</time></trkpt><trkpt lat="40.962192057729226" lon="9.208369896932846"><ele>205.0</ele><time>2026-04-30T11:42:54.001Z</time></trkpt><trkpt lat="40.962332329560944" lon="9.20851702546483"><ele>205.0</ele><time>2026-04-30T11:42:55.001Z</time></trkpt><trkpt lat="40.96247471304249" lon="9.208665980694873"><ele>205.0</ele><time>2026-04-30T11:42:56.001Z</time></trkpt><trkpt lat="40.96260999881665" lon="9.208814833576694"><ele>204.66666666666666</ele><time>2026-04-30T11:42:57.001Z</time></trkpt><trkpt lat="40.962739555285914" lon="9.208992339705574"><ele>204.33333333333331</ele><time>2026-04-30T11:42:58.001Z</time></trkpt><trkpt lat="40.962861299051745" lon="9.20918514354834"><ele>204.0</ele><time>2026-04-30T11:42:59.001Z</time></trkpt><trkpt lat="40.96297268437297" lon="9.209395288157104"><ele>204.66666666666669</ele><time>2026-04-30T11:43:00.001Z</time></trkpt><trkpt lat="40.96308232327519" lon="9.209600967038565"><ele>205.33333333333334</ele><time>2026-04-30T11:43:01.001Z</time></trkpt><trkpt lat="40.963186447585784" lon="9.209799667870811"><ele>206.0</ele><time>2026-04-30T11:43:02.001Z</time></trkpt><trkpt lat="40.96328826315927" lon="9.209991565170759"><ele>202.66666666666669</ele><time>2026-04-30T11:43:03.001Z</time></trkpt><trkpt lat="40.9633835291862" lon="9.210171908324176"><ele>199.33333333333331</ele><time>2026-04-30T11:43:04.001Z</time></trkpt><trkpt lat="40.96348408417206" lon="9.210339934342237"><ele>196.0</ele><time>2026-04-30T11:43:05.001Z</time></trkpt><trkpt lat="40.96358553418393" lon="9.210487554653717"><ele>196.0</ele><time>2026-04-30T11:43:06.001Z</time></trkpt><trkpt lat="40.96369949166451" lon="9.210600985208048"><ele>196.0</ele><time>2026-04-30T11:43:07.001Z</time></trkpt><trkpt lat="40.96383009873722" lon="9.210680718164317"><ele>196.0</ele><time>2026-04-30T11:43:08.001Z</time></trkpt><trkpt lat="40.96397220693854" lon="9.210715312788869"><ele>196.0</ele><time>2026-04-30T11:43:09.001Z</time></trkpt><trkpt lat="40.964119400205355" lon="9.21070460706682"><ele>197.0</ele><time>2026-04-30T11:43:10.001Z</time></trkpt><trkpt lat="40.96425942717358" lon="9.210671665074585"><ele>198.0</ele><time>2026-04-30T11:43:11.001Z</time></trkpt><trkpt lat="40.96440018343021" lon="9.210636465867"><ele>199.0</ele><time>2026-04-30T11:43:12.001Z</time></trkpt><trkpt lat="40.964530921080716" lon="9.210603441683793"><ele>200.0</ele><time>2026-04-30T11:43:13.001Z</time></trkpt><trkpt lat="40.964656521664985" lon="9.210589619435238"><ele>200.0</ele><time>2026-04-30T11:43:14.001Z</time></trkpt><trkpt lat="40.96477135619533" lon="9.210598338831705"><ele>200.0</ele><time>2026-04-30T11:43:15.001Z</time></trkpt><trkpt lat="40.96485334194924" lon="9.210547286225564"><ele>200.0</ele><time>2026-04-30T11:43:16.001Z</time></trkpt><trkpt lat="40.96494056461081" lon="9.210512840685224"><ele>200.0</ele><time>2026-04-30T11:43:17.001Z</time></trkpt><trkpt lat="40.965113848493765" lon="9.21078358276479"><ele>203.66666666666669</ele><time>2026-04-30T11:43:18.001Z</time></trkpt><trkpt lat="40.96524602615071" lon="9.210884317848278"><ele>207.33333333333331</ele><time>2026-04-30T11:43:19.001Z</time></trkpt><trkpt lat="40.965381721228425" lon="9.21098810127353"><ele>211.0</ele><time>2026-04-30T11:43:20.001Z</time></trkpt><trkpt lat="40.96552713755766" lon="9.211089003302181"><ele>211.0</ele><time>2026-04-30T11:43:21.001Z</time></trkpt><trkpt lat="40.96567147732984" lon="9.211190831833802"><ele>211.0</ele><time>2026-04-30T11:43:22.001Z</time></trkpt><trkpt lat="40.965810686980724" lon="9.211300147744131"><ele>211.0</ele><time>2026-04-30T11:43:23.001Z</time></trkpt><trkpt lat="40.96594049793413" lon="9.211428983190103"><ele>213.0</ele><time>2026-04-30T11:43:24.001Z</time></trkpt><trkpt lat="40.966050837445806" lon="9.211573910255241"><ele>215.0</ele><time>2026-04-30T11:43:25.001Z</time></trkpt><trkpt lat="40.96613425590734" lon="9.211739208674071"><ele>217.0</ele><time>2026-04-30T11:43:26.001Z</time></trkpt><trkpt lat="40.966192667863396" lon="9.2119231445422"><ele>217.0</ele><time>2026-04-30T11:43:27.001Z</time></trkpt><trkpt lat="40.96622047803775" lon="9.212123344102844"><ele>217.0</ele><time>2026-04-30T11:43:28.001Z</time></trkpt><trkpt lat="40.9662143852907" lon="9.212327802419372"><ele>217.0</ele><time>2026-04-30T11:43:29.001Z</time></trkpt><trkpt lat="40.966174162596424" lon="9.212534705303742"><ele>219.0</ele><time>2026-04-30T11:43:30.001Z</time></trkpt><trkpt lat="40.96610988441405" lon="9.212748949628002"><ele>221.0</ele><time>2026-04-30T11:43:31.001Z</time></trkpt><trkpt lat="40.96603457270482" lon="9.212969487338084"><ele>223.0</ele><time>2026-04-30T11:43:32.001Z</time></trkpt><trkpt lat="40.965952432467724" lon="9.213200594632623"><ele>222.0</ele><time>2026-04-30T11:43:33.001Z</time></trkpt><trkpt lat="40.965867289394716" lon="9.21343839986084"><ele>221.0</ele><time>2026-04-30T11:43:34.001Z</time></trkpt><trkpt lat="40.96577839614694" lon="9.21368141715388"><ele>220.0</ele><time>2026-04-30T11:43:35.001Z</time></trkpt><trkpt lat="40.96568825674154" lon="9.213930769435217"><ele>223.0</ele><time>2026-04-30T11:43:36.001Z</time></trkpt><trkpt lat="40.96560068432527" lon="9.214177816928801"><ele>226.0</ele><time>2026-04-30T11:43:37.001Z</time></trkpt><trkpt lat="40.965518178257206" lon="9.214420555356416"><ele>229.0</ele><time>2026-04-30T11:43:38.001Z</time></trkpt><trkpt lat="40.96542910430186" lon="9.214653823201983"><ele>231.0</ele><time>2026-04-30T11:43:39.001Z</time></trkpt><trkpt lat="40.96539797368575" lon="9.214912751632978"><ele>233.0</ele><time>2026-04-30T11:43:40.001Z</time></trkpt><trkpt lat="40.96536480683229" lon="9.215170155460493"><ele>235.0</ele><time>2026-04-30T11:43:41.001Z</time></trkpt><trkpt lat="40.96534508813702" lon="9.215430055530517"><ele>236.33333333333331</ele><time>2026-04-30T11:43:42.001Z</time></trkpt><trkpt lat="40.96532885473521" lon="9.215685637953404"><ele>237.66666666666669</ele><time>2026-04-30T11:43:43.001Z</time></trkpt><trkpt lat="40.96531530488904" lon="9.21594355575865"><ele>239.0</ele><time>2026-04-30T11:43:44.001Z</time></trkpt><trkpt lat="40.965284715384925" lon="9.216195845174408"><ele>239.0</ele><time>2026-04-30T11:43:45.001Z</time></trkpt><trkpt lat="40.96526860045257" lon="9.216445182399086"><ele>239.0</ele><time>2026-04-30T11:43:46.001Z</time></trkpt><trkpt lat="40.965264706865774" lon="9.216691399152468"><ele>239.0</ele><time>2026-04-30T11:43:47.001Z</time></trkpt><trkpt lat="40.965247894357645" lon="9.216942018712524"><ele>238.33333333333334</ele><time>2026-04-30T11:43:48.001Z</time></trkpt><trkpt lat="40.965231067098685" lon="9.217189148426927"><ele>237.66666666666669</ele><time>2026-04-30T11:43:49.001Z</time></trkpt><trkpt lat="40.965216602161746" lon="9.217436426539061"><ele>237.0</ele><time>2026-04-30T11:43:50.001Z</time></trkpt><trkpt lat="40.965202065525595" lon="9.217684078938037"><ele>239.0</ele><time>2026-04-30T11:43:51.001Z</time></trkpt><trkpt lat="40.96518725125061" lon="9.21793050250555"><ele>241.0</ele><time>2026-04-30T11:43:52.001Z</time></trkpt><trkpt lat="40.96516049964071" lon="9.218168713435146"><ele>243.0</ele><time>2026-04-30T11:43:53.001Z</time></trkpt><trkpt lat="40.965116538785566" lon="9.218399448911798"><ele>244.33333333333331</ele><time>2026-04-30T11:43:54.001Z</time></trkpt><trkpt lat="40.965054379518236" lon="9.21862154372735"><ele>245.66666666666666</ele><time>2026-04-30T11:43:55.001Z</time></trkpt><trkpt lat="40.96497820614791" lon="9.218831989733355"><ele>247.0</ele><time>2026-04-30T11:43:56.001Z</time></trkpt><trkpt lat="40.964891730832626" lon="9.219035411072156"><ele>242.0</ele><time>2026-04-30T11:43:57.001Z</time></trkpt><trkpt lat="40.964806381548264" lon="9.219231637258456"><ele>237.0</ele><time>2026-04-30T11:43:58.001Z</time></trkpt><trkpt lat="40.964707251176996" lon="9.21941057708384"><ele>232.0</ele><time>2026-04-30T11:43:59.001Z</time></trkpt><trkpt lat="40.96461974962389" lon="9.219604465576944"><ele>232.0</ele><time>2026-04-30T11:44:00.001Z</time></trkpt><trkpt lat="40.96453493284912" lon="9.21979437179218"><ele>232.0</ele><time>2026-04-30T11:44:01.001Z</time></trkpt><trkpt lat="40.96445334893422" lon="9.219978562925629"><ele>232.0</ele><time>2026-04-30T11:44:02.001Z</time></trkpt><trkpt lat="40.96437375726191" lon="9.220159445734106"><ele>233.5</ele><time>2026-04-30T11:44:03.001Z</time></trkpt><trkpt lat="40.96429940134059" lon="9.220323527609375"><ele>235.0</ele><time>2026-04-30T11:44:04.001Z</time></trkpt><trkpt lat="40.96424916679054" lon="9.220500861593731"><ele>236.5</ele><time>2026-04-30T11:44:05.001Z</time></trkpt><trkpt lat="40.964188240339254" lon="9.22067285909454"><ele>238.0</ele><time>2026-04-30T11:44:06.001Z</time></trkpt><trkpt lat="40.96413505550875" lon="9.220848598275348"><ele>238.0</ele><time>2026-04-30T11:44:07.001Z</time></trkpt><trkpt lat="40.96409079635449" lon="9.221027214049295"><ele>238.0</ele><time>2026-04-30T11:44:08.001Z</time></trkpt><trkpt lat="40.964051280195385" lon="9.2212071851347"><ele>238.0</ele><time>2026-04-30T11:44:09.001Z</time></trkpt><trkpt lat="40.96401916301456" lon="9.221380535290423"><ele>238.0</ele><time>2026-04-30T11:44:10.001Z</time></trkpt><trkpt lat="40.96399393983738" lon="9.221556886983878"><ele>239.5</ele><time>2026-04-30T11:44:11.001Z</time></trkpt><trkpt lat="40.963972637753045" lon="9.221735635570786"><ele>241.0</ele><time>2026-04-30T11:44:12.001Z</time></trkpt><trkpt lat="40.96395973297199" lon="9.221915688046112"><ele>242.5</ele><time>2026-04-30T11:44:13.001Z</time></trkpt><trkpt lat="40.963954510148476" lon="9.222101378820572"><ele>244.0</ele><time>2026-04-30T11:44:14.001Z</time></trkpt><trkpt lat="40.96395552300134" lon="9.222289583267166"><ele>243.75</ele><time>2026-04-30T11:44:15.001Z</time></trkpt><trkpt lat="40.96396220737845" lon="9.222479850148543"><ele>243.5</ele><time>2026-04-30T11:44:16.001Z</time></trkpt><trkpt lat="40.963976244142266" lon="9.22267297578466"><ele>243.25</ele><time>2026-04-30T11:44:17.001Z</time></trkpt><trkpt lat="40.963999500626436" lon="9.222870274544256"><ele>243.0</ele><time>2026-04-30T11:44:18.001Z</time></trkpt><trkpt lat="40.96403113950633" lon="9.22306883664026"><ele>241.0</ele><time>2026-04-30T11:44:19.001Z</time></trkpt><trkpt lat="40.964072265854355" lon="9.223276081012905"><ele>239.0</ele><time>2026-04-30T11:44:20.001Z</time></trkpt><trkpt lat="40.964125624937424" lon="9.22348919943867"><ele>237.0</ele><time>2026-04-30T11:44:21.001Z</time></trkpt><trkpt lat="40.964188600409535" lon="9.223697878692635"><ele>239.66666666666669</ele><time>2026-04-30T11:44:22.001Z</time></trkpt><trkpt lat="40.964261965429195" lon="9.22390644352444"><ele>242.33333333333334</ele><time>2026-04-30T11:44:23.001Z</time></trkpt><trkpt lat="40.96434670353686" lon="9.224115610195936"><ele>245.0</ele><time>2026-04-30T11:44:24.001Z</time></trkpt><trkpt lat="40.964442462147424" lon="9.224323089239968"><ele>245.0</ele><time>2026-04-30T11:44:25.001Z</time></trkpt><trkpt lat="40.96454807147563" lon="9.224533406686799"><ele>245.0</ele><time>2026-04-30T11:44:26.001Z</time></trkpt><trkpt lat="40.964656086861076" lon="9.224750262045054"><ele>245.0</ele><time>2026-04-30T11:44:27.001Z</time></trkpt><trkpt lat="40.964767215511046" lon="9.224970258024735"><ele>245.0</ele><time>2026-04-30T11:44:28.001Z</time></trkpt><trkpt lat="40.96488188993763" lon="9.225201155558407"><ele>245.0</ele><time>2026-04-30T11:44:29.001Z</time></trkpt><trkpt lat="40.96500252904618" lon="9.225441331205467"><ele>245.0</ele><time>2026-04-30T11:44:30.001Z</time></trkpt><trkpt lat="40.96512872473948" lon="9.225687255054895"><ele>245.0</ele><time>2026-04-30T11:44:31.001Z</time></trkpt><trkpt lat="40.96525676095294" lon="9.225937377359843"><ele>245.0</ele><time>2026-04-30T11:44:32.001Z</time></trkpt><trkpt lat="40.96538594875598" lon="9.226195072488522"><ele>245.0</ele><time>2026-04-30T11:44:33.001Z</time></trkpt><trkpt lat="40.965518996027726" lon="9.226463526174422"><ele>245.0</ele><time>2026-04-30T11:44:34.001Z</time></trkpt><trkpt lat="40.965651997741574" lon="9.226731189930534"><ele>245.0</ele><time>2026-04-30T11:44:35.001Z</time></trkpt><trkpt lat="40.965785335979035" lon="9.226993878486546"><ele>245.0</ele><time>2026-04-30T11:44:36.001Z</time></trkpt><trkpt lat="40.965909574925575" lon="9.227270963631884"><ele>246.66666666666669</ele><time>2026-04-30T11:44:37.001Z</time></trkpt><trkpt lat="40.966045388961014" lon="9.227543007897118"><ele>248.33333333333331</ele><time>2026-04-30T11:44:38.001Z</time></trkpt><trkpt lat="40.966146337934006" lon="9.22771462592655"><ele>250.0</ele><time>2026-04-30T11:44:39.001Z</time></trkpt><trkpt lat="40.96626784325277" lon="9.227954375318921"><ele>249.66666666666666</ele><time>2026-04-30T11:44:40.001Z</time></trkpt><trkpt lat="40.96638137731293" lon="9.228191152672766"><ele>249.33333333333331</ele><time>2026-04-30T11:44:41.001Z</time></trkpt><trkpt lat="40.96648782812097" lon="9.22841536728693"><ele>249.0</ele><time>2026-04-30T11:44:42.001Z</time></trkpt><trkpt lat="40.96659632218914" lon="9.228628817718619"><ele>250.66666666666669</ele><time>2026-04-30T11:44:43.001Z</time></trkpt><trkpt lat="40.96670236287895" lon="9.228839076776259"><ele>252.33333333333334</ele><time>2026-04-30T11:44:44.001Z</time></trkpt><trkpt lat="40.96680337990532" lon="9.229047262506791"><ele>254.0</ele><time>2026-04-30T11:44:45.001Z</time></trkpt><trkpt lat="40.96690646854442" lon="9.229251630097782"><ele>254.0</ele><time>2026-04-30T11:44:46.001Z</time></trkpt><trkpt lat="40.967013128857324" lon="9.22944870216487"><ele>254.0</ele><time>2026-04-30T11:44:47.001Z</time></trkpt><trkpt lat="40.96711716275133" lon="9.229649004597581"><ele>254.0</ele><time>2026-04-30T11:44:48.001Z</time></trkpt><trkpt lat="40.967220278736356" lon="9.22984664665907"><ele>253.66666666666669</ele><time>2026-04-30T11:44:49.001Z</time></trkpt><trkpt lat="40.96732899988857" lon="9.230038540918803"><ele>253.33333333333331</ele><time>2026-04-30T11:44:50.001Z</time></trkpt><trkpt lat="40.96744037693888" lon="9.230229005232587"><ele>253.0</ele><time>2026-04-30T11:44:51.001Z</time></trkpt><trkpt lat="40.96756321733743" lon="9.230410650722018"><ele>253.0</ele><time>2026-04-30T11:44:52.001Z</time></trkpt><trkpt lat="40.96769223401617" lon="9.230589017464926"><ele>253.0</ele><time>2026-04-30T11:44:53.001Z</time></trkpt><trkpt lat="40.967831552487425" lon="9.230766839004888"><ele>253.0</ele><time>2026-04-30T11:44:54.001Z</time></trkpt><trkpt lat="40.96797690615291" lon="9.230942229689536"><ele>251.66666666666666</ele><time>2026-04-30T11:44:55.001Z</time></trkpt><trkpt lat="40.9681320822155" lon="9.231109927990982"><ele>250.33333333333331</ele><time>2026-04-30T11:44:56.001Z</time></trkpt><trkpt lat="40.968289553262444" lon="9.231274460255255"><ele>249.0</ele><time>2026-04-30T11:44:57.001Z</time></trkpt><trkpt lat="40.96845950219629" lon="9.231435141859356"><ele>246.33333333333331</ele><time>2026-04-30T11:44:58.001Z</time></trkpt><trkpt lat="40.968636008547165" lon="9.231590238766838"><ele>243.66666666666666</ele><time>2026-04-30T11:44:59.001Z</time></trkpt><trkpt lat="40.96882662648093" lon="9.231739909156852"><ele>241.0</ele><time>2026-04-30T11:45:00.001Z</time></trkpt><trkpt lat="40.969023128763965" lon="9.231881599902541"><ele>243.0</ele><time>2026-04-30T11:45:01.001Z</time></trkpt><trkpt lat="40.969239873823035" lon="9.232016436577233"><ele>245.0</ele><time>2026-04-30T11:45:02.001Z</time></trkpt><trkpt lat="40.96944319997941" lon="9.232165368612652"><ele>242.66666666666669</ele><time>2026-04-30T11:45:03.001Z</time></trkpt><trkpt lat="40.96963999387061" lon="9.232310156492407"><ele>240.33333333333331</ele><time>2026-04-30T11:45:04.001Z</time></trkpt><trkpt lat="40.969829220857186" lon="9.232451560739275"><ele>238.0</ele><time>2026-04-30T11:45:05.001Z</time></trkpt><trkpt lat="40.970020252899666" lon="9.232590144088428"><ele>238.0</ele><time>2026-04-30T11:45:06.001Z</time></trkpt><trkpt lat="40.97020526996167" lon="9.232719988743352"><ele>238.0</ele><time>2026-04-30T11:45:07.001Z</time></trkpt><trkpt lat="40.970382132341996" lon="9.23285519341499"><ele>238.0</ele><time>2026-04-30T11:45:08.001Z</time></trkpt><trkpt lat="40.97054410650677" lon="9.23299170341152"><ele>235.66666666666666</ele><time>2026-04-30T11:45:09.001Z</time></trkpt><trkpt lat="40.97069644227324" lon="9.233145314614495"><ele>233.33333333333331</ele><time>2026-04-30T11:45:10.001Z</time></trkpt><trkpt lat="40.97084139210541" lon="9.23331916915319"><ele>231.0</ele><time>2026-04-30T11:45:11.001Z</time></trkpt><trkpt lat="40.97098275355872" lon="9.233524823271464"><ele>229.33333333333331</ele><time>2026-04-30T11:45:12.001Z</time></trkpt><trkpt lat="40.97112327278395" lon="9.233735169388833"><ele>227.66666666666666</ele><time>2026-04-30T11:45:13.001Z</time></trkpt><trkpt lat="40.971265116215434" lon="9.23393807405391"><ele>226.0</ele><time>2026-04-30T11:45:14.001Z</time></trkpt><trkpt lat="40.97139954262665" lon="9.23413988359077"><ele>225.33333333333331</ele><time>2026-04-30T11:45:15.001Z</time></trkpt><trkpt lat="40.97153351982997" lon="9.234334874838433"><ele>224.66666666666669</ele><time>2026-04-30T11:45:16.001Z</time></trkpt><trkpt lat="40.97166802842436" lon="9.234528069749286"><ele>224.0</ele><time>2026-04-30T11:45:17.001Z</time></trkpt><trkpt lat="40.971803565021695" lon="9.234721912398289"><ele>220.66666666666669</ele><time>2026-04-30T11:45:18.001Z</time></trkpt><trkpt lat="40.971938878500566" lon="9.234914206969941"><ele>217.33333333333331</ele><time>2026-04-30T11:45:19.001Z</time></trkpt><trkpt lat="40.972073293896095" lon="9.235107799541883"><ele>214.0</ele><time>2026-04-30T11:45:20.001Z</time></trkpt><trkpt lat="40.972216912282654" lon="9.235311672739654"><ele>214.0</ele><time>2026-04-30T11:45:21.001Z</time></trkpt><trkpt lat="40.972363986970805" lon="9.235519250538397"><ele>214.0</ele><time>2026-04-30T11:45:22.001Z</time></trkpt><trkpt lat="40.97250946694303" lon="9.235723959713798"><ele>214.0</ele><time>2026-04-30T11:45:23.001Z</time></trkpt><trkpt lat="40.972659983203634" lon="9.235935979990785"><ele>210.33333333333331</ele><time>2026-04-30T11:45:24.001Z</time></trkpt><trkpt lat="40.972811329430165" lon="9.236152401519815"><ele>206.66666666666669</ele><time>2026-04-30T11:45:25.001Z</time></trkpt><trkpt lat="40.97296459313479" lon="9.236368383722759"><ele>203.0</ele><time>2026-04-30T11:45:26.001Z</time></trkpt><trkpt lat="40.97312256102726" lon="9.236588276846945"><ele>202.66666666666669</ele><time>2026-04-30T11:45:27.001Z</time></trkpt><trkpt lat="40.97327518844338" lon="9.236810281087386"><ele>202.33333333333331</ele><time>2026-04-30T11:45:28.001Z</time></trkpt><trkpt lat="40.97342219960547" lon="9.237021561586023"><ele>202.0</ele><time>2026-04-30T11:45:29.001Z</time></trkpt><trkpt lat="40.97356785899807" lon="9.23722906606789"><ele>202.0</ele><time>2026-04-30T11:45:30.001Z</time></trkpt><trkpt lat="40.973706868654155" lon="9.237437717017572"><ele>202.0</ele><time>2026-04-30T11:45:31.001Z</time></trkpt><trkpt lat="40.97384111392441" lon="9.237653128463533"><ele>202.0</ele><time>2026-04-30T11:45:32.001Z</time></trkpt><trkpt lat="40.973972104446034" lon="9.237875080724558"><ele>202.0</ele><time>2026-04-30T11:45:33.001Z</time></trkpt><trkpt lat="40.97409638156987" lon="9.238103611199582"><ele>202.0</ele><time>2026-04-30T11:45:34.001Z</time></trkpt><trkpt lat="40.97421334370931" lon="9.23833253947384"><ele>202.0</ele><time>2026-04-30T11:45:35.001Z</time></trkpt><trkpt lat="40.97432872516422" lon="9.238557296005721"><ele>203.66666666666666</ele><time>2026-04-30T11:45:36.001Z</time></trkpt><trkpt lat="40.974447042075745" lon="9.238780745846073"><ele>205.33333333333331</ele><time>2026-04-30T11:45:37.001Z</time></trkpt><trkpt lat="40.97456340267416" lon="9.239003677105973"><ele>207.0</ele><time>2026-04-30T11:45:38.001Z</time></trkpt><trkpt lat="40.974682471788064" lon="9.23921717988216"><ele>207.33333333333331</ele><time>2026-04-30T11:45:39.001Z</time></trkpt><trkpt lat="40.97479784645444" lon="9.239435522219662"><ele>207.66666666666666</ele><time>2026-04-30T11:45:40.001Z</time></trkpt><trkpt lat="40.974914568076294" lon="9.23965272899174"><ele>208.0</ele><time>2026-04-30T11:45:41.001Z</time></trkpt><trkpt lat="40.97503334362237" lon="9.239871531263203"><ele>211.33333333333331</ele><time>2026-04-30T11:45:42.001Z</time></trkpt><trkpt lat="40.97515161751134" lon="9.240089866010386"><ele>214.66666666666669</ele><time>2026-04-30T11:45:43.001Z</time></trkpt><trkpt lat="40.97526825151967" lon="9.240305477681375"><ele>218.0</ele><time>2026-04-30T11:45:44.001Z</time></trkpt><trkpt lat="40.97538244202035" lon="9.240521858519394"><ele>217.33333333333334</ele><time>2026-04-30T11:45:45.001Z</time></trkpt><trkpt lat="40.97549295074076" lon="9.240732797597879"><ele>216.66666666666669</ele><time>2026-04-30T11:45:46.001Z</time></trkpt><trkpt lat="40.97560123077482" lon="9.24094041577252"><ele>216.0</ele><time>2026-04-30T11:45:47.001Z</time></trkpt><trkpt lat="40.97570835759664" lon="9.241141987429375"><ele>216.0</ele><time>2026-04-30T11:45:48.001Z</time></trkpt><trkpt lat="40.9758129164037" lon="9.241339547572508"><ele>216.0</ele><time>2026-04-30T11:45:49.001Z</time></trkpt><trkpt lat="40.97591605118117" lon="9.241533563742879"><ele>216.0</ele><time>2026-04-30T11:45:50.001Z</time></trkpt><trkpt lat="40.97601496081352" lon="9.241717033225553"><ele>218.33333333333331</ele><time>2026-04-30T11:45:51.001Z</time></trkpt><trkpt lat="40.97611063425916" lon="9.241898632194754"><ele>220.66666666666666</ele><time>2026-04-30T11:45:52.001Z</time></trkpt><trkpt lat="40.976203320847645" lon="9.242073585863384"><ele>223.0</ele><time>2026-04-30T11:45:53.001Z</time></trkpt><trkpt lat="40.97629276082619" lon="9.242246244642457"><ele>222.66666666666666</ele><time>2026-04-30T11:45:54.001Z</time></trkpt><trkpt lat="40.976382702521356" lon="9.242416960612715"><ele>222.33333333333331</ele><time>2026-04-30T11:45:55.001Z</time></trkpt><trkpt lat="40.97647067952804" lon="9.242580284308977"><ele>222.0</ele><time>2026-04-30T11:45:56.001Z</time></trkpt><trkpt lat="40.97655273852553" lon="9.242736802684467"><ele>222.0</ele><time>2026-04-30T11:45:57.001Z</time></trkpt><trkpt lat="40.9766321946497" lon="9.242894602493589"><ele>222.0</ele><time>2026-04-30T11:45:58.001Z</time></trkpt><trkpt lat="40.97670990567761" lon="9.243056530444543"><ele>222.0</ele><time>2026-04-30T11:45:59.001Z</time></trkpt><trkpt lat="40.97678026923557" lon="9.24321728746395"><ele>222.0</ele><time>2026-04-30T11:46:00.001Z</time></trkpt><trkpt lat="40.97685391357777" lon="9.243381077828978"><ele>225.5</ele><time>2026-04-30T11:46:01.001Z</time></trkpt><trkpt lat="40.9769246216253" lon="9.243547542843176"><ele>229.0</ele><time>2026-04-30T11:46:02.001Z</time></trkpt><trkpt lat="40.97698823953576" lon="9.243715241156542"><ele>232.5</ele><time>2026-04-30T11:46:03.001Z</time></trkpt><trkpt lat="40.97704486048949" lon="9.243884743886174"><ele>236.0</ele><time>2026-04-30T11:46:04.001Z</time></trkpt><trkpt lat="40.977097135347876" lon="9.244050955789575"><ele>236.0</ele><time>2026-04-30T11:46:05.001Z</time></trkpt><trkpt lat="40.97714355471927" lon="9.244211889453627"><ele>236.0</ele><time>2026-04-30T11:46:06.001Z</time></trkpt><trkpt lat="40.97718731101749" lon="9.24436261797541"><ele>236.0</ele><time>2026-04-30T11:46:07.001Z</time></trkpt><trkpt lat="40.97722219706437" lon="9.244497052109029"><ele>236.0</ele><time>2026-04-30T11:46:08.001Z</time></trkpt><trkpt lat="40.97725017796853" lon="9.244618527559489"><ele>236.0</ele><time>2026-04-30T11:46:09.001Z</time></trkpt><trkpt lat="40.97727807314365" lon="9.244738237632637"><ele>236.00000000000003</ele><time>2026-04-30T11:46:10.001Z</time></trkpt><trkpt lat="40.97729369452007" lon="9.244865635262823"><ele>236.00000000000003</ele><time>2026-04-30T11:46:11.001Z</time></trkpt><trkpt lat="40.97731859145251" lon="9.24499148395242"><ele>236.0</ele><time>2026-04-30T11:46:12.001Z</time></trkpt><trkpt lat="40.977355106236686" lon="9.245128214430935"><ele>236.0</ele><time>2026-04-30T11:46:13.001Z</time></trkpt><trkpt lat="40.97737438272597" lon="9.245262830130446"><ele>236.4</ele><time>2026-04-30T11:46:14.001Z</time></trkpt><trkpt lat="40.97739511758638" lon="9.245397957734516"><ele>236.8</ele><time>2026-04-30T11:46:15.001Z</time></trkpt><trkpt lat="40.9774135871215" lon="9.245534716142151"><ele>237.20000000000002</ele><time>2026-04-30T11:46:16.001Z</time></trkpt><trkpt lat="40.97743005366175" lon="9.245673605095615"><ele>237.60000000000002</ele><time>2026-04-30T11:46:17.001Z</time></trkpt><trkpt lat="40.97743984420217" lon="9.245811974014412"><ele>238.0</ele><time>2026-04-30T11:46:18.001Z</time></trkpt><trkpt lat="40.97744905193169" lon="9.245957090079141"><ele>237.75</ele><time>2026-04-30T11:46:19.001Z</time></trkpt><trkpt lat="40.977456575058866" lon="9.246101259883737"><ele>237.5</ele><time>2026-04-30T11:46:20.001Z</time></trkpt><trkpt lat="40.97746536400714" lon="9.246247594204398"><ele>237.25</ele><time>2026-04-30T11:46:21.001Z</time></trkpt><trkpt lat="40.97747199857198" lon="9.246399066773547"><ele>237.0</ele><time>2026-04-30T11:46:22.001Z</time></trkpt><trkpt lat="40.9774765769515" lon="9.246555533114483"><ele>237.0</ele><time>2026-04-30T11:46:23.001Z</time></trkpt><trkpt lat="40.97747881979223" lon="9.246712210106507"><ele>237.0</ele><time>2026-04-30T11:46:24.001Z</time></trkpt><trkpt lat="40.97747652678135" lon="9.246867608176611"><ele>237.0</ele><time>2026-04-30T11:46:25.001Z</time></trkpt><trkpt lat="40.97747341633768" lon="9.247015856354965"><ele>237.0</ele><time>2026-04-30T11:46:26.001Z</time></trkpt><trkpt lat="40.97746592256615" lon="9.247168054551281"><ele>236.25</ele><time>2026-04-30T11:46:27.001Z</time></trkpt><trkpt lat="40.977457790517306" lon="9.247323522445791"><ele>235.5</ele><time>2026-04-30T11:46:28.001Z</time></trkpt><trkpt lat="40.977446180166744" lon="9.247491530384234"><ele>234.75</ele><time>2026-04-30T11:46:29.001Z</time></trkpt><trkpt lat="40.97742815024416" lon="9.247672709684025"><ele>234.0</ele><time>2026-04-30T11:46:30.001Z</time></trkpt><trkpt lat="40.97739928327722" lon="9.247869692221947"><ele>234.0</ele><time>2026-04-30T11:46:31.001Z</time></trkpt><trkpt lat="40.97736478846318" lon="9.24807880397805"><ele>234.0</ele><time>2026-04-30T11:46:32.001Z</time></trkpt><trkpt lat="40.97733100917963" lon="9.248290170232368"><ele>234.0</ele><time>2026-04-30T11:46:33.001Z</time></trkpt><trkpt lat="40.97729300022047" lon="9.24852667324407"><ele>234.33333333333331</ele><time>2026-04-30T11:46:34.001Z</time></trkpt><trkpt lat="40.97725306263971" lon="9.2487607579026"><ele>234.66666666666666</ele><time>2026-04-30T11:46:35.001Z</time></trkpt><trkpt lat="40.97721170576799" lon="9.24900338523318"><ele>235.0</ele><time>2026-04-30T11:46:36.001Z</time></trkpt><trkpt lat="40.977168585279614" lon="9.249247999404352"><ele>235.0</ele><time>2026-04-30T11:46:37.001Z</time></trkpt><trkpt lat="40.97712755278895" lon="9.249484922655142"><ele>235.0</ele><time>2026-04-30T11:46:38.001Z</time></trkpt><trkpt lat="40.977088448815266" lon="9.24971242929559"><ele>235.0</ele><time>2026-04-30T11:46:39.001Z</time></trkpt><trkpt lat="40.977051244014106" lon="9.249935755289155"><ele>235.0</ele><time>2026-04-30T11:46:40.001Z</time></trkpt><trkpt lat="40.97701479738523" lon="9.250148411121787"><ele>235.0</ele><time>2026-04-30T11:46:41.001Z</time></trkpt><trkpt lat="40.97696737058852" lon="9.250351786298369"><ele>235.0</ele><time>2026-04-30T11:46:42.001Z</time></trkpt><trkpt lat="40.976932423900834" lon="9.250556359091748"><ele>235.25</ele><time>2026-04-30T11:46:43.001Z</time></trkpt><trkpt lat="40.97689942943542" lon="9.25074972988113"><ele>235.5</ele><time>2026-04-30T11:46:44.001Z</time></trkpt><trkpt lat="40.97688132346538" lon="9.250942978635488"><ele>235.75</ele><time>2026-04-30T11:46:45.001Z</time></trkpt><trkpt lat="40.9768542166753" lon="9.251119108659204"><ele>236.0</ele><time>2026-04-30T11:46:46.001Z</time></trkpt><trkpt lat="40.97683457295378" lon="9.251288647985355"><ele>236.0</ele><time>2026-04-30T11:46:47.001Z</time></trkpt><trkpt lat="40.97683298547377" lon="9.251454506499838"><ele>236.0</ele><time>2026-04-30T11:46:48.001Z</time></trkpt><trkpt lat="40.97685100635537" lon="9.251619725608258"><ele>236.0</ele><time>2026-04-30T11:46:49.001Z</time></trkpt><trkpt lat="40.97689448648386" lon="9.251774847887297"><ele>236.0</ele><time>2026-04-30T11:46:50.001Z</time></trkpt><trkpt lat="40.97695351434494" lon="9.251935958695508"><ele>235.75</ele><time>2026-04-30T11:46:51.001Z</time></trkpt><trkpt lat="40.97701489154021" lon="9.252098533758195"><ele>235.5</ele><time>2026-04-30T11:46:52.001Z</time></trkpt><trkpt lat="40.977078625801695" lon="9.252269545413526"><ele>235.25</ele><time>2026-04-30T11:46:53.001Z</time></trkpt><trkpt lat="40.97714355266066" lon="9.252442834460165"><ele>235.0</ele><time>2026-04-30T11:46:54.001Z</time></trkpt><trkpt lat="40.97720619539712" lon="9.25261541453452"><ele>235.0</ele><time>2026-04-30T11:46:55.001Z</time></trkpt><trkpt lat="40.97726802151612" lon="9.252784011377898"><ele>235.0</ele><time>2026-04-30T11:46:56.001Z</time></trkpt><trkpt lat="40.97732779510121" lon="9.25294811947143"><ele>235.0</ele><time>2026-04-30T11:46:57.001Z</time></trkpt><trkpt lat="40.97739033141924" lon="9.25311530115549"><ele>235.0</ele><time>2026-04-30T11:46:58.001Z</time></trkpt><trkpt lat="40.977453866514175" lon="9.25328476548347"><ele>234.25</ele><time>2026-04-30T11:46:59.001Z</time></trkpt><trkpt lat="40.977520194867566" lon="9.253452971639812"><ele>233.5</ele><time>2026-04-30T11:47:00.001Z</time></trkpt><trkpt lat="40.97758401018312" lon="9.253623835815445"><ele>232.75</ele><time>2026-04-30T11:47:01.001Z</time></trkpt><trkpt lat="40.97765126788761" lon="9.25379774535164"><ele>232.0</ele><time>2026-04-30T11:47:02.001Z</time></trkpt><trkpt lat="40.97771426901141" lon="9.253975013890775"><ele>230.66666666666666</ele><time>2026-04-30T11:47:03.001Z</time></trkpt><trkpt lat="40.9777805376159" lon="9.254148688823761"><ele>229.33333333333331</ele><time>2026-04-30T11:47:04.001Z</time></trkpt><trkpt lat="40.977846712977275" lon="9.254327544523077"><ele>228.0</ele><time>2026-04-30T11:47:05.001Z</time></trkpt><trkpt lat="40.97791354660321" lon="9.254511385251543"><ele>228.0</ele><time>2026-04-30T11:47:06.001Z</time></trkpt><trkpt lat="40.97797734638037" lon="9.254683279142606"><ele>228.0</ele><time>2026-04-30T11:47:07.001Z</time></trkpt><trkpt lat="40.97803988942584" lon="9.254855715238218"><ele>228.0</ele><time>2026-04-30T11:47:08.001Z</time></trkpt><trkpt lat="40.97810961802462" lon="9.2550194634056"><ele>228.0</ele><time>2026-04-30T11:47:09.001Z</time></trkpt><trkpt lat="40.97817558797772" lon="9.255194192387819"><ele>228.0</ele><time>2026-04-30T11:47:10.001Z</time></trkpt><trkpt lat="40.97823787511138" lon="9.255365620099687"><ele>228.0</ele><time>2026-04-30T11:47:11.001Z</time></trkpt><trkpt lat="40.978299518132516" lon="9.255541737598309"><ele>228.0</ele><time>2026-04-30T11:47:12.001Z</time></trkpt><trkpt lat="40.97835982508441" lon="9.255718014951555"><ele>228.0</ele><time>2026-04-30T11:47:13.001Z</time></trkpt><trkpt lat="40.978423590005434" lon="9.255891424282684"><ele>226.0</ele><time>2026-04-30T11:47:14.001Z</time></trkpt><trkpt lat="40.97848759048754" lon="9.25606347671239"><ele>224.0</ele><time>2026-04-30T11:47:15Z</time></trkpt><trkpt lat="40.97855721398986" lon="9.256237416237973"><ele>222.0</ele><time>2026-04-30T11:47:16Z</time></trkpt><trkpt lat="40.97861781471057" lon="9.256407336283047"><ele>220.0</ele><time>2026-04-30T11:47:17Z</time></trkpt><trkpt lat="40.97867717924761" lon="9.256579645713114"><ele>220.0</ele><time>2026-04-30T11:47:18Z</time></trkpt><trkpt lat="40.97872796397779" lon="9.256757549769"><ele>220.0</ele><time>2026-04-30T11:47:19Z</time></trkpt><trkpt lat="40.9787775981169" lon="9.256934995426098"><ele>220.0</ele><time>2026-04-30T11:47:20Z</time></trkpt><trkpt lat="40.97881941107395" lon="9.257115437350944"><ele>220.0</ele><time>2026-04-30T11:47:21Z</time></trkpt><trkpt lat="40.97885495321628" lon="9.257296712751424"><ele>220.25</ele><time>2026-04-30T11:47:22Z</time></trkpt><trkpt lat="40.97888024179516" lon="9.257479791744023"><ele>220.5</ele><time>2026-04-30T11:47:23Z</time></trkpt><trkpt lat="40.97889989254102" lon="9.257662837574856"><ele>220.75</ele><time>2026-04-30T11:47:24Z</time></trkpt><trkpt lat="40.97891378940802" lon="9.25784843252942"><ele>221.0</ele><time>2026-04-30T11:47:25Z</time></trkpt><trkpt lat="40.97892176274092" lon="9.258033658785436"><ele>220.75</ele><time>2026-04-30T11:47:26Z</time></trkpt><trkpt lat="40.97892217417735" lon="9.258219791238638"><ele>220.5</ele><time>2026-04-30T11:47:27Z</time></trkpt><trkpt lat="40.97891192967136" lon="9.258400403053159"><ele>220.25</ele><time>2026-04-30T11:47:28Z</time></trkpt><trkpt lat="40.9788934283959" lon="9.258586193568604"><ele>220.0</ele><time>2026-04-30T11:47:29Z</time></trkpt><trkpt lat="40.97886975425804" lon="9.258777288720946"><ele>219.0</ele><time>2026-04-30T11:47:30Z</time></trkpt><trkpt lat="40.97883947624222" lon="9.25897193415703"><ele>218.0</ele><time>2026-04-30T11:47:31Z</time></trkpt><trkpt lat="40.978800070136224" lon="9.2591700785472"><ele>217.0</ele><time>2026-04-30T11:47:32Z</time></trkpt><trkpt lat="40.978747817324496" lon="9.259370028656344"><ele>217.0</ele><time>2026-04-30T11:47:33Z</time></trkpt><trkpt lat="40.97868301825723" lon="9.259571764702788"><ele>217.0</ele><time>2026-04-30T11:47:34Z</time></trkpt><trkpt lat="40.97861880651915" lon="9.259775632199169"><ele>217.0</ele><time>2026-04-30T11:47:35Z</time></trkpt><trkpt lat="40.97856858472676" lon="9.25998626522484"><ele>215.0</ele><time>2026-04-30T11:47:36Z</time></trkpt><trkpt lat="40.97854127126415" lon="9.260201473958434"><ele>213.0</ele><time>2026-04-30T11:47:37Z</time></trkpt><trkpt lat="40.97853206051582" lon="9.260436280339388"><ele>211.0</ele><time>2026-04-30T11:47:38Z</time></trkpt><trkpt lat="40.978525639977136" lon="9.260670735335617"><ele>209.66666666666666</ele><time>2026-04-30T11:47:39Z</time></trkpt><trkpt lat="40.978519005877864" lon="9.260908581567692"><ele>208.33333333333331</ele><time>2026-04-30T11:47:40Z</time></trkpt><trkpt lat="40.978515956504644" lon="9.26114315593737"><ele>207.0</ele><time>2026-04-30T11:47:41Z</time></trkpt><trkpt lat="40.978513319210265" lon="9.261375632514731"><ele>205.66666666666669</ele><time>2026-04-30T11:47:42Z</time></trkpt><trkpt lat="40.97850890652135" lon="9.26160698745295"><ele>204.33333333333334</ele><time>2026-04-30T11:47:43Z</time></trkpt><trkpt lat="40.978507310093136" lon="9.261834626552304"><ele>203.0</ele><time>2026-04-30T11:47:44Z</time></trkpt><trkpt lat="40.97850711532817" lon="9.262053642433047"><ele>203.0</ele><time>2026-04-30T11:47:45Z</time></trkpt><trkpt lat="40.97850462175543" lon="9.26226588222414"><ele>203.0</ele><time>2026-04-30T11:47:46Z</time></trkpt><trkpt lat="40.978504525609075" lon="9.262468331250647"><ele>203.0</ele><time>2026-04-30T11:47:47Z</time></trkpt><trkpt lat="40.97850386955606" lon="9.262667017807201"><ele>203.0</ele><time>2026-04-30T11:47:48Z</time></trkpt><trkpt lat="40.978495457044446" lon="9.262863293132238"><ele>203.0</ele><time>2026-04-30T11:47:49Z</time></trkpt><trkpt lat="40.97847803549099" lon="9.263057250962687"><ele>203.0</ele><time>2026-04-30T11:47:50Z</time></trkpt><trkpt lat="40.97844956132246" lon="9.263252206521692"><ele>203.0</ele><time>2026-04-30T11:47:51Z</time></trkpt><trkpt lat="40.978409312909896" lon="9.263440733465815"><ele>202.33333333333334</ele><time>2026-04-30T11:47:52Z</time></trkpt><trkpt lat="40.97835728240141" lon="9.263626316980117"><ele>201.66666666666669</ele><time>2026-04-30T11:47:53Z</time></trkpt><trkpt lat="40.97829017015854" lon="9.263810488389955"><ele>201.0</ele><time>2026-04-30T11:47:54Z</time></trkpt><trkpt lat="40.97820927528193" lon="9.263985860935442"><ele>203.33333333333331</ele><time>2026-04-30T11:47:55Z</time></trkpt><trkpt lat="40.97811308757409" lon="9.2641516754169"><ele>205.66666666666666</ele><time>2026-04-30T11:47:56Z</time></trkpt><trkpt lat="40.97800901756132" lon="9.264309454579521"><ele>208.0</ele><time>2026-04-30T11:47:57Z</time></trkpt><trkpt lat="40.97789467150452" lon="9.264456370114631"><ele>208.0</ele><time>2026-04-30T11:47:58Z</time></trkpt><trkpt lat="40.97777168186626" lon="9.264593710436783"><ele>208.0</ele><time>2026-04-30T11:47:59Z</time></trkpt><trkpt lat="40.97763071654249" lon="9.264701228222563"><ele>208.0</ele><time>2026-04-30T11:48:00Z</time></trkpt><trkpt lat="40.97749535667846" lon="9.26482419419569"><ele>208.0</ele><time>2026-04-30T11:48:01Z</time></trkpt><trkpt lat="40.97736088181121" lon="9.26494475655078"><ele>208.0</ele><time>2026-04-30T11:48:02Z</time></trkpt><trkpt lat="40.977232824528286" lon="9.265081866743156"><ele>208.0</ele><time>2026-04-30T11:48:03Z</time></trkpt><trkpt lat="40.977098834290224" lon="9.265202769660457"><ele>208.0</ele><time>2026-04-30T11:48:04Z</time></trkpt><trkpt lat="40.97696476666732" lon="9.265325849497241"><ele>208.0</ele><time>2026-04-30T11:48:05Z</time></trkpt><trkpt lat="40.97683014262325" lon="9.265445463250053"><ele>208.0</ele><time>2026-04-30T11:48:06Z</time></trkpt><trkpt lat="40.97669505553304" lon="9.265565982290632"><ele>207.0</ele><time>2026-04-30T11:48:07Z</time></trkpt><trkpt lat="40.9765568645988" lon="9.265688540481076"><ele>206.0</ele><time>2026-04-30T11:48:08Z</time></trkpt><trkpt lat="40.97641528329633" lon="9.265814171397446"><ele>205.0</ele><time>2026-04-30T11:48:09Z</time></trkpt><trkpt lat="40.97627319717424" lon="9.265944239891226"><ele>205.0</ele><time>2026-04-30T11:48:10Z</time></trkpt><trkpt lat="40.976130995572824" lon="9.266076235558728"><ele>205.0</ele><time>2026-04-30T11:48:11Z</time></trkpt><trkpt lat="40.97598669134695" lon="9.266209546060422"><ele>205.0</ele><time>2026-04-30T11:48:12Z</time></trkpt><trkpt lat="40.97584037371625" lon="9.266337325450488"><ele>205.66666666666666</ele><time>2026-04-30T11:48:13Z</time></trkpt><trkpt lat="40.97569587084099" lon="9.266465909474242"><ele>206.33333333333331</ele><time>2026-04-30T11:48:14Z</time></trkpt><trkpt lat="40.9755473962771" lon="9.266597161521027"><ele>207.0</ele><time>2026-04-30T11:48:15Z</time></trkpt><trkpt lat="40.97540061157084" lon="9.266735045613329"><ele>207.0</ele><time>2026-04-30T11:48:16Z</time></trkpt><trkpt lat="40.97525132060595" lon="9.26687129401596"><ele>207.0</ele><time>2026-04-30T11:48:17Z</time></trkpt><trkpt lat="40.97510315534792" lon="9.267006115997072"><ele>207.0</ele><time>2026-04-30T11:48:18Z</time></trkpt><trkpt lat="40.97494985223819" lon="9.267143817493087"><ele>207.0</ele><time>2026-04-30T11:48:19Z</time></trkpt><trkpt lat="40.97479951564842" lon="9.26728003516652"><ele>207.0</ele><time>2026-04-30T11:48:20Z</time></trkpt><trkpt lat="40.9746541759329" lon="9.267413645855825"><ele>207.0</ele><time>2026-04-30T11:48:21Z</time></trkpt><trkpt lat="40.974495909976476" lon="9.26753344472047"><ele>207.0</ele><time>2026-04-30T11:48:22Z</time></trkpt><trkpt lat="40.97434867447806" lon="9.267666889470274"><ele>207.0</ele><time>2026-04-30T11:48:23Z</time></trkpt><trkpt lat="40.9742005391638" lon="9.267801149754556"><ele>207.0</ele><time>2026-04-30T11:48:24Z</time></trkpt><trkpt lat="40.974054605602596" lon="9.267933414993275"><ele>206.0</ele><time>2026-04-30T11:48:25Z</time></trkpt><trkpt lat="40.97390554504678" lon="9.26806853025319"><ele>205.0</ele><time>2026-04-30T11:48:26Z</time></trkpt><trkpt lat="40.97376047192585" lon="9.268200031150915"><ele>204.0</ele><time>2026-04-30T11:48:27Z</time></trkpt><trkpt lat="40.97362349902143" lon="9.268339917081507"><ele>204.0</ele><time>2026-04-30T11:48:28Z</time></trkpt><trkpt lat="40.973475655862984" lon="9.268465530964646"><ele>204.0</ele><time>2026-04-30T11:48:29Z</time></trkpt><trkpt lat="40.97333990028695" lon="9.268594627701047"><ele>204.0</ele><time>2026-04-30T11:48:30Z</time></trkpt><trkpt lat="40.973203439315014" lon="9.26871979329462"><ele>206.33333333333331</ele><time>2026-04-30T11:48:31Z</time></trkpt><trkpt lat="40.97306832867281" lon="9.268846443214079"><ele>208.66666666666666</ele><time>2026-04-30T11:48:32Z</time></trkpt><trkpt lat="40.97293531043237" lon="9.26896968166405"><ele>211.0</ele><time>2026-04-30T11:48:33Z</time></trkpt><trkpt lat="40.97280408694994" lon="9.269093042905153"><ele>211.0</ele><time>2026-04-30T11:48:34Z</time></trkpt><trkpt lat="40.97267377909194" lon="9.269211374352974"><ele>211.0</ele><time>2026-04-30T11:48:35Z</time></trkpt><trkpt lat="40.972544501468015" lon="9.269328145805634"><ele>211.0</ele><time>2026-04-30T11:48:36Z</time></trkpt><trkpt lat="40.97241794376458" lon="9.269442669918307"><ele>213.0</ele><time>2026-04-30T11:48:37Z</time></trkpt><trkpt lat="40.972285110688865" lon="9.269538054449436"><ele>215.0</ele><time>2026-04-30T11:48:38Z</time></trkpt><trkpt lat="40.97216134695238" lon="9.269650866032308"><ele>217.0</ele><time>2026-04-30T11:48:39Z</time></trkpt><trkpt lat="40.97204942745227" lon="9.269777031611373"><ele>219.0</ele><time>2026-04-30T11:48:40Z</time></trkpt><trkpt lat="40.97191871804671" lon="9.269871045939079"><ele>219.0</ele><time>2026-04-30T11:48:41Z</time></trkpt><trkpt lat="40.97179610309" lon="9.269981238604677"><ele>219.0</ele><time>2026-04-30T11:48:42Z</time></trkpt><trkpt lat="40.97167979317912" lon="9.27008557499054"><ele>219.0</ele><time>2026-04-30T11:48:43Z</time></trkpt><trkpt lat="40.97156249758023" lon="9.270195566318758"><ele>219.0</ele><time>2026-04-30T11:48:44Z</time></trkpt><trkpt lat="40.971442484347236" lon="9.27032018126848"><ele>219.33333333333331</ele><time>2026-04-30T11:48:45Z</time></trkpt><trkpt lat="40.9713406694981" lon="9.27048177395826"><ele>219.66666666666666</ele><time>2026-04-30T11:48:46Z</time></trkpt><trkpt lat="40.97123455089554" lon="9.270646424072824"><ele>220.0</ele><time>2026-04-30T11:48:47Z</time></trkpt><trkpt lat="40.9711343186767" lon="9.270824071599204"><ele>220.66666666666666</ele><time>2026-04-30T11:48:48Z</time></trkpt><trkpt lat="40.97102585895282" lon="9.270986103465745"><ele>221.33333333333331</ele><time>2026-04-30T11:48:49Z</time></trkpt><trkpt lat="40.97092707208472" lon="9.271162174469925"><ele>222.0</ele><time>2026-04-30T11:48:50Z</time></trkpt><trkpt lat="40.97082454923524" lon="9.271344039567039"><ele>219.33333333333331</ele><time>2026-04-30T11:48:51Z</time></trkpt><trkpt lat="40.97073173186575" lon="9.271542455015346"><ele>216.66666666666666</ele><time>2026-04-30T11:48:52Z</time></trkpt><trkpt lat="40.97062164237295" lon="9.271738095030933"><ele>214.0</ele><time>2026-04-30T11:48:53Z</time></trkpt><trkpt lat="40.97049711094045" lon="9.271925255943213"><ele>214.0</ele><time>2026-04-30T11:48:54Z</time></trkpt><trkpt lat="40.97038362758016" lon="9.272126715794764"><ele>214.0</ele><time>2026-04-30T11:48:55Z</time></trkpt><trkpt lat="40.97026960150144" lon="9.272329139097842"><ele>214.0</ele><time>2026-04-30T11:48:56Z</time></trkpt><trkpt lat="40.97015676864089" lon="9.27253011687554"><ele>214.0</ele><time>2026-04-30T11:48:57.001Z</time></trkpt><trkpt lat="40.970045802387766" lon="9.272728732651439"><ele>214.0</ele><time>2026-04-30T11:48:58.001Z</time></trkpt><trkpt lat="40.9699377609185" lon="9.272922113358051"><ele>214.0</ele><time>2026-04-30T11:48:59.001Z</time></trkpt><trkpt lat="40.96983031266808" lon="9.273111390193444"><ele>214.0</ele><time>2026-04-30T11:49:00.001Z</time></trkpt><trkpt lat="40.96972240956332" lon="9.273300990644511"><ele>214.0</ele><time>2026-04-30T11:49:01.001Z</time></trkpt><trkpt lat="40.96963399938574" lon="9.273493886163248"><ele>214.0</ele><time>2026-04-30T11:49:02.001Z</time></trkpt><trkpt lat="40.96953470119023" lon="9.273670463370262"><ele>214.0</ele><time>2026-04-30T11:49:03.001Z</time></trkpt><trkpt lat="40.969426431852526" lon="9.273827756883481"><ele>214.0</ele><time>2026-04-30T11:49:04.001Z</time></trkpt><trkpt lat="40.969332513443675" lon="9.2739978595958"><ele>214.0</ele><time>2026-04-30T11:49:05.001Z</time></trkpt><trkpt lat="40.96925051966598" lon="9.274175936269035"><ele>214.33333333333331</ele><time>2026-04-30T11:49:06.001Z</time></trkpt><trkpt lat="40.96915872197716" lon="9.274329658071503"><ele>214.66666666666669</ele><time>2026-04-30T11:49:07.001Z</time></trkpt><trkpt lat="40.96906675455716" lon="9.274491669383293"><ele>215.0</ele><time>2026-04-30T11:49:08.001Z</time></trkpt><trkpt lat="40.968977615819604" lon="9.274649314299412"><ele>214.25</ele><time>2026-04-30T11:49:09.001Z</time></trkpt><trkpt lat="40.96889252790462" lon="9.274802947950535"><ele>213.5</ele><time>2026-04-30T11:49:10.001Z</time></trkpt><trkpt lat="40.968810581390215" lon="9.274949332215776"><ele>212.75</ele><time>2026-04-30T11:49:11.001Z</time></trkpt><trkpt lat="40.96871847203952" lon="9.27508193811456"><ele>212.0</ele><time>2026-04-30T11:49:12.001Z</time></trkpt><trkpt lat="40.968637787567275" lon="9.275222657777679"><ele>212.0</ele><time>2026-04-30T11:49:13.001Z</time></trkpt><trkpt lat="40.96856526484709" lon="9.275357653872387"><ele>212.0</ele><time>2026-04-30T11:49:14.001Z</time></trkpt><trkpt lat="40.96849581737835" lon="9.275486925595986"><ele>212.0</ele><time>2026-04-30T11:49:15.001Z</time></trkpt><trkpt lat="40.96843982300609" lon="9.27561491807389"><ele>212.0</ele><time>2026-04-30T11:49:16Z</time></trkpt><trkpt lat="40.968366466633114" lon="9.275710144768837"><ele>212.8</ele><time>2026-04-30T11:49:17Z</time></trkpt><trkpt lat="40.96828680572016" lon="9.275786775744686"><ele>213.6</ele><time>2026-04-30T11:49:18Z</time></trkpt><trkpt lat="40.96820577104658" lon="9.275848379396153"><ele>214.40000000000003</ele><time>2026-04-30T11:49:19Z</time></trkpt><trkpt lat="40.968111092766804" lon="9.275897236620441"><ele>215.20000000000002</ele><time>2026-04-30T11:49:20Z</time></trkpt><trkpt lat="40.96802570756712" lon="9.275957853804002"><ele>216.0</ele><time>2026-04-30T11:49:21Z</time></trkpt><trkpt lat="40.96796297571849" lon="9.276034236326145"><ele>216.0</ele><time>2026-04-30T11:49:22Z</time></trkpt><trkpt lat="40.96793235744845" lon="9.27612514218948"><ele>216.0</ele><time>2026-04-30T11:49:23Z</time></trkpt><trkpt lat="40.96792593505758" lon="9.276220387935158"><ele>216.0</ele><time>2026-04-30T11:49:24Z</time></trkpt><trkpt lat="40.96794073904033" lon="9.276324255090895"><ele>216.0</ele><time>2026-04-30T11:49:25Z</time></trkpt><trkpt lat="40.967978562195654" lon="9.276425609105207"><ele>216.0</ele><time>2026-04-30T11:49:26Z</time></trkpt><trkpt lat="40.968042068911004" lon="9.276508272336082"><ele>216.0</ele><time>2026-04-30T11:49:27Z</time></trkpt><trkpt lat="40.96812208829853" lon="9.276550563024243"><ele>215.4</ele><time>2026-04-30T11:49:28Z</time></trkpt><trkpt lat="40.96819858081175" lon="9.276561410705794"><ele>214.8</ele><time>2026-04-30T11:49:29Z</time></trkpt><trkpt lat="40.96827664763728" lon="9.276508420034325"><ele>214.20000000000002</ele><time>2026-04-30T11:49:30Z</time></trkpt><trkpt lat="40.96838400710246" lon="9.276550007316619"><ele>213.60000000000002</ele><time>2026-04-30T11:49:31Z</time></trkpt><trkpt lat="40.96848724712434" lon="9.276583166925327"><ele>213.0</ele><time>2026-04-30T11:49:32Z</time></trkpt><trkpt lat="40.968596742597036" lon="9.276646549668628"><ele>213.0</ele><time>2026-04-30T11:49:33Z</time></trkpt><trkpt lat="40.96871584889603" lon="9.276728916165604"><ele>213.0</ele><time>2026-04-30T11:49:34Z</time></trkpt><trkpt lat="40.96884139690209" lon="9.276814860072735"><ele>213.0</ele><time>2026-04-30T11:49:35Z</time></trkpt><trkpt lat="40.9689644541484" lon="9.276897158642175"><ele>213.0</ele><time>2026-04-30T11:49:36Z</time></trkpt><trkpt lat="40.96909635328054" lon="9.276976109951175"><ele>214.25</ele><time>2026-04-30T11:49:37Z</time></trkpt><trkpt lat="40.9692241880671" lon="9.277023069503892"><ele>215.5</ele><time>2026-04-30T11:49:38Z</time></trkpt><trkpt lat="40.969346268924674" lon="9.277023010637544"><ele>216.75</ele><time>2026-04-30T11:49:39Z</time></trkpt><trkpt lat="40.96946718343399" lon="9.276983610885779"><ele>218.0</ele><time>2026-04-30T11:49:40Z</time></trkpt><trkpt lat="40.969580780385726" lon="9.27690827528597"><ele>218.0</ele><time>2026-04-30T11:49:41Z</time></trkpt><trkpt lat="40.969691543798135" lon="9.276808888349088"><ele>218.0</ele><time>2026-04-30T11:49:42Z</time></trkpt><trkpt lat="40.969802237769244" lon="9.276704980649065"><ele>218.0</ele><time>2026-04-30T11:49:43Z</time></trkpt><trkpt lat="40.969920662095674" lon="9.276597263887487"><ele>218.0</ele><time>2026-04-30T11:49:44Z</time></trkpt><trkpt lat="40.97004843087776" lon="9.276532229941546"><ele>218.0</ele><time>2026-04-30T11:49:45Z</time></trkpt><trkpt lat="40.970186841713236" lon="9.27649762049611"><ele>218.0</ele><time>2026-04-30T11:49:46Z</time></trkpt><trkpt lat="40.970343103170485" lon="9.276465852536557"><ele>218.0</ele><time>2026-04-30T11:49:47Z</time></trkpt><trkpt lat="40.97051227280927" lon="9.276431238757286"><ele>218.0</ele><time>2026-04-30T11:49:48Z</time></trkpt><trkpt lat="40.9706891128197" lon="9.276377994850142"><ele>218.0</ele><time>2026-04-30T11:49:49Z</time></trkpt><trkpt lat="40.97087028534191" lon="9.276302535865389"><ele>218.0</ele><time>2026-04-30T11:49:50Z</time></trkpt><trkpt lat="40.97103555746189" lon="9.276218590874771"><ele>222.66666666666669</ele><time>2026-04-30T11:49:51Z</time></trkpt><trkpt lat="40.97120992453629" lon="9.276162843565618"><ele>227.33333333333331</ele><time>2026-04-30T11:49:52Z</time></trkpt><trkpt lat="40.971394643201094" lon="9.276132363892545"><ele>232.0</ele><time>2026-04-30T11:49:53Z</time></trkpt><trkpt lat="40.97157808471692" lon="9.276113899418785"><ele>233.33333333333331</ele><time>2026-04-30T11:49:54Z</time></trkpt><trkpt lat="40.97174710544354" lon="9.276096643637846"><ele>234.66666666666669</ele><time>2026-04-30T11:49:55Z</time></trkpt><trkpt lat="40.97191872791549" lon="9.27608009656817"><ele>236.0</ele><time>2026-04-30T11:49:56Z</time></trkpt><trkpt lat="40.97208609463751" lon="9.276060417389726"><ele>236.0</ele><time>2026-04-30T11:49:57Z</time></trkpt><trkpt lat="40.97223868215756" lon="9.27603455174093"><ele>236.0</ele><time>2026-04-30T11:49:58Z</time></trkpt><trkpt lat="40.97238075519388" lon="9.27601722567299"><ele>236.0</ele><time>2026-04-30T11:49:59Z</time></trkpt><trkpt lat="40.972541878499364" lon="9.27601200113064"><ele>235.66666666666669</ele><time>2026-04-30T11:50:00Z</time></trkpt><trkpt lat="40.97271447178411" lon="9.276016131162894"><ele>235.33333333333331</ele><time>2026-04-30T11:50:01Z</time></trkpt><trkpt lat="40.97289017745735" lon="9.27602784676534"><ele>235.0</ele><time>2026-04-30T11:50:02Z</time></trkpt><trkpt lat="40.97306618607096" lon="9.27604110990614"><ele>235.0</ele><time>2026-04-30T11:50:03Z</time></trkpt><trkpt lat="40.97324328945645" lon="9.27604898911151"><ele>235.0</ele><time>2026-04-30T11:50:04Z</time></trkpt><trkpt lat="40.973420035184816" lon="9.276058896817961"><ele>235.0</ele><time>2026-04-30T11:50:05Z</time></trkpt><trkpt lat="40.97359497671684" lon="9.27607130554257"><ele>235.0</ele><time>2026-04-30T11:50:06Z</time></trkpt><trkpt lat="40.97376409519426" lon="9.276079387212418"><ele>235.0</ele><time>2026-04-30T11:50:07Z</time></trkpt><trkpt lat="40.97392267144516" lon="9.276084795842706"><ele>235.0</ele><time>2026-04-30T11:50:08Z</time></trkpt><trkpt lat="40.974079195649274" lon="9.276090322833351"><ele>235.5</ele><time>2026-04-30T11:50:09Z</time></trkpt><trkpt lat="40.974235017050034" lon="9.27610390531029"><ele>236.0</ele><time>2026-04-30T11:50:10Z</time></trkpt><trkpt lat="40.974373578272846" lon="9.276136083138395"><ele>236.5</ele><time>2026-04-30T11:50:11Z</time></trkpt><trkpt lat="40.974505744437636" lon="9.276208624998029"><ele>237.0</ele><time>2026-04-30T11:50:12Z</time></trkpt><trkpt lat="40.97461823955325" lon="9.2763188110874"><ele>239.0</ele><time>2026-04-30T11:50:13Z</time></trkpt><trkpt lat="40.974718849751646" lon="9.276450423676332"><ele>241.0</ele><time>2026-04-30T11:50:14Z</time></trkpt><trkpt lat="40.97480863060568" lon="9.276546493288143"><ele>243.0</ele><time>2026-04-30T11:50:15Z</time></trkpt><trkpt lat="40.97489463093396" lon="9.276603336710982"><ele>245.0</ele><time>2026-04-30T11:50:16Z</time></trkpt><trkpt lat="40.97498592775928" lon="9.276604362759402"><ele>247.0</ele><time>2026-04-30T11:50:17Z</time></trkpt><trkpt lat="40.97510189077893" lon="9.276568060802335"><ele>246.75</ele><time>2026-04-30T11:50:18Z</time></trkpt><trkpt lat="40.975202666703176" lon="9.276476458916733"><ele>246.5</ele><time>2026-04-30T11:50:19Z</time></trkpt><trkpt lat="40.9753029760062" lon="9.27634959503046"><ele>246.25</ele><time>2026-04-30T11:50:20Z</time></trkpt><trkpt lat="40.975413204541944" lon="9.27623116717353"><ele>246.0</ele><time>2026-04-30T11:50:21Z</time></trkpt><trkpt lat="40.975526888559656" lon="9.276129317826392"><ele>246.0</ele><time>2026-04-30T11:50:22Z</time></trkpt><trkpt lat="40.97564277812224" lon="9.276051803410663"><ele>246.0</ele><time>2026-04-30T11:50:23Z</time></trkpt><trkpt lat="40.97576933067925" lon="9.276010457164865"><ele>246.0</ele><time>2026-04-30T11:50:24Z</time></trkpt><trkpt lat="40.97590994440089" lon="9.276009075417512"><ele>246.0</ele><time>2026-04-30T11:50:25Z</time></trkpt><trkpt lat="40.97605172988786" lon="9.27602584121847"><ele>248.5</ele><time>2026-04-30T11:50:26Z</time></trkpt><trkpt lat="40.976172821842354" lon="9.276011692038441"><ele>251.0</ele><time>2026-04-30T11:50:27Z</time></trkpt><trkpt lat="40.97628326622602" lon="9.275972699090556"><ele>253.5</ele><time>2026-04-30T11:50:28Z</time></trkpt><trkpt lat="40.976362868347536" lon="9.275848329252664"><ele>256.0</ele><time>2026-04-30T11:50:29Z</time></trkpt><trkpt lat="40.97644385211659" lon="9.275708886655885"><ele>255.5</ele><time>2026-04-30T11:50:30Z</time></trkpt><trkpt lat="40.97652392271768" lon="9.275555919804384"><ele>255.0</ele><time>2026-04-30T11:50:31Z</time></trkpt><trkpt lat="40.97660954749457" lon="9.275429817579957"><ele>254.5</ele><time>2026-04-30T11:50:32Z</time></trkpt><trkpt lat="40.97671294010433" lon="9.275342401132916"><ele>254.0</ele><time>2026-04-30T11:50:33Z</time></trkpt><trkpt lat="40.97683854675568" lon="9.27529532758792"><ele>254.0</ele><time>2026-04-30T11:50:34Z</time></trkpt><trkpt lat="40.976985645240205" lon="9.275255742777228"><ele>254.0</ele><time>2026-04-30T11:50:35Z</time></trkpt><trkpt lat="40.9771494166669" lon="9.275214500630517"><ele>254.0</ele><time>2026-04-30T11:50:36Z</time></trkpt><trkpt lat="40.977319064640774" lon="9.275167171352154"><ele>254.0</ele><time>2026-04-30T11:50:37Z</time></trkpt><trkpt lat="40.97749579195719" lon="9.275126438350336"><ele>254.0</ele><time>2026-04-30T11:50:38Z</time></trkpt><trkpt lat="40.97768951542989" lon="9.275106160074674"><ele>254.0</ele><time>2026-04-30T11:50:39Z</time></trkpt><trkpt lat="40.97789730814363" lon="9.275092200464893"><ele>257.0</ele><time>2026-04-30T11:50:40Z</time></trkpt><trkpt lat="40.97810926501715" lon="9.275061618603686"><ele>260.0</ele><time>2026-04-30T11:50:41Z</time></trkpt><trkpt lat="40.978301190402966" lon="9.275010625075863"><ele>263.0</ele><time>2026-04-30T11:50:42Z</time></trkpt><trkpt lat="40.97847483533286" lon="9.274959529349623"><ele>264.25</ele><time>2026-04-30T11:50:43Z</time></trkpt><trkpt lat="40.978625595297785" lon="9.27491408057752"><ele>265.5</ele><time>2026-04-30T11:50:44Z</time></trkpt><trkpt lat="40.978766186678506" lon="9.274873656018643"><ele>266.75</ele><time>2026-04-30T11:50:45Z</time></trkpt><trkpt lat="40.97890869240423" lon="9.274860133922983"><ele>268.0</ele><time>2026-04-30T11:50:46Z</time></trkpt><trkpt lat="40.97904502010205" lon="9.274832037758726"><ele>268.0</ele><time>2026-04-30T11:50:47Z</time></trkpt><trkpt lat="40.97917746285404" lon="9.274786100214945"><ele>268.0</ele><time>2026-04-30T11:50:48Z</time></trkpt><trkpt lat="40.97928034667178" lon="9.274702345560671"><ele>268.0</ele><time>2026-04-30T11:50:49Z</time></trkpt><trkpt lat="40.97937616698937" lon="9.274651776970511"><ele>268.0</ele><time>2026-04-30T11:50:50Z</time></trkpt><trkpt lat="40.979472054771506" lon="9.274609109051642"><ele>266.0</ele><time>2026-04-30T11:50:51Z</time></trkpt><trkpt lat="40.979569426374944" lon="9.274577170099953"><ele>264.0</ele><time>2026-04-30T11:50:52Z</time></trkpt><trkpt lat="40.979669199293916" lon="9.274563020306433"><ele>262.0</ele><time>2026-04-30T11:50:53Z</time></trkpt><trkpt lat="40.9797731878158" lon="9.274561322689848"><ele>260.0</ele><time>2026-04-30T11:50:54Z</time></trkpt><trkpt lat="40.97987194801385" lon="9.27457266404605"><ele>258.0</ele><time>2026-04-30T11:50:55Z</time></trkpt><trkpt lat="40.979968261078405" lon="9.27459404922315"><ele>258.8</ele><time>2026-04-30T11:50:56Z</time></trkpt><trkpt lat="40.98006084831374" lon="9.274639616315245"><ele>259.6</ele><time>2026-04-30T11:50:57Z</time></trkpt><trkpt lat="40.980139239269135" lon="9.274711556901245"><ele>260.4</ele><time>2026-04-30T11:50:58Z</time></trkpt><trkpt lat="40.980200485639976" lon="9.274805509671424"><ele>261.2</ele><time>2026-04-30T11:50:59Z</time></trkpt><trkpt lat="40.980253180390186" lon="9.27491019804932"><ele>262.0</ele><time>2026-04-30T11:51:00Z</time></trkpt><trkpt lat="40.980302542504425" lon="9.275032450233564"><ele>262.0</ele><time>2026-04-30T11:51:01Z</time></trkpt><trkpt lat="40.98035971829681" lon="9.275166977455608"><ele>262.0</ele><time>2026-04-30T11:51:02Z</time></trkpt><trkpt lat="40.98042061371544" lon="9.275309703275063"><ele>262.0</ele><time>2026-04-30T11:51:03.001Z</time></trkpt><trkpt lat="40.98047116233299" lon="9.275480310052572"><ele>262.0</ele><time>2026-04-30T11:51:04.001Z</time></trkpt><trkpt lat="40.98051945939752" lon="9.275683397795476"><ele>258.66666666666663</ele><time>2026-04-30T11:51:05.001Z</time></trkpt><trkpt lat="40.98055643163241" lon="9.275910194948326"><ele>255.33333333333331</ele><time>2026-04-30T11:51:06.001Z</time></trkpt><trkpt lat="40.98058314511505" lon="9.276163317976422"><ele>252.0</ele><time>2026-04-30T11:51:07.001Z</time></trkpt><trkpt lat="40.98060309976092" lon="9.27643407132208"><ele>247.0</ele><time>2026-04-30T11:51:08.001Z</time></trkpt><trkpt lat="40.98062036399891" lon="9.276723350120747"><ele>242.0</ele><time>2026-04-30T11:51:09.001Z</time></trkpt><trkpt lat="40.98063082687373" lon="9.277028974407672"><ele>240.66666666666669</ele><time>2026-04-30T11:51:10.001Z</time></trkpt><trkpt lat="40.98064152967209" lon="9.277312678542494"><ele>239.33333333333331</ele><time>2026-04-30T11:51:11.001Z</time></trkpt><trkpt lat="40.980668431113294" lon="9.277589943585014"><ele>238.0</ele><time>2026-04-30T11:51:12.001Z</time></trkpt><trkpt lat="40.98068979635612" lon="9.27787344476355"><ele>238.66666666666666</ele><time>2026-04-30T11:51:13.001Z</time></trkpt><trkpt lat="40.980770857827345" lon="9.278131456209492"><ele>239.33333333333331</ele><time>2026-04-30T11:51:14.001Z</time></trkpt><trkpt lat="40.98083424931204" lon="9.278381258001849"><ele>240.0</ele><time>2026-04-30T11:51:15.001Z</time></trkpt><trkpt lat="40.98090030292507" lon="9.27861075044076"><ele>237.0</ele><time>2026-04-30T11:51:16.001Z</time></trkpt><trkpt lat="40.98095486152689" lon="9.27883289863111"><ele>234.0</ele><time>2026-04-30T11:51:17.001Z</time></trkpt><trkpt lat="40.98099595636941" lon="9.279077980816256"><ele>231.0</ele><time>2026-04-30T11:51:18.001Z</time></trkpt><trkpt lat="40.981025484556774" lon="9.279344414079"><ele>230.33333333333331</ele><time>2026-04-30T11:51:19.001Z</time></trkpt><trkpt lat="40.98104987739851" lon="9.27962593608674"><ele>229.66666666666666</ele><time>2026-04-30T11:51:20Z</time></trkpt><trkpt lat="40.98106896959679" lon="9.279913876469498"><ele>229.0</ele><time>2026-04-30T11:51:21Z</time></trkpt><trkpt lat="40.98108244132025" lon="9.280209795713395"><ele>231.0</ele><time>2026-04-30T11:51:22Z</time></trkpt><trkpt lat="40.981086587349004" lon="9.280514486493624"><ele>233.0</ele><time>2026-04-30T11:51:23Z</time></trkpt><trkpt lat="40.98107808391459" lon="9.280823578044389"><ele>233.5</ele><time>2026-04-30T11:51:24Z</time></trkpt><trkpt lat="40.98106730491148" lon="9.281129996517086"><ele>234.0</ele><time>2026-04-30T11:51:25Z</time></trkpt><trkpt lat="40.98106111852569" lon="9.28143454553643"><ele>235.33333333333331</ele><time>2026-04-30T11:51:26Z</time></trkpt><trkpt lat="40.981062376219974" lon="9.281730350141324"><ele>236.66666666666666</ele><time>2026-04-30T11:51:27Z</time></trkpt><trkpt lat="40.98107185069981" lon="9.282018331407146"><ele>238.0</ele><time>2026-04-30T11:51:28Z</time></trkpt><trkpt lat="40.981089513243155" lon="9.2823013527806"><ele>239.66666666666666</ele><time>2026-04-30T11:51:29Z</time></trkpt><trkpt lat="40.98111472353221" lon="9.28258730703325"><ele>241.33333333333331</ele><time>2026-04-30T11:51:30Z</time></trkpt><trkpt lat="40.98114119316576" lon="9.282866237167195"><ele>243.0</ele><time>2026-04-30T11:51:31Z</time></trkpt><trkpt lat="40.98116629243208" lon="9.28312361175294"><ele>245.0</ele><time>2026-04-30T11:51:32Z</time></trkpt><trkpt lat="40.98119168124905" lon="9.2833681203361"><ele>247.0</ele><time>2026-04-30T11:51:33Z</time></trkpt><trkpt lat="40.98121226854937" lon="9.283598929932563"><ele>249.0</ele><time>2026-04-30T11:51:34Z</time></trkpt><trkpt lat="40.98122089137886" lon="9.283825115914338"><ele>249.0</ele><time>2026-04-30T11:51:35Z</time></trkpt><trkpt lat="40.98120702322055" lon="9.284049563990264"><ele>249.0</ele><time>2026-04-30T11:51:36Z</time></trkpt><trkpt lat="40.9811708166256" lon="9.284271700363293"><ele>249.0</ele><time>2026-04-30T11:51:37Z</time></trkpt><trkpt lat="40.98112873370729" lon="9.284494257249886"><ele>249.0</ele><time>2026-04-30T11:51:38Z</time></trkpt><trkpt lat="40.98110413354848" lon="9.284719563407753"><ele>249.0</ele><time>2026-04-30T11:51:39Z</time></trkpt><trkpt lat="40.98111268246606" lon="9.284948355800058"><ele>249.0</ele><time>2026-04-30T11:51:40Z</time></trkpt><trkpt lat="40.981142054099536" lon="9.285185902979473"><ele>248.66666666666669</ele><time>2026-04-30T11:51:41Z</time></trkpt><trkpt lat="40.98118328961214" lon="9.285423258145347"><ele>248.33333333333334</ele><time>2026-04-30T11:51:42Z</time></trkpt><trkpt lat="40.98123399663262" lon="9.2856632559038"><ele>248.0</ele><time>2026-04-30T11:51:43Z</time></trkpt><trkpt lat="40.981273625689795" lon="9.285897816658581"><ele>248.0</ele><time>2026-04-30T11:51:44Z</time></trkpt><trkpt lat="40.981290410251226" lon="9.286137969527504"><ele>248.0</ele><time>2026-04-30T11:51:45Z</time></trkpt><trkpt lat="40.981276713368935" lon="9.286373938722368"><ele>248.0</ele><time>2026-04-30T11:51:46Z</time></trkpt><trkpt lat="40.98124621435853" lon="9.286599019057103"><ele>248.33333333333334</ele><time>2026-04-30T11:51:47Z</time></trkpt><trkpt lat="40.98121141385806" lon="9.286805195147826"><ele>248.66666666666669</ele><time>2026-04-30T11:51:48Z</time></trkpt><trkpt lat="40.98120092878651" lon="9.287017623592387"><ele>249.0</ele><time>2026-04-30T11:51:49Z</time></trkpt><trkpt lat="40.981215899146086" lon="9.287233613016173"><ele>250.66666666666669</ele><time>2026-04-30T11:51:50Z</time></trkpt><trkpt lat="40.981264153533665" lon="9.287456934904828"><ele>252.33333333333334</ele><time>2026-04-30T11:51:51Z</time></trkpt><trkpt lat="40.981307044192384" lon="9.28770757079246"><ele>254.0</ele><time>2026-04-30T11:51:52Z</time></trkpt><trkpt lat="40.981366125478694" lon="9.287968777040271"><ele>255.0</ele><time>2026-04-30T11:51:53Z</time></trkpt><trkpt lat="40.98143595494645" lon="9.288231222100752"><ele>256.0</ele><time>2026-04-30T11:51:54Z</time></trkpt><trkpt lat="40.981482434008655" lon="9.288506571572295"><ele>257.0</ele><time>2026-04-30T11:51:55Z</time></trkpt><trkpt lat="40.981526134198226" lon="9.288787111650064"><ele>258.6666666666667</ele><time>2026-04-30T11:51:56Z</time></trkpt><trkpt lat="40.981568085038894" lon="9.289065772005896"><ele>260.3333333333333</ele><time>2026-04-30T11:51:57Z</time></trkpt><trkpt lat="40.98161699399442" lon="9.289362530076499"><ele>262.0</ele><time>2026-04-30T11:51:58Z</time></trkpt><trkpt lat="40.98166861605559" lon="9.289661682510296"><ele>264.0</ele><time>2026-04-30T11:51:59Z</time></trkpt><trkpt lat="40.98170633168292" lon="9.289971863530551"><ele>266.0</ele><time>2026-04-30T11:52:00Z</time></trkpt><trkpt lat="40.98176041851121" lon="9.290270592593648"><ele>266.0</ele><time>2026-04-30T11:52:01Z</time></trkpt><trkpt lat="40.9818149470214" lon="9.290551843431459"><ele>266.0</ele><time>2026-04-30T11:52:02Z</time></trkpt><trkpt lat="40.98186629323014" lon="9.290815356069821"><ele>266.0</ele><time>2026-04-30T11:52:03Z</time></trkpt><trkpt lat="40.98191512223274" lon="9.291065950222919"><ele>267.33333333333337</ele><time>2026-04-30T11:52:04Z</time></trkpt><trkpt lat="40.98196981293332" lon="9.291305370682808"><ele>268.6666666666667</ele><time>2026-04-30T11:52:05Z</time></trkpt><trkpt lat="40.98198836674927" lon="9.29155872774465"><ele>270.0</ele><time>2026-04-30T11:52:06Z</time></trkpt><trkpt lat="40.98199413563955" lon="9.29182405762653"><ele>271.0</ele><time>2026-04-30T11:52:07Z</time></trkpt><trkpt lat="40.98199452946041" lon="9.29209851249928"><ele>272.0</ele><time>2026-04-30T11:52:08Z</time></trkpt><trkpt lat="40.982002336512274" lon="9.292354397222457"><ele>273.0</ele><time>2026-04-30T11:52:09Z</time></trkpt><trkpt lat="40.98201264319885" lon="9.292603178083473"><ele>273.0</ele><time>2026-04-30T11:52:10Z</time></trkpt><trkpt lat="40.98201108973995" lon="9.292845978384655"><ele>273.0</ele><time>2026-04-30T11:52:11Z</time></trkpt><trkpt lat="40.98202185611614" lon="9.293085054054863"><ele>273.0</ele><time>2026-04-30T11:52:12Z</time></trkpt><trkpt lat="40.9820329967145" lon="9.293320603006158"><ele>273.3333333333333</ele><time>2026-04-30T11:52:13Z</time></trkpt><trkpt lat="40.982044268639775" lon="9.293550734043748"><ele>273.66666666666663</ele><time>2026-04-30T11:52:14Z</time></trkpt><trkpt lat="40.98205923306164" lon="9.293784271715213"><ele>274.0</ele><time>2026-04-30T11:52:15Z</time></trkpt><trkpt lat="40.98208315641379" lon="9.294024602741585"><ele>275.0</ele><time>2026-04-30T11:52:16Z</time></trkpt><trkpt lat="40.98213223800416" lon="9.2942557622967"><ele>276.0</ele><time>2026-04-30T11:52:17Z</time></trkpt><trkpt lat="40.98217111641164" lon="9.2944893104326"><ele>277.0</ele><time>2026-04-30T11:52:18Z</time></trkpt><trkpt lat="40.9822064694262" lon="9.294723708897953"><ele>277.66666666666663</ele><time>2026-04-30T11:52:19Z</time></trkpt><trkpt lat="40.982238513083544" lon="9.294956830817572"><ele>278.3333333333333</ele><time>2026-04-30T11:52:20Z</time></trkpt><trkpt lat="40.982270399874416" lon="9.295187764537506"><ele>279.0</ele><time>2026-04-30T11:52:21Z</time></trkpt><trkpt lat="40.982303204402164" lon="9.295417727540958"><ele>280.3333333333333</ele><time>2026-04-30T11:52:22Z</time></trkpt><trkpt lat="40.982344135942675" lon="9.295640668144177"><ele>281.66666666666663</ele><time>2026-04-30T11:52:23Z</time></trkpt><trkpt lat="40.98237263456593" lon="9.29585471348733"><ele>283.0</ele><time>2026-04-30T11:52:24Z</time></trkpt><trkpt lat="40.98242079652477" lon="9.296050346175072"><ele>283.0</ele><time>2026-04-30T11:52:25Z</time></trkpt><trkpt lat="40.98246951659388" lon="9.296218377698745"><ele>283.0</ele><time>2026-04-30T11:52:26Z</time></trkpt><trkpt lat="40.98251624801072" lon="9.296374881949976"><ele>283.0</ele><time>2026-04-30T11:52:27Z</time></trkpt><trkpt lat="40.98255820762696" lon="9.296538278549463"><ele>283.0</ele><time>2026-04-30T11:52:28Z</time></trkpt><trkpt lat="40.982595803560905" lon="9.296709500424633"><ele>284.25</ele><time>2026-04-30T11:52:29Z</time></trkpt><trkpt lat="40.982605166352016" lon="9.296897555659136"><ele>285.5</ele><time>2026-04-30T11:52:30Z</time></trkpt><trkpt lat="40.98260334485672" lon="9.297083437790072"><ele>286.75</ele><time>2026-04-30T11:52:31Z</time></trkpt><trkpt lat="40.982598581046744" lon="9.297278374351674"><ele>288.0</ele><time>2026-04-30T11:52:32Z</time></trkpt><trkpt lat="40.98260077990833" lon="9.297485559153143"><ele>288.0</ele><time>2026-04-30T11:52:33Z</time></trkpt><trkpt lat="40.982591496738394" lon="9.297698032956815"><ele>288.0</ele><time>2026-04-30T11:52:34Z</time></trkpt><trkpt lat="40.982611587558615" lon="9.29792360158246"><ele>288.0</ele><time>2026-04-30T11:52:35Z</time></trkpt><trkpt lat="40.98266884743912" lon="9.298147190200877"><ele>288.3333333333333</ele><time>2026-04-30T11:52:36Z</time></trkpt><trkpt lat="40.982749985557305" lon="9.298368240058299"><ele>288.66666666666663</ele><time>2026-04-30T11:52:37Z</time></trkpt><trkpt lat="40.9828350996796" lon="9.298593666474199"><ele>289.0</ele><time>2026-04-30T11:52:38Z</time></trkpt><trkpt lat="40.98292431929456" lon="9.29882768123096"><ele>289.66666666666663</ele><time>2026-04-30T11:52:39Z</time></trkpt><trkpt lat="40.983023401962434" lon="9.299067472102406"><ele>290.3333333333333</ele><time>2026-04-30T11:52:40Z</time></trkpt><trkpt lat="40.983150590601106" lon="9.299290982163168"><ele>291.0</ele><time>2026-04-30T11:52:41Z</time></trkpt><trkpt lat="40.98329822196176" lon="9.29949260409285"><ele>293.3333333333333</ele><time>2026-04-30T11:52:42Z</time></trkpt><trkpt lat="40.98343801597394" lon="9.299716886683763"><ele>295.66666666666663</ele><time>2026-04-30T11:52:43Z</time></trkpt><trkpt lat="40.98356920638881" lon="9.299934608762014"><ele>298.0</ele><time>2026-04-30T11:52:44Z</time></trkpt><trkpt lat="40.983686531145906" lon="9.30012925747251"><ele>298.0</ele><time>2026-04-30T11:52:45Z</time></trkpt><trkpt lat="40.98378884915156" lon="9.300301491813045"><ele>298.0</ele><time>2026-04-30T11:52:46Z</time></trkpt><trkpt lat="40.983879092994556" lon="9.300444576449438"><ele>298.0</ele><time>2026-04-30T11:52:47Z</time></trkpt><trkpt lat="40.983959429099805" lon="9.300568043181402"><ele>298.0</ele><time>2026-04-30T11:52:48Z</time></trkpt><trkpt lat="40.984066327330005" lon="9.300607555051862"><ele>299.25</ele><time>2026-04-30T11:52:49Z</time></trkpt><trkpt lat="40.98416502183487" lon="9.30060955152124"><ele>300.5</ele><time>2026-04-30T11:52:50Z</time></trkpt><trkpt lat="40.98426414784454" lon="9.300557254103689"><ele>301.75</ele><time>2026-04-30T11:52:51Z</time></trkpt><trkpt lat="40.98437301901763" lon="9.300467875667422"><ele>303.0</ele><time>2026-04-30T11:52:52Z</time></trkpt><trkpt lat="40.98448390611358" lon="9.300369280205144"><ele>304.75</ele><time>2026-04-30T11:52:53Z</time></trkpt><trkpt lat="40.98459885651076" lon="9.300294614791731"><ele>306.5</ele><time>2026-04-30T11:52:54Z</time></trkpt><trkpt lat="40.98471520834312" lon="9.300256487794782"><ele>308.25</ele><time>2026-04-30T11:52:55Z</time></trkpt><trkpt lat="40.98483664323919" lon="9.300257319883142"><ele>310.0</ele><time>2026-04-30T11:52:56Z</time></trkpt><trkpt lat="40.9849624754321" lon="9.30029318571761"><ele>313.0</ele><time>2026-04-30T11:52:57Z</time></trkpt><trkpt lat="40.98509174196259" lon="9.300365522633987"><ele>316.0</ele><time>2026-04-30T11:52:58Z</time></trkpt><trkpt lat="40.98521612386483" lon="9.300465551713094"><ele>319.0</ele><time>2026-04-30T11:52:59Z</time></trkpt><trkpt lat="40.9853223174501" lon="9.300537900612989"><ele>322.0</ele><time>2026-04-30T11:53:00Z</time></trkpt><trkpt lat="40.98542996866131" lon="9.30056046431419"><ele>322.0</ele><time>2026-04-30T11:53:01Z</time></trkpt><trkpt lat="40.98552292617878" lon="9.300525153509685"><ele>322.0</ele><time>2026-04-30T11:53:02Z</time></trkpt><trkpt lat="40.985601197060525" lon="9.300426181234844"><ele>322.0</ele><time>2026-04-30T11:53:03Z</time></trkpt><trkpt lat="40.98568188032199" lon="9.300293384268349"><ele>322.0</ele><time>2026-04-30T11:53:04Z</time></trkpt><trkpt lat="40.985768880585766" lon="9.300171915599648"><ele>325.75</ele><time>2026-04-30T11:53:05Z</time></trkpt><trkpt lat="40.985867586195724" lon="9.300092833150265"><ele>329.5</ele><time>2026-04-30T11:53:06Z</time></trkpt><trkpt lat="40.98597469082232" lon="9.300066670365295"><ele>333.25</ele><time>2026-04-30T11:53:07Z</time></trkpt><trkpt lat="40.98608066774236" lon="9.300103929975439"><ele>337.0</ele><time>2026-04-30T11:53:08Z</time></trkpt><trkpt lat="40.98618968681438" lon="9.300172920398287"><ele>337.0</ele><time>2026-04-30T11:53:09Z</time></trkpt><trkpt lat="40.98630902379909" lon="9.300261609760232"><ele>337.0</ele><time>2026-04-30T11:53:10Z</time></trkpt><trkpt lat="40.98643763694214" lon="9.300353325791871"><ele>337.0</ele><time>2026-04-30T11:53:11Z</time></trkpt><trkpt lat="40.986575807196495" lon="9.300453946760369"><ele>337.0</ele><time>2026-04-30T11:53:12Z</time></trkpt><trkpt lat="40.98670926853501" lon="9.300579766810431"><ele>340.66666666666663</ele><time>2026-04-30T11:53:13Z</time></trkpt><trkpt lat="40.98684324496333" lon="9.300735267420858"><ele>344.3333333333333</ele><time>2026-04-30T11:53:14Z</time></trkpt><trkpt lat="40.98698313635968" lon="9.300898761092325"><ele>348.0</ele><time>2026-04-30T11:53:15Z</time></trkpt><trkpt lat="40.98712616450339" lon="9.30106559059245"><ele>348.0</ele><time>2026-04-30T11:53:16Z</time></trkpt><trkpt lat="40.98726563681029" lon="9.301225348301333"><ele>348.0</ele><time>2026-04-30T11:53:17Z</time></trkpt><trkpt lat="40.987398312747125" lon="9.30136582803228"><ele>348.0</ele><time>2026-04-30T11:53:18Z</time></trkpt><trkpt lat="40.98752218249213" lon="9.301493851692067"><ele>348.75</ele><time>2026-04-30T11:53:19Z</time></trkpt><trkpt lat="40.98763971153703" lon="9.301609158928386"><ele>349.5</ele><time>2026-04-30T11:53:20Z</time></trkpt><trkpt lat="40.98775026442909" lon="9.301703838554504"><ele>350.25</ele><time>2026-04-30T11:53:21Z</time></trkpt><trkpt lat="40.98785039902693" lon="9.301803560347315"><ele>351.0</ele><time>2026-04-30T11:53:22Z</time></trkpt><trkpt lat="40.98796116315985" lon="9.301851967705211"><ele>351.0</ele><time>2026-04-30T11:53:23Z</time></trkpt><trkpt lat="40.98806540673879" lon="9.30189907315304"><ele>351.0</ele><time>2026-04-30T11:53:24Z</time></trkpt><trkpt lat="40.98817445803252" lon="9.301929851894755"><ele>351.0</ele><time>2026-04-30T11:53:25Z</time></trkpt><trkpt lat="40.9882825901234" lon="9.301943998132222"><ele>351.0</ele><time>2026-04-30T11:53:26Z</time></trkpt><trkpt lat="40.988387003196706" lon="9.301960108430716"><ele>351.0</ele><time>2026-04-30T11:53:27Z</time></trkpt><trkpt lat="40.9884897410112" lon="9.301975258507596"><ele>350.0</ele><time>2026-04-30T11:53:28Z</time></trkpt><trkpt lat="40.98858897889937" lon="9.301984455004407"><ele>349.0</ele><time>2026-04-30T11:53:29Z</time></trkpt><trkpt lat="40.98868650271003" lon="9.301991626459362"><ele>348.0</ele><time>2026-04-30T11:53:30Z</time></trkpt><trkpt lat="40.98877996932846" lon="9.301996185513678"><ele>347.0</ele><time>2026-04-30T11:53:31Z</time></trkpt><trkpt lat="40.98887079838405" lon="9.30199829376908"><ele>346.0</ele><time>2026-04-30T11:53:32Z</time></trkpt><trkpt lat="40.98896346485559" lon="9.301995115912026"><ele>346.0</ele><time>2026-04-30T11:53:33Z</time></trkpt><trkpt lat="40.98906430282005" lon="9.301988141224115"><ele>346.0</ele><time>2026-04-30T11:53:34Z</time></trkpt><trkpt lat="40.98916660322949" lon="9.30197706670687"><ele>346.0</ele><time>2026-04-30T11:53:35Z</time></trkpt><trkpt lat="40.98926951086302" lon="9.301965568879991"><ele>346.0</ele><time>2026-04-30T11:53:36Z</time></trkpt><trkpt lat="40.98937296060259" lon="9.301953176537848"><ele>346.0</ele><time>2026-04-30T11:53:37Z</time></trkpt><trkpt lat="40.98947677532897" lon="9.301946807671289"><ele>345.0</ele><time>2026-04-30T11:53:38Z</time></trkpt><trkpt lat="40.98957902624927" lon="9.301938401141927"><ele>344.0</ele><time>2026-04-30T11:53:39Z</time></trkpt><trkpt lat="40.98968039697227" lon="9.301931317585474"><ele>343.0</ele><time>2026-04-30T11:53:40Z</time></trkpt><trkpt lat="40.98978103225363" lon="9.301930062646495"><ele>342.0</ele><time>2026-04-30T11:53:41Z</time></trkpt><trkpt lat="40.989880591195494" lon="9.301928760176535"><ele>341.0</ele><time>2026-04-30T11:53:42Z</time></trkpt><trkpt lat="40.989980447206975" lon="9.30192370462594"><ele>339.8</ele><time>2026-04-30T11:53:43Z</time></trkpt><trkpt lat="40.9900797687197" lon="9.301915514638123"><ele>338.6</ele><time>2026-04-30T11:53:44Z</time></trkpt><trkpt lat="40.990178877460494" lon="9.301910665741666"><ele>337.4</ele><time>2026-04-30T11:53:45Z</time></trkpt><trkpt lat="40.990276532355246" lon="9.301902486967734"><ele>336.2</ele><time>2026-04-30T11:53:46Z</time></trkpt><trkpt lat="40.99037608454113" lon="9.301891184326498"><ele>335.0</ele><time>2026-04-30T11:53:47Z</time></trkpt><trkpt lat="40.99047785175742" lon="9.301880421062652"><ele>335.0</ele><time>2026-04-30T11:53:48Z</time></trkpt><trkpt lat="40.99058097994897" lon="9.30187047659224"><ele>335.0</ele><time>2026-04-30T11:53:49Z</time></trkpt><trkpt lat="40.99068913386692" lon="9.30186541744373"><ele>335.0</ele><time>2026-04-30T11:53:50Z</time></trkpt><trkpt lat="40.990795633491004" lon="9.301849628263167"><ele>335.0</ele><time>2026-04-30T11:53:51Z</time></trkpt><trkpt lat="40.99089791333161" lon="9.301834263862299"><ele>335.0</ele><time>2026-04-30T11:53:52Z</time></trkpt><trkpt lat="40.991002800696016" lon="9.301822279084856"><ele>335.6</ele><time>2026-04-30T11:53:53Z</time></trkpt><trkpt lat="40.99110802562548" lon="9.30181782228555"><ele>336.2</ele><time>2026-04-30T11:53:54Z</time></trkpt><trkpt lat="40.991219141096344" lon="9.301824482831337"><ele>336.79999999999995</ele><time>2026-04-30T11:53:55Z</time></trkpt><trkpt lat="40.99132823069824" lon="9.30183014143314"><ele>337.4</ele><time>2026-04-30T11:53:56Z</time></trkpt><trkpt lat="40.991434904769235" lon="9.301841296572249"><ele>338.0</ele><time>2026-04-30T11:53:57Z</time></trkpt><trkpt lat="40.99153710986023" lon="9.301865209814247"><ele>338.0</ele><time>2026-04-30T11:53:58Z</time></trkpt><trkpt lat="40.99163571699407" lon="9.301882933003554"><ele>338.0</ele><time>2026-04-30T11:53:59Z</time></trkpt><trkpt lat="40.99173343143386" lon="9.301904813963112"><ele>338.0</ele><time>2026-04-30T11:54:00Z</time></trkpt><trkpt lat="40.9918151496036" lon="9.301918513721423"><ele>338.0</ele><time>2026-04-30T11:54:01Z</time></trkpt><trkpt lat="40.99189956462007" lon="9.301927062575247"><ele>338.0</ele><time>2026-04-30T11:54:02Z</time></trkpt><trkpt lat="40.99198194197387" lon="9.301941211785506"><ele>338.0</ele><time>2026-04-30T11:54:03Z</time></trkpt><trkpt lat="40.992047612680174" lon="9.301975450696878"><ele>337.79999999999995</ele><time>2026-04-30T11:54:04Z</time></trkpt><trkpt lat="40.992118252041195" lon="9.3020760935707"><ele>337.6</ele><time>2026-04-30T11:54:07Z</time></trkpt><trkpt lat="40.99218765071624" lon="9.302173106291102"><ele>337.4</ele><time>2026-04-30T11:54:09Z</time></trkpt><trkpt lat="40.9922754501353" lon="9.302257465045876"><ele>337.20000000000005</ele><time>2026-04-30T11:54:11Z</time></trkpt><trkpt lat="40.992329643505656" lon="9.30232253557552"><ele>337.0</ele><time>2026-04-30T11:54:12Z</time></trkpt><trkpt lat="40.992397065617126" lon="9.302403417753183"><ele>337.0</ele><time>2026-04-30T11:54:13Z</time></trkpt><trkpt lat="40.9924620321399" lon="9.302492070233246"><ele>337.0</ele><time>2026-04-30T11:54:14Z</time></trkpt><trkpt lat="40.992524534877255" lon="9.30257134215907"><ele>337.0</ele><time>2026-04-30T11:54:15Z</time></trkpt><trkpt lat="40.992586580751166" lon="9.302656992749597"><ele>337.0</ele><time>2026-04-30T11:54:16Z</time></trkpt><trkpt lat="40.992659275152626" lon="9.302751181057786"><ele>337.0</ele><time>2026-04-30T11:54:17Z</time></trkpt><trkpt lat="40.99272363219871" lon="9.302866202837663"><ele>337.0</ele><time>2026-04-30T11:54:18Z</time></trkpt><trkpt lat="40.9928031524448" lon="9.302975220696752"><ele>337.0</ele><time>2026-04-30T11:54:19Z</time></trkpt><trkpt lat="40.99288211438012" lon="9.30308304976118"><ele>337.0</ele><time>2026-04-30T11:54:20Z</time></trkpt><trkpt lat="40.99296160876801" lon="9.30319137863715"><ele>337.0</ele><time>2026-04-30T11:54:21Z</time></trkpt><trkpt lat="40.99304121369452" lon="9.303299280582783"><ele>337.0</ele><time>2026-04-30T11:54:22Z</time></trkpt><trkpt lat="40.99312108827308" lon="9.303407456132"><ele>337.0</ele><time>2026-04-30T11:54:23Z</time></trkpt><trkpt lat="40.99320099153336" lon="9.30351567052695"><ele>337.0</ele><time>2026-04-30T11:54:24Z</time></trkpt><trkpt lat="40.99329060352667" lon="9.30360863289752"><ele>337.0</ele><time>2026-04-30T11:54:25Z</time></trkpt><trkpt lat="40.99336850934461" lon="9.303721381041806"><ele>337.25</ele><time>2026-04-30T11:54:26Z</time></trkpt><trkpt lat="40.99344873379914" lon="9.30383600033479"><ele>337.5</ele><time>2026-04-30T11:54:27Z</time></trkpt><trkpt lat="40.9935289413407" lon="9.303952170909328"><ele>337.75</ele><time>2026-04-30T11:54:28Z</time></trkpt><trkpt lat="40.993603398932706" lon="9.304066308614596"><ele>338.0</ele><time>2026-04-30T11:54:29Z</time></trkpt><trkpt lat="40.993675213011954" lon="9.304176864911721"><ele>338.0</ele><time>2026-04-30T11:54:30Z</time></trkpt><trkpt lat="40.99375032315521" lon="9.304282611029393"><ele>338.0</ele><time>2026-04-30T11:54:31Z</time></trkpt><trkpt lat="40.99382457495146" lon="9.304381178048603"><ele>338.0</ele><time>2026-04-30T11:54:32Z</time></trkpt><trkpt lat="40.99390189936811" lon="9.304476324183545"><ele>338.0</ele><time>2026-04-30T11:54:33Z</time></trkpt><trkpt lat="40.993983520913226" lon="9.304567760591924"><ele>338.0</ele><time>2026-04-30T11:54:34Z</time></trkpt><trkpt lat="40.994068266121026" lon="9.3046455499281"><ele>338.0</ele><time>2026-04-30T11:54:35Z</time></trkpt><trkpt lat="40.99416137086435" lon="9.304707955558602"><ele>338.0</ele><time>2026-04-30T11:54:36Z</time></trkpt><trkpt lat="40.99426137498071" lon="9.304754248278929"><ele>338.0</ele><time>2026-04-30T11:54:37Z</time></trkpt><trkpt lat="40.99436286994813" lon="9.304790353776676"><ele>338.0</ele><time>2026-04-30T11:54:38Z</time></trkpt><trkpt lat="40.994464179587645" lon="9.304825294693085"><ele>338.0</ele><time>2026-04-30T11:54:39Z</time></trkpt><trkpt lat="40.99456276836787" lon="9.304860618382628"><ele>335.59999999999997</ele><time>2026-04-30T11:54:40Z</time></trkpt><trkpt lat="40.994659224993846" lon="9.304899082963097"><ele>333.2</ele><time>2026-04-30T11:54:41Z</time></trkpt><trkpt lat="40.99475435579115" lon="9.304936818151175"><ele>330.8</ele><time>2026-04-30T11:54:42Z</time></trkpt><trkpt lat="40.994850081692505" lon="9.304969590651147"><ele>328.4</ele><time>2026-04-30T11:54:43Z</time></trkpt><trkpt lat="40.99494379126642" lon="9.305002190189391"><ele>326.0</ele><time>2026-04-30T11:54:44Z</time></trkpt><trkpt lat="40.99504015951478" lon="9.30503248379413"><ele>325.0</ele><time>2026-04-30T11:54:45Z</time></trkpt><trkpt lat="40.995139757678736" lon="9.305051896237451"><ele>324.0</ele><time>2026-04-30T11:54:46Z</time></trkpt><trkpt lat="40.99523827042589" lon="9.305056275943418"><ele>323.0</ele><time>2026-04-30T11:54:47Z</time></trkpt><trkpt lat="40.9953369733562" lon="9.305050624381385"><ele>322.0</ele><time>2026-04-30T11:54:48Z</time></trkpt><trkpt lat="40.99543371114065" lon="9.30503814018361"><ele>321.0</ele><time>2026-04-30T11:54:49Z</time></trkpt><trkpt lat="40.99552804340319" lon="9.305022843059529"><ele>321.0</ele><time>2026-04-30T11:54:50Z</time></trkpt><trkpt lat="40.995622614548736" lon="9.30500990284989"><ele>321.0</ele><time>2026-04-30T11:54:51Z</time></trkpt><trkpt lat="40.99571727853436" lon="9.305001243626181"><ele>321.0</ele><time>2026-04-30T11:54:52Z</time></trkpt><trkpt lat="40.995811686522046" lon="9.305003121107415"><ele>321.0</ele><time>2026-04-30T11:54:53Z</time></trkpt><trkpt lat="40.995903669733536" lon="9.305018727804798"><ele>321.0</ele><time>2026-04-30T11:54:54Z</time></trkpt><trkpt lat="40.99599070324089" lon="9.305062800705956"><ele>321.20000000000005</ele><time>2026-04-30T11:54:55Z</time></trkpt><trkpt lat="40.99606611261921" lon="9.305131970230194"><ele>321.40000000000003</ele><time>2026-04-30T11:54:56Z</time></trkpt><trkpt lat="40.996126846824275" lon="9.305221839739106"><ele>321.6</ele><time>2026-04-30T11:54:57Z</time></trkpt><trkpt lat="40.99618015598522" lon="9.305332921585457"><ele>321.8</ele><time>2026-04-30T11:54:58Z</time></trkpt><trkpt lat="40.996226568940074" lon="9.30546729656595"><ele>322.0</ele><time>2026-04-30T11:54:59Z</time></trkpt><trkpt lat="40.996271199616665" lon="9.305603591311352"><ele>320.75</ele><time>2026-04-30T11:55:00Z</time></trkpt><trkpt lat="40.9963217552514" lon="9.305743891694064"><ele>319.5</ele><time>2026-04-30T11:55:01Z</time></trkpt><trkpt lat="40.996377417247075" lon="9.305894549226435"><ele>318.25</ele><time>2026-04-30T11:55:02Z</time></trkpt><trkpt lat="40.99643536449283" lon="9.306037426215182"><ele>317.0</ele><time>2026-04-30T11:55:03Z</time></trkpt><trkpt lat="40.99649197698675" lon="9.306181213436721"><ele>317.0</ele><time>2026-04-30T11:55:04Z</time></trkpt><trkpt lat="40.996547675688504" lon="9.306336504956372"><ele>317.0</ele><time>2026-04-30T11:55:05Z</time></trkpt><trkpt lat="40.9965982832746" lon="9.306502919777563"><ele>317.0</ele><time>2026-04-30T11:55:06Z</time></trkpt><trkpt lat="40.99664043627045" lon="9.306672957515834"><ele>317.0</ele><time>2026-04-30T11:55:07Z</time></trkpt><trkpt lat="40.99668368613918" lon="9.306854661025168"><ele>316.75</ele><time>2026-04-30T11:55:08Z</time></trkpt><trkpt lat="40.99672381224298" lon="9.307028048146321"><ele>316.5</ele><time>2026-04-30T11:55:09Z</time></trkpt><trkpt lat="40.99676285284038" lon="9.307201887173719"><ele>316.25</ele><time>2026-04-30T11:55:10Z</time></trkpt><trkpt lat="40.996804130071965" lon="9.307377119926167"><ele>316.0</ele><time>2026-04-30T11:55:11Z</time></trkpt><trkpt lat="40.99684418724002" lon="9.307552731379914"><ele>316.0</ele><time>2026-04-30T11:55:12Z</time></trkpt><trkpt lat="40.996898313288995" lon="9.30772215410555"><ele>316.0</ele><time>2026-04-30T11:55:13Z</time></trkpt><trkpt lat="40.99697564405668" lon="9.307865722949295"><ele>316.0</ele><time>2026-04-30T11:55:14Z</time></trkpt><trkpt lat="40.997072771255944" lon="9.307983283594332"><ele>316.0</ele><time>2026-04-30T11:55:15Z</time></trkpt><trkpt lat="40.997171483929726" lon="9.308073996171418"><ele>313.2</ele><time>2026-04-30T11:55:16Z</time></trkpt><trkpt lat="40.9972562831222" lon="9.308160956923329"><ele>310.40000000000003</ele><time>2026-04-30T11:55:17Z</time></trkpt><trkpt lat="40.9973209116947" lon="9.308267873715893"><ele>307.6</ele><time>2026-04-30T11:55:18Z</time></trkpt><trkpt lat="40.99735748022067" lon="9.308386562935363"><ele>304.8</ele><time>2026-04-30T11:55:19Z</time></trkpt><trkpt lat="40.99736210209123" lon="9.30851214322867"><ele>302.0</ele><time>2026-04-30T11:55:20Z</time></trkpt><trkpt lat="40.997331622079415" lon="9.30864159363674"><ele>302.0</ele><time>2026-04-30T11:55:21Z</time></trkpt><trkpt lat="40.99727609323376" lon="9.308747234116098"><ele>302.0</ele><time>2026-04-30T11:55:22Z</time></trkpt><trkpt lat="40.99719479820197" lon="9.3088233925278"><ele>302.0</ele><time>2026-04-30T11:55:23Z</time></trkpt><trkpt lat="40.99710276169638" lon="9.30885961680303"><ele>302.0</ele><time>2026-04-30T11:55:24Z</time></trkpt><trkpt lat="40.99700598750872" lon="9.30884315561815"><ele>302.0</ele><time>2026-04-30T11:55:25Z</time></trkpt><trkpt lat="40.996913498568986" lon="9.308780108482685"><ele>302.0</ele><time>2026-04-30T11:55:26Z</time></trkpt><trkpt lat="40.996843659597616" lon="9.308674421970895"><ele>302.0</ele><time>2026-04-30T11:55:27Z</time></trkpt><trkpt lat="40.99679608363211" lon="9.308533665413865"><ele>302.0</ele><time>2026-04-30T11:55:28Z</time></trkpt><trkpt lat="40.99675959509535" lon="9.308368881706551"><ele>302.0</ele><time>2026-04-30T11:55:29Z</time></trkpt><trkpt lat="40.99671500087134" lon="9.308203133331475"><ele>300.75</ele><time>2026-04-30T11:55:30Z</time></trkpt><trkpt lat="40.99666558262004" lon="9.308025960811966"><ele>299.5</ele><time>2026-04-30T11:55:31Z</time></trkpt><trkpt lat="40.99661770694923" lon="9.307858174774875"><ele>298.25</ele><time>2026-04-30T11:55:32Z</time></trkpt><trkpt lat="40.99657060804118" lon="9.30770848145316"><ele>297.0</ele><time>2026-04-30T11:55:33Z</time></trkpt><trkpt lat="40.996507283601616" lon="9.307583290651474"><ele>297.0</ele><time>2026-04-30T11:55:34Z</time></trkpt><trkpt lat="40.996434905561905" lon="9.307476721104468"><ele>297.0</ele><time>2026-04-30T11:55:35Z</time></trkpt><trkpt lat="40.996325545820966" lon="9.307426747774533"><ele>297.0</ele><time>2026-04-30T11:55:36Z</time></trkpt><trkpt lat="40.99620494373144" lon="9.307424507556538"><ele>297.0</ele><time>2026-04-30T11:55:37Z</time></trkpt><trkpt lat="40.996097654628485" lon="9.30750110625839"><ele>297.0</ele><time>2026-04-30T11:55:38Z</time></trkpt><trkpt lat="40.996011635361356" lon="9.307601949594659"><ele>297.0</ele><time>2026-04-30T11:55:39Z</time></trkpt><trkpt lat="40.99594663179252" lon="9.30773731719446"><ele>297.0</ele><time>2026-04-30T11:55:40Z</time></trkpt><trkpt lat="40.99586637591189" lon="9.307880772979509"><ele>297.0</ele><time>2026-04-30T11:55:41Z</time></trkpt><trkpt lat="40.99576423770045" lon="9.30799315919235"><ele>294.75</ele><time>2026-04-30T11:55:42Z</time></trkpt><trkpt lat="40.99564437991335" lon="9.30805524113371"><ele>292.5</ele><time>2026-04-30T11:55:43Z</time></trkpt><trkpt lat="40.99552955038345" lon="9.308119281002963"><ele>290.25</ele><time>2026-04-30T11:55:44Z</time></trkpt><trkpt lat="40.995408061827426" lon="9.308160606832121"><ele>288.0</ele><time>2026-04-30T11:55:45Z</time></trkpt><trkpt lat="40.99528077053608" lon="9.30813286512926"><ele>288.0</ele><time>2026-04-30T11:55:46Z</time></trkpt><trkpt lat="40.9951525669739" lon="9.308078472240592"><ele>288.0</ele><time>2026-04-30T11:55:47Z</time></trkpt><trkpt lat="40.99502787640116" lon="9.308008208419064"><ele>288.0</ele><time>2026-04-30T11:55:48Z</time></trkpt><trkpt lat="40.994879198111136" lon="9.308001311664798"><ele>288.0</ele><time>2026-04-30T11:55:49Z</time></trkpt><trkpt lat="40.99472610558559" lon="9.308053623197546"><ele>281.75</ele><time>2026-04-30T11:55:50Z</time></trkpt><trkpt lat="40.99457776664955" lon="9.30812198308979"><ele>275.5</ele><time>2026-04-30T11:55:51Z</time></trkpt><trkpt lat="40.994436776343896" lon="9.30818666295309"><ele>269.25</ele><time>2026-04-30T11:55:52Z</time></trkpt><trkpt lat="40.9943015301244" lon="9.308248510126184"><ele>263.0</ele><time>2026-04-30T11:55:53Z</time></trkpt><trkpt lat="40.99417872585656" lon="9.30832654465466"><ele>264.0</ele><time>2026-04-30T11:55:54Z</time></trkpt><trkpt lat="40.99405975809944" lon="9.308360890309931"><ele>265.0</ele><time>2026-04-30T11:55:55Z</time></trkpt><trkpt lat="40.99395514646329" lon="9.3084364876784"><ele>266.0</ele><time>2026-04-30T11:55:56Z</time></trkpt><trkpt lat="40.993874894844396" lon="9.308567263419244"><ele>267.0</ele><time>2026-04-30T11:55:57Z</time></trkpt><trkpt lat="40.993856637508415" lon="9.308713734327386"><ele>267.0</ele><time>2026-04-30T11:55:58Z</time></trkpt><trkpt lat="40.99384841265374" lon="9.30886436613235"><ele>267.0</ele><time>2026-04-30T11:55:59Z</time></trkpt><trkpt lat="40.99386389981227" lon="9.30902899464468"><ele>267.0</ele><time>2026-04-30T11:56:00Z</time></trkpt><trkpt lat="40.993886968281004" lon="9.309205993479825"><ele>267.0</ele><time>2026-04-30T11:56:01Z</time></trkpt><trkpt lat="40.99390916144752" lon="9.3094002042512"><ele>260.6666666666667</ele><time>2026-04-30T11:56:02Z</time></trkpt><trkpt lat="40.993923208245064" lon="9.309601788301414"><ele>254.33333333333334</ele><time>2026-04-30T11:56:03Z</time></trkpt><trkpt lat="40.99393923015338" lon="9.309815519695238"><ele>248.0</ele><time>2026-04-30T11:56:04Z</time></trkpt><trkpt lat="40.99395347482477" lon="9.310027136203127"><ele>246.33333333333334</ele><time>2026-04-30T11:56:05Z</time></trkpt><trkpt lat="40.993964170048095" lon="9.310233410486374"><ele>244.66666666666669</ele><time>2026-04-30T11:56:06Z</time></trkpt><trkpt lat="40.99397267092008" lon="9.310446164009415"><ele>243.0</ele><time>2026-04-30T11:56:07Z</time></trkpt><trkpt lat="40.99398095739391" lon="9.310660028405396"><ele>241.66666666666669</ele><time>2026-04-30T11:56:08Z</time></trkpt><trkpt lat="40.99398375458326" lon="9.310874551090704"><ele>240.33333333333334</ele><time>2026-04-30T11:56:09Z</time></trkpt><trkpt lat="40.9939892957094" lon="9.311092296839808"><ele>239.0</ele><time>2026-04-30T11:56:10Z</time></trkpt><trkpt lat="40.99399532979309" lon="9.31130418885941"><ele>237.33333333333334</ele><time>2026-04-30T11:56:11Z</time></trkpt><trkpt lat="40.994000738287774" lon="9.311512620422535"><ele>235.66666666666669</ele><time>2026-04-30T11:56:12Z</time></trkpt><trkpt lat="40.994006564707114" lon="9.311718771879672"><ele>234.0</ele><time>2026-04-30T11:56:13Z</time></trkpt><trkpt lat="40.994009324506415" lon="9.311927742293506"><ele>234.0</ele><time>2026-04-30T11:56:14Z</time></trkpt><trkpt lat="40.99401482388898" lon="9.312137580307894"><ele>234.0</ele><time>2026-04-30T11:56:15Z</time></trkpt><trkpt lat="40.994023935950224" lon="9.312341072836213"><ele>234.0</ele><time>2026-04-30T11:56:16Z</time></trkpt><trkpt lat="40.99401467999942" lon="9.31253806751192"><ele>233.39999999999998</ele><time>2026-04-30T11:56:17Z</time></trkpt><trkpt lat="40.99401857203314" lon="9.312710517791794"><ele>232.79999999999998</ele><time>2026-04-30T11:56:18Z</time></trkpt><trkpt lat="40.99403522597444" lon="9.312858492022778"><ele>232.20000000000002</ele><time>2026-04-30T11:56:19Z</time></trkpt><trkpt lat="40.99401107089956" lon="9.312987644719339"><ele>231.60000000000002</ele><time>2026-04-30T11:56:20Z</time></trkpt><trkpt lat="40.993950651829536" lon="9.313081011136426"><ele>231.0</ele><time>2026-04-30T11:56:21Z</time></trkpt><trkpt lat="40.993858944761826" lon="9.31313702345555"><ele>231.0</ele><time>2026-04-30T11:56:22Z</time></trkpt><trkpt lat="40.9937603447209" lon="9.313150203497523"><ele>231.00000000000003</ele><time>2026-04-30T11:56:23Z</time></trkpt><trkpt lat="40.993653948614615" lon="9.31311827356017"><ele>231.00000000000003</ele><time>2026-04-30T11:56:24Z</time></trkpt><trkpt lat="40.99355744052922" lon="9.313062979678312"><ele>231.0</ele><time>2026-04-30T11:56:25Z</time></trkpt><trkpt lat="40.993449583355414" lon="9.312976983366477"><ele>231.0</ele><time>2026-04-30T11:56:26Z</time></trkpt><trkpt lat="40.9933314661336" lon="9.312874642333577"><ele>230.33333333333331</ele><time>2026-04-30T11:56:27Z</time></trkpt><trkpt lat="40.993205608111765" lon="9.312763118600323"><ele>229.66666666666666</ele><time>2026-04-30T11:56:28Z</time></trkpt><trkpt lat="40.993080458582185" lon="9.312631021221549"><ele>229.0</ele><time>2026-04-30T11:56:29Z</time></trkpt><trkpt lat="40.99295946955907" lon="9.312473625682669"><ele>229.0</ele><time>2026-04-30T11:56:30Z</time></trkpt><trkpt lat="40.992841699675715" lon="9.312303296273614"><ele>229.0</ele><time>2026-04-30T11:56:31Z</time></trkpt><trkpt lat="40.992715982739114" lon="9.31212875541695"><ele>229.0</ele><time>2026-04-30T11:56:32Z</time></trkpt><trkpt lat="40.99259655852515" lon="9.311962480738057"><ele>227.66666666666666</ele><time>2026-04-30T11:56:33Z</time></trkpt><trkpt lat="40.992496074561515" lon="9.311791884087933"><ele>226.33333333333331</ele><time>2026-04-30T11:56:34Z</time></trkpt><trkpt lat="40.99241144970112" lon="9.31160266374644"><ele>225.0</ele><time>2026-04-30T11:56:35Z</time></trkpt><trkpt lat="40.99234330268997" lon="9.311366516880474"><ele>225.0</ele><time>2026-04-30T11:56:36Z</time></trkpt><trkpt lat="40.9922843646751" lon="9.311107831391759"><ele>225.0</ele><time>2026-04-30T11:56:37Z</time></trkpt><trkpt lat="40.99223982103982" lon="9.310869787383186"><ele>225.0</ele><time>2026-04-30T11:56:38Z</time></trkpt><trkpt lat="40.99220526505502" lon="9.310656846238933"><ele>227.0</ele><time>2026-04-30T11:56:39Z</time></trkpt><trkpt lat="40.99216676576186" lon="9.310482111833343"><ele>229.0</ele><time>2026-04-30T11:56:40Z</time></trkpt><trkpt lat="40.99211663383183" lon="9.31034458592327"><ele>231.0</ele><time>2026-04-30T11:56:41Z</time></trkpt><trkpt lat="40.99203805088217" lon="9.310240116707527"><ele>233.0</ele><time>2026-04-30T11:56:42Z</time></trkpt><trkpt lat="40.9919326069806" lon="9.31018197700235"><ele>233.0</ele><time>2026-04-30T11:56:43Z</time></trkpt><trkpt lat="40.99182442449642" lon="9.310151390579465"><ele>233.0</ele><time>2026-04-30T11:56:44Z</time></trkpt><trkpt lat="40.99172505535335" lon="9.310224281013904"><ele>233.0</ele><time>2026-04-30T11:56:45Z</time></trkpt><trkpt lat="40.991636769782765" lon="9.310297839806992"><ele>233.0</ele><time>2026-04-30T11:56:46Z</time></trkpt><trkpt lat="40.99159321723111" lon="9.310440065783519"><ele>233.0</ele><time>2026-04-30T11:56:47Z</time></trkpt><trkpt lat="40.99158379776921" lon="9.310604876297408"><ele>226.5</ele><time>2026-04-30T11:56:48Z</time></trkpt><trkpt lat="40.99154919488082" lon="9.310779322698536"><ele>220.0</ele><time>2026-04-30T11:56:49Z</time></trkpt><trkpt lat="40.991482305757195" lon="9.310943462004076"><ele>213.5</ele><time>2026-04-30T11:56:50Z</time></trkpt><trkpt lat="40.99138886573401" lon="9.311074529293165"><ele>207.0</ele><time>2026-04-30T11:56:51Z</time></trkpt><trkpt lat="40.99129703460679" lon="9.3112001178385"><ele>207.0</ele><time>2026-04-30T11:56:52Z</time></trkpt><trkpt lat="40.99120988452664" lon="9.311333599516814"><ele>207.0</ele><time>2026-04-30T11:56:53Z</time></trkpt><trkpt lat="40.99118123053494" lon="9.311518407857058"><ele>207.0</ele><time>2026-04-30T11:56:54Z</time></trkpt><trkpt lat="40.991207291169616" lon="9.31171147647779"><ele>207.0</ele><time>2026-04-30T11:56:55Z</time></trkpt><trkpt lat="40.99123530248418" lon="9.311939602124207"><ele>204.5</ele><time>2026-04-30T11:56:56Z</time></trkpt><trkpt lat="40.991266348090925" lon="9.312129109586106"><ele>202.0</ele><time>2026-04-30T11:56:57Z</time></trkpt><trkpt lat="40.99127521971995" lon="9.312320536705418"><ele>199.5</ele><time>2026-04-30T11:56:58Z</time></trkpt><trkpt lat="40.991247462035616" lon="9.312505925979558"><ele>197.0</ele><time>2026-04-30T11:56:59Z</time></trkpt><trkpt lat="40.991186267871505" lon="9.312682843523293"><ele>196.0</ele><time>2026-04-30T11:57:00Z</time></trkpt><trkpt lat="40.99110638791035" lon="9.31286459967182"><ele>195.0</ele><time>2026-04-30T11:57:01Z</time></trkpt><trkpt lat="40.99102090882966" lon="9.31305056902382"><ele>194.0</ele><time>2026-04-30T11:57:02Z</time></trkpt><trkpt lat="40.99095838091028" lon="9.313265015928012"><ele>193.25</ele><time>2026-04-30T11:57:03Z</time></trkpt><trkpt lat="40.99091152833415" lon="9.313471608776995"><ele>192.5</ele><time>2026-04-30T11:57:04Z</time></trkpt><trkpt lat="40.99089623927909" lon="9.313669637907855"><ele>191.75</ele><time>2026-04-30T11:57:05Z</time></trkpt><trkpt lat="40.99089803261527" lon="9.313847583673608"><ele>191.0</ele><time>2026-04-30T11:57:06Z</time></trkpt><trkpt lat="40.990847029807085" lon="9.3139950910755"><ele>189.0</ele><time>2026-04-30T11:57:07Z</time></trkpt><trkpt lat="40.990761145431435" lon="9.314108397618101"><ele>187.0</ele><time>2026-04-30T11:57:08Z</time></trkpt><trkpt lat="40.99065539822473" lon="9.314167182339492"><ele>185.0</ele><time>2026-04-30T11:57:09Z</time></trkpt><trkpt lat="40.99053681712558" lon="9.314135602683539"><ele>183.0</ele><time>2026-04-30T11:57:10Z</time></trkpt><trkpt lat="40.990397371810175" lon="9.314118433984204"><ele>183.0</ele><time>2026-04-30T11:57:11Z</time></trkpt><trkpt lat="40.99024434108167" lon="9.314114853205226"><ele>183.0</ele><time>2026-04-30T11:57:12Z</time></trkpt><trkpt lat="40.99008843702655" lon="9.314131992314948"><ele>183.0</ele><time>2026-04-30T11:57:13Z</time></trkpt><trkpt lat="40.98993255286667" lon="9.314125571932578"><ele>182.0</ele><time>2026-04-30T11:57:14Z</time></trkpt><trkpt lat="40.98978287975644" lon="9.314125902148245"><ele>181.0</ele><time>2026-04-30T11:57:15Z</time></trkpt><trkpt lat="40.98964594542156" lon="9.314126233805196"><ele>180.0</ele><time>2026-04-30T11:57:16Z</time></trkpt><trkpt lat="40.989524218090025" lon="9.314112556018197"><ele>179.0</ele><time>2026-04-30T11:57:17Z</time></trkpt><trkpt lat="40.98941783661503" lon="9.314180316333617"><ele>179.0</ele><time>2026-04-30T11:57:18Z</time></trkpt><trkpt lat="40.98931769852089" lon="9.314241931367706"><ele>179.0</ele><time>2026-04-30T11:57:19Z</time></trkpt><trkpt lat="40.9892516798342" lon="9.314355768200638"><ele>179.0</ele><time>2026-04-30T11:57:20Z</time></trkpt><trkpt lat="40.98920900867308" lon="9.314487832253034"><ele>179.0</ele><time>2026-04-30T11:57:21Z</time></trkpt><trkpt lat="40.98920557044429" lon="9.314621296291017"><ele>179.0</ele><time>2026-04-30T11:57:22Z</time></trkpt><trkpt lat="40.98922746084448" lon="9.314762177101647"><ele>177.75</ele><time>2026-04-30T11:57:23Z</time></trkpt><trkpt lat="40.9892789997025" lon="9.31488757211365"><ele>176.5</ele><time>2026-04-30T11:57:24Z</time></trkpt><trkpt lat="40.989371214743514" lon="9.314981792260465"><ele>175.25</ele><time>2026-04-30T11:57:25Z</time></trkpt><trkpt lat="40.98947206050476" lon="9.315081372578101"><ele>174.0</ele><time>2026-04-30T11:57:26Z</time></trkpt><trkpt lat="40.98958180194944" lon="9.315169638544198"><ele>174.0</ele><time>2026-04-30T11:57:27Z</time></trkpt><trkpt lat="40.98969978997686" lon="9.315265320561554"><ele>174.0</ele><time>2026-04-30T11:57:28Z</time></trkpt><trkpt lat="40.989824708291245" lon="9.315373138835225"><ele>174.0</ele><time>2026-04-30T11:57:29Z</time></trkpt><trkpt lat="40.98996468514728" lon="9.315462954621589"><ele>174.0</ele><time>2026-04-30T11:57:30Z</time></trkpt><trkpt lat="40.99012442352445" lon="9.315534129015642"><ele>176.0</ele><time>2026-04-30T11:57:31Z</time></trkpt><trkpt lat="40.99030081612334" lon="9.315584926782655"><ele>178.0</ele><time>2026-04-30T11:57:32Z</time></trkpt><trkpt lat="40.99049259881816" lon="9.315631036366668"><ele>180.0</ele><time>2026-04-30T11:57:33Z</time></trkpt><trkpt lat="40.99068241566431" lon="9.315678978797193"><ele>178.0</ele><time>2026-04-30T11:57:34Z</time></trkpt><trkpt lat="40.990884672670106" lon="9.315733004579666"><ele>176.0</ele><time>2026-04-30T11:57:35Z</time></trkpt><trkpt lat="40.99109121586248" lon="9.315783598509157"><ele>174.0</ele><time>2026-04-30T11:57:36Z</time></trkpt><trkpt lat="40.991305045539164" lon="9.315836593404205"><ele>174.0</ele><time>2026-04-30T11:57:37Z</time></trkpt><trkpt lat="40.99152613304127" lon="9.315891601121121"><ele>174.0</ele><time>2026-04-30T11:57:38Z</time></trkpt><trkpt lat="40.991738373869815" lon="9.315945137860458"><ele>174.0</ele><time>2026-04-30T11:57:39Z</time></trkpt><trkpt lat="40.991954376811776" lon="9.316001443103804"><ele>174.0</ele><time>2026-04-30T11:57:40Z</time></trkpt><trkpt lat="40.992171317098204" lon="9.316052167227202"><ele>174.0</ele><time>2026-04-30T11:57:41Z</time></trkpt><trkpt lat="40.99237848308248" lon="9.316099836952569"><ele>174.0</ele><time>2026-04-30T11:57:42Z</time></trkpt><trkpt lat="40.99257415648298" lon="9.316145083669369"><ele>174.0</ele><time>2026-04-30T11:57:43Z</time></trkpt><trkpt lat="40.992754270495645" lon="9.316198861528754"><ele>174.0</ele><time>2026-04-30T11:57:44Z</time></trkpt><trkpt lat="40.99291559338533" lon="9.316270845554266"><ele>174.0</ele><time>2026-04-30T11:57:45Z</time></trkpt><trkpt lat="40.99306826971927" lon="9.316372006364315"><ele>173.0</ele><time>2026-04-30T11:57:46Z</time></trkpt><trkpt lat="40.99320579624183" lon="9.316505759280913"><ele>172.0</ele><time>2026-04-30T11:57:47Z</time></trkpt><trkpt lat="40.993333218660496" lon="9.3166562143636"><ele>171.0</ele><time>2026-04-30T11:57:48Z</time></trkpt><trkpt lat="40.99345073573067" lon="9.316798965800059"><ele>171.0</ele><time>2026-04-30T11:57:49Z</time></trkpt><trkpt lat="40.99354977016365" lon="9.31694298923381"><ele>171.0</ele><time>2026-04-30T11:57:50Z</time></trkpt><trkpt lat="40.99362559098122" lon="9.317112578432612"><ele>171.0</ele><time>2026-04-30T11:57:51Z</time></trkpt><trkpt lat="40.993670350641914" lon="9.31730207288003"><ele>171.0</ele><time>2026-04-30T11:57:52Z</time></trkpt><trkpt lat="40.99368736401013" lon="9.31751237336334"><ele>173.33333333333334</ele><time>2026-04-30T11:57:53Z</time></trkpt><trkpt lat="40.99367284429029" lon="9.317732518281515"><ele>175.66666666666669</ele><time>2026-04-30T11:57:54Z</time></trkpt><trkpt lat="40.99368160376428" lon="9.317951154947407"><ele>178.0</ele><time>2026-04-30T11:57:55Z</time></trkpt><trkpt lat="40.99367836047194" lon="9.31814359077777"><ele>179.75</ele><time>2026-04-30T11:57:56Z</time></trkpt><trkpt lat="40.99368231066189" lon="9.31830927427432"><ele>181.5</ele><time>2026-04-30T11:57:57Z</time></trkpt><trkpt lat="40.99371549725637" lon="9.31846080329932"><ele>183.25</ele><time>2026-04-30T11:57:58Z</time></trkpt><trkpt lat="40.99380132468274" lon="9.31857195986274"><ele>185.0</ele><time>2026-04-30T11:57:59Z</time></trkpt><trkpt lat="40.99389897102279" lon="9.318659785931208"><ele>185.0</ele><time>2026-04-30T11:58:00Z</time></trkpt><trkpt lat="40.994028252871914" lon="9.318719029305619"><ele>185.0</ele><time>2026-04-30T11:58:01Z</time></trkpt><trkpt lat="40.99418421074944" lon="9.318782692259584"><ele>185.0</ele><time>2026-04-30T11:58:02Z</time></trkpt><trkpt lat="40.994353701901446" lon="9.318831942980667"><ele>183.66666666666666</ele><time>2026-04-30T11:58:03Z</time></trkpt><trkpt lat="40.99452987750042" lon="9.318895728876853"><ele>182.33333333333334</ele><time>2026-04-30T11:58:04Z</time></trkpt><trkpt lat="40.99471451409726" lon="9.318976834576455"><ele>181.0</ele><time>2026-04-30T11:58:05Z</time></trkpt><trkpt lat="40.99490420710787" lon="9.319075976798894"><ele>184.33333333333334</ele><time>2026-04-30T11:58:06Z</time></trkpt><trkpt lat="40.99510005211422" lon="9.3191840255785"><ele>187.66666666666666</ele><time>2026-04-30T11:58:07Z</time></trkpt><trkpt lat="40.995290046917425" lon="9.319287285806878"><ele>191.0</ele><time>2026-04-30T11:58:08Z</time></trkpt><trkpt lat="40.995469147278634" lon="9.319383829448848"><ele>191.0</ele><time>2026-04-30T11:58:09Z</time></trkpt><trkpt lat="40.995639706507376" lon="9.319475538762461"><ele>191.0</ele><time>2026-04-30T11:58:10Z</time></trkpt><trkpt lat="40.995796013616115" lon="9.319561420239014"><ele>191.0</ele><time>2026-04-30T11:58:11Z</time></trkpt><trkpt lat="40.99593907350962" lon="9.31964926341174"><ele>191.66666666666666</ele><time>2026-04-30T11:58:12Z</time></trkpt><trkpt lat="40.996059602816075" lon="9.319756398539553"><ele>192.33333333333331</ele><time>2026-04-30T11:58:13Z</time></trkpt><trkpt lat="40.99616069978337" lon="9.319896981514349"><ele>193.0</ele><time>2026-04-30T11:58:14Z</time></trkpt><trkpt lat="40.99624602915109" lon="9.320074589938994"><ele>193.0</ele><time>2026-04-30T11:58:15Z</time></trkpt><trkpt lat="40.996322413886325" lon="9.320280910107723"><ele>193.0</ele><time>2026-04-30T11:58:16Z</time></trkpt><trkpt lat="40.996399077890494" lon="9.32048949813837"><ele>193.0</ele><time>2026-04-30T11:58:17Z</time></trkpt><trkpt lat="40.996473706093326" lon="9.32069878576572"><ele>194.0</ele><time>2026-04-30T11:58:18Z</time></trkpt><trkpt lat="40.99660990969711" lon="9.320874097267632"><ele>195.0</ele><time>2026-04-30T11:58:19Z</time></trkpt><trkpt lat="40.9967740268526" lon="9.321007443579573"><ele>196.0</ele><time>2026-04-30T11:58:20Z</time></trkpt><trkpt lat="40.99693641991008" lon="9.321152600879298"><ele>196.0</ele><time>2026-04-30T11:58:21Z</time></trkpt><trkpt lat="40.99711122950646" lon="9.321297022042708"><ele>196.0</ele><time>2026-04-30T11:58:22Z</time></trkpt><trkpt lat="40.99729584771227" lon="9.321444087391493"><ele>196.0</ele><time>2026-04-30T11:58:23Z</time></trkpt><trkpt lat="40.99748801476716" lon="9.321599594405711"><ele>199.0</ele><time>2026-04-30T11:58:24Z</time></trkpt><trkpt lat="40.99768583485673" lon="9.321762402380982"><ele>202.0</ele><time>2026-04-30T11:58:25Z</time></trkpt><trkpt lat="40.99789042851383" lon="9.321924768180095"><ele>202.0</ele><time>2026-04-30T11:58:26Z</time></trkpt><trkpt lat="40.998102288637604" lon="9.322089221123564"><ele>202.0</ele><time>2026-04-30T11:58:27Z</time></trkpt><trkpt lat="40.998306703597954" lon="9.322270224831893"><ele>205.0</ele><time>2026-04-30T11:58:28Z</time></trkpt><trkpt lat="40.998524011207664" lon="9.322421351423701"><ele>208.0</ele><time>2026-04-30T11:58:29Z</time></trkpt><trkpt lat="40.998739322861994" lon="9.322567226153136"><ele>208.0</ele><time>2026-04-30T11:58:30Z</time></trkpt><trkpt lat="40.99895781017812" lon="9.32269444128842"><ele>208.0</ele><time>2026-04-30T11:58:31Z</time></trkpt><trkpt lat="40.999160557113555" lon="9.322859177842608"><ele>211.0</ele><time>2026-04-30T11:58:32Z</time></trkpt><trkpt lat="40.999369186945074" lon="9.323004489959418"><ele>214.0</ele><time>2026-04-30T11:58:33Z</time></trkpt><trkpt lat="40.99957908514951" lon="9.323148346605743"><ele>214.0</ele><time>2026-04-30T11:58:34Z</time></trkpt><trkpt lat="40.999782305495316" lon="9.323284726787403"><ele>214.0</ele><time>2026-04-30T11:58:35Z</time></trkpt><trkpt lat="40.99998450704315" lon="9.323397740812226"><ele>214.0</ele><time>2026-04-30T11:58:36Z</time></trkpt><trkpt lat="41.000175190303835" lon="9.323529577580011"><ele>214.0</ele><time>2026-04-30T11:58:37Z</time></trkpt><trkpt lat="41.000365010440795" lon="9.323657450092279"><ele>214.0</ele><time>2026-04-30T11:58:38Z</time></trkpt><trkpt lat="41.00054666493949" lon="9.323781558919753"><ele>214.0</ele><time>2026-04-30T11:58:39Z</time></trkpt><trkpt lat="41.00072452757123" lon="9.323904698765777"><ele>216.66666666666666</ele><time>2026-04-30T11:58:40Z</time></trkpt><trkpt lat="41.000889469107406" lon="9.324013808337813"><ele>219.33333333333331</ele><time>2026-04-30T11:58:41Z</time></trkpt><trkpt lat="41.00103589049395" lon="9.324137885729444"><ele>222.0</ele><time>2026-04-30T11:58:42Z</time></trkpt><trkpt lat="41.001162402992705" lon="9.324294568435256"><ele>222.0</ele><time>2026-04-30T11:58:43Z</time></trkpt><trkpt lat="41.00126667089809" lon="9.324479884184786"><ele>222.0</ele><time>2026-04-30T11:58:44Z</time></trkpt><trkpt lat="41.0013652652173" lon="9.324678434515306"><ele>222.0</ele><time>2026-04-30T11:58:45Z</time></trkpt><trkpt lat="41.001465753916015" lon="9.324871292961257"><ele>222.66666666666669</ele><time>2026-04-30T11:58:46Z</time></trkpt><trkpt lat="41.00156658401536" lon="9.325064520519627"><ele>223.33333333333334</ele><time>2026-04-30T11:58:47Z</time></trkpt><trkpt lat="41.0016996507598" lon="9.325209927675612"><ele>224.0</ele><time>2026-04-30T11:58:48Z</time></trkpt><trkpt lat="41.0018412226599" lon="9.325323138440408"><ele>224.0</ele><time>2026-04-30T11:58:49Z</time></trkpt><trkpt lat="41.001991429949946" lon="9.325441786884705"><ele>224.0</ele><time>2026-04-30T11:58:50Z</time></trkpt><trkpt lat="41.00215589058259" lon="9.325570303125177"><ele>224.0</ele><time>2026-04-30T11:58:51Z</time></trkpt><trkpt lat="41.00232792390135" lon="9.32569964392002"><ele>225.0</ele><time>2026-04-30T11:58:52Z</time></trkpt><trkpt lat="41.00250539639572" lon="9.325810615822101"><ele>226.0</ele><time>2026-04-30T11:58:53Z</time></trkpt><trkpt lat="41.0026682249964" lon="9.325938349435074"><ele>227.0</ele><time>2026-04-30T11:58:54Z</time></trkpt><trkpt lat="41.00282486325149" lon="9.326061089409848"><ele>227.0</ele><time>2026-04-30T11:58:55Z</time></trkpt><trkpt lat="41.002980079818244" lon="9.326180220807997"><ele>227.0</ele><time>2026-04-30T11:58:56Z</time></trkpt><trkpt lat="41.003125027460335" lon="9.326288784136889"><ele>227.0</ele><time>2026-04-30T11:58:57Z</time></trkpt><trkpt lat="41.0032516477764" lon="9.326390927169124"><ele>228.75</ele><time>2026-04-30T11:58:58Z</time></trkpt><trkpt lat="41.00335150530888" lon="9.326504737854878"><ele>230.5</ele><time>2026-04-30T11:58:59Z</time></trkpt><trkpt lat="41.0034166702782" lon="9.326633957009944"><ele>232.25</ele><time>2026-04-30T11:59:00Z</time></trkpt><trkpt lat="41.003448933864306" lon="9.32678369988613"><ele>234.0</ele><time>2026-04-30T11:59:01Z</time></trkpt><trkpt lat="41.00344171535929" lon="9.3269442627872"><ele>234.0</ele><time>2026-04-30T11:59:02Z</time></trkpt><trkpt lat="41.00340665762732" lon="9.327127637468129"><ele>234.0</ele><time>2026-04-30T11:59:03Z</time></trkpt><trkpt lat="41.00335229366441" lon="9.327328681971709"><ele>234.0</ele><time>2026-04-30T11:59:04Z</time></trkpt><trkpt lat="41.00330212004668" lon="9.327548290722229"><ele>244.33333333333331</ele><time>2026-04-30T11:59:05Z</time></trkpt><trkpt lat="41.00324085615317" lon="9.32779128312055"><ele>254.66666666666666</ele><time>2026-04-30T11:59:06Z</time></trkpt><trkpt lat="41.00315436638877" lon="9.328045581144575"><ele>265.0</ele><time>2026-04-30T11:59:07Z</time></trkpt><trkpt lat="41.00303924668478" lon="9.328298986419988"><ele>265.3333333333333</ele><time>2026-04-30T11:59:08Z</time></trkpt><trkpt lat="41.00290224286383" lon="9.328547105682423"><ele>265.6666666666667</ele><time>2026-04-30T11:59:09Z</time></trkpt><trkpt lat="41.00277338537873" lon="9.328765747853232"><ele>266.0</ele><time>2026-04-30T11:59:10Z</time></trkpt><trkpt lat="41.002658031975756" lon="9.328959423647216"><ele>262.5</ele><time>2026-04-30T11:59:11Z</time></trkpt><trkpt lat="41.00255913559105" lon="9.329128351186128"><ele>259.0</ele><time>2026-04-30T11:59:12Z</time></trkpt><trkpt lat="41.00247829322913" lon="9.329276207098909"><ele>255.5</ele><time>2026-04-30T11:59:13Z</time></trkpt><trkpt lat="41.002423747198506" lon="9.32941062854446"><ele>252.0</ele><time>2026-04-30T11:59:13.999Z</time></trkpt><trkpt lat="41.00240606655478" lon="9.32953925165978"><ele>253.2</ele><time>2026-04-30T11:59:14.999Z</time></trkpt><trkpt lat="41.00243340237557" lon="9.329669634546264"><ele>254.39999999999998</ele><time>2026-04-30T11:59:15.999Z</time></trkpt><trkpt lat="41.00249912837533" lon="9.32978974967307"><ele>255.60000000000002</ele><time>2026-04-30T11:59:16.999Z</time></trkpt><trkpt lat="41.00258587336208" lon="9.329860996885234"><ele>256.8</ele><time>2026-04-30T11:59:17.999Z</time></trkpt><trkpt lat="41.0026976366185" lon="9.329892817567869"><ele>258.0</ele><time>2026-04-30T11:59:18.999Z</time></trkpt><trkpt lat="41.00284524429603" lon="9.329906935844855"><ele>258.0</ele><time>2026-04-30T11:59:19.999Z</time></trkpt><trkpt lat="41.003006549220714" lon="9.329910789010988"><ele>258.0</ele><time>2026-04-30T11:59:20.999Z</time></trkpt><trkpt lat="41.00317776776372" lon="9.329917086470397"><ele>258.0</ele><time>2026-04-30T11:59:21.999Z</time></trkpt><trkpt lat="41.00334929200758" lon="9.32990690397576"><ele>258.0</ele><time>2026-04-30T11:59:22.999Z</time></trkpt><trkpt lat="41.00351814480758" lon="9.329890006185545"><ele>258.0</ele><time>2026-04-30T11:59:23.999Z</time></trkpt><trkpt lat="41.003674197006326" lon="9.329777841121144"><ele>258.0</ele><time>2026-04-30T11:59:24.999Z</time></trkpt><trkpt lat="41.00384486320861" lon="9.329661711443956"><ele>252.33333333333331</ele><time>2026-04-30T11:59:25.999Z</time></trkpt><trkpt lat="41.004023176136414" lon="9.329538085694459"><ele>246.66666666666666</ele><time>2026-04-30T11:59:27Z</time></trkpt><trkpt lat="41.00417608239132" lon="9.329457739597373"><ele>241.0</ele><time>2026-04-30T11:59:28Z</time></trkpt><trkpt lat="41.00432206268313" lon="9.329416158912814"><ele>241.0</ele><time>2026-04-30T11:59:29Z</time></trkpt><trkpt lat="41.004456905659" lon="9.329403985970238"><ele>241.0</ele><time>2026-04-30T11:59:30Z</time></trkpt><trkpt lat="41.00459204138566" lon="9.32941925074494"><ele>241.0</ele><time>2026-04-30T11:59:31Z</time></trkpt><trkpt lat="41.00472725927093" lon="9.329461157592673"><ele>241.0</ele><time>2026-04-30T11:59:32Z</time></trkpt><trkpt lat="41.00483061502599" lon="9.32954321612271"><ele>241.0</ele><time>2026-04-30T11:59:33Z</time></trkpt><trkpt lat="41.004925996071385" lon="9.329670876730386"><ele>241.0</ele><time>2026-04-30T11:59:34Z</time></trkpt><trkpt lat="41.00503824568422" lon="9.329822963636369"><ele>241.0</ele><time>2026-04-30T11:59:35Z</time></trkpt><trkpt lat="41.00515788730105" lon="9.329991303595447"><ele>248.66666666666666</ele><time>2026-04-30T11:59:36Z</time></trkpt><trkpt lat="41.00528845695455" lon="9.330162355370947"><ele>256.3333333333333</ele><time>2026-04-30T11:59:37Z</time></trkpt><trkpt lat="41.005418467022984" lon="9.330331496899815"><ele>264.0</ele><time>2026-04-30T11:59:38Z</time></trkpt><trkpt lat="41.005538571733695" lon="9.33048886164505"><ele>268.0</ele><time>2026-04-30T11:59:39Z</time></trkpt><trkpt lat="41.00564282064349" lon="9.33063288429063"><ele>272.0</ele><time>2026-04-30T11:59:40Z</time></trkpt><trkpt lat="41.005718748762575" lon="9.33078211258015"><ele>276.0</ele><time>2026-04-30T11:59:41Z</time></trkpt><trkpt lat="41.005755341716856" lon="9.330934997834404"><ele>280.0</ele><time>2026-04-30T11:59:42Z</time></trkpt><trkpt lat="41.00574908694236" lon="9.331087610828263"><ele>280.0</ele><time>2026-04-30T11:59:43Z</time></trkpt><trkpt lat="41.0056998884384" lon="9.331226556792572"><ele>280.0</ele><time>2026-04-30T11:59:44Z</time></trkpt><trkpt lat="41.0056137836085" lon="9.331350448307195"><ele>280.0</ele><time>2026-04-30T11:59:45Z</time></trkpt><trkpt lat="41.005489004361166" lon="9.331431738182568"><ele>280.0</ele><time>2026-04-30T11:59:46Z</time></trkpt><trkpt lat="41.00535062925784" lon="9.33153389177847"><ele>278.3333333333333</ele><time>2026-04-30T11:59:47Z</time></trkpt><trkpt lat="41.00522225193028" lon="9.331645657521939"><ele>276.6666666666667</ele><time>2026-04-30T11:59:48Z</time></trkpt><trkpt lat="41.00509684133912" lon="9.331829211350755"><ele>275.0</ele><time>2026-04-30T11:59:49Z</time></trkpt><trkpt lat="41.00498424345918" lon="9.331961350506562"><ele>281.75</ele><time>2026-04-30T11:59:50Z</time></trkpt><trkpt lat="41.004913068010346" lon="9.33214954841063"><ele>288.5</ele><time>2026-04-30T11:59:51Z</time></trkpt><trkpt lat="41.00485725288697" lon="9.33233400012775"><ele>295.25</ele><time>2026-04-30T11:59:52Z</time></trkpt><trkpt lat="41.00491658919425" lon="9.332498382294727"><ele>302.0</ele><time>2026-04-30T11:59:53Z</time></trkpt><trkpt lat="41.00498920343787" lon="9.332609727624414"><ele>294.25</ele><time>2026-04-30T11:59:54Z</time></trkpt><trkpt lat="41.00510996567804" lon="9.33267914530244"><ele>286.5</ele><time>2026-04-30T11:59:56Z</time></trkpt><trkpt lat="41.00525127799949" lon="9.332715852350777"><ele>278.75</ele><time>2026-04-30T11:59:57Z</time></trkpt><trkpt lat="41.00541376189317" lon="9.332737661694443"><ele>271.0</ele><time>2026-04-30T11:59:58Z</time></trkpt><trkpt lat="41.005586383035464" lon="9.332770400452597"><ele>271.0</ele><time>2026-04-30T11:59:59Z</time></trkpt><trkpt lat="41.005774765714676" lon="9.332824207075287"><ele>271.0</ele><time>2026-04-30T12:00:00Z</time></trkpt><trkpt lat="41.00597508137056" lon="9.3328457876421"><ele>271.0</ele><time>2026-04-30T12:00:01Z</time></trkpt><trkpt lat="41.00613929131244" lon="9.33290347940246"><ele>268.75</ele><time>2026-04-30T12:00:02Z</time></trkpt><trkpt lat="41.00628037660304" lon="9.33295027607139"><ele>266.5</ele><time>2026-04-30T12:00:03Z</time></trkpt><trkpt lat="41.00639627018798" lon="9.333029047624606"><ele>264.25</ele><time>2026-04-30T12:00:04Z</time></trkpt><trkpt lat="41.00646981340523" lon="9.33316972359097"><ele>262.0</ele><time>2026-04-30T12:00:05Z</time></trkpt><trkpt lat="41.006517080735726" lon="9.333364139037462"><ele>265.0</ele><time>2026-04-30T12:00:06Z</time></trkpt><trkpt lat="41.006594490995774" lon="9.333476636049733"><ele>268.0</ele><time>2026-04-30T12:00:07Z</time></trkpt><trkpt lat="41.00671037982904" lon="9.33354958249773"><ele>271.0</ele><time>2026-04-30T12:00:08Z</time></trkpt><trkpt lat="41.006825376772134" lon="9.333616190908604"><ele>274.0</ele><time>2026-04-30T12:00:09Z</time></trkpt><trkpt lat="41.00696042345649" lon="9.333628037530437"><ele>274.0</ele><time>2026-04-30T12:00:10Z</time></trkpt><trkpt lat="41.007126755060554" lon="9.333578914967134"><ele>274.0</ele><time>2026-04-30T12:00:11Z</time></trkpt><trkpt lat="41.007283569143446" lon="9.33359961873377"><ele>274.0</ele><time>2026-04-30T12:00:12Z</time></trkpt><trkpt lat="41.00743922097231" lon="9.333686592956944"><ele>274.0</ele><time>2026-04-30T12:00:13Z</time></trkpt><trkpt lat="41.00760132276308" lon="9.333795555475028"><ele>274.0</ele><time>2026-04-30T12:00:14Z</time></trkpt><trkpt lat="41.00777922609239" lon="9.333904786487935"><ele>274.0</ele><time>2026-04-30T12:00:15Z</time></trkpt><trkpt lat="41.00795479606421" lon="9.334039060526464"><ele>278.66666666666663</ele><time>2026-04-30T12:00:16Z</time></trkpt><trkpt lat="41.00814247841484" lon="9.334187121708103"><ele>283.3333333333333</ele><time>2026-04-30T12:00:17Z</time></trkpt><trkpt lat="41.00831971234475" lon="9.334343532781"><ele>288.0</ele><time>2026-04-30T12:00:18Z</time></trkpt><trkpt lat="41.00844444565366" lon="9.334496889727916"><ele>289.3333333333333</ele><time>2026-04-30T12:00:19Z</time></trkpt><trkpt lat="41.008577561708435" lon="9.334648164865685"><ele>290.66666666666663</ele><time>2026-04-30T12:00:20Z</time></trkpt><trkpt lat="41.00869382077878" lon="9.33480465315543"><ele>292.0</ele><time>2026-04-30T12:00:21Z</time></trkpt><trkpt lat="41.00879617416625" lon="9.334979926767867"><ele>293.66666666666663</ele><time>2026-04-30T12:00:22Z</time></trkpt><trkpt lat="41.008895688910464" lon="9.335140613041585"><ele>295.3333333333333</ele><time>2026-04-30T12:00:23Z</time></trkpt><trkpt lat="41.0090033556694" lon="9.335299853513416"><ele>297.0</ele><time>2026-04-30T12:00:24Z</time></trkpt><trkpt lat="41.009105682439696" lon="9.335465217088087"><ele>297.25</ele><time>2026-04-30T12:00:25Z</time></trkpt><trkpt lat="41.00920289731911" lon="9.335622304683568"><ele>297.5</ele><time>2026-04-30T12:00:26Z</time></trkpt><trkpt lat="41.009294906795084" lon="9.335775472458263"><ele>297.75</ele><time>2026-04-30T12:00:27Z</time></trkpt><trkpt lat="41.00938175198989" lon="9.335930152772594"><ele>298.0</ele><time>2026-04-30T12:00:28Z</time></trkpt><trkpt lat="41.009459449587844" lon="9.336088760842808"><ele>298.0</ele><time>2026-04-30T12:00:29Z</time></trkpt><trkpt lat="41.00951224301572" lon="9.336271626659899"><ele>298.0</ele><time>2026-04-30T12:00:30Z</time></trkpt><trkpt lat="41.00954031649935" lon="9.336460285001499"><ele>298.0</ele><time>2026-04-30T12:00:31Z</time></trkpt><trkpt lat="41.00955408585701" lon="9.336666236048801"><ele>298.0</ele><time>2026-04-30T12:00:32Z</time></trkpt><trkpt lat="41.00956276956173" lon="9.336875495701443"><ele>297.0</ele><time>2026-04-30T12:00:33Z</time></trkpt><trkpt lat="41.00955818133613" lon="9.337075633382312"><ele>296.0</ele><time>2026-04-30T12:00:34Z</time></trkpt><trkpt lat="41.009565816519455" lon="9.337274126589138"><ele>295.0</ele><time>2026-04-30T12:00:35Z</time></trkpt><trkpt lat="41.00954274377946" lon="9.337478809255494"><ele>294.0</ele><time>2026-04-30T12:00:36Z</time></trkpt><trkpt lat="41.0095574593659" lon="9.337666648471702"><ele>293.0</ele><time>2026-04-30T12:00:37Z</time></trkpt><trkpt lat="41.00961206780975" lon="9.337809673649515"><ele>292.0</ele><time>2026-04-30T12:00:38Z</time></trkpt><trkpt lat="41.00966938137237" lon="9.337957499429601"><ele>291.0</ele><time>2026-04-30T12:00:39Z</time></trkpt><trkpt lat="41.00976175475959" lon="9.338083353458819"><ele>288.5</ele><time>2026-04-30T12:00:40Z</time></trkpt><trkpt lat="41.009883010504424" lon="9.338181537098919"><ele>286.0</ele><time>2026-04-30T12:00:41Z</time></trkpt><trkpt lat="41.01001362282509" lon="9.338266484235302"><ele>283.5</ele><time>2026-04-30T12:00:42Z</time></trkpt><trkpt lat="41.0101502699619" lon="9.338358673929436"><ele>281.0</ele><time>2026-04-30T12:00:43Z</time></trkpt><trkpt lat="41.01028192574612" lon="9.338452267168654"><ele>281.0</ele><time>2026-04-30T12:00:44Z</time></trkpt><trkpt lat="41.010410816413014" lon="9.338548597261013"><ele>281.0</ele><time>2026-04-30T12:00:45Z</time></trkpt><trkpt lat="41.01053529047967" lon="9.3386490744084"><ele>281.0</ele><time>2026-04-30T12:00:46Z</time></trkpt><trkpt lat="41.0106642639435" lon="9.338744955690679"><ele>281.0</ele><time>2026-04-30T12:00:47Z</time></trkpt><trkpt lat="41.01079030015414" lon="9.338843512162953"><ele>278.75</ele><time>2026-04-30T12:00:48Z</time></trkpt><trkpt lat="41.010908246571816" lon="9.338951393654336"><ele>276.5</ele><time>2026-04-30T12:00:49Z</time></trkpt><trkpt lat="41.01101557284059" lon="9.339075806340276"><ele>274.25</ele><time>2026-04-30T12:00:50Z</time></trkpt><trkpt lat="41.011106107456875" lon="9.339222582237708"><ele>272.0</ele><time>2026-04-30T12:00:51Z</time></trkpt><trkpt lat="41.01117717717731" lon="9.339381729005416"><ele>272.0</ele><time>2026-04-30T12:00:52Z</time></trkpt><trkpt lat="41.01123505759613" lon="9.339546597234028"><ele>272.0</ele><time>2026-04-30T12:00:53Z</time></trkpt><trkpt lat="41.011294285807296" lon="9.339708090554495"><ele>272.0</ele><time>2026-04-30T12:00:54Z</time></trkpt><trkpt lat="41.0113554216833" lon="9.339868561975695"><ele>272.0</ele><time>2026-04-30T12:00:55Z</time></trkpt><trkpt lat="41.01141604206567" lon="9.340021838784521"><ele>271.0</ele><time>2026-04-30T12:00:56Z</time></trkpt><trkpt lat="41.01147808877633" lon="9.340168993872506"><ele>270.0</ele><time>2026-04-30T12:00:57Z</time></trkpt><trkpt lat="41.011556013722895" lon="9.340292717246438"><ele>269.0</ele><time>2026-04-30T12:00:58Z</time></trkpt><trkpt lat="41.01165318983654" lon="9.340389350384408"><ele>268.0</ele><time>2026-04-30T12:00:59Z</time></trkpt><trkpt lat="41.01176537365666" lon="9.340438724567324"><ele>268.0</ele><time>2026-04-30T12:01:00Z</time></trkpt><trkpt lat="41.011886413690114" lon="9.34043746284342"><ele>268.0</ele><time>2026-04-30T12:01:01Z</time></trkpt><trkpt lat="41.01201792226127" lon="9.340424527376861"><ele>268.0</ele><time>2026-04-30T12:01:02Z</time></trkpt><trkpt lat="41.01215604475139" lon="9.340413404442838"><ele>268.0</ele><time>2026-04-30T12:01:03Z</time></trkpt><trkpt lat="41.01229500544006" lon="9.340404155389818"><ele>268.0</ele><time>2026-04-30T12:01:04Z</time></trkpt><trkpt lat="41.01242978433183" lon="9.34039334470683"><ele>268.0</ele><time>2026-04-30T12:01:05Z</time></trkpt><trkpt lat="41.012559408695694" lon="9.34038497661789"><ele>268.0</ele><time>2026-04-30T12:01:06Z</time></trkpt><trkpt lat="41.01268886249889" lon="9.340377152794355"><ele>268.0</ele><time>2026-04-30T12:01:07Z</time></trkpt><trkpt lat="41.012812512412346" lon="9.340365949072286"><ele>267.4</ele><time>2026-04-30T12:01:08Z</time></trkpt><trkpt lat="41.012933721380996" lon="9.340378478301623"><ele>266.8</ele><time>2026-04-30T12:01:09Z</time></trkpt><trkpt lat="41.0130429762648" lon="9.340434527268226"><ele>266.2</ele><time>2026-04-30T12:01:10Z</time></trkpt><trkpt lat="41.01312086053063" lon="9.340527274468847"><ele>265.6</ele><time>2026-04-30T12:01:11Z</time></trkpt><trkpt lat="41.01316572338928" lon="9.34063178275185"><ele>265.0</ele><time>2026-04-30T12:01:12Z</time></trkpt><trkpt lat="41.01317531271701" lon="9.340751316618727"><ele>262.8</ele><time>2026-04-30T12:01:13Z</time></trkpt><trkpt lat="41.0131562330854" lon="9.340880891386295"><ele>260.6</ele><time>2026-04-30T12:01:14Z</time></trkpt><trkpt lat="41.01310482179862" lon="9.340998741998519"><ele>258.4</ele><time>2026-04-30T12:01:15Z</time></trkpt><trkpt lat="41.013033003841514" lon="9.341100104960915"><ele>256.2</ele><time>2026-04-30T12:01:16Z</time></trkpt><trkpt lat="41.012924846705126" lon="9.34116266300195"><ele>254.0</ele><time>2026-04-30T12:01:17Z</time></trkpt><trkpt lat="41.01280739006072" lon="9.341191021685828"><ele>254.0</ele><time>2026-04-30T12:01:18Z</time></trkpt><trkpt lat="41.012678163584575" lon="9.341208601857039"><ele>254.0</ele><time>2026-04-30T12:01:19Z</time></trkpt><trkpt lat="41.01254762205773" lon="9.341230600837157"><ele>254.0</ele><time>2026-04-30T12:01:20Z</time></trkpt><trkpt lat="41.01241421184352" lon="9.34125766481964"><ele>254.0</ele><time>2026-04-30T12:01:21Z</time></trkpt><trkpt lat="41.012279905526825" lon="9.341292766395213"><ele>255.0</ele><time>2026-04-30T12:01:22Z</time></trkpt><trkpt lat="41.0121490051469" lon="9.341323134033644"><ele>256.0</ele><time>2026-04-30T12:01:23Z</time></trkpt><trkpt lat="41.01201802127778" lon="9.341354157530976"><ele>257.0</ele><time>2026-04-30T12:01:24Z</time></trkpt><trkpt lat="41.011892199758805" lon="9.3413889482251"><ele>258.0</ele><time>2026-04-30T12:01:25Z</time></trkpt><trkpt lat="41.01176645377824" lon="9.341411846970745"><ele>254.25</ele><time>2026-04-30T12:01:26Z</time></trkpt><trkpt lat="41.011638784779315" lon="9.341442474832519"><ele>250.5</ele><time>2026-04-30T12:01:27Z</time></trkpt><trkpt lat="41.01151306723305" lon="9.341467631179666"><ele>246.75</ele><time>2026-04-30T12:01:28Z</time></trkpt><trkpt lat="41.01138944780005" lon="9.341496981501452"><ele>243.0</ele><time>2026-04-30T12:01:29Z</time></trkpt><trkpt lat="41.011269789054545" lon="9.341522760841894"><ele>243.0</ele><time>2026-04-30T12:01:30Z</time></trkpt><trkpt lat="41.01115337570617" lon="9.341549637410719"><ele>243.0</ele><time>2026-04-30T12:01:31Z</time></trkpt><trkpt lat="41.01104446260793" lon="9.341588762336617"><ele>243.0</ele><time>2026-04-30T12:01:32Z</time></trkpt><trkpt lat="41.010950758986" lon="9.341653115879904"><ele>243.0</ele><time>2026-04-30T12:01:33Z</time></trkpt><trkpt lat="41.010874542362195" lon="9.341747118886218"><ele>243.0</ele><time>2026-04-30T12:01:34Z</time></trkpt><trkpt lat="41.010823316033864" lon="9.341867913700703"><ele>243.5</ele><time>2026-04-30T12:01:35Z</time></trkpt><trkpt lat="41.01079059649783" lon="9.342005067443681"><ele>244.0</ele><time>2026-04-30T12:01:36Z</time></trkpt><trkpt lat="41.01076671652482" lon="9.34216637257306"><ele>244.5</ele><time>2026-04-30T12:01:37Z</time></trkpt><trkpt lat="41.01074573636931" lon="9.342343607991998"><ele>245.0</ele><time>2026-04-30T12:01:38Z</time></trkpt><trkpt lat="41.01072023549602" lon="9.342537741567753"><ele>242.33333333333334</ele><time>2026-04-30T12:01:39Z</time></trkpt><trkpt lat="41.01068975512573" lon="9.342742863310932"><ele>239.66666666666669</ele><time>2026-04-30T12:01:40Z</time></trkpt><trkpt lat="41.01065971961024" lon="9.342956461689935"><ele>237.0</ele><time>2026-04-30T12:01:41Z</time></trkpt><trkpt lat="41.01062837559622" lon="9.343180074003525"><ele>233.66666666666669</ele><time>2026-04-30T12:01:42Z</time></trkpt><trkpt lat="41.010599092743846" lon="9.343412150821367"><ele>230.33333333333334</ele><time>2026-04-30T12:01:43Z</time></trkpt><trkpt lat="41.010566832017545" lon="9.343643252103673"><ele>227.0</ele><time>2026-04-30T12:01:44Z</time></trkpt><trkpt lat="41.010532042361255" lon="9.343879235574345"><ele>225.33333333333334</ele><time>2026-04-30T12:01:45Z</time></trkpt><trkpt lat="41.010501753402615" lon="9.344111419483188"><ele>223.66666666666669</ele><time>2026-04-30T12:01:46Z</time></trkpt><trkpt lat="41.01047902522106" lon="9.344345400767413"><ele>222.0</ele><time>2026-04-30T12:01:47Z</time></trkpt><trkpt lat="41.010465738470685" lon="9.344581229971686"><ele>220.0</ele><time>2026-04-30T12:01:48Z</time></trkpt><trkpt lat="41.010464006422396" lon="9.344814096420738"><ele>218.0</ele><time>2026-04-30T12:01:49Z</time></trkpt><trkpt lat="41.01047002163302" lon="9.345044526190623"><ele>216.0</ele><time>2026-04-30T12:01:50Z</time></trkpt><trkpt lat="41.01048105316496" lon="9.34527187538096"><ele>216.0</ele><time>2026-04-30T12:01:51Z</time></trkpt><trkpt lat="41.01049575868428" lon="9.345494123639012"><ele>216.0</ele><time>2026-04-30T12:01:52Z</time></trkpt><trkpt lat="41.01051272006722" lon="9.345719531569012"><ele>216.0</ele><time>2026-04-30T12:01:53Z</time></trkpt><trkpt lat="41.0105314051078" lon="9.345963536661477"><ele>214.0</ele><time>2026-04-30T12:01:54Z</time></trkpt><trkpt lat="41.01053682251065" lon="9.34616350636268"><ele>212.0</ele><time>2026-04-30T12:01:55Z</time></trkpt><trkpt lat="41.01055449137091" lon="9.346382750873158"><ele>210.0</ele><time>2026-04-30T12:01:56Z</time></trkpt><trkpt lat="41.010589126125076" lon="9.346595937425363"><ele>208.33333333333331</ele><time>2026-04-30T12:01:57Z</time></trkpt><trkpt lat="41.010638109211186" lon="9.346791720772048"><ele>206.66666666666666</ele><time>2026-04-30T12:01:58Z</time></trkpt><trkpt lat="41.010707017331754" lon="9.346973337167837"><ele>205.0</ele><time>2026-04-30T12:01:59Z</time></trkpt><trkpt lat="41.0107941650661" lon="9.347147094744294"><ele>203.0</ele><time>2026-04-30T12:02:00Z</time></trkpt><trkpt lat="41.01089808847718" lon="9.347308794305091"><ele>201.0</ele><time>2026-04-30T12:02:01Z</time></trkpt><trkpt lat="41.01101884436695" lon="9.347466667733341"><ele>199.0</ele><time>2026-04-30T12:02:02Z</time></trkpt><trkpt lat="41.011156006495206" lon="9.347595899524855"><ele>199.0</ele><time>2026-04-30T12:02:03Z</time></trkpt><trkpt lat="41.01129607063373" lon="9.347718620628301"><ele>199.0</ele><time>2026-04-30T12:02:04Z</time></trkpt><trkpt lat="41.01144210950637" lon="9.347848507955424"><ele>199.0</ele><time>2026-04-30T12:02:05Z</time></trkpt><trkpt lat="41.01157882944933" lon="9.347996237771438"><ele>197.33333333333331</ele><time>2026-04-30T12:02:06Z</time></trkpt><trkpt lat="41.01170318289884" lon="9.348161878171881"><ele>195.66666666666669</ele><time>2026-04-30T12:02:07Z</time></trkpt><trkpt lat="41.01180197011631" lon="9.348345888613643"><ele>194.0</ele><time>2026-04-30T12:02:08Z</time></trkpt><trkpt lat="41.01188837673363" lon="9.34853368246179"><ele>194.0</ele><time>2026-04-30T12:02:09Z</time></trkpt><trkpt lat="41.01197101347324" lon="9.348723362941321"><ele>194.0</ele><time>2026-04-30T12:02:10Z</time></trkpt><trkpt lat="41.012045375990695" lon="9.34891981477047"><ele>194.0</ele><time>2026-04-30T12:02:11Z</time></trkpt><trkpt lat="41.012097231851584" lon="9.34913474351106"><ele>193.33333333333334</ele><time>2026-04-30T12:02:12Z</time></trkpt><trkpt lat="41.012139080395386" lon="9.349365876631367"><ele>192.66666666666669</ele><time>2026-04-30T12:02:13Z</time></trkpt><trkpt lat="41.01217092062533" lon="9.349601229595656"><ele>192.0</ele><time>2026-04-30T12:02:14Z</time></trkpt><trkpt lat="41.01219866140728" lon="9.349837304497552"><ele>190.0</ele><time>2026-04-30T12:02:15Z</time></trkpt><trkpt lat="41.01222501866719" lon="9.350069842051274"><ele>188.0</ele><time>2026-04-30T12:02:16Z</time></trkpt><trkpt lat="41.01225273319401" lon="9.350292656484866"><ele>186.0</ele><time>2026-04-30T12:02:17Z</time></trkpt><trkpt lat="41.012281723429005" lon="9.350508172691399"><ele>185.33333333333334</ele><time>2026-04-30T12:02:18Z</time></trkpt><trkpt lat="41.01231672743987" lon="9.35071036901346"><ele>184.66666666666669</ele><time>2026-04-30T12:02:19Z</time></trkpt><trkpt lat="41.012368062209106" lon="9.350911283539137"><ele>184.0</ele><time>2026-04-30T12:02:20Z</time></trkpt><trkpt lat="41.012420996770366" lon="9.351084975844365"><ele>182.25</ele><time>2026-04-30T12:02:21Z</time></trkpt><trkpt lat="41.01249098207898" lon="9.351256241261927"><ele>180.5</ele><time>2026-04-30T12:02:22Z</time></trkpt><trkpt lat="41.01257543316085" lon="9.351420556067843"><ele>178.75</ele><time>2026-04-30T12:02:23Z</time></trkpt><trkpt lat="41.01266980639759" lon="9.351575924304393"><ele>177.0</ele><time>2026-04-30T12:02:24Z</time></trkpt><trkpt lat="41.01277307214509" lon="9.35172355975222"><ele>177.0</ele><time>2026-04-30T12:02:25Z</time></trkpt><trkpt lat="41.012889746677175" lon="9.351864000001974"><ele>177.0</ele><time>2026-04-30T12:02:26Z</time></trkpt><trkpt lat="41.01300803162204" lon="9.35200240991655"><ele>177.0</ele><time>2026-04-30T12:02:27Z</time></trkpt><trkpt lat="41.01313161987956" lon="9.352141145902266"><ele>176.0</ele><time>2026-04-30T12:02:28Z</time></trkpt><trkpt lat="41.01324980144601" lon="9.352271179753421"><ele>175.0</ele><time>2026-04-30T12:02:29Z</time></trkpt><trkpt lat="41.01335763476111" lon="9.352407564206432"><ele>174.0</ele><time>2026-04-30T12:02:30Z</time></trkpt><trkpt lat="41.01346386956069" lon="9.35253680707508"><ele>173.0</ele><time>2026-04-30T12:02:31Z</time></trkpt><trkpt lat="41.01356561324509" lon="9.352664105364347"><ele>170.75</ele><time>2026-04-30T12:02:32Z</time></trkpt><trkpt lat="41.01366769218156" lon="9.352788532986162"><ele>168.5</ele><time>2026-04-30T12:02:33Z</time></trkpt><trkpt lat="41.013759817678434" lon="9.35290256693413"><ele>166.25</ele><time>2026-04-30T12:02:34Z</time></trkpt><trkpt lat="41.013853090217644" lon="9.352981438316146"><ele>164.0</ele><time>2026-04-30T12:02:35Z</time></trkpt><trkpt lat="41.01396353623013" lon="9.3530289398217"><ele>164.0</ele><time>2026-04-30T12:02:36Z</time></trkpt><trkpt lat="41.01407865447477" lon="9.353022252836485"><ele>164.0</ele><time>2026-04-30T12:02:37Z</time></trkpt><trkpt lat="41.014200436854665" lon="9.352982436568698"><ele>164.0</ele><time>2026-04-30T12:02:38Z</time></trkpt><trkpt lat="41.01432439940323" lon="9.35291950469007"><ele>164.0</ele><time>2026-04-30T12:02:39Z</time></trkpt><trkpt lat="41.01445201372582" lon="9.352852462006622"><ele>163.0</ele><time>2026-04-30T12:02:40Z</time></trkpt><trkpt lat="41.01459085990854" lon="9.352790296525832"><ele>162.0</ele><time>2026-04-30T12:02:41Z</time></trkpt><trkpt lat="41.01473416992664" lon="9.352727630703805"><ele>161.0</ele><time>2026-04-30T12:02:42Z</time></trkpt><trkpt lat="41.01488712655656" lon="9.35266132759219"><ele>163.0</ele><time>2026-04-30T12:02:43Z</time></trkpt><trkpt lat="41.01504060833235" lon="9.3525889260939"><ele>165.0</ele><time>2026-04-30T12:02:44Z</time></trkpt><trkpt lat="41.01519656712519" lon="9.35251428889506"><ele>167.0</ele><time>2026-04-30T12:02:45Z</time></trkpt><trkpt lat="41.015363278885154" lon="9.352434531340698"><ele>167.0</ele><time>2026-04-30T12:02:46Z</time></trkpt><trkpt lat="41.01552788778929" lon="9.352362513204984"><ele>167.0</ele><time>2026-04-30T12:02:47Z</time></trkpt><trkpt lat="41.015688484180274" lon="9.352284681138036"><ele>167.0</ele><time>2026-04-30T12:02:48Z</time></trkpt><trkpt lat="41.01585905695959" lon="9.352208533532545"><ele>165.66666666666666</ele><time>2026-04-30T12:02:49Z</time></trkpt><trkpt lat="41.01602540723213" lon="9.352122631523695"><ele>164.33333333333334</ele><time>2026-04-30T12:02:50Z</time></trkpt><trkpt lat="41.016194196780205" lon="9.352039388193406"><ele>163.0</ele><time>2026-04-30T12:02:51Z</time></trkpt><trkpt lat="41.01636073277718" lon="9.35195651756062"><ele>163.0</ele><time>2026-04-30T12:02:52Z</time></trkpt><trkpt lat="41.01652726416494" lon="9.351875546068186"><ele>163.0</ele><time>2026-04-30T12:02:53Z</time></trkpt><trkpt lat="41.01669322992667" lon="9.35179478969925"><ele>163.0</ele><time>2026-04-30T12:02:54Z</time></trkpt><trkpt lat="41.016844514426175" lon="9.351716468540095"><ele>163.25</ele><time>2026-04-30T12:02:55Z</time></trkpt><trkpt lat="41.01698689743884" lon="9.351664486998512"><ele>163.5</ele><time>2026-04-30T12:02:56Z</time></trkpt><trkpt lat="41.017134524707984" lon="9.351648175625149"><ele>163.75</ele><time>2026-04-30T12:02:57Z</time></trkpt><trkpt lat="41.01728258900427" lon="9.351678317219097"><ele>164.0</ele><time>2026-04-30T12:02:58Z</time></trkpt><trkpt lat="41.01743934850097" lon="9.35174424034013"><ele>165.0</ele><time>2026-04-30T12:02:59Z</time></trkpt><trkpt lat="41.017591253623145" lon="9.351827102364902"><ele>166.0</ele><time>2026-04-30T12:03:00Z</time></trkpt><trkpt lat="41.01773508427874" lon="9.35192414910069"><ele>167.0</ele><time>2026-04-30T12:03:01Z</time></trkpt><trkpt lat="41.017855967894164" lon="9.352038955231626"><ele>167.0</ele><time>2026-04-30T12:03:02Z</time></trkpt><trkpt lat="41.01796605356075" lon="9.352178060411045"><ele>167.0</ele><time>2026-04-30T12:03:03Z</time></trkpt><trkpt lat="41.01806209803155" lon="9.352337021937437"><ele>167.0</ele><time>2026-04-30T12:03:04Z</time></trkpt><trkpt lat="41.018162859248314" lon="9.352510553215692"><ele>169.0</ele><time>2026-04-30T12:03:05Z</time></trkpt><trkpt lat="41.01828095951623" lon="9.352689198279847"><ele>171.0</ele><time>2026-04-30T12:03:06Z</time></trkpt><trkpt lat="41.0184186330952" lon="9.352867283871419"><ele>173.0</ele><time>2026-04-30T12:03:07Z</time></trkpt><trkpt lat="41.018568282876835" lon="9.353045127164053"><ele>173.0</ele><time>2026-04-30T12:03:08Z</time></trkpt><trkpt lat="41.01872465347704" lon="9.35323138193228"><ele>173.0</ele><time>2026-04-30T12:03:09Z</time></trkpt><trkpt lat="41.018887859665284" lon="9.35341308495829"><ele>173.0</ele><time>2026-04-30T12:03:10Z</time></trkpt><trkpt lat="41.01906451773524" lon="9.353612702879548"><ele>172.5</ele><time>2026-04-30T12:03:11Z</time></trkpt><trkpt lat="41.019253851751444" lon="9.35382824895652"><ele>172.0</ele><time>2026-04-30T12:03:12Z</time></trkpt><trkpt lat="41.01944575224362" lon="9.354040236963513"><ele>172.0</ele><time>2026-04-30T12:03:13Z</time></trkpt><trkpt lat="41.01962373627728" lon="9.35423888231385"><ele>172.0</ele><time>2026-04-30T12:03:14Z</time></trkpt><trkpt lat="41.01978866617965" lon="9.354427457790159"><ele>172.0</ele><time>2026-04-30T12:03:15Z</time></trkpt><trkpt lat="41.01994950236348" lon="9.354615660694158"><ele>172.0</ele><time>2026-04-30T12:03:16Z</time></trkpt><trkpt lat="41.02010962157988" lon="9.354814863953417"><ele>172.0</ele><time>2026-04-30T12:03:17Z</time></trkpt><trkpt lat="41.02026020661882" lon="9.35503006050105"><ele>173.5</ele><time>2026-04-30T12:03:18Z</time></trkpt><trkpt lat="41.0203982921273" lon="9.355264301036565"><ele>175.0</ele><time>2026-04-30T12:03:19Z</time></trkpt><trkpt lat="41.0205290665781" lon="9.355516163136885"><ele>177.0</ele><time>2026-04-30T12:03:20Z</time></trkpt><trkpt lat="41.02065509846248" lon="9.355774271349837"><ele>179.0</ele><time>2026-04-30T12:03:21Z</time></trkpt><trkpt lat="41.02078203048386" lon="9.356029146439855"><ele>182.5</ele><time>2026-04-30T12:03:22Z</time></trkpt><trkpt lat="41.020910565485536" lon="9.356290032598558"><ele>186.0</ele><time>2026-04-30T12:03:23Z</time></trkpt><trkpt lat="41.02104479986591" lon="9.35655488675173"><ele>187.5</ele><time>2026-04-30T12:03:24Z</time></trkpt><trkpt lat="41.021174121366855" lon="9.356824848267474"><ele>189.0</ele><time>2026-04-30T12:03:25Z</time></trkpt><trkpt lat="41.02130475261844" lon="9.357091483006473"><ele>192.0</ele><time>2026-04-30T12:03:26Z</time></trkpt><trkpt lat="41.02143155335535" lon="9.357352464654143"><ele>195.0</ele><time>2026-04-30T12:03:27Z</time></trkpt><trkpt lat="41.02155181867629" lon="9.35759626764943"><ele>195.0</ele><time>2026-04-30T12:03:28Z</time></trkpt><trkpt lat="41.0216732599358" lon="9.357828698994947"><ele>195.0</ele><time>2026-04-30T12:03:29Z</time></trkpt><trkpt lat="41.02179875759494" lon="9.358056458511177"><ele>195.0</ele><time>2026-04-30T12:03:30Z</time></trkpt><trkpt lat="41.02193026595777" lon="9.358280238279653"><ele>195.66666666666669</ele><time>2026-04-30T12:03:31Z</time></trkpt><trkpt lat="41.02205951734582" lon="9.35848961315793"><ele>196.33333333333334</ele><time>2026-04-30T12:03:32Z</time></trkpt><trkpt lat="41.02218142825283" lon="9.358687943834179"><ele>197.0</ele><time>2026-04-30T12:03:33Z</time></trkpt><trkpt lat="41.02229430955778" lon="9.358876152332787"><ele>198.33333333333334</ele><time>2026-04-30T12:03:34Z</time></trkpt><trkpt lat="41.0223967533823" lon="9.359053228563178"><ele>199.66666666666669</ele><time>2026-04-30T12:03:35Z</time></trkpt><trkpt lat="41.02249324933908" lon="9.35921754656492"><ele>201.0</ele><time>2026-04-30T12:03:36Z</time></trkpt><trkpt lat="41.02258989561137" lon="9.35936168126936"><ele>201.5</ele><time>2026-04-30T12:03:37Z</time></trkpt><trkpt lat="41.02268708307593" lon="9.359495458094099"><ele>202.0</ele><time>2026-04-30T12:03:38Z</time></trkpt><trkpt lat="41.02279152466199" lon="9.359613876136368"><ele>202.5</ele><time>2026-04-30T12:03:39Z</time></trkpt><trkpt lat="41.02290317943991" lon="9.359718478995772"><ele>203.0</ele><time>2026-04-30T12:03:40Z</time></trkpt><trkpt lat="41.023021433892104" lon="9.359811812319421"><ele>203.0</ele><time>2026-04-30T12:03:41Z</time></trkpt><trkpt lat="41.02314125060994" lon="9.359904623578547"><ele>203.0</ele><time>2026-04-30T12:03:42Z</time></trkpt><trkpt lat="41.02325891545639" lon="9.360002007959777"><ele>203.0</ele><time>2026-04-30T12:03:43Z</time></trkpt><trkpt lat="41.02337620046292" lon="9.360102041790359"><ele>203.0</ele><time>2026-04-30T12:03:44Z</time></trkpt><trkpt lat="41.02349680337904" lon="9.360200924653272"><ele>202.5</ele><time>2026-04-30T12:03:45Z</time></trkpt><trkpt lat="41.02361585937408" lon="9.360297268621883"><ele>202.0</ele><time>2026-04-30T12:03:46Z</time></trkpt><trkpt lat="41.02374182275852" lon="9.36039256116278"><ele>201.5</ele><time>2026-04-30T12:03:47Z</time></trkpt><trkpt lat="41.02386963283261" lon="9.360489545960132"><ele>201.0</ele><time>2026-04-30T12:03:48Z</time></trkpt><trkpt lat="41.02398725665401" lon="9.360589569471557"><ele>200.0</ele><time>2026-04-30T12:03:49Z</time></trkpt><trkpt lat="41.02409473828053" lon="9.360702749239666"><ele>199.0</ele><time>2026-04-30T12:03:50Z</time></trkpt><trkpt lat="41.02419612054707" lon="9.360829622327241"><ele>198.0</ele><time>2026-04-30T12:03:51Z</time></trkpt><trkpt lat="41.02429573784858" lon="9.360967870616568"><ele>197.0</ele><time>2026-04-30T12:03:52Z</time></trkpt><trkpt lat="41.0243903764808" lon="9.36110882890366"><ele>197.0</ele><time>2026-04-30T12:03:53Z</time></trkpt><trkpt lat="41.02449101845134" lon="9.361258153716514"><ele>197.0</ele><time>2026-04-30T12:03:54Z</time></trkpt><trkpt lat="41.02459907150459" lon="9.361408583610586"><ele>197.0</ele><time>2026-04-30T12:03:55Z</time></trkpt><trkpt lat="41.02470678794679" lon="9.36155913740171"><ele>196.0</ele><time>2026-04-30T12:03:56Z</time></trkpt><trkpt lat="41.02481593148308" lon="9.361714242317156"><ele>195.0</ele><time>2026-04-30T12:03:57Z</time></trkpt><trkpt lat="41.02492541302168" lon="9.36187313267707"><ele>194.0</ele><time>2026-04-30T12:03:58Z</time></trkpt><trkpt lat="41.02503703088937" lon="9.3620368346472"><ele>192.66666666666669</ele><time>2026-04-30T12:03:59Z</time></trkpt><trkpt lat="41.02515111431133" lon="9.362203337196254"><ele>191.33333333333334</ele><time>2026-04-30T12:04:00Z</time></trkpt><trkpt lat="41.02527431088924" lon="9.362382680800419"><ele>190.0</ele><time>2026-04-30T12:04:01Z</time></trkpt><trkpt lat="41.025396662954805" lon="9.362556573091942"><ele>190.0</ele><time>2026-04-30T12:04:02Z</time></trkpt><trkpt lat="41.02552485118144" lon="9.362737387461385"><ele>190.0</ele><time>2026-04-30T12:04:03Z</time></trkpt><trkpt lat="41.02564766035289" lon="9.362920494593142"><ele>190.0</ele><time>2026-04-30T12:04:04Z</time></trkpt><trkpt lat="41.02577560362103" lon="9.36310980925964"><ele>187.66666666666669</ele><time>2026-04-30T12:04:05Z</time></trkpt><trkpt lat="41.02590225220354" lon="9.363299155553227"><ele>185.33333333333334</ele><time>2026-04-30T12:04:06Z</time></trkpt><trkpt lat="41.02602923336697" lon="9.36348652338751"><ele>183.0</ele><time>2026-04-30T12:04:07Z</time></trkpt><trkpt lat="41.02615471126423" lon="9.363666911096427"><ele>183.0</ele><time>2026-04-30T12:04:08Z</time></trkpt><trkpt lat="41.02628358163719" lon="9.363846663625544"><ele>183.0</ele><time>2026-04-30T12:04:09Z</time></trkpt><trkpt lat="41.02641040854156" lon="9.364027070858858"><ele>183.0</ele><time>2026-04-30T12:04:10Z</time></trkpt><trkpt lat="41.0265277346158" lon="9.364197193275713"><ele>182.0</ele><time>2026-04-30T12:04:11Z</time></trkpt><trkpt lat="41.02664785973287" lon="9.364374496113694"><ele>181.0</ele><time>2026-04-30T12:04:12Z</time></trkpt><trkpt lat="41.02676665236044" lon="9.364546162695172"><ele>180.0</ele><time>2026-04-30T12:04:13Z</time></trkpt><trkpt lat="41.02688747148149" lon="9.364716319359404"><ele>180.0</ele><time>2026-04-30T12:04:14Z</time></trkpt><trkpt lat="41.02700781746948" lon="9.364893082463077"><ele>180.0</ele><time>2026-04-30T12:04:15Z</time></trkpt><trkpt lat="41.02712704411651" lon="9.36508344725651"><ele>180.0</ele><time>2026-04-30T12:04:16Z</time></trkpt><trkpt lat="41.027242061949316" lon="9.365292693083763"><ele>178.33333333333334</ele><time>2026-04-30T12:04:17Z</time></trkpt><trkpt lat="41.027355620350384" lon="9.365530047054595"><ele>176.66666666666669</ele><time>2026-04-30T12:04:18Z</time></trkpt><trkpt lat="41.02745783995188" lon="9.365790078820998"><ele>175.0</ele><time>2026-04-30T12:04:19Z</time></trkpt><trkpt lat="41.027553062618196" lon="9.366062286014268"><ele>175.0</ele><time>2026-04-30T12:04:20Z</time></trkpt><trkpt lat="41.027643007728024" lon="9.3663469480961"><ele>175.0</ele><time>2026-04-30T12:04:21Z</time></trkpt><trkpt lat="41.02772924268079" lon="9.366627556837422"><ele>175.0</ele><time>2026-04-30T12:04:22Z</time></trkpt><trkpt lat="41.02781453302434" lon="9.366896007370679"><ele>175.0</ele><time>2026-04-30T12:04:23Z</time></trkpt><trkpt lat="41.02789445011496" lon="9.367153062407041"><ele>175.0</ele><time>2026-04-30T12:04:24Z</time></trkpt><trkpt lat="41.02797194281739" lon="9.36740446815208"><ele>175.0</ele><time>2026-04-30T12:04:25Z</time></trkpt><trkpt lat="41.02804227106658" lon="9.36763988269428"><ele>175.0</ele><time>2026-04-30T12:04:26Z</time></trkpt><trkpt lat="41.02811342565242" lon="9.367875695045141"><ele>175.0</ele><time>2026-04-30T12:04:27Z</time></trkpt><trkpt lat="41.02818510007609" lon="9.36810540462893"><ele>176.0</ele><time>2026-04-30T12:04:28Z</time></trkpt><trkpt lat="41.02825757015509" lon="9.36832972506377"><ele>177.0</ele><time>2026-04-30T12:04:29Z</time></trkpt><trkpt lat="41.028321009763644" lon="9.368541226212182"><ele>178.0</ele><time>2026-04-30T12:04:30Z</time></trkpt><trkpt lat="41.02838649947709" lon="9.368731191475328"><ele>175.66666666666669</ele><time>2026-04-30T12:04:31Z</time></trkpt><trkpt lat="41.02847417878434" lon="9.368905439357906"><ele>173.33333333333334</ele><time>2026-04-30T12:04:32Z</time></trkpt><trkpt lat="41.02858369416557" lon="9.369058392910906"><ele>171.0</ele><time>2026-04-30T12:04:33Z</time></trkpt><trkpt lat="41.02871480016215" lon="9.369187276549617"><ele>171.0</ele><time>2026-04-30T12:04:34Z</time></trkpt><trkpt lat="41.028864549834914" lon="9.369290495838154"><ele>171.0</ele><time>2026-04-30T12:04:35Z</time></trkpt><trkpt lat="41.02901076602054" lon="9.369385766738581"><ele>171.0</ele><time>2026-04-30T12:04:36Z</time></trkpt><trkpt lat="41.02915832872127" lon="9.369480191841522"><ele>172.33333333333334</ele><time>2026-04-30T12:04:37Z</time></trkpt><trkpt lat="41.029300317429275" lon="9.369584939648291"><ele>173.66666666666669</ele><time>2026-04-30T12:04:38Z</time></trkpt><trkpt lat="41.02942949566711" lon="9.369706120422595"><ele>175.0</ele><time>2026-04-30T12:04:39Z</time></trkpt><trkpt lat="41.02954069802545" lon="9.369843397708745"><ele>176.5</ele><time>2026-04-30T12:04:40Z</time></trkpt><trkpt lat="41.02962961037379" lon="9.36999853227101"><ele>178.0</ele><time>2026-04-30T12:04:41Z</time></trkpt><trkpt lat="41.02969878313757" lon="9.370179045964122"><ele>179.5</ele><time>2026-04-30T12:04:42Z</time></trkpt><trkpt lat="41.029742536515066" lon="9.370360129024547"><ele>181.0</ele><time>2026-04-30T12:04:43Z</time></trkpt><trkpt lat="41.02977409733698" lon="9.370539515638935"><ele>181.75</ele><time>2026-04-30T12:04:44Z</time></trkpt><trkpt lat="41.029807688587454" lon="9.370735225272801"><ele>182.5</ele><time>2026-04-30T12:04:45Z</time></trkpt><trkpt lat="41.02984380285918" lon="9.37092597649911"><ele>183.25</ele><time>2026-04-30T12:04:46Z</time></trkpt><trkpt lat="41.02987562697125" lon="9.371108550958441"><ele>184.0</ele><time>2026-04-30T12:04:47Z</time></trkpt><trkpt lat="41.02991798010963" lon="9.371291087863808"><ele>183.75</ele><time>2026-04-30T12:04:48Z</time></trkpt><trkpt lat="41.02995545263937" lon="9.371474636346315"><ele>183.5</ele><time>2026-04-30T12:04:49Z</time></trkpt><trkpt lat="41.0299916382209" lon="9.371642900461477"><ele>183.25</ele><time>2026-04-30T12:04:50Z</time></trkpt><trkpt lat="41.03001995076033" lon="9.371805449667951"><ele>183.0</ele><time>2026-04-30T12:04:51Z</time></trkpt><trkpt lat="41.030049840451426" lon="9.371966512082944"><ele>182.25</ele><time>2026-04-30T12:04:52Z</time></trkpt><trkpt lat="41.030088119057105" lon="9.372134570047278"><ele>181.5</ele><time>2026-04-30T12:04:53Z</time></trkpt><trkpt lat="41.03013992095056" lon="9.372288568399943"><ele>180.75</ele><time>2026-04-30T12:04:54Z</time></trkpt><trkpt lat="41.030209206164535" lon="9.372428092580336"><ele>180.0</ele><time>2026-04-30T12:04:55Z</time></trkpt><trkpt lat="41.030295591230725" lon="9.372554577001518"><ele>179.25</ele><time>2026-04-30T12:04:56Z</time></trkpt><trkpt lat="41.03040170031778" lon="9.372674011438399"><ele>178.5</ele><time>2026-04-30T12:04:57Z</time></trkpt><trkpt lat="41.03051981439027" lon="9.372787481147705"><ele>177.75</ele><time>2026-04-30T12:04:58Z</time></trkpt><trkpt lat="41.030640826529904" lon="9.372902820238146"><ele>177.0</ele><time>2026-04-30T12:04:59Z</time></trkpt><trkpt lat="41.03076142029868" lon="9.373016147184899"><ele>175.5</ele><time>2026-04-30T12:05:00Z</time></trkpt><trkpt lat="41.03087712124026" lon="9.37312828967582"><ele>174.0</ele><time>2026-04-30T12:05:01Z</time></trkpt><trkpt lat="41.030993228590724" lon="9.373241257095083"><ele>172.5</ele><time>2026-04-30T12:05:02Z</time></trkpt><trkpt lat="41.031100626363184" lon="9.373344371662634"><ele>171.0</ele><time>2026-04-30T12:05:03Z</time></trkpt><trkpt lat="41.03120066117624" lon="9.373441938099123"><ele>171.0</ele><time>2026-04-30T12:05:04Z</time></trkpt><trkpt lat="41.03129386720592" lon="9.373532494368272"><ele>171.0</ele><time>2026-04-30T12:05:05Z</time></trkpt><trkpt lat="41.03138192727868" lon="9.373614832342138"><ele>171.0</ele><time>2026-04-30T12:05:06Z</time></trkpt><trkpt lat="41.031475160177905" lon="9.373691169269579"><ele>171.0</ele><time>2026-04-30T12:05:07Z</time></trkpt><trkpt lat="41.03157807644648" lon="9.373762912981878"><ele>171.0</ele><time>2026-04-30T12:05:08Z</time></trkpt><trkpt lat="41.03168864065757" lon="9.373819953163121"><ele>170.8</ele><time>2026-04-30T12:05:09Z</time></trkpt><trkpt lat="41.031797070577795" lon="9.373852418909477"><ele>170.60000000000002</ele><time>2026-04-30T12:05:10Z</time></trkpt><trkpt lat="41.03189758299683" lon="9.373875893623133"><ele>170.4</ele><time>2026-04-30T12:05:11Z</time></trkpt><trkpt lat="41.03198513395669" lon="9.373901811681378"><ele>170.2</ele><time>2026-04-30T12:05:12Z</time></trkpt><trkpt lat="41.0320514312358" lon="9.373931244698236"><ele>170.0</ele><time>2026-04-30T12:05:13Z</time></trkpt><trkpt lat="41.03212771926373" lon="9.373974174730156"><ele>170.0</ele><time>2026-04-30T12:05:15Z</time></trkpt><trkpt lat="41.032227335676296" lon="9.37399136243504"><ele>170.0</ele><time>2026-04-30T12:08:39.999Z</time></trkpt><trkpt lat="41.03233483773165" lon="9.37399430912515"><ele>170.0</ele><time>2026-04-30T12:08:41.999Z</time></trkpt><trkpt lat="41.032459752214635" lon="9.374007648050627"><ele>170.0</ele><time>2026-04-30T12:08:43.999Z</time></trkpt><trkpt lat="41.0325372500815" lon="9.374021259790462"><ele>170.0</ele><time>2026-04-30T12:08:44.999Z</time></trkpt><trkpt lat="41.03262063213884" lon="9.374039054438942"><ele>171.25</ele><time>2026-04-30T12:08:45.999Z</time></trkpt><trkpt lat="41.03272217856304" lon="9.374055622567878"><ele>172.5</ele><time>2026-04-30T12:08:46.999Z</time></trkpt><trkpt lat="41.03283142610254" lon="9.374050814570127"><ele>173.75</ele><time>2026-04-30T12:08:47.999Z</time></trkpt><trkpt lat="41.032950759572834" lon="9.374031597394064"><ele>175.0</ele><time>2026-04-30T12:08:48.999Z</time></trkpt><trkpt lat="41.03307588132478" lon="9.374003521207507"><ele>175.0</ele><time>2026-04-30T12:08:49.999Z</time></trkpt><trkpt lat="41.033213423793384" lon="9.373967762920174"><ele>175.0</ele><time>2026-04-30T12:08:50.999Z</time></trkpt><trkpt lat="41.033369755286124" lon="9.37392157900937"><ele>175.0</ele><time>2026-04-30T12:08:51.999Z</time></trkpt><trkpt lat="41.03354340090242" lon="9.37386957662163"><ele>173.0</ele><time>2026-04-30T12:08:52.999Z</time></trkpt><trkpt lat="41.033723205672715" lon="9.37381558308563"><ele>171.0</ele><time>2026-04-30T12:08:53.999Z</time></trkpt><trkpt lat="41.03388970223908" lon="9.373763711026266"><ele>169.0</ele><time>2026-04-30T12:08:54.999Z</time></trkpt><trkpt lat="41.03403879180567" lon="9.373723373876299"><ele>166.33333333333334</ele><time>2026-04-30T12:08:55.999Z</time></trkpt><trkpt lat="41.03419111734353" lon="9.373707945298884"><ele>163.66666666666666</ele><time>2026-04-30T12:08:56.999Z</time></trkpt><trkpt lat="41.03435474707757" lon="9.373718817328225"><ele>161.0</ele><time>2026-04-30T12:08:57.999Z</time></trkpt><trkpt lat="41.03453204148104" lon="9.3737521482218"><ele>161.0</ele><time>2026-04-30T12:08:58.999Z</time></trkpt><trkpt lat="41.03470318698949" lon="9.373807525813818"><ele>161.0</ele><time>2026-04-30T12:08:59.999Z</time></trkpt><trkpt lat="41.03486027286613" lon="9.37387301110751"><ele>161.0</ele><time>2026-04-30T12:09:00.999Z</time></trkpt><trkpt lat="41.03500510447241" lon="9.373924354600463"><ele>160.0</ele><time>2026-04-30T12:09:01.999Z</time></trkpt><trkpt lat="41.03515958776583" lon="9.3739677696777"><ele>159.0</ele><time>2026-04-30T12:09:02.999Z</time></trkpt><trkpt lat="41.03528818577015" lon="9.37403988076459"><ele>158.0</ele><time>2026-04-30T12:09:03.999Z</time></trkpt><trkpt lat="41.035401291911334" lon="9.374151008614778"><ele>157.0</ele><time>2026-04-30T12:09:04.999Z</time></trkpt><trkpt lat="41.035503328054745" lon="9.374301460264595"><ele>157.0</ele><time>2026-04-30T12:09:05.999Z</time></trkpt><trkpt lat="41.03559711177135" lon="9.374472029806295"><ele>157.0</ele><time>2026-04-30T12:09:06.999Z</time></trkpt><trkpt lat="41.03570276460289" lon="9.374655046616526"><ele>157.0</ele><time>2026-04-30T12:09:07.999Z</time></trkpt><trkpt lat="41.035821532148425" lon="9.374840443115643"><ele>154.0</ele><time>2026-04-30T12:09:08.999Z</time></trkpt><trkpt lat="41.03595500471098" lon="9.375033857784436"><ele>151.0</ele><time>2026-04-30T12:09:09.999Z</time></trkpt><trkpt lat="41.03610115102579" lon="9.375231493041"><ele>148.0</ele><time>2026-04-30T12:09:10.999Z</time></trkpt><trkpt lat="41.036243722607246" lon="9.375422486643176"><ele>146.0</ele><time>2026-04-30T12:09:11.999Z</time></trkpt><trkpt lat="41.03637990950745" lon="9.375602476197104"><ele>144.0</ele><time>2026-04-30T12:09:12.999Z</time></trkpt><trkpt lat="41.03651826722661" lon="9.375771830935983"><ele>142.0</ele><time>2026-04-30T12:09:13.999Z</time></trkpt><trkpt lat="41.03666134190468" lon="9.37591760053315"><ele>141.0</ele><time>2026-04-30T12:09:14.999Z</time></trkpt><trkpt lat="41.03681071594341" lon="9.376041626017471"><ele>140.0</ele><time>2026-04-30T12:09:15.999Z</time></trkpt><trkpt lat="41.036960239740424" lon="9.37615304732648"><ele>139.0</ele><time>2026-04-30T12:09:16.999Z</time></trkpt><trkpt lat="41.03710181574057" lon="9.376259389848602"><ele>138.25</ele><time>2026-04-30T12:09:17.999Z</time></trkpt><trkpt lat="41.03723058544435" lon="9.376356662317251"><ele>137.5</ele><time>2026-04-30T12:09:18.999Z</time></trkpt><trkpt lat="41.03736867239134" lon="9.376428688937104"><ele>136.75</ele><time>2026-04-30T12:09:19.999Z</time></trkpt><trkpt lat="41.03751778115247" lon="9.376460631594425"><ele>136.0</ele><time>2026-04-30T12:09:20.999Z</time></trkpt><trkpt lat="41.03768221621628" lon="9.376454153503536"><ele>134.66666666666669</ele><time>2026-04-30T12:09:21.999Z</time></trkpt><trkpt lat="41.037864025632345" lon="9.376442638429637"><ele>133.33333333333334</ele><time>2026-04-30T12:09:22.999Z</time></trkpt><trkpt lat="41.03806107957444" lon="9.376428109430789"><ele>132.0</ele><time>2026-04-30T12:09:23.999Z</time></trkpt><trkpt lat="41.038267176259865" lon="9.376409104186834"><ele>131.33333333333334</ele><time>2026-04-30T12:09:24.999Z</time></trkpt><trkpt lat="41.03847448070717" lon="9.376386839831872"><ele>130.66666666666669</ele><time>2026-04-30T12:09:25.999Z</time></trkpt><trkpt lat="41.03867287264113" lon="9.376357808931786"><ele>130.0</ele><time>2026-04-30T12:09:26.999Z</time></trkpt><trkpt lat="41.0388688328439" lon="9.376314599099967"><ele>130.0</ele><time>2026-04-30T12:09:27.999Z</time></trkpt><trkpt lat="41.03907044451882" lon="9.376257605399186"><ele>130.0</ele><time>2026-04-30T12:09:28.999Z</time></trkpt><trkpt lat="41.03928489053495" lon="9.376185713075609"><ele>130.0</ele><time>2026-04-30T12:09:29.999Z</time></trkpt><trkpt lat="41.039502159003256" lon="9.376111055021092"><ele>129.0</ele><time>2026-04-30T12:09:31Z</time></trkpt><trkpt lat="41.03970888648658" lon="9.37604160897197"><ele>128.0</ele><time>2026-04-30T12:09:32Z</time></trkpt><trkpt lat="41.03990386779462" lon="9.375981014273675"><ele>127.0</ele><time>2026-04-30T12:09:33Z</time></trkpt><trkpt lat="41.04010432651482" lon="9.375918907012272"><ele>126.0</ele><time>2026-04-30T12:09:34Z</time></trkpt><trkpt lat="41.04030570302019" lon="9.375857477769982"><ele>125.0</ele><time>2026-04-30T12:09:35Z</time></trkpt><trkpt lat="41.040505807116226" lon="9.375807946574"><ele>124.0</ele><time>2026-04-30T12:09:36Z</time></trkpt><trkpt lat="41.04069223997056" lon="9.375774562488242"><ele>122.66666666666667</ele><time>2026-04-30T12:09:37Z</time></trkpt><trkpt lat="41.0408751855628" lon="9.375755194042707"><ele>121.33333333333334</ele><time>2026-04-30T12:09:38Z</time></trkpt><trkpt lat="41.041056442884916" lon="9.3757351780083"><ele>120.0</ele><time>2026-04-30T12:09:39Z</time></trkpt><trkpt lat="41.041233298512445" lon="9.375723188599759"><ele>120.0</ele><time>2026-04-30T12:09:40Z</time></trkpt><trkpt lat="41.041398799175596" lon="9.375654417300149"><ele>120.0</ele><time>2026-04-30T12:09:41Z</time></trkpt><trkpt lat="41.04156350822687" lon="9.375591673340468"><ele>120.0</ele><time>2026-04-30T12:09:42Z</time></trkpt><trkpt lat="41.041722088290484" lon="9.375521761289297"><ele>119.33333333333334</ele><time>2026-04-30T12:09:43Z</time></trkpt><trkpt lat="41.041874111028555" lon="9.375458934007064"><ele>118.66666666666667</ele><time>2026-04-30T12:09:44Z</time></trkpt><trkpt lat="41.04202158155355" lon="9.375398960986367"><ele>118.0</ele><time>2026-04-30T12:09:45Z</time></trkpt><trkpt lat="41.04216486815827" lon="9.375336861462802"><ele>118.0</ele><time>2026-04-30T12:09:46Z</time></trkpt><trkpt lat="41.04230145605148" lon="9.375273565898732"><ele>118.0</ele><time>2026-04-30T12:09:47Z</time></trkpt><trkpt lat="41.04243673309707" lon="9.375215462508566"><ele>118.0</ele><time>2026-04-30T12:09:48Z</time></trkpt><trkpt lat="41.0425655650442" lon="9.375163682452698"><ele>118.0</ele><time>2026-04-30T12:09:49Z</time></trkpt><trkpt lat="41.04268583181908" lon="9.37511906909678"><ele>117.83333333333334</ele><time>2026-04-30T12:09:50Z</time></trkpt><trkpt lat="41.0427944736166" lon="9.375083417020756"><ele>117.66666666666667</ele><time>2026-04-30T12:09:51Z</time></trkpt><trkpt lat="41.042890413340245" lon="9.375066851106789"><ele>117.5</ele><time>2026-04-30T12:09:52Z</time></trkpt><trkpt lat="41.04296030359494" lon="9.375060903915685"><ele>117.33333333333334</ele><time>2026-04-30T12:09:53Z</time></trkpt><trkpt lat="41.043026482236534" lon="9.375077652675216"><ele>117.16666666666667</ele><time>2026-04-30T12:09:55Z</time></trkpt><trkpt lat="41.0430881865752" lon="9.37509823317168"><ele>117.0</ele><time>2026-04-30T12:09:56.998Z</time></trkpt><trkpt lat="41.04316283203834" lon="9.375141660989566"><ele>117.0</ele><time>2026-04-30T12:09:58.998Z</time></trkpt><trkpt lat="41.04323938102417" lon="9.375178128954925"><ele>116.99999999999999</ele><time>2026-04-30T12:09:59.998Z</time></trkpt><trkpt lat="41.043321327753446" lon="9.375220320680008"><ele>116.99999999999999</ele><time>2026-04-30T12:10:00.998Z</time></trkpt><trkpt lat="41.043426411299585" lon="9.375275401107897"><ele>117.0</ele><time>2026-04-30T12:10:01.998Z</time></trkpt><trkpt lat="41.043533090870795" lon="9.375328030390829"><ele>117.0</ele><time>2026-04-30T12:10:02.998Z</time></trkpt><trkpt lat="41.04363890957746" lon="9.375380427371084"><ele>116.25</ele><time>2026-04-30T12:10:03.998Z</time></trkpt><trkpt lat="41.04374377752925" lon="9.375431553812302"><ele>115.5</ele><time>2026-04-30T12:10:04.998Z</time></trkpt><trkpt lat="41.043861939608234" lon="9.375478125644651"><ele>114.75</ele><time>2026-04-30T12:10:05.998Z</time></trkpt><trkpt lat="41.04399123821012" lon="9.375519497045367"><ele>114.0</ele><time>2026-04-30T12:10:06.998Z</time></trkpt><trkpt lat="41.04413189192788" lon="9.375557117983753"><ele>112.75</ele><time>2026-04-30T12:10:07.998Z</time></trkpt><trkpt lat="41.044276455515316" lon="9.375588488065986"><ele>111.5</ele><time>2026-04-30T12:10:08.998Z</time></trkpt><trkpt lat="41.044414312508984" lon="9.375623328758527"><ele>110.25</ele><time>2026-04-30T12:10:09.998Z</time></trkpt><trkpt lat="41.044555206090955" lon="9.375660598035086"><ele>109.0</ele><time>2026-04-30T12:10:10.998Z</time></trkpt><trkpt lat="41.04470009631938" lon="9.375702438485938"><ele>109.0</ele><time>2026-04-30T12:10:11.998Z</time></trkpt><trkpt lat="41.04485537400257" lon="9.375742915996767"><ele>109.0</ele><time>2026-04-30T12:10:12.998Z</time></trkpt><trkpt lat="41.04502210420182" lon="9.375782305685846"><ele>109.0</ele><time>2026-04-30T12:10:13.998Z</time></trkpt><trkpt lat="41.045189731646936" lon="9.375821435948954"><ele>108.66666666666667</ele><time>2026-04-30T12:10:14.998Z</time></trkpt><trkpt lat="41.04536899910455" lon="9.375865632535342"><ele>108.33333333333334</ele><time>2026-04-30T12:10:15.998Z</time></trkpt><trkpt lat="41.04554809430519" lon="9.375909764071638"><ele>108.0</ele><time>2026-04-30T12:10:16.998Z</time></trkpt><trkpt lat="41.04572837488909" lon="9.375951640796742"><ele>106.33333333333334</ele><time>2026-04-30T12:10:17.998Z</time></trkpt><trkpt lat="41.045905747899305" lon="9.375991588363426"><ele>104.66666666666667</ele><time>2026-04-30T12:10:18.998Z</time></trkpt><trkpt lat="41.046080003598014" lon="9.376039100147704"><ele>103.0</ele><time>2026-04-30T12:10:19.999Z</time></trkpt><trkpt lat="41.046252059640175" lon="9.376083761120295"><ele>103.0</ele><time>2026-04-30T12:10:20.999Z</time></trkpt><trkpt lat="41.046425167526046" lon="9.37612509626609"><ele>103.0</ele><time>2026-04-30T12:10:21.999Z</time></trkpt><trkpt lat="41.0465927438789" lon="9.376168013176628"><ele>103.0</ele><time>2026-04-30T12:10:22.999Z</time></trkpt><trkpt lat="41.046752207729476" lon="9.3762102025054"><ele>101.0</ele><time>2026-04-30T12:10:23.999Z</time></trkpt><trkpt lat="41.04690209337279" lon="9.376249257935205"><ele>99.0</ele><time>2026-04-30T12:10:24.999Z</time></trkpt><trkpt lat="41.047049574857205" lon="9.37628423583304"><ele>97.0</ele><time>2026-04-30T12:10:25.999Z</time></trkpt><trkpt lat="41.04719167856874" lon="9.376306282215666"><ele>95.0</ele><time>2026-04-30T12:10:26.999Z</time></trkpt><trkpt lat="41.04733172160252" lon="9.376306571323932"><ele>94.5</ele><time>2026-04-30T12:10:27.999Z</time></trkpt><trkpt lat="41.04746888422925" lon="9.376262653185272"><ele>94.0</ele><time>2026-04-30T12:10:28.999Z</time></trkpt><trkpt lat="41.04760271577966" lon="9.376179456543502"><ele>93.5</ele><time>2026-04-30T12:10:29.999Z</time></trkpt><trkpt lat="41.04773173177562" lon="9.37607282288363"><ele>93.0</ele><time>2026-04-30T12:10:30.999Z</time></trkpt><trkpt lat="41.0478644771329" lon="9.375950439223375"><ele>93.0</ele><time>2026-04-30T12:10:31.999Z</time></trkpt><trkpt lat="41.048005884531854" lon="9.375817957765088"><ele>93.0</ele><time>2026-04-30T12:10:32.999Z</time></trkpt><trkpt lat="41.048158061979045" lon="9.375676613284936"><ele>93.0</ele><time>2026-04-30T12:10:33.999Z</time></trkpt><trkpt lat="41.04831027234534" lon="9.37553140945301"><ele>91.33333333333333</ele><time>2026-04-30T12:10:34.999Z</time></trkpt><trkpt lat="41.048480482962894" lon="9.375379458690903"><ele>89.66666666666666</ele><time>2026-04-30T12:10:35.999Z</time></trkpt><trkpt lat="41.04864469671265" lon="9.375227115379234"><ele>88.0</ele><time>2026-04-30T12:10:36.999Z</time></trkpt><trkpt lat="41.048800107748114" lon="9.375084080443967"><ele>88.0</ele><time>2026-04-30T12:10:37.999Z</time></trkpt><trkpt lat="41.0489455508113" lon="9.374947423741077"><ele>88.0</ele><time>2026-04-30T12:10:38.999Z</time></trkpt><trkpt lat="41.04908777470085" lon="9.374828032068713"><ele>88.0</ele><time>2026-04-30T12:10:39.999Z</time></trkpt><trkpt lat="41.04923959154425" lon="9.374738797241397"><ele>86.0</ele><time>2026-04-30T12:10:40.999Z</time></trkpt><trkpt lat="41.04940124800851" lon="9.37467879573082"><ele>84.0</ele><time>2026-04-30T12:10:41.999Z</time></trkpt><trkpt lat="41.049571710215105" lon="9.374644577472198"><ele>82.0</ele><time>2026-04-30T12:10:42.999Z</time></trkpt><trkpt lat="41.049746338969264" lon="9.374615350313908"><ele>82.0</ele><time>2026-04-30T12:10:43.999Z</time></trkpt><trkpt lat="41.049924296644285" lon="9.374593577565513"><ele>82.0</ele><time>2026-04-30T12:10:44.999Z</time></trkpt><trkpt lat="41.050103789465126" lon="9.37456997961919"><ele>82.0</ele><time>2026-04-30T12:10:45.999Z</time></trkpt><trkpt lat="41.05027351895487" lon="9.374541563213173"><ele>80.66666666666666</ele><time>2026-04-30T12:10:46.999Z</time></trkpt><trkpt lat="41.05043358785045" lon="9.374515320627417"><ele>79.33333333333333</ele><time>2026-04-30T12:10:47.999Z</time></trkpt><trkpt lat="41.05058669281633" lon="9.374493164920606"><ele>78.0</ele><time>2026-04-30T12:10:48.999Z</time></trkpt><trkpt lat="41.05072906613889" lon="9.374481078878892"><ele>77.75</ele><time>2026-04-30T12:10:49.999Z</time></trkpt><trkpt lat="41.050865657198" lon="9.374494908404365"><ele>77.5</ele><time>2026-04-30T12:10:50.999Z</time></trkpt><trkpt lat="41.05099278548364" lon="9.374544006526763"><ele>77.25</ele><time>2026-04-30T12:10:51.999Z</time></trkpt><trkpt lat="41.05110696309958" lon="9.374623101334606"><ele>77.0</ele><time>2026-04-30T12:10:52.999Z</time></trkpt><trkpt lat="41.05121056261654" lon="9.374721600560592"><ele>77.0</ele><time>2026-04-30T12:10:53.999Z</time></trkpt><trkpt lat="41.05130141239646" lon="9.374855666979931"><ele>77.0</ele><time>2026-04-30T12:10:54.999Z</time></trkpt><trkpt lat="41.051373180631685" lon="9.375017737982581"><ele>77.0</ele><time>2026-04-30T12:10:55.999Z</time></trkpt><trkpt lat="41.05145035245687" lon="9.375202599241861"><ele>77.0</ele><time>2026-04-30T12:10:56.999Z</time></trkpt><trkpt lat="41.051530710705805" lon="9.375403388131465"><ele>77.0</ele><time>2026-04-30T12:10:57.999Z</time></trkpt><trkpt lat="41.05161870903671" lon="9.375605490966732"><ele>77.0</ele><time>2026-04-30T12:10:58.999Z</time></trkpt><trkpt lat="41.05171131537867" lon="9.375798854009064"><ele>77.0</ele><time>2026-04-30T12:10:59.999Z</time></trkpt><trkpt lat="41.05182124206661" lon="9.375978083804595"><ele>73.33333333333334</ele><time>2026-04-30T12:11:00.999Z</time></trkpt><trkpt lat="41.05195135162831" lon="9.376136321854206"><ele>69.66666666666667</ele><time>2026-04-30T12:11:01.999Z</time></trkpt><trkpt lat="41.05210372767931" lon="9.376274493085754"><ele>66.0</ele><time>2026-04-30T12:11:02.999Z</time></trkpt><trkpt lat="41.052272161621424" lon="9.376402245590398"><ele>65.0</ele><time>2026-04-30T12:11:03.999Z</time></trkpt><trkpt lat="41.05244933801179" lon="9.376535638686882"><ele>64.0</ele><time>2026-04-30T12:11:04.999Z</time></trkpt><trkpt lat="41.0526292225532" lon="9.376676289776245"><ele>63.0</ele><time>2026-04-30T12:11:05.999Z</time></trkpt><trkpt lat="41.05280518399057" lon="9.376822039111165"><ele>60.66666666666667</ele><time>2026-04-30T12:11:07Z</time></trkpt><trkpt lat="41.05298575919512" lon="9.37698839383223"><ele>58.333333333333336</ele><time>2026-04-30T12:11:08Z</time></trkpt><trkpt lat="41.05315178601543" lon="9.377160184934734"><ele>56.0</ele><time>2026-04-30T12:11:09Z</time></trkpt><trkpt lat="41.05330970859304" lon="9.377332430204172"><ele>55.333333333333336</ele><time>2026-04-30T12:11:10Z</time></trkpt><trkpt lat="41.053463571835906" lon="9.377505536938447"><ele>54.66666666666667</ele><time>2026-04-30T12:11:11Z</time></trkpt><trkpt lat="41.05361820946775" lon="9.377668614853638"><ele>54.0</ele><time>2026-04-30T12:11:12Z</time></trkpt><trkpt lat="41.053765265761285" lon="9.37783212310156"><ele>54.0</ele><time>2026-04-30T12:11:13Z</time></trkpt><trkpt lat="41.05391085096229" lon="9.377989802132623"><ele>54.0</ele><time>2026-04-30T12:11:14Z</time></trkpt><trkpt lat="41.054052343911934" lon="9.378145293001728"><ele>54.0</ele><time>2026-04-30T12:11:15Z</time></trkpt><trkpt lat="41.05419082861767" lon="9.378294313917934"><ele>54.33333333333333</ele><time>2026-04-30T12:11:16Z</time></trkpt><trkpt lat="41.05432670595432" lon="9.378433661105532"><ele>54.666666666666664</ele><time>2026-04-30T12:11:17Z</time></trkpt><trkpt lat="41.05446202937598" lon="9.378565511328969"><ele>55.0</ele><time>2026-04-30T12:11:18Z</time></trkpt><trkpt lat="41.054598329493444" lon="9.378688701281327"><ele>55.0</ele><time>2026-04-30T12:11:19Z</time></trkpt><trkpt lat="41.054741134283496" lon="9.37881194105704"><ele>55.0</ele><time>2026-04-30T12:11:20Z</time></trkpt><trkpt lat="41.05487783457281" lon="9.37893105741828"><ele>55.0</ele><time>2026-04-30T12:11:21Z</time></trkpt><trkpt lat="41.05500078376526" lon="9.379045442784264"><ele>54.25</ele><time>2026-04-30T12:11:22Z</time></trkpt><trkpt lat="41.05511982324108" lon="9.37915465927328"><ele>53.5</ele><time>2026-04-30T12:11:23Z</time></trkpt><trkpt lat="41.05524071911275" lon="9.379263443020733"><ele>52.75</ele><time>2026-04-30T12:11:24Z</time></trkpt><trkpt lat="41.05535796853009" lon="9.379366533246962"><ele>52.0</ele><time>2026-04-30T12:11:25Z</time></trkpt><trkpt lat="41.05546654698284" lon="9.379462201197068"><ele>52.0</ele><time>2026-04-30T12:11:26Z</time></trkpt><trkpt lat="41.05556854361025" lon="9.37955319860226"><ele>52.0</ele><time>2026-04-30T12:11:27Z</time></trkpt><trkpt lat="41.05566377261105" lon="9.37963665186182"><ele>52.0</ele><time>2026-04-30T12:11:28Z</time></trkpt><trkpt lat="41.05574793504441" lon="9.379708319819336"><ele>52.0</ele><time>2026-04-30T12:11:29Z</time></trkpt><trkpt lat="41.055812586841" lon="9.379760844535104"><ele>52.0</ele><time>2026-04-30T12:11:30Z</time></trkpt><trkpt lat="41.05589176171193" lon="9.37984567575318"><ele>51.75</ele><time>2026-04-30T12:11:32Z</time></trkpt><trkpt lat="41.05602092518832" lon="9.379653737309916"><ele>51.5</ele><time>2026-04-30T12:11:37Z</time></trkpt><trkpt lat="41.05600573571876" lon="9.379456010866528"><ele>51.25</ele><time>2026-04-30T12:11:39Z</time></trkpt><trkpt lat="41.05601270791303" lon="9.379340526394538"><ele>51.0</ele><time>2026-04-30T12:11:40Z</time></trkpt><trkpt lat="41.056008247101666" lon="9.379199145943685"><ele>51.0</ele><time>2026-04-30T12:11:41Z</time></trkpt><trkpt lat="41.05600258811692" lon="9.379045029790259"><ele>51.0</ele><time>2026-04-30T12:11:42Z</time></trkpt><trkpt lat="41.05599589849196" lon="9.378861936669056"><ele>51.0</ele><time>2026-04-30T12:11:43Z</time></trkpt><trkpt lat="41.055988666967046" lon="9.378664011880586"><ele>51.0</ele><time>2026-04-30T12:11:44Z</time></trkpt><trkpt lat="41.05598109262626" lon="9.378456704245243"><ele>51.66666666666667</ele><time>2026-04-30T12:11:45Z</time></trkpt><trkpt lat="41.05597334006323" lon="9.378244518767438"><ele>52.333333333333336</ele><time>2026-04-30T12:11:46Z</time></trkpt><trkpt lat="41.05596540345448" lon="9.378027296004058"><ele>53.0</ele><time>2026-04-30T12:11:47Z</time></trkpt><trkpt lat="41.05595729343699" lon="9.377805327034299"><ele>54.0</ele><time>2026-04-30T12:11:48Z</time></trkpt><trkpt lat="41.05594924368514" lon="9.37758500759731"><ele>55.0</ele><time>2026-04-30T12:11:49Z</time></trkpt><trkpt lat="41.05594177857528" lon="9.377380689615416"><ele>56.0</ele><time>2026-04-30T12:11:50Z</time></trkpt><trkpt lat="41.055934854398714" lon="9.377191176579789"><ele>55.75</ele><time>2026-04-30T12:11:51Z</time></trkpt><trkpt lat="41.05592822149647" lon="9.377009636066557"><ele>55.5</ele><time>2026-04-30T12:11:52Z</time></trkpt><trkpt lat="41.05591839750346" lon="9.376828396767255"><ele>55.25</ele><time>2026-04-30T12:11:53Z</time></trkpt><trkpt lat="41.055900335902614" lon="9.376649572591374"><ele>55.0</ele><time>2026-04-30T12:11:54Z</time></trkpt><trkpt lat="41.05585811103812" lon="9.376480481613564"><ele>55.25</ele><time>2026-04-30T12:11:55Z</time></trkpt><trkpt lat="41.055812043695205" lon="9.37631927418238"><ele>55.5</ele><time>2026-04-30T12:11:56Z</time></trkpt><trkpt lat="41.0557505177411" lon="9.376147838636927"><ele>55.75</ele><time>2026-04-30T12:11:57Z</time></trkpt><trkpt lat="41.05567520681963" lon="9.37597438282071"><ele>56.0</ele><time>2026-04-30T12:11:58Z</time></trkpt><trkpt lat="41.055593125857044" lon="9.37579680122216"><ele>56.0</ele><time>2026-04-30T12:11:59Z</time></trkpt><trkpt lat="41.055504673700256" lon="9.375609432508249"><ele>56.0</ele><time>2026-04-30T12:12:00Z</time></trkpt><trkpt lat="41.05541255295772" lon="9.375422286007769"><ele>56.0</ele><time>2026-04-30T12:12:01Z</time></trkpt><trkpt lat="41.05531998401563" lon="9.375224327917673"><ele>57.0</ele><time>2026-04-30T12:12:02Z</time></trkpt><trkpt lat="41.05522145025044" lon="9.375027626186252"><ele>58.0</ele><time>2026-04-30T12:12:02.997Z</time></trkpt><trkpt lat="41.05512157674171" lon="9.37482728360776"><ele>59.0</ele><time>2026-04-30T12:12:03.997Z</time></trkpt><trkpt lat="41.05502532387498" lon="9.374624477188553"><ele>59.66666666666667</ele><time>2026-04-30T12:12:04.997Z</time></trkpt><trkpt lat="41.05492745420701" lon="9.3744286754113"><ele>60.33333333333333</ele><time>2026-04-30T12:12:05.997Z</time></trkpt><trkpt lat="41.05483005505601" lon="9.374234330981158"><ele>61.0</ele><time>2026-04-30T12:12:06.997Z</time></trkpt><trkpt lat="41.054737480045276" lon="9.374045112316946"><ele>61.0</ele><time>2026-04-30T12:12:07.997Z</time></trkpt><trkpt lat="41.054644976385774" lon="9.373856514606596"><ele>61.0</ele><time>2026-04-30T12:12:08.997Z</time></trkpt><trkpt lat="41.0545544393998" lon="9.373671425475594"><ele>61.0</ele><time>2026-04-30T12:12:09.997Z</time></trkpt><trkpt lat="41.05446300726767" lon="9.373491347014896"><ele>61.666666666666664</ele><time>2026-04-30T12:12:10.997Z</time></trkpt><trkpt lat="41.05437002415276" lon="9.373301640425282"><ele>62.33333333333333</ele><time>2026-04-30T12:12:11.997Z</time></trkpt><trkpt lat="41.05427554410349" lon="9.373100289728349"><ele>63.0</ele><time>2026-04-30T12:12:12.997Z</time></trkpt><trkpt lat="41.05419443956673" lon="9.372888622738076"><ele>63.0</ele><time>2026-04-30T12:12:13.998Z</time></trkpt><trkpt lat="41.054104211067695" lon="9.372694430547075"><ele>63.0</ele><time>2026-04-30T12:12:14.998Z</time></trkpt><trkpt lat="41.05401954169953" lon="9.372508024063599"><ele>63.0</ele><time>2026-04-30T12:12:15.998Z</time></trkpt><trkpt lat="41.05393298294585" lon="9.372317457942314"><ele>63.0</ele><time>2026-04-30T12:12:16.998Z</time></trkpt><trkpt lat="41.05384940058367" lon="9.37213545341178"><ele>63.0</ele><time>2026-04-30T12:12:17.998Z</time></trkpt><trkpt lat="41.05375313435127" lon="9.371961967855189"><ele>63.0</ele><time>2026-04-30T12:12:18.998Z</time></trkpt><trkpt lat="41.05367921040834" lon="9.371786700288373"><ele>63.0</ele><time>2026-04-30T12:12:19.998Z</time></trkpt><trkpt lat="41.0536045356913" lon="9.371621476164963"><ele>63.0</ele><time>2026-04-30T12:12:20.998Z</time></trkpt><trkpt lat="41.053535762792585" lon="9.371458287563806"><ele>63.0</ele><time>2026-04-30T12:12:21.998Z</time></trkpt><trkpt lat="41.05347563206253" lon="9.371298479546581"><ele>63.0</ele><time>2026-04-30T12:12:22.998Z</time></trkpt><trkpt lat="41.05342717601069" lon="9.371133998445849"><ele>63.75</ele><time>2026-04-30T12:12:23.998Z</time></trkpt><trkpt lat="41.05339366852461" lon="9.370963175091179"><ele>64.5</ele><time>2026-04-30T12:12:24.998Z</time></trkpt><trkpt lat="41.05337206959731" lon="9.370791906883937"><ele>65.25</ele><time>2026-04-30T12:12:25.998Z</time></trkpt><trkpt lat="41.05335743019834" lon="9.370607645761687"><ele>66.0</ele><time>2026-04-30T12:12:26.998Z</time></trkpt><trkpt lat="41.05333637098899" lon="9.370425992252356"><ele>66.0</ele><time>2026-04-30T12:12:27.999Z</time></trkpt><trkpt lat="41.05331774914221" lon="9.370239723886732"><ele>66.0</ele><time>2026-04-30T12:12:28.999Z</time></trkpt><trkpt lat="41.05330143157622" lon="9.370054572075754"><ele>66.0</ele><time>2026-04-30T12:12:29.999Z</time></trkpt><trkpt lat="41.05328328393291" lon="9.36986999383614"><ele>66.0</ele><time>2026-04-30T12:12:30.999Z</time></trkpt><trkpt lat="41.05326025414578" lon="9.369684138956071"><ele>67.0</ele><time>2026-04-30T12:12:31.999Z</time></trkpt><trkpt lat="41.05323817789144" lon="9.369492041265335"><ele>68.0</ele><time>2026-04-30T12:12:32.999Z</time></trkpt><trkpt lat="41.053218166470934" lon="9.369300664472915"><ele>69.0</ele><time>2026-04-30T12:12:33.999Z</time></trkpt><trkpt lat="41.05319607106596" lon="9.369103586452994"><ele>70.0</ele><time>2026-04-30T12:12:34.999Z</time></trkpt><trkpt lat="41.053173598275485" lon="9.368911568770317"><ele>69.66666666666666</ele><time>2026-04-30T12:12:35.999Z</time></trkpt><trkpt lat="41.05315418738854" lon="9.368715650808436"><ele>69.33333333333333</ele><time>2026-04-30T12:12:36.999Z</time></trkpt><trkpt lat="41.05313463067242" lon="9.368515901075671"><ele>69.0</ele><time>2026-04-30T12:12:37.999Z</time></trkpt><trkpt lat="41.053115567219635" lon="9.368317751971807"><ele>69.0</ele><time>2026-04-30T12:12:38.999Z</time></trkpt><trkpt lat="41.05309735383668" lon="9.368115408402934"><ele>69.0</ele><time>2026-04-30T12:12:39.999Z</time></trkpt><trkpt lat="41.05307248976825" lon="9.367912732712124"><ele>69.0</ele><time>2026-04-30T12:12:40.999Z</time></trkpt><trkpt lat="41.05304910903462" lon="9.36770717841404"><ele>69.0</ele><time>2026-04-30T12:12:41.999Z</time></trkpt><trkpt lat="41.05303111637791" lon="9.367498180212962"><ele>69.0</ele><time>2026-04-30T12:12:42.999Z</time></trkpt><trkpt lat="41.05301436783312" lon="9.36729643159463"><ele>69.0</ele><time>2026-04-30T12:12:43.999Z</time></trkpt><trkpt lat="41.05299457818985" lon="9.367101613070776"><ele>69.0</ele><time>2026-04-30T12:12:44.999Z</time></trkpt><trkpt lat="41.05297484614542" lon="9.366910959564747"><ele>69.0</ele><time>2026-04-30T12:12:45.999Z</time></trkpt><trkpt lat="41.052954177380116" lon="9.36672200598746"><ele>69.0</ele><time>2026-04-30T12:12:46.999Z</time></trkpt><trkpt lat="41.05293363670611" lon="9.366534896384971"><ele>69.0</ele><time>2026-04-30T12:12:47.999Z</time></trkpt><trkpt lat="41.05291146673129" lon="9.366348481101422"><ele>69.0</ele><time>2026-04-30T12:12:48.999Z</time></trkpt><trkpt lat="41.052891499929956" lon="9.366163550789443"><ele>69.0</ele><time>2026-04-30T12:12:49.999Z</time></trkpt><trkpt lat="41.0528713807836" lon="9.365982721800796"><ele>69.0</ele><time>2026-04-30T12:12:50.999Z</time></trkpt><trkpt lat="41.05284962932261" lon="9.36580018093139"><ele>69.0</ele><time>2026-04-30T12:12:51.999Z</time></trkpt><trkpt lat="41.05283148921062" lon="9.365614039068538"><ele>70.0</ele><time>2026-04-30T12:12:52.999Z</time></trkpt><trkpt lat="41.05281935169313" lon="9.365433387000744"><ele>71.0</ele><time>2026-04-30T12:12:53.999Z</time></trkpt><trkpt lat="41.05281632957289" lon="9.365248514888536"><ele>72.0</ele><time>2026-04-30T12:12:54.999Z</time></trkpt><trkpt lat="41.05282172275717" lon="9.365068747157057"><ele>73.0</ele><time>2026-04-30T12:12:55.999Z</time></trkpt><trkpt lat="41.05283655625991" lon="9.364889754548667"><ele>73.0</ele><time>2026-04-30T12:12:57Z</time></trkpt><trkpt lat="41.05285780956377" lon="9.364703853564786"><ele>73.0</ele><time>2026-04-30T12:12:58Z</time></trkpt><trkpt lat="41.052879064853414" lon="9.364508834831303"><ele>73.0</ele><time>2026-04-30T12:12:59Z</time></trkpt><trkpt lat="41.05289688883065" lon="9.364309453186063"><ele>73.0</ele><time>2026-04-30T12:13:00Z</time></trkpt><trkpt lat="41.0529161477546" lon="9.364104275420205"><ele>73.0</ele><time>2026-04-30T12:13:01Z</time></trkpt><trkpt lat="41.052943017574556" lon="9.363899520113403"><ele>73.0</ele><time>2026-04-30T12:13:02Z</time></trkpt><trkpt lat="41.05297081736389" lon="9.363691800138461"><ele>73.0</ele><time>2026-04-30T12:13:03Z</time></trkpt><trkpt lat="41.05298739914279" lon="9.36348184436373"><ele>73.0</ele><time>2026-04-30T12:13:04Z</time></trkpt><trkpt lat="41.053020935222264" lon="9.363270672526733"><ele>73.0</ele><time>2026-04-30T12:13:05Z</time></trkpt><trkpt lat="41.05303253106762" lon="9.363051675409913"><ele>73.0</ele><time>2026-04-30T12:13:06Z</time></trkpt><trkpt lat="41.0530569745366" lon="9.362834180468212"><ele>73.33333333333333</ele><time>2026-04-30T12:13:07Z</time></trkpt><trkpt lat="41.053077132327125" lon="9.362611431779241"><ele>73.66666666666667</ele><time>2026-04-30T12:13:08Z</time></trkpt><trkpt lat="41.05311736107636" lon="9.362382845210842"><ele>74.0</ele><time>2026-04-30T12:13:09Z</time></trkpt><trkpt lat="41.053143236533245" lon="9.362146349156395"><ele>74.66666666666667</ele><time>2026-04-30T12:13:10Z</time></trkpt><trkpt lat="41.053169686625154" lon="9.361908608903335"><ele>75.33333333333333</ele><time>2026-04-30T12:13:11Z</time></trkpt><trkpt lat="41.05319629735393" lon="9.361671093239769"><ele>76.0</ele><time>2026-04-30T12:13:12Z</time></trkpt><trkpt lat="41.05322194640842" lon="9.36143042282707"><ele>77.33333333333333</ele><time>2026-04-30T12:13:13Z</time></trkpt><trkpt lat="41.053231938352454" lon="9.361182816999579"><ele>78.66666666666667</ele><time>2026-04-30T12:13:14Z</time></trkpt><trkpt lat="41.053258846040634" lon="9.360947131855934"><ele>80.0</ele><time>2026-04-30T12:13:15Z</time></trkpt><trkpt lat="41.05328712983358" lon="9.360722930261275"><ele>83.33333333333334</ele><time>2026-04-30T12:13:16Z</time></trkpt><trkpt lat="41.053312973812325" lon="9.360502174076018"><ele>86.66666666666667</ele><time>2026-04-30T12:13:17Z</time></trkpt><trkpt lat="41.05333602750607" lon="9.360285601246225"><ele>90.0</ele><time>2026-04-30T12:13:18Z</time></trkpt><trkpt lat="41.053358391503316" lon="9.360072859359764"><ele>90.0</ele><time>2026-04-30T12:13:19Z</time></trkpt><trkpt lat="41.05338273189836" lon="9.359862123251014"><ele>90.0</ele><time>2026-04-30T12:13:20Z</time></trkpt><trkpt lat="41.05340578887483" lon="9.359657639549187"><ele>90.0</ele><time>2026-04-30T12:13:21Z</time></trkpt><trkpt lat="41.053424505852284" lon="9.359464504020565"><ele>90.0</ele><time>2026-04-30T12:13:22Z</time></trkpt><trkpt lat="41.053459209094584" lon="9.359282704023029"><ele>90.0</ele><time>2026-04-30T12:13:23Z</time></trkpt><trkpt lat="41.053472970922336" lon="9.359093357859924"><ele>90.0</ele><time>2026-04-30T12:13:24Z</time></trkpt><trkpt lat="41.05347256684922" lon="9.358902019905461"><ele>90.0</ele><time>2026-04-30T12:13:25Z</time></trkpt><trkpt lat="41.053455330674005" lon="9.358711162007713"><ele>90.25</ele><time>2026-04-30T12:13:26Z</time></trkpt><trkpt lat="41.05342945202041" lon="9.358526014497071"><ele>90.5</ele><time>2026-04-30T12:13:27Z</time></trkpt><trkpt lat="41.053402132762585" lon="9.358345488456228"><ele>90.75</ele><time>2026-04-30T12:13:28Z</time></trkpt><trkpt lat="41.053375066453455" lon="9.358165663212606"><ele>91.0</ele><time>2026-04-30T12:13:29Z</time></trkpt><trkpt lat="41.053345510095276" lon="9.357972681750889"><ele>91.0</ele><time>2026-04-30T12:13:30Z</time></trkpt><trkpt lat="41.05331721598584" lon="9.357788490969932"><ele>91.0</ele><time>2026-04-30T12:13:31Z</time></trkpt><trkpt lat="41.05329261578525" lon="9.357628346965805"><ele>91.0</ele><time>2026-04-30T12:13:32Z</time></trkpt><trkpt lat="41.053251153717206" lon="9.357467858678087"><ele>91.0</ele><time>2026-04-30T12:13:33Z</time></trkpt><trkpt lat="41.05322838285593" lon="9.357295776284916"><ele>91.0</ele><time>2026-04-30T12:13:34Z</time></trkpt><trkpt lat="41.05320678825426" lon="9.357124526513271"><ele>91.0</ele><time>2026-04-30T12:13:35Z</time></trkpt><trkpt lat="41.05317959243737" lon="9.356953640318153"><ele>91.0</ele><time>2026-04-30T12:13:36Z</time></trkpt><trkpt lat="41.05315276507733" lon="9.356780326109668"><ele>91.0</ele><time>2026-04-30T12:13:37Z</time></trkpt><trkpt lat="41.053127048847145" lon="9.356608233861353"><ele>91.0</ele><time>2026-04-30T12:13:38Z</time></trkpt><trkpt lat="41.05310035902309" lon="9.356436933417323"><ele>91.0</ele><time>2026-04-30T12:13:39Z</time></trkpt><trkpt lat="41.05307578206381" lon="9.356260761996978"><ele>91.0</ele><time>2026-04-30T12:13:40Z</time></trkpt><trkpt lat="41.05304977374662" lon="9.356088879615873"><ele>91.0</ele><time>2026-04-30T12:13:41Z</time></trkpt><trkpt lat="41.05302348694537" lon="9.355918679461881"><ele>90.75</ele><time>2026-04-30T12:13:42Z</time></trkpt><trkpt lat="41.052998015820826" lon="9.355745018661745"><ele>90.5</ele><time>2026-04-30T12:13:43Z</time></trkpt><trkpt lat="41.05297594960177" lon="9.35557290271026"><ele>90.25</ele><time>2026-04-30T12:13:44Z</time></trkpt><trkpt lat="41.052948762245826" lon="9.355387620750413"><ele>90.0</ele><time>2026-04-30T12:13:45Z</time></trkpt><trkpt lat="41.05291584795705" lon="9.355192724692847"><ele>90.0</ele><time>2026-04-30T12:13:46Z</time></trkpt><trkpt lat="41.05288150236898" lon="9.354983738645595"><ele>90.0</ele><time>2026-04-30T12:13:47Z</time></trkpt><trkpt lat="41.05285178821375" lon="9.35476632841442"><ele>90.0</ele><time>2026-04-30T12:13:48Z</time></trkpt><trkpt lat="41.052821108994955" lon="9.354540574471509"><ele>89.66666666666667</ele><time>2026-04-30T12:13:49Z</time></trkpt><trkpt lat="41.05279070338179" lon="9.354315818393253"><ele>89.33333333333334</ele><time>2026-04-30T12:13:50Z</time></trkpt><trkpt lat="41.052769662568785" lon="9.354090529340384"><ele>89.0</ele><time>2026-04-30T12:13:51Z</time></trkpt><trkpt lat="41.05276596504592" lon="9.353856105200746"><ele>89.0</ele><time>2026-04-30T12:13:52.001Z</time></trkpt><trkpt lat="41.05277443944739" lon="9.353610899581447"><ele>89.0</ele><time>2026-04-30T12:13:53.001Z</time></trkpt><trkpt lat="41.05279192255363" lon="9.353355994002714"><ele>89.0</ele><time>2026-04-30T12:13:54.001Z</time></trkpt><trkpt lat="41.05281532430311" lon="9.353103979426127"><ele>88.66666666666667</ele><time>2026-04-30T12:13:55.001Z</time></trkpt><trkpt lat="41.052834312476456" lon="9.35285350704955"><ele>88.33333333333333</ele><time>2026-04-30T12:13:56.001Z</time></trkpt><trkpt lat="41.052852873872986" lon="9.352600789615959"><ele>88.0</ele><time>2026-04-30T12:13:57.001Z</time></trkpt><trkpt lat="41.0528706380148" lon="9.352350716382785"><ele>88.33333333333333</ele><time>2026-04-30T12:13:58.001Z</time></trkpt><trkpt lat="41.05289003649636" lon="9.35210825959332"><ele>88.66666666666667</ele><time>2026-04-30T12:13:59.001Z</time></trkpt><trkpt lat="41.052904891457146" lon="9.351863439504594"><ele>89.0</ele><time>2026-04-30T12:14:00.001Z</time></trkpt><trkpt lat="41.05292007896517" lon="9.351626146113292"><ele>89.0</ele><time>2026-04-30T12:14:01.001Z</time></trkpt><trkpt lat="41.05293876985167" lon="9.351394375378584"><ele>89.0</ele><time>2026-04-30T12:14:02.001Z</time></trkpt><trkpt lat="41.052958747120925" lon="9.351172253228084"><ele>89.0</ele><time>2026-04-30T12:14:03.001Z</time></trkpt><trkpt lat="41.05297665268018" lon="9.350950009308734"><ele>90.0</ele><time>2026-04-30T12:14:04.001Z</time></trkpt><trkpt lat="41.05299455661288" lon="9.350734131764554"><ele>91.0</ele><time>2026-04-30T12:14:05.001Z</time></trkpt><trkpt lat="41.053010272704704" lon="9.350514937604814"><ele>92.0</ele><time>2026-04-30T12:14:06.001Z</time></trkpt><trkpt lat="41.05302521613171" lon="9.350302198117351"><ele>92.66666666666667</ele><time>2026-04-30T12:14:07.001Z</time></trkpt><trkpt lat="41.05304041820221" lon="9.350088480131612"><ele>93.33333333333333</ele><time>2026-04-30T12:14:08.001Z</time></trkpt><trkpt lat="41.05305089799708" lon="9.349886972625015"><ele>94.0</ele><time>2026-04-30T12:14:08.998Z</time></trkpt><trkpt lat="41.05304737637077" lon="9.349684523537343"><ele>94.33333333333333</ele><time>2026-04-30T12:14:09.998Z</time></trkpt><trkpt lat="41.05304021659743" lon="9.34948501591224"><ele>94.66666666666667</ele><time>2026-04-30T12:14:10.999Z</time></trkpt><trkpt lat="41.052977484391455" lon="9.349293792120795"><ele>95.0</ele><time>2026-04-30T12:14:11.999Z</time></trkpt><trkpt lat="41.05288365590931" lon="9.349102298545226"><ele>95.0</ele><time>2026-04-30T12:14:12.999Z</time></trkpt><trkpt lat="41.05274976176049" lon="9.348927948983555"><ele>95.0</ele><time>2026-04-30T12:14:13.999Z</time></trkpt><trkpt lat="41.052629774772385" lon="9.348715212475641"><ele>95.0</ele><time>2026-04-30T12:14:14.999Z</time></trkpt><trkpt lat="41.05248110806998" lon="9.34852090772845"><ele>96.0</ele><time>2026-04-30T12:14:15.999Z</time></trkpt><trkpt lat="41.05234584673941" lon="9.348312320542309"><ele>97.0</ele><time>2026-04-30T12:14:16.999Z</time></trkpt><trkpt lat="41.05221573195123" lon="9.348115387816474"><ele>98.0</ele><time>2026-04-30T12:14:17.999Z</time></trkpt><trkpt lat="41.052091732636654" lon="9.347930777818023"><ele>98.33333333333333</ele><time>2026-04-30T12:14:18.999Z</time></trkpt><trkpt lat="41.05197666030663" lon="9.347759878987231"><ele>98.66666666666666</ele><time>2026-04-30T12:14:19.999Z</time></trkpt><trkpt lat="41.051869370310875" lon="9.347596762647514"><ele>99.0</ele><time>2026-04-30T12:14:20.999Z</time></trkpt><trkpt lat="41.05177843048103" lon="9.347458344252273"><ele>99.0</ele><time>2026-04-30T12:14:21.999Z</time></trkpt><trkpt lat="41.051707686927095" lon="9.347353053421765"><ele>99.0</ele><time>2026-04-30T12:14:22.999Z</time></trkpt><trkpt lat="41.05166240342895" lon="9.347282560721602"><ele>99.0</ele><time>2026-04-30T12:14:23.999Z</time></trkpt><trkpt lat="41.05165574431304" lon="9.3471856605239"><ele>99.0</ele><time>2026-04-30T12:14:26.999Z</time></trkpt><trkpt lat="41.05172399472589" lon="9.347160958710981"><ele>99.0</ele><time>2026-04-30T12:14:40Z</time></trkpt><trkpt lat="41.051808963180946" lon="9.347064709718058"><ele>99.0</ele><time>2026-04-30T12:14:42Z</time></trkpt><trkpt lat="41.05186178861597" lon="9.346982329848737"><ele>99.0</ele><time>2026-04-30T12:14:44Z</time></trkpt><trkpt lat="41.05193274483483" lon="9.346973887748224"><ele>99.0</ele><time>2026-04-30T12:14:48Z</time></trkpt><trkpt lat="41.051978878093365" lon="9.347092083499444"><ele>99.0</ele><time>2026-04-30T12:14:49Z</time></trkpt><trkpt lat="41.05202096218121" lon="9.347170301560872"><ele>99.0</ele><time>2026-04-30T12:14:50Z</time></trkpt><trkpt lat="41.05207004259379" lon="9.347257394537829"><ele>99.0</ele><time>2026-04-30T12:14:51Z</time></trkpt><trkpt lat="41.05212632462957" lon="9.347371632053354"><ele>99.0</ele><time>2026-04-30T12:14:52Z</time></trkpt><trkpt lat="41.05219021031108" lon="9.347481637543764"><ele>99.0</ele><time>2026-04-30T12:14:53Z</time></trkpt><trkpt lat="41.05225164742659" lon="9.347603929488237"><ele>99.0</ele><time>2026-04-30T12:14:54Z</time></trkpt><trkpt lat="41.052320726512534" lon="9.34773797662139"><ele>99.0</ele><time>2026-04-30T12:14:55Z</time></trkpt><trkpt lat="41.05240268198939" lon="9.347871329916677"><ele>99.0</ele><time>2026-04-30T12:14:56Z</time></trkpt><trkpt lat="41.05248306232978" lon="9.347991837582123"><ele>98.6</ele><time>2026-04-30T12:14:57Z</time></trkpt><trkpt lat="41.052557609961305" lon="9.348106937997272"><ele>98.2</ele><time>2026-04-30T12:14:58Z</time></trkpt><trkpt lat="41.0526353183505" lon="9.348219068380658"><ele>97.8</ele><time>2026-04-30T12:14:59Z</time></trkpt><trkpt lat="41.05270588230193" lon="9.348332410824112"><ele>97.39999999999999</ele><time>2026-04-30T12:15:00Z</time></trkpt><trkpt lat="41.05277171645547" lon="9.348437802216951"><ele>97.0</ele><time>2026-04-30T12:15:01Z</time></trkpt><trkpt lat="41.05283438064681" lon="9.348530653943381"><ele>97.0</ele><time>2026-04-30T12:15:02Z</time></trkpt><trkpt lat="41.052897677434444" lon="9.34864278809767"><ele>97.0</ele><time>2026-04-30T12:15:03Z</time></trkpt><trkpt lat="41.052963549630825" lon="9.348742084662069"><ele>97.0</ele><time>2026-04-30T12:15:04Z</time></trkpt><trkpt lat="41.05303368873462" lon="9.34885071149029"><ele>97.0</ele><time>2026-04-30T12:15:05Z</time></trkpt><trkpt lat="41.05309894491025" lon="9.34895657108143"><ele>97.0</ele><time>2026-04-30T12:15:06Z</time></trkpt><trkpt lat="41.05316785393713" lon="9.349060576966792"><ele>96.5</ele><time>2026-04-30T12:15:07Z</time></trkpt><trkpt lat="41.053242632130754" lon="9.349177096823123"><ele>96.0</ele><time>2026-04-30T12:15:08Z</time></trkpt><trkpt lat="41.0533144186325" lon="9.349289817956024"><ele>95.5</ele><time>2026-04-30T12:15:09Z</time></trkpt><trkpt lat="41.0533892508055" lon="9.349406837312928"><ele>95.0</ele><time>2026-04-30T12:15:10Z</time></trkpt><trkpt lat="41.0534654678814" lon="9.349520225853553"><ele>94.8</ele><time>2026-04-30T12:15:11.001Z</time></trkpt><trkpt lat="41.05353939160584" lon="9.349631772434448"><ele>94.6</ele><time>2026-04-30T12:15:12.001Z</time></trkpt><trkpt lat="41.05361336078007" lon="9.3497485370321"><ele>94.4</ele><time>2026-04-30T12:15:13.001Z</time></trkpt><trkpt lat="41.05368168800953" lon="9.349858980509545"><ele>94.2</ele><time>2026-04-30T12:15:14.001Z</time></trkpt><trkpt lat="41.05375402397096" lon="9.349969981675256"><ele>94.0</ele><time>2026-04-30T12:15:15.001Z</time></trkpt><trkpt lat="41.053824924838054" lon="9.350078532174136"><ele>93.80000000000001</ele><time>2026-04-30T12:15:16.001Z</time></trkpt><trkpt lat="41.053888361844564" lon="9.350183098248209"><ele>93.60000000000001</ele><time>2026-04-30T12:15:17.001Z</time></trkpt><trkpt lat="41.05394824717839" lon="9.350285035751053"><ele>93.4</ele><time>2026-04-30T12:15:18.001Z</time></trkpt><trkpt lat="41.05400804550682" lon="9.350385212356361"><ele>93.2</ele><time>2026-04-30T12:15:19.001Z</time></trkpt><trkpt lat="41.054068102961004" lon="9.350481519252432"><ele>93.0</ele><time>2026-04-30T12:15:20.001Z</time></trkpt><trkpt lat="41.05413894151925" lon="9.350581064893323"><ele>93.4</ele><time>2026-04-30T12:15:21.001Z</time></trkpt><trkpt lat="41.054224891615505" lon="9.350673160504758"><ele>93.80000000000001</ele><time>2026-04-30T12:15:22.001Z</time></trkpt><trkpt lat="41.0543158255313" lon="9.350760627398046"><ele>94.2</ele><time>2026-04-30T12:15:23.001Z</time></trkpt><trkpt lat="41.05440731246766" lon="9.350841796700903"><ele>94.6</ele><time>2026-04-30T12:15:24.001Z</time></trkpt><trkpt lat="41.054493820045806" lon="9.350910914822597"><ele>95.0</ele><time>2026-04-30T12:15:25.001Z</time></trkpt><trkpt lat="41.05458768428875" lon="9.350974265538092"><ele>95.0</ele><time>2026-04-30T12:15:26.001Z</time></trkpt><trkpt lat="41.0546686073708" lon="9.351027681815092"><ele>95.0</ele><time>2026-04-30T12:15:27.001Z</time></trkpt><trkpt lat="41.05476956326267" lon="9.351065964486528"><ele>95.0</ele><time>2026-04-30T12:15:28.001Z</time></trkpt><trkpt lat="41.05487335705587" lon="9.35109494568417"><ele>95.0</ele><time>2026-04-30T12:15:29.001Z</time></trkpt><trkpt lat="41.054977574265614" lon="9.351111775418657"><ele>95.0</ele><time>2026-04-30T12:15:30.001Z</time></trkpt><trkpt lat="41.05508193333631" lon="9.351120082806085"><ele>94.8</ele><time>2026-04-30T12:15:31.001Z</time></trkpt><trkpt lat="41.05518647155197" lon="9.351116931277609"><ele>94.6</ele><time>2026-04-30T12:15:32.001Z</time></trkpt><trkpt lat="41.05528969695822" lon="9.351098659493761"><ele>94.4</ele><time>2026-04-30T12:15:33.001Z</time></trkpt><trkpt lat="41.05539241158832" lon="9.351061256012219"><ele>94.2</ele><time>2026-04-30T12:15:34.001Z</time></trkpt><trkpt lat="41.05550101190119" lon="9.351012115137186"><ele>94.0</ele><time>2026-04-30T12:15:35.001Z</time></trkpt><trkpt lat="41.055612303815984" lon="9.350956135297345"><ele>94.0</ele><time>2026-04-30T12:15:36.001Z</time></trkpt><trkpt lat="41.055721454736165" lon="9.35090027095006"><ele>94.0</ele><time>2026-04-30T12:15:37.001Z</time></trkpt><trkpt lat="41.05582901309025" lon="9.350844984774028"><ele>94.0</ele><time>2026-04-30T12:15:38.001Z</time></trkpt><trkpt lat="41.05593904786545" lon="9.350788594136212"><ele>94.0</ele><time>2026-04-30T12:15:39.001Z</time></trkpt><trkpt lat="41.056056019127766" lon="9.350724620977651"><ele>94.25</ele><time>2026-04-30T12:15:40.001Z</time></trkpt><trkpt lat="41.056173383846264" lon="9.350655458541295"><ele>94.5</ele><time>2026-04-30T12:15:41.001Z</time></trkpt><trkpt lat="41.0562848418071" lon="9.350593471842846"><ele>94.75</ele><time>2026-04-30T12:15:42.001Z</time></trkpt><trkpt lat="41.056393554399605" lon="9.350536290938742"><ele>95.0</ele><time>2026-04-30T12:15:43.001Z</time></trkpt><trkpt lat="41.05650150009921" lon="9.350480939179395"><ele>95.0</ele><time>2026-04-30T12:15:44.001Z</time></trkpt><trkpt lat="41.05660979279434" lon="9.35042416084818"><ele>95.0</ele><time>2026-04-30T12:15:45.001Z</time></trkpt><trkpt lat="41.05671335708997" lon="9.350369859906689"><ele>95.0</ele><time>2026-04-30T12:15:46.001Z</time></trkpt><trkpt lat="41.056810524025764" lon="9.350315113667039"><ele>95.0</ele><time>2026-04-30T12:15:47.001Z</time></trkpt><trkpt lat="41.05691115379566" lon="9.3502610739343"><ele>95.0</ele><time>2026-04-30T12:15:48.001Z</time></trkpt><trkpt lat="41.0570158928699" lon="9.350206058112166"><ele>94.0</ele><time>2026-04-30T12:15:49.001Z</time></trkpt><trkpt lat="41.057111799097" lon="9.350155476114532"><ele>93.0</ele><time>2026-04-30T12:15:50.001Z</time></trkpt><trkpt lat="41.05720438692118" lon="9.350116160269865"><ele>92.0</ele><time>2026-04-30T12:15:51.001Z</time></trkpt><trkpt lat="41.05729285670048" lon="9.350083991284693"><ele>91.0</ele><time>2026-04-30T12:15:52.001Z</time></trkpt><trkpt lat="41.05737474878271" lon="9.350067889298117"><ele>90.0</ele><time>2026-04-30T12:15:53.001Z</time></trkpt><trkpt lat="41.05745730324946" lon="9.35006779720774"><ele>89.83333333333333</ele><time>2026-04-30T12:15:54.001Z</time></trkpt><trkpt lat="41.05753732145661" lon="9.350077779091238"><ele>89.66666666666667</ele><time>2026-04-30T12:15:55.001Z</time></trkpt><trkpt lat="41.0576211076142" lon="9.350098506354053"><ele>89.5</ele><time>2026-04-30T12:15:56.001Z</time></trkpt><trkpt lat="41.05769997988053" lon="9.350120509960762"><ele>89.33333333333334</ele><time>2026-04-30T12:15:57.001Z</time></trkpt><trkpt lat="41.05778097918579" lon="9.350146399431905"><ele>89.16666666666667</ele><time>2026-04-30T12:15:58.002Z</time></trkpt><trkpt lat="41.057866343014" lon="9.350174678878457"><ele>89.0</ele><time>2026-04-30T12:15:59.002Z</time></trkpt><trkpt lat="41.05795203712626" lon="9.350204999779148"><ele>89.0</ele><time>2026-04-30T12:16:00.002Z</time></trkpt><trkpt lat="41.05804013966093" lon="9.35023707344995"><ele>89.0</ele><time>2026-04-30T12:16:01.002Z</time></trkpt><trkpt lat="41.058135138843895" lon="9.350271672049976"><ele>89.0</ele><time>2026-04-30T12:16:02.002Z</time></trkpt><trkpt lat="41.05821806737249" lon="9.350315921868848"><ele>89.0</ele><time>2026-04-30T12:16:03.002Z</time></trkpt><trkpt lat="41.058303207721494" lon="9.350366030005453"><ele>89.0</ele><time>2026-04-30T12:16:04.002Z</time></trkpt><trkpt lat="41.05838905099496" lon="9.350425490974471"><ele>88.80000000000001</ele><time>2026-04-30T12:16:05.002Z</time></trkpt><trkpt lat="41.05847787664471" lon="9.350493088130909"><ele>88.60000000000001</ele><time>2026-04-30T12:16:06.002Z</time></trkpt><trkpt lat="41.05856689900088" lon="9.350557047211279"><ele>88.4</ele><time>2026-04-30T12:16:07.002Z</time></trkpt><trkpt lat="41.058662788392446" lon="9.35062787851682"><ele>88.2</ele><time>2026-04-30T12:16:08.002Z</time></trkpt><trkpt lat="41.05876391615753" lon="9.350697285531341"><ele>88.0</ele><time>2026-04-30T12:16:09.002Z</time></trkpt><trkpt lat="41.05886260662073" lon="9.350764254369034"><ele>87.5</ele><time>2026-04-30T12:16:10.002Z</time></trkpt><trkpt lat="41.058962862636925" lon="9.350835046198966"><ele>87.0</ele><time>2026-04-30T12:16:11.002Z</time></trkpt><trkpt lat="41.05906135031887" lon="9.35090804762591"><ele>86.5</ele><time>2026-04-30T12:16:12.002Z</time></trkpt><trkpt lat="41.05915957968897" lon="9.350980729483943"><ele>86.0</ele><time>2026-04-30T12:16:13.002Z</time></trkpt><trkpt lat="41.059259019113654" lon="9.351053075113732"><ele>85.8</ele><time>2026-04-30T12:16:14.002Z</time></trkpt><trkpt lat="41.059359340999386" lon="9.351123495516521"><ele>85.6</ele><time>2026-04-30T12:16:15Z</time></trkpt><trkpt lat="41.05945834592861" lon="9.351191529981401"><ele>85.4</ele><time>2026-04-30T12:16:16Z</time></trkpt><trkpt lat="41.05955043537759" lon="9.351258858245412"><ele>85.2</ele><time>2026-04-30T12:16:17Z</time></trkpt><trkpt lat="41.05963799732267" lon="9.351324169608022"><ele>85.0</ele><time>2026-04-30T12:16:18Z</time></trkpt><trkpt lat="41.059719517026465" lon="9.351379203624404"><ele>84.8</ele><time>2026-04-30T12:16:19Z</time></trkpt><trkpt lat="41.05980409369252" lon="9.351448933317629"><ele>84.6</ele><time>2026-04-30T12:16:20Z</time></trkpt><trkpt lat="41.05990837015967" lon="9.351475595674398"><ele>84.4</ele><time>2026-04-30T12:16:21Z</time></trkpt><trkpt lat="41.060017408736094" lon="9.351473541995258"><ele>84.2</ele><time>2026-04-30T12:16:22Z</time></trkpt><trkpt lat="41.060130698230665" lon="9.351485224750373"><ele>84.0</ele><time>2026-04-30T12:16:23Z</time></trkpt><trkpt lat="41.060247528964986" lon="9.351496254524125"><ele>84.4</ele><time>2026-04-30T12:16:24Z</time></trkpt><trkpt lat="41.060357592527986" lon="9.351519456186661"><ele>84.80000000000001</ele><time>2026-04-30T12:16:25Z</time></trkpt><trkpt lat="41.0604485969723" lon="9.351512313396205"><ele>85.19999999999999</ele><time>2026-04-30T12:16:26Z</time></trkpt><trkpt lat="41.06056171601015" lon="9.351515523170404"><ele>85.6</ele><time>2026-04-30T12:16:27Z</time></trkpt><trkpt lat="41.06067547200043" lon="9.35152255293461"><ele>86.0</ele><time>2026-04-30T12:16:28Z</time></trkpt><trkpt lat="41.06079058943603" lon="9.351527916847155"><ele>86.0</ele><time>2026-04-30T12:16:29Z</time></trkpt><trkpt lat="41.06091522503016" lon="9.351534809689522"><ele>86.0</ele><time>2026-04-30T12:16:30Z</time></trkpt><trkpt lat="41.06104698892993" lon="9.351541728540296"><ele>86.0</ele><time>2026-04-30T12:16:31Z</time></trkpt><trkpt lat="41.06119195102296" lon="9.35154919316038"><ele>86.0</ele><time>2026-04-30T12:16:32Z</time></trkpt><trkpt lat="41.06133959373927" lon="9.351557419065736"><ele>86.0</ele><time>2026-04-30T12:16:33Z</time></trkpt><trkpt lat="41.06149391079921" lon="9.351587023299931"><ele>86.0</ele><time>2026-04-30T12:16:34Z</time></trkpt><trkpt lat="41.061647235084" lon="9.351574495738145"><ele>86.0</ele><time>2026-04-30T12:16:35Z</time></trkpt><trkpt lat="41.06179702043104" lon="9.35158350001582"><ele>85.75</ele><time>2026-04-30T12:16:36Z</time></trkpt><trkpt lat="41.061940468465316" lon="9.351589634842764"><ele>85.5</ele><time>2026-04-30T12:16:37Z</time></trkpt><trkpt lat="41.062079131230995" lon="9.351597011012181"><ele>85.25</ele><time>2026-04-30T12:16:38Z</time></trkpt><trkpt lat="41.06221848931088" lon="9.351603565013182"><ele>85.0</ele><time>2026-04-30T12:16:39Z</time></trkpt><trkpt lat="41.06235734835227" lon="9.351612399913147"><ele>86.0</ele><time>2026-04-30T12:16:40Z</time></trkpt><trkpt lat="41.062504145166926" lon="9.351617465298213"><ele>87.0</ele><time>2026-04-30T12:16:41Z</time></trkpt><trkpt lat="41.06264663236951" lon="9.351640545298462"><ele>88.0</ele><time>2026-04-30T12:16:42Z</time></trkpt><trkpt lat="41.06278761871836" lon="9.351647470726256"><ele>89.0</ele><time>2026-04-30T12:16:43Z</time></trkpt><trkpt lat="41.06292175711918" lon="9.351635068017794"><ele>89.0</ele><time>2026-04-30T12:16:44Z</time></trkpt><trkpt lat="41.06305205535365" lon="9.35164692775202"><ele>89.0</ele><time>2026-04-30T12:16:45Z</time></trkpt><trkpt lat="41.063175995636676" lon="9.351659264199268"><ele>89.0</ele><time>2026-04-30T12:16:46Z</time></trkpt><trkpt lat="41.06330093128716" lon="9.351667205080009"><ele>89.0</ele><time>2026-04-30T12:16:47Z</time></trkpt><trkpt lat="41.0634179444182" lon="9.351670387801333"><ele>91.2</ele><time>2026-04-30T12:16:48Z</time></trkpt><trkpt lat="41.06352054317134" lon="9.351674102171152"><ele>93.4</ele><time>2026-04-30T12:16:49Z</time></trkpt><trkpt lat="41.06362197551124" lon="9.35167810699424"><ele>95.6</ele><time>2026-04-30T12:16:50Z</time></trkpt><trkpt lat="41.063721689865595" lon="9.351686694158373"><ele>97.8</ele><time>2026-04-30T12:16:51Z</time></trkpt><trkpt lat="41.063813783279116" lon="9.351701662526837"><ele>100.0</ele><time>2026-04-30T12:16:52.001Z</time></trkpt><trkpt lat="41.063902503528645" lon="9.351717691725352"><ele>100.0</ele><time>2026-04-30T12:16:53.001Z</time></trkpt><trkpt lat="41.063984364905096" lon="9.35173356257041"><ele>100.0</ele><time>2026-04-30T12:16:54.001Z</time></trkpt><trkpt lat="41.06407024537393" lon="9.351779670718422"><ele>100.0</ele><time>2026-04-30T12:16:55.001Z</time></trkpt><trkpt lat="41.064158586078754" lon="9.351790875229947"><ele>100.0</ele><time>2026-04-30T12:16:56.001Z</time></trkpt><trkpt lat="41.064218951934414" lon="9.351817036279163"><ele>100.0</ele><time>2026-04-30T12:16:57.001Z</time></trkpt><trkpt lat="41.064347950870534" lon="9.351859004186748"><ele>101.0</ele><time>2026-04-30T12:16:58.001Z</time></trkpt><trkpt lat="41.06444856794029" lon="9.351892683978512"><ele>102.0</ele><time>2026-04-30T12:16:59.001Z</time></trkpt><trkpt lat="41.06454667608808" lon="9.351928511153412"><ele>103.0</ele><time>2026-04-30T12:17:00.001Z</time></trkpt><trkpt lat="41.06464773738357" lon="9.351967857455461"><ele>104.0</ele><time>2026-04-30T12:17:01.001Z</time></trkpt><trkpt lat="41.064749960583626" lon="9.35200740603343"><ele>105.0</ele><time>2026-04-30T12:17:02.001Z</time></trkpt><trkpt lat="41.064851905154754" lon="9.352043099864051"><ele>104.8</ele><time>2026-04-30T12:17:03.001Z</time></trkpt><trkpt lat="41.06496995031376" lon="9.35207327838597"><ele>104.6</ele><time>2026-04-30T12:17:04.001Z</time></trkpt><trkpt lat="41.0650563445624" lon="9.352112739279844"><ele>104.4</ele><time>2026-04-30T12:17:05.001Z</time></trkpt><trkpt lat="41.06516377429231" lon="9.352153504862583"><ele>104.2</ele><time>2026-04-30T12:17:06.001Z</time></trkpt><trkpt lat="41.06527535406811" lon="9.352194042017876"><ele>104.0</ele><time>2026-04-30T12:17:07.001Z</time></trkpt><trkpt lat="41.06538487104182" lon="9.352228247473501"><ele>103.6</ele><time>2026-04-30T12:17:08.001Z</time></trkpt><trkpt lat="41.06549139969929" lon="9.352272375706914"><ele>103.2</ele><time>2026-04-30T12:17:09.001Z</time></trkpt><trkpt lat="41.06560780334521" lon="9.352307037456852"><ele>102.8</ele><time>2026-04-30T12:17:10.001Z</time></trkpt><trkpt lat="41.06571205184778" lon="9.35233724370067"><ele>102.39999999999999</ele><time>2026-04-30T12:17:11.001Z</time></trkpt><trkpt lat="41.0658141289295" lon="9.35237430295991"><ele>102.0</ele><time>2026-04-30T12:17:12.001Z</time></trkpt><trkpt lat="41.06591648990828" lon="9.352415654450322"><ele>100.8</ele><time>2026-04-30T12:17:13.001Z</time></trkpt><trkpt lat="41.06601685794663" lon="9.352453966416974"><ele>99.6</ele><time>2026-04-30T12:17:14.001Z</time></trkpt><trkpt lat="41.06611352414142" lon="9.352511366435632"><ele>98.39999999999999</ele><time>2026-04-30T12:17:15.001Z</time></trkpt><trkpt lat="41.06620415428153" lon="9.35257924046961"><ele>97.19999999999999</ele><time>2026-04-30T12:17:16.001Z</time></trkpt><trkpt lat="41.06628384531939" lon="9.352675057989611"><ele>96.0</ele><time>2026-04-30T12:17:17.001Z</time></trkpt><trkpt lat="41.06640045510228" lon="9.35276759420451"><ele>96.0</ele><time>2026-04-30T12:17:18.001Z</time></trkpt><trkpt lat="41.06650384415361" lon="9.352863787181604"><ele>96.0</ele><time>2026-04-30T12:17:19.001Z</time></trkpt><trkpt lat="41.06660298332454" lon="9.352962939005293"><ele>96.0</ele><time>2026-04-30T12:17:20.001Z</time></trkpt><trkpt lat="41.066713891899354" lon="9.35306426812871"><ele>96.0</ele><time>2026-04-30T12:17:21.001Z</time></trkpt><trkpt lat="41.06682642557957" lon="9.353171614193759"><ele>94.75</ele><time>2026-04-30T12:17:22.001Z</time></trkpt><trkpt lat="41.0669352526049" lon="9.353263992844415"><ele>93.5</ele><time>2026-04-30T12:17:23.001Z</time></trkpt><trkpt lat="41.06704116016553" lon="9.353354449550727"><ele>92.25</ele><time>2026-04-30T12:17:24.001Z</time></trkpt><trkpt lat="41.06713859297758" lon="9.353445928680706"><ele>91.0</ele><time>2026-04-30T12:17:25.001Z</time></trkpt><trkpt lat="41.06724127358261" lon="9.353535498141154"><ele>91.0</ele><time>2026-04-30T12:17:26.001Z</time></trkpt><trkpt lat="41.06733537653329" lon="9.353617435005823"><ele>91.0</ele><time>2026-04-30T12:17:27.001Z</time></trkpt><trkpt lat="41.067429237620765" lon="9.353700775626642"><ele>91.0</ele><time>2026-04-30T12:17:28.001Z</time></trkpt><trkpt lat="41.06751845043154" lon="9.353791099920679"><ele>91.0</ele><time>2026-04-30T12:17:29.001Z</time></trkpt><trkpt lat="41.06761220129562" lon="9.35386802592733"><ele>91.0</ele><time>2026-04-30T12:17:30.001Z</time></trkpt><trkpt lat="41.06770737195213" lon="9.353943830009419"><ele>90.4</ele><time>2026-04-30T12:17:31.001Z</time></trkpt><trkpt lat="41.06779485280954" lon="9.354028952009976"><ele>89.8</ele><time>2026-04-30T12:17:32.001Z</time></trkpt><trkpt lat="41.06788796451127" lon="9.354107498494514"><ele>89.2</ele><time>2026-04-30T12:17:33.001Z</time></trkpt><trkpt lat="41.06797026249242" lon="9.354185273390073"><ele>88.60000000000001</ele><time>2026-04-30T12:17:34.001Z</time></trkpt><trkpt lat="41.068049256069706" lon="9.354257022438654"><ele>88.0</ele><time>2026-04-30T12:17:35.001Z</time></trkpt><trkpt lat="41.068124350803714" lon="9.354324312108885"><ele>88.0</ele><time>2026-04-30T12:17:36.001Z</time></trkpt><trkpt lat="41.06819987117261" lon="9.354401468317345"><ele>88.0</ele><time>2026-04-30T12:17:37.001Z</time></trkpt><trkpt lat="41.068270053676024" lon="9.35448499446149"><ele>88.0</ele><time>2026-04-30T12:17:38.001Z</time></trkpt><trkpt lat="41.06833608040893" lon="9.35458649334522"><ele>88.0</ele><time>2026-04-30T12:17:39.001Z</time></trkpt><trkpt lat="41.0683920412061" lon="9.354696567009748"><ele>88.0</ele><time>2026-04-30T12:17:40.001Z</time></trkpt><trkpt lat="41.068453860720474" lon="9.354815208160252"><ele>85.60000000000001</ele><time>2026-04-30T12:17:41.001Z</time></trkpt><trkpt lat="41.068506645367414" lon="9.354939144807426"><ele>83.2</ele><time>2026-04-30T12:17:42.002Z</time></trkpt><trkpt lat="41.068563304073905" lon="9.355070182598"><ele>80.8</ele><time>2026-04-30T12:17:43.002Z</time></trkpt><trkpt lat="41.06862290777392" lon="9.35519428259515"><ele>78.4</ele><time>2026-04-30T12:17:44.002Z</time></trkpt><trkpt lat="41.068683763054956" lon="9.355322789901258"><ele>76.0</ele><time>2026-04-30T12:17:45.002Z</time></trkpt><trkpt lat="41.0687483830484" lon="9.355457626363027"><ele>74.5</ele><time>2026-04-30T12:17:46.002Z</time></trkpt><trkpt lat="41.06881714223267" lon="9.355588067514486"><ele>73.0</ele><time>2026-04-30T12:17:47.002Z</time></trkpt><trkpt lat="41.06887801150077" lon="9.355724197061587"><ele>71.5</ele><time>2026-04-30T12:17:48.002Z</time></trkpt><trkpt lat="41.06894427543527" lon="9.355859249332633"><ele>70.0</ele><time>2026-04-30T12:17:49.002Z</time></trkpt><trkpt lat="41.06901059109646" lon="9.356003874302223"><ele>70.0</ele><time>2026-04-30T12:17:50.002Z</time></trkpt><trkpt lat="41.0690829025153" lon="9.356157345170558"><ele>70.0</ele><time>2026-04-30T12:17:51.002Z</time></trkpt><trkpt lat="41.06915485606958" lon="9.356319222819616"><ele>70.0</ele><time>2026-04-30T12:17:52.002Z</time></trkpt><trkpt lat="41.06923934016432" lon="9.356472463389162"><ele>70.0</ele><time>2026-04-30T12:17:53.002Z</time></trkpt><trkpt lat="41.069319679563336" lon="9.356641004866223"><ele>68.5</ele><time>2026-04-30T12:17:54.002Z</time></trkpt><trkpt lat="41.069381844381596" lon="9.356799622667236"><ele>67.0</ele><time>2026-04-30T12:17:55.002Z</time></trkpt><trkpt lat="41.06946059218695" lon="9.3569585104415"><ele>65.5</ele><time>2026-04-30T12:17:56.002Z</time></trkpt><trkpt lat="41.069539264295095" lon="9.357111329734694"><ele>64.0</ele><time>2026-04-30T12:17:57.002Z</time></trkpt><trkpt lat="41.069616750771786" lon="9.357267229477484"><ele>64.0</ele><time>2026-04-30T12:17:58.002Z</time></trkpt><trkpt lat="41.06968791800003" lon="9.35741333964277"><ele>64.0</ele><time>2026-04-30T12:17:59.002Z</time></trkpt><trkpt lat="41.069750572339494" lon="9.357552640769152"><ele>64.0</ele><time>2026-04-30T12:18:00.002Z</time></trkpt><trkpt lat="41.06981409569922" lon="9.357687361898915"><ele>64.0</ele><time>2026-04-30T12:18:01.002Z</time></trkpt><trkpt lat="41.06987860270033" lon="9.357824012998107"><ele>65.5</ele><time>2026-04-30T12:18:02.002Z</time></trkpt><trkpt lat="41.06994353285392" lon="9.357953774293517"><ele>67.0</ele><time>2026-04-30T12:18:03.002Z</time></trkpt><trkpt lat="41.07000601380009" lon="9.358091796984489"><ele>68.5</ele><time>2026-04-30T12:18:04.002Z</time></trkpt><trkpt lat="41.07006711863957" lon="9.358222787745705"><ele>70.0</ele><time>2026-04-30T12:18:05.002Z</time></trkpt><trkpt lat="41.07013102032602" lon="9.358350292651266"><ele>70.0</ele><time>2026-04-30T12:18:06.002Z</time></trkpt><trkpt lat="41.07019247870904" lon="9.3584888981701"><ele>70.0</ele><time>2026-04-30T12:18:07.002Z</time></trkpt><trkpt lat="41.07025549691675" lon="9.358617239738738"><ele>70.0</ele><time>2026-04-30T12:18:08.002Z</time></trkpt><trkpt lat="41.070322091915116" lon="9.35874328160417"><ele>70.0</ele><time>2026-04-30T12:18:09.002Z</time></trkpt><trkpt lat="41.070386138654804" lon="9.358871526837882"><ele>70.0</ele><time>2026-04-30T12:18:10.002Z</time></trkpt><trkpt lat="41.07045094951999" lon="9.359005159597723"><ele>70.0</ele><time>2026-04-30T12:18:11.002Z</time></trkpt><trkpt lat="41.0705162939388" lon="9.359141270311872"><ele>70.0</ele><time>2026-04-30T12:18:12.002Z</time></trkpt><trkpt lat="41.07057891500751" lon="9.35928570020291"><ele>70.0</ele><time>2026-04-30T12:18:13.002Z</time></trkpt><trkpt lat="41.07063250429754" lon="9.359434364097226"><ele>70.0</ele><time>2026-04-30T12:18:14.002Z</time></trkpt><trkpt lat="41.07067998868742" lon="9.3595901278568"><ele>70.0</ele><time>2026-04-30T12:18:15.002Z</time></trkpt><trkpt lat="41.07070923119849" lon="9.359752183394969"><ele>70.0</ele><time>2026-04-30T12:18:16.002Z</time></trkpt><trkpt lat="41.07074178613805" lon="9.359911665877727"><ele>70.0</ele><time>2026-04-30T12:18:17.002Z</time></trkpt><trkpt lat="41.070764771358036" lon="9.360060126870698"><ele>71.2</ele><time>2026-04-30T12:18:18.002Z</time></trkpt><trkpt lat="41.07078708628674" lon="9.36019966836475"><ele>72.4</ele><time>2026-04-30T12:18:19.002Z</time></trkpt><trkpt lat="41.07081169490209" lon="9.360346035128915"><ele>73.6</ele><time>2026-04-30T12:18:20.002Z</time></trkpt><trkpt lat="41.070836441087174" lon="9.360481536760771"><ele>74.8</ele><time>2026-04-30T12:18:21.001Z</time></trkpt><trkpt lat="41.07085717930363" lon="9.360614529778285"><ele>76.0</ele><time>2026-04-30T12:18:22.001Z</time></trkpt><trkpt lat="41.0708781046675" lon="9.360739069248183"><ele>76.0</ele><time>2026-04-30T12:18:23.001Z</time></trkpt><trkpt lat="41.07090534951789" lon="9.36085629157819"><ele>76.0</ele><time>2026-04-30T12:18:24.001Z</time></trkpt><trkpt lat="41.07093176926644" lon="9.360965948014535"><ele>76.0</ele><time>2026-04-30T12:18:25.001Z</time></trkpt><trkpt lat="41.07096577109726" lon="9.361065395396535"><ele>76.0</ele><time>2026-04-30T12:18:26.001Z</time></trkpt><trkpt lat="41.07101150036543" lon="9.361151933300807"><ele>76.0</ele><time>2026-04-30T12:18:27.001Z</time></trkpt><trkpt lat="41.07106778154402" lon="9.361237523898133"><ele>76.0</ele><time>2026-04-30T12:18:28.001Z</time></trkpt><trkpt lat="41.071123927163875" lon="9.361321358620215"><ele>74.8</ele><time>2026-04-30T12:18:29.001Z</time></trkpt><trkpt lat="41.07118560665836" lon="9.361418769411172"><ele>73.6</ele><time>2026-04-30T12:18:30.001Z</time></trkpt><trkpt lat="41.071251361024565" lon="9.361523457664752"><ele>72.4</ele><time>2026-04-30T12:18:31.001Z</time></trkpt><trkpt lat="41.071318088917096" lon="9.361633505733735"><ele>71.2</ele><time>2026-04-30T12:18:32.001Z</time></trkpt><trkpt lat="41.07139527031623" lon="9.36174877133232"><ele>70.0</ele><time>2026-04-30T12:18:33.001Z</time></trkpt><trkpt lat="41.07147076831344" lon="9.361860887566774"><ele>70.0</ele><time>2026-04-30T12:18:34.001Z</time></trkpt><trkpt lat="41.071548050409646" lon="9.361968500576813"><ele>70.0</ele><time>2026-04-30T12:18:35.001Z</time></trkpt><trkpt lat="41.071617729996" lon="9.362081771246315"><ele>70.0</ele><time>2026-04-30T12:18:36.001Z</time></trkpt><trkpt lat="41.071692474090405" lon="9.362188569179315"><ele>70.0</ele><time>2026-04-30T12:18:37.001Z</time></trkpt><trkpt lat="41.07175683067751" lon="9.362298684733998"><ele>70.0</ele><time>2026-04-30T12:18:38.001Z</time></trkpt><trkpt lat="41.071826231825945" lon="9.362401668850525"><ele>69.6</ele><time>2026-04-30T12:18:39.001Z</time></trkpt><trkpt lat="41.07189399587746" lon="9.362502131824854"><ele>69.2</ele><time>2026-04-30T12:18:40.001Z</time></trkpt><trkpt lat="41.07195968033547" lon="9.362612386913435"><ele>68.8</ele><time>2026-04-30T12:18:41.001Z</time></trkpt><trkpt lat="41.0720254624374" lon="9.362707346195092"><ele>68.4</ele><time>2026-04-30T12:18:42.001Z</time></trkpt><trkpt lat="41.07209239352673" lon="9.362809549548462"><ele>68.0</ele><time>2026-04-30T12:18:43.001Z</time></trkpt><trkpt lat="41.07216083509168" lon="9.362909289873976"><ele>68.0</ele><time>2026-04-30T12:18:44.001Z</time></trkpt><trkpt lat="41.07222981871692" lon="9.363011165526022"><ele>68.0</ele><time>2026-04-30T12:18:45.001Z</time></trkpt><trkpt lat="41.07229542199474" lon="9.36311352903671"><ele>68.0</ele><time>2026-04-30T12:18:46.001Z</time></trkpt><trkpt lat="41.0723623053293" lon="9.3632081676802"><ele>68.0</ele><time>2026-04-30T12:18:47.001Z</time></trkpt><trkpt lat="41.072422155523356" lon="9.363314398606715"><ele>68.0</ele><time>2026-04-30T12:18:48.001Z</time></trkpt><trkpt lat="41.07248181239519" lon="9.363423015925372"><ele>66.6</ele><time>2026-04-30T12:18:49.001Z</time></trkpt><trkpt lat="41.07253414846729" lon="9.36353597954023"><ele>65.19999999999999</ele><time>2026-04-30T12:18:50.001Z</time></trkpt><trkpt lat="41.07257345966439" lon="9.363652176375993"><ele>63.8</ele><time>2026-04-30T12:18:51.001Z</time></trkpt><trkpt lat="41.07260245887918" lon="9.363781440613046"><ele>62.4</ele><time>2026-04-30T12:18:52.001Z</time></trkpt><trkpt lat="41.07261903690867" lon="9.36393015555298"><ele>61.0</ele><time>2026-04-30T12:18:53.001Z</time></trkpt><trkpt lat="41.07265755109071" lon="9.364089802904596"><ele>60.0</ele><time>2026-04-30T12:18:54.001Z</time></trkpt><trkpt lat="41.07267961588272" lon="9.36423930058427"><ele>59.0</ele><time>2026-04-30T12:18:55.001Z</time></trkpt><trkpt lat="41.07271107074948" lon="9.364392190574199"><ele>58.0</ele><time>2026-04-30T12:18:56.001Z</time></trkpt><trkpt lat="41.07273603357298" lon="9.364542634992313"><ele>57.0</ele><time>2026-04-30T12:18:57.001Z</time></trkpt><trkpt lat="41.07276078985248" lon="9.364697095694972"><ele>56.5</ele><time>2026-04-30T12:18:58.001Z</time></trkpt><trkpt lat="41.07278797871994" lon="9.364853733549266"><ele>56.0</ele><time>2026-04-30T12:18:59.001Z</time></trkpt><trkpt lat="41.07281009869959" lon="9.364992866843274"><ele>55.5</ele><time>2026-04-30T12:19:00.001Z</time></trkpt><trkpt lat="41.07282743966058" lon="9.36515205353959"><ele>55.0</ele><time>2026-04-30T12:19:01.001Z</time></trkpt><trkpt lat="41.072860784239765" lon="9.365282909976361"><ele>55.0</ele><time>2026-04-30T12:19:02.001Z</time></trkpt><trkpt lat="41.0728849659452" lon="9.36542483647318"><ele>55.0</ele><time>2026-04-30T12:19:03.001Z</time></trkpt><trkpt lat="41.072909323057644" lon="9.365566215891421"><ele>55.0</ele><time>2026-04-30T12:19:04.001Z</time></trkpt><trkpt lat="41.07293289523674" lon="9.36570818132916"><ele>55.0</ele><time>2026-04-30T12:19:05.001Z</time></trkpt><trkpt lat="41.072952509016474" lon="9.365846718563413"><ele>55.0</ele><time>2026-04-30T12:19:06.001Z</time></trkpt><trkpt lat="41.07296899101863" lon="9.365980184892539"><ele>53.8</ele><time>2026-04-30T12:19:07.001Z</time></trkpt><trkpt lat="41.072989450870494" lon="9.366105782168033"><ele>52.6</ele><time>2026-04-30T12:19:08.001Z</time></trkpt><trkpt lat="41.073021672244856" lon="9.366226369414706"><ele>51.400000000000006</ele><time>2026-04-30T12:19:09.001Z</time></trkpt><trkpt lat="41.073061222718145" lon="9.366353441811686"><ele>50.2</ele><time>2026-04-30T12:19:10.001Z</time></trkpt><trkpt lat="41.07310614345555" lon="9.366481761756479"><ele>49.0</ele><time>2026-04-30T12:19:11.001Z</time></trkpt><trkpt lat="41.0731499729624" lon="9.366606852903123"><ele>47.800000000000004</ele><time>2026-04-30T12:19:12.001Z</time></trkpt><trkpt lat="41.0731995384573" lon="9.366725059301594"><ele>46.6</ele><time>2026-04-30T12:19:13.001Z</time></trkpt><trkpt lat="41.07324969966022" lon="9.366852453800803"><ele>45.4</ele><time>2026-04-30T12:19:14.001Z</time></trkpt><trkpt lat="41.07330547552932" lon="9.366982230633003"><ele>44.2</ele><time>2026-04-30T12:19:15.001Z</time></trkpt><trkpt lat="41.07335934893519" lon="9.36710586225426"><ele>43.0</ele><time>2026-04-30T12:19:16.001Z</time></trkpt><trkpt lat="41.073415374419035" lon="9.367236521289996"><ele>42.0</ele><time>2026-04-30T12:19:17.001Z</time></trkpt><trkpt lat="41.07347787683042" lon="9.367370162110728"><ele>41.0</ele><time>2026-04-30T12:19:18.001Z</time></trkpt><trkpt lat="41.07353690766402" lon="9.367519602054045"><ele>40.0</ele><time>2026-04-30T12:19:19.001Z</time></trkpt><trkpt lat="41.07359538313002" lon="9.36767463952319"><ele>39.0</ele><time>2026-04-30T12:19:20.001Z</time></trkpt><trkpt lat="41.07365278719131" lon="9.367826421946088"><ele>39.0</ele><time>2026-04-30T12:19:21.001Z</time></trkpt><trkpt lat="41.07370878927775" lon="9.367965251633269"><ele>39.0</ele><time>2026-04-30T12:19:22.001Z</time></trkpt><trkpt lat="41.07376935227363" lon="9.368114970597315"><ele>39.0</ele><time>2026-04-30T12:19:23.001Z</time></trkpt><trkpt lat="41.07383521367568" lon="9.368259812988917"><ele>39.0</ele><time>2026-04-30T12:19:24.001Z</time></trkpt><trkpt lat="41.07389096536962" lon="9.368407389505492"><ele>40.5</ele><time>2026-04-30T12:19:25.001Z</time></trkpt><trkpt lat="41.07395258910041" lon="9.368561803586198"><ele>42.0</ele><time>2026-04-30T12:19:26.001Z</time></trkpt><trkpt lat="41.07401853725098" lon="9.368715265960342"><ele>43.5</ele><time>2026-04-30T12:19:27.001Z</time></trkpt><trkpt lat="41.07408403404818" lon="9.36886664998242"><ele>45.0</ele><time>2026-04-30T12:19:28.001Z</time></trkpt><trkpt lat="41.07414774761772" lon="9.369017011298359"><ele>46.75</ele><time>2026-04-30T12:19:29.001Z</time></trkpt><trkpt lat="41.074211165837" lon="9.369166655229417"><ele>48.5</ele><time>2026-04-30T12:19:30.001Z</time></trkpt><trkpt lat="41.074269914959324" lon="9.369304795167404"><ele>50.25</ele><time>2026-04-30T12:19:31.001Z</time></trkpt><trkpt lat="41.07433612664526" lon="9.369447835881342"><ele>52.0</ele><time>2026-04-30T12:19:32.001Z</time></trkpt><trkpt lat="41.07439664943924" lon="9.369610251033214"><ele>53.75</ele><time>2026-04-30T12:19:33.001Z</time></trkpt><trkpt lat="41.07445731079327" lon="9.36976504507286"><ele>55.5</ele><time>2026-04-30T12:19:34.001Z</time></trkpt><trkpt lat="41.07452535373537" lon="9.36991516161901"><ele>57.25</ele><time>2026-04-30T12:19:35.001Z</time></trkpt><trkpt lat="41.07458939641421" lon="9.370056944244329"><ele>59.0</ele><time>2026-04-30T12:19:36.001Z</time></trkpt><trkpt lat="41.07465077949255" lon="9.370195615895634"><ele>59.0</ele><time>2026-04-30T12:19:37.001Z</time></trkpt><trkpt lat="41.074710126773965" lon="9.370338926210959"><ele>59.0</ele><time>2026-04-30T12:19:38.002Z</time></trkpt><trkpt lat="41.07476838473485" lon="9.37048526071543"><ele>59.0</ele><time>2026-04-30T12:19:39.002Z</time></trkpt><trkpt lat="41.07482490007513" lon="9.370628633921473"><ele>59.0</ele><time>2026-04-30T12:19:40.002Z</time></trkpt><trkpt lat="41.07487668014687" lon="9.370761149935568"><ele>60.25</ele><time>2026-04-30T12:19:41.002Z</time></trkpt><trkpt lat="41.07493660820173" lon="9.370897726178482"><ele>61.5</ele><time>2026-04-30T12:19:42.002Z</time></trkpt><trkpt lat="41.07499272300013" lon="9.37103836806428"><ele>62.75</ele><time>2026-04-30T12:19:43.002Z</time></trkpt><trkpt lat="41.07505164920873" lon="9.37117472604192"><ele>64.0</ele><time>2026-04-30T12:19:44.002Z</time></trkpt><trkpt lat="41.07511052425397" lon="9.37131630310776"><ele>66.0</ele><time>2026-04-30T12:19:45.002Z</time></trkpt><trkpt lat="41.07517630794293" lon="9.371463649272654"><ele>68.0</ele><time>2026-04-30T12:19:46.002Z</time></trkpt><trkpt lat="41.07523992925494" lon="9.371619134916898"><ele>70.0</ele><time>2026-04-30T12:19:47.002Z</time></trkpt><trkpt lat="41.07531024738514" lon="9.371783734035633"><ele>72.0</ele><time>2026-04-30T12:19:48.002Z</time></trkpt><trkpt lat="41.075376739728476" lon="9.371955001539801"><ele>72.0</ele><time>2026-04-30T12:19:49.002Z</time></trkpt><trkpt lat="41.07544552514544" lon="9.372126994542532"><ele>72.0</ele><time>2026-04-30T12:19:50.002Z</time></trkpt><trkpt lat="41.075513781531676" lon="9.37227996966892"><ele>72.0</ele><time>2026-04-30T12:19:51.002Z</time></trkpt><trkpt lat="41.07556493343924" lon="9.372433852449632"><ele>72.0</ele><time>2026-04-30T12:19:52.002Z</time></trkpt><trkpt lat="41.07561698725235" lon="9.372578939217622"><ele>72.5</ele><time>2026-04-30T12:19:53.002Z</time></trkpt><trkpt lat="41.07566089281668" lon="9.372720417281009"><ele>73.0</ele><time>2026-04-30T12:19:54.002Z</time></trkpt><trkpt lat="41.07569501078921" lon="9.372863839294379"><ele>73.5</ele><time>2026-04-30T12:19:55.002Z</time></trkpt><trkpt lat="41.07572413727046" lon="9.373013959593333"><ele>74.0</ele><time>2026-04-30T12:19:56.002Z</time></trkpt><trkpt lat="41.07574692404169" lon="9.37316084081947"><ele>74.0</ele><time>2026-04-30T12:19:57.002Z</time></trkpt><trkpt lat="41.075771769753764" lon="9.373299685625977"><ele>74.0</ele><time>2026-04-30T12:19:58.002Z</time></trkpt><trkpt lat="41.07579735020712" lon="9.373446649952498"><ele>74.0</ele><time>2026-04-30T12:19:59.002Z</time></trkpt><trkpt lat="41.07581934846171" lon="9.3735939285471"><ele>74.0</ele><time>2026-04-30T12:20:00.002Z</time></trkpt><trkpt lat="41.07584013954561" lon="9.373712858447911"><ele>74.0</ele><time>2026-04-30T12:20:01.002Z</time></trkpt><trkpt lat="41.075859211518456" lon="9.373835070313497"><ele>73.0</ele><time>2026-04-30T12:20:02.002Z</time></trkpt><trkpt lat="41.07587829397752" lon="9.373957598833481"><ele>72.0</ele><time>2026-04-30T12:20:03.002Z</time></trkpt><trkpt lat="41.07589360786319" lon="9.374076027062452"><ele>71.0</ele><time>2026-04-30T12:20:04.002Z</time></trkpt><trkpt lat="41.07591306785517" lon="9.374183658968215"><ele>70.0</ele><time>2026-04-30T12:20:05.002Z</time></trkpt><trkpt lat="41.07592973284841" lon="9.374275449129062"><ele>69.0</ele><time>2026-04-30T12:20:06.002Z</time></trkpt><trkpt lat="41.07595807371956" lon="9.37442075595704"><ele>69.0</ele><time>2026-04-30T12:20:08.002Z</time></trkpt><trkpt lat="41.07598140701627" lon="9.374513970149994"><ele>69.0</ele><time>2026-04-30T12:20:10.002Z</time></trkpt><trkpt lat="41.07601174221591" lon="9.374607003070677"><ele>69.0</ele><time>2026-04-30T12:20:13.002Z</time></trkpt><trkpt lat="41.07601476131102" lon="9.374702468095556"><ele>69.0</ele><time>2026-04-30T12:20:16.002Z</time></trkpt><trkpt lat="41.076022838180954" lon="9.37485578173691"><ele>69.0</ele><time>2026-04-30T12:20:18.002Z</time></trkpt><trkpt lat="41.07606806953628" lon="9.374929966062957"><ele>69.0</ele><time>2026-04-30T12:20:19.002Z</time></trkpt><trkpt lat="41.07612166686187" lon="9.375037999264768"><ele>68.2</ele><time>2026-04-30T12:20:20.002Z</time></trkpt><trkpt lat="41.07616762975026" lon="9.375160262039667"><ele>67.4</ele><time>2026-04-30T12:20:21.002Z</time></trkpt><trkpt lat="41.07620415156766" lon="9.375287047084765"><ele>66.6</ele><time>2026-04-30T12:20:22.002Z</time></trkpt><trkpt lat="41.076238260695526" lon="9.375416980767742"><ele>65.8</ele><time>2026-04-30T12:20:23.002Z</time></trkpt><trkpt lat="41.07627861398663" lon="9.37556021396418"><ele>65.0</ele><time>2026-04-30T12:20:24.002Z</time></trkpt><trkpt lat="41.0763167967748" lon="9.375714573332347"><ele>64.5</ele><time>2026-04-30T12:20:25.002Z</time></trkpt><trkpt lat="41.07635826182347" lon="9.375878902041599"><ele>64.0</ele><time>2026-04-30T12:20:26.002Z</time></trkpt><trkpt lat="41.07639468014922" lon="9.376043475324915"><ele>63.5</ele><time>2026-04-30T12:20:27.001Z</time></trkpt><trkpt lat="41.076427018772364" lon="9.376212003770846"><ele>63.0</ele><time>2026-04-30T12:20:28.001Z</time></trkpt><trkpt lat="41.07645942319758" lon="9.376373550550893"><ele>62.25</ele><time>2026-04-30T12:20:29.001Z</time></trkpt><trkpt lat="41.07649094930208" lon="9.376532775752828"><ele>61.5</ele><time>2026-04-30T12:20:30.001Z</time></trkpt><trkpt lat="41.07652438624401" lon="9.376684001970927"><ele>60.75</ele><time>2026-04-30T12:20:31.001Z</time></trkpt><trkpt lat="41.07654976690482" lon="9.376838425073768"><ele>60.0</ele><time>2026-04-30T12:20:32.001Z</time></trkpt><trkpt lat="41.07657817373207" lon="9.376987928369573"><ele>59.5</ele><time>2026-04-30T12:20:33.001Z</time></trkpt><trkpt lat="41.07660941556187" lon="9.377138104413069"><ele>59.0</ele><time>2026-04-30T12:20:34.001Z</time></trkpt><trkpt lat="41.07664224069894" lon="9.377286750793239"><ele>58.5</ele><time>2026-04-30T12:20:35.001Z</time></trkpt><trkpt lat="41.076674519058514" lon="9.37743509514986"><ele>58.0</ele><time>2026-04-30T12:20:36.001Z</time></trkpt><trkpt lat="41.07670478332613" lon="9.377582010053366"><ele>57.5</ele><time>2026-04-30T12:20:37.001Z</time></trkpt><trkpt lat="41.076732001358764" lon="9.37772801116917"><ele>57.0</ele><time>2026-04-30T12:20:38.001Z</time></trkpt><trkpt lat="41.07676123160007" lon="9.377875529183331"><ele>56.5</ele><time>2026-04-30T12:20:39.001Z</time></trkpt><trkpt lat="41.076793468673856" lon="9.378023620720963"><ele>56.0</ele><time>2026-04-30T12:20:40.001Z</time></trkpt><trkpt lat="41.076824341895104" lon="9.378172070959165"><ele>55.5</ele><time>2026-04-30T12:20:41.001Z</time></trkpt><trkpt lat="41.07685863819485" lon="9.37832014657321"><ele>55.0</ele><time>2026-04-30T12:20:42.001Z</time></trkpt><trkpt lat="41.07689038954784" lon="9.37846455389003"><ele>54.5</ele><time>2026-04-30T12:20:43.001Z</time></trkpt><trkpt lat="41.07691359500933" lon="9.378622014262124"><ele>54.0</ele><time>2026-04-30T12:20:44.001Z</time></trkpt><trkpt lat="41.07694918475541" lon="9.378778726032836"><ele>53.25</ele><time>2026-04-30T12:20:45.001Z</time></trkpt><trkpt lat="41.07698424509933" lon="9.37892418583857"><ele>52.5</ele><time>2026-04-30T12:20:46.001Z</time></trkpt><trkpt lat="41.07702153545635" lon="9.379068907809716"><ele>51.75</ele><time>2026-04-30T12:20:47.001Z</time></trkpt><trkpt lat="41.07705613434952" lon="9.379228317749044"><ele>51.0</ele><time>2026-04-30T12:20:48.001Z</time></trkpt><trkpt lat="41.077084886381314" lon="9.379386244433016"><ele>51.0</ele><time>2026-04-30T12:20:49.001Z</time></trkpt><trkpt lat="41.07711812932136" lon="9.379547705200984"><ele>51.0</ele><time>2026-04-30T12:20:50.001Z</time></trkpt><trkpt lat="41.07715047607509" lon="9.379708355612301"><ele>51.0</ele><time>2026-04-30T12:20:51.001Z</time></trkpt><trkpt lat="41.07718199764705" lon="9.37987267854163"><ele>51.0</ele><time>2026-04-30T12:20:52.001Z</time></trkpt><trkpt lat="41.07721655840103" lon="9.38003832599917"><ele>50.5</ele><time>2026-04-30T12:20:53.001Z</time></trkpt><trkpt lat="41.07725371824502" lon="9.38020699722722"><ele>50.0</ele><time>2026-04-30T12:20:54.001Z</time></trkpt><trkpt lat="41.07727364137443" lon="9.380386478211614"><ele>49.5</ele><time>2026-04-30T12:20:55.001Z</time></trkpt><trkpt lat="41.077307247252826" lon="9.380563900376833"><ele>49.0</ele><time>2026-04-30T12:20:56.001Z</time></trkpt><trkpt lat="41.07734036105081" lon="9.380738724592232"><ele>49.0</ele><time>2026-04-30T12:20:57.001Z</time></trkpt><trkpt lat="41.07737285117139" lon="9.380916218614217"><ele>49.0</ele><time>2026-04-30T12:20:58.001Z</time></trkpt><trkpt lat="41.07742092784359" lon="9.381089092565807"><ele>49.0</ele><time>2026-04-30T12:20:59.001Z</time></trkpt><trkpt lat="41.077441722048405" lon="9.381259802705168"><ele>49.0</ele><time>2026-04-30T12:21:00.001Z</time></trkpt><trkpt lat="41.0774698792364" lon="9.381426296636382"><ele>49.0</ele><time>2026-04-30T12:21:01.001Z</time></trkpt><trkpt lat="41.077500726501114" lon="9.381592256798818"><ele>49.0</ele><time>2026-04-30T12:21:02.001Z</time></trkpt><trkpt lat="41.07753410531677" lon="9.381762412156627"><ele>49.0</ele><time>2026-04-30T12:21:03.001Z</time></trkpt><trkpt lat="41.07756873833382" lon="9.38192732532217"><ele>49.0</ele><time>2026-04-30T12:21:04.001Z</time></trkpt><trkpt lat="41.07759778486523" lon="9.382086125394746"><ele>49.75</ele><time>2026-04-30T12:21:05.001Z</time></trkpt><trkpt lat="41.07762626733129" lon="9.38225216878624"><ele>50.5</ele><time>2026-04-30T12:21:06.001Z</time></trkpt><trkpt lat="41.07766014668499" lon="9.382416004503103"><ele>51.25</ele><time>2026-04-30T12:21:07.001Z</time></trkpt><trkpt lat="41.077699222015355" lon="9.382572041838806"><ele>52.0</ele><time>2026-04-30T12:21:08.001Z</time></trkpt><trkpt lat="41.07773860533414" lon="9.382719821713396"><ele>52.0</ele><time>2026-04-30T12:21:09.001Z</time></trkpt><trkpt lat="41.0777749702839" lon="9.382871494854758"><ele>52.0</ele><time>2026-04-30T12:21:10.001Z</time></trkpt><trkpt lat="41.0778087160574" lon="9.383025141110638"><ele>52.0</ele><time>2026-04-30T12:21:11.001Z</time></trkpt><trkpt lat="41.07783968493644" lon="9.383181004207051"><ele>52.0</ele><time>2026-04-30T12:21:12.001Z</time></trkpt><trkpt lat="41.07787580551114" lon="9.38332692310144"><ele>52.6</ele><time>2026-04-30T12:21:13.001Z</time></trkpt><trkpt lat="41.077905686777946" lon="9.383465895162624"><ele>53.2</ele><time>2026-04-30T12:21:14.001Z</time></trkpt><trkpt lat="41.07793791366334" lon="9.383599736350806"><ele>53.8</ele><time>2026-04-30T12:21:15.001Z</time></trkpt><trkpt lat="41.077968189731976" lon="9.383727967718496"><ele>54.4</ele><time>2026-04-30T12:21:16.001Z</time></trkpt><trkpt lat="41.0779993018816" lon="9.383849513276438"><ele>55.0</ele><time>2026-04-30T12:21:17.001Z</time></trkpt><trkpt lat="41.078025861565074" lon="9.383963343309349"><ele>54.99999999999999</ele><time>2026-04-30T12:21:18.001Z</time></trkpt><trkpt lat="41.07805146962779" lon="9.384070880410942"><ele>55.0</ele><time>2026-04-30T12:21:19.001Z</time></trkpt><trkpt lat="41.07807870243288" lon="9.384166934017994"><ele>55.0</ele><time>2026-04-30T12:21:20.001Z</time></trkpt><trkpt lat="41.07810239796475" lon="9.384253818887181"><ele>55.0</ele><time>2026-04-30T12:21:21.001Z</time></trkpt><trkpt lat="41.07813419230662" lon="9.38439401006976"><ele>54.99999999999999</ele><time>2026-04-30T12:21:23.001Z</time></trkpt><trkpt lat="41.078158217160635" lon="9.384485549605015"><ele>55.0</ele><time>2026-04-30T12:21:25.001Z</time></trkpt><trkpt lat="41.07820703423181" lon="9.38460772193979"><ele>55.4</ele><time>2026-04-30T12:26:55.001Z</time></trkpt><trkpt lat="41.07822644653993" lon="9.384755273738254"><ele>55.8</ele><time>2026-04-30T12:26:57.001Z</time></trkpt><trkpt lat="41.078255088982985" lon="9.384891598471459"><ele>56.2</ele><time>2026-04-30T12:26:59.001Z</time></trkpt><trkpt lat="41.078295114674724" lon="9.38502372172275"><ele>56.6</ele><time>2026-04-30T12:27:01.001Z</time></trkpt><trkpt lat="41.07833406553397" lon="9.385165648629023"><ele>57.0</ele><time>2026-04-30T12:27:03.001Z</time></trkpt><trkpt lat="41.07835722887703" lon="9.385254284829722"><ele>57.333333333333336</ele><time>2026-04-30T12:27:04.001Z</time></trkpt><trkpt lat="41.078395081567685" lon="9.385365248640946"><ele>57.66666666666667</ele><time>2026-04-30T12:27:05.001Z</time></trkpt><trkpt lat="41.07843947840977" lon="9.385481942757405"><ele>58.0</ele><time>2026-04-30T12:27:06.001Z</time></trkpt><trkpt lat="41.07848209909061" lon="9.38557761599737"><ele>58.333333333333336</ele><time>2026-04-30T12:27:07.001Z</time></trkpt><trkpt lat="41.07852732399659" lon="9.385675560337187"><ele>58.66666666666667</ele><time>2026-04-30T12:27:08.001Z</time></trkpt><trkpt lat="41.07857147333649" lon="9.38577521812343"><ele>59.0</ele><time>2026-04-30T12:27:09.001Z</time></trkpt><trkpt lat="41.07861567540396" lon="9.385863575548251"><ele>59.16666666666667</ele><time>2026-04-30T12:27:10.001Z</time></trkpt><trkpt lat="41.07865828940552" lon="9.385945190029984"><ele>59.333333333333336</ele><time>2026-04-30T12:27:11.001Z</time></trkpt><trkpt lat="41.07870334482548" lon="9.386023880094879"><ele>59.5</ele><time>2026-04-30T12:27:12.001Z</time></trkpt><trkpt lat="41.07875546721572" lon="9.386104620984193"><ele>59.66666666666667</ele><time>2026-04-30T12:27:13.001Z</time></trkpt><trkpt lat="41.078787950933496" lon="9.386182787143404"><ele>59.833333333333336</ele><time>2026-04-30T12:27:14.001Z</time></trkpt><trkpt lat="41.078844428519034" lon="9.386302503624542"><ele>60.0</ele><time>2026-04-30T12:27:16.001Z</time></trkpt><trkpt lat="41.07887850280432" lon="9.386376817560429"><ele>60.0</ele><time>2026-04-30T12:27:18.001Z</time></trkpt><trkpt lat="41.07894941487216" lon="9.386340881565319"><ele>60.0</ele><time>2026-04-30T12:27:19.001Z</time></trkpt><trkpt lat="41.07903181003285" lon="9.386266689471226"><ele>60.0</ele><time>2026-04-30T12:27:21.001Z</time></trkpt><trkpt lat="41.079131442822195" lon="9.386174451332753"><ele>60.0</ele><time>2026-04-30T12:27:23.001Z</time></trkpt><trkpt lat="41.07918558084854" lon="9.38612215054773"><ele>60.0</ele><time>2026-04-30T12:27:24.001Z</time></trkpt><trkpt lat="41.079292388139535" lon="9.386032982804613"><ele>59.6</ele><time>2026-04-30T12:27:26.001Z</time></trkpt><trkpt lat="41.0793872173282" lon="9.38594768425002"><ele>59.2</ele><time>2026-04-30T12:27:28.001Z</time></trkpt><trkpt lat="41.079463094662856" lon="9.385897616947995"><ele>58.8</ele><time>2026-04-30T12:27:30.001Z</time></trkpt><trkpt lat="41.07952832339875" lon="9.385856144526013"><ele>58.4</ele><time>2026-04-30T12:27:32.001Z</time></trkpt><trkpt lat="41.079606012931485" lon="9.385806013279689"><ele>58.0</ele><time>2026-04-30T12:27:34.001Z</time></trkpt><trkpt lat="41.0797126158119" lon="9.385746603073914"><ele>58.0</ele><time>2026-04-30T12:27:36.001Z</time></trkpt><trkpt lat="41.0797855614125" lon="9.38566591093517"><ele>58.0</ele><time>2026-04-30T12:27:38.001Z</time></trkpt><trkpt lat="41.07988504815637" lon="9.385726275260067"><ele>58.0</ele><time>2026-04-30T12:27:42.001Z</time></trkpt><trkpt lat="41.07995617490877" lon="9.385824850295766"><ele>58.0</ele><time>2026-04-30T12:27:44.002Z</time></trkpt><trkpt lat="41.080034214903165" lon="9.385848739140329"><ele>58.0</ele><time>2026-04-30T12:27:46.002Z</time></trkpt><trkpt lat="41.08010676771825" lon="9.385783620792134"><ele>57.599999999999994</ele><time>2026-04-30T12:27:48.002Z</time></trkpt><trkpt lat="41.080166361431544" lon="9.385746923426801"><ele>57.199999999999996</ele><time>2026-04-30T12:27:51.002Z</time></trkpt><trkpt lat="41.08022655628147" lon="9.385813191082235"><ele>56.8</ele><time>2026-04-30T12:27:53.002Z</time></trkpt><trkpt lat="41.080316605005045" lon="9.385899285105392"><ele>56.4</ele><time>2026-04-30T12:27:55.002Z</time></trkpt><trkpt lat="41.08041385084783" lon="9.386119772688227"><ele>56.0</ele><time>2026-04-30T12:27:57Z</time></trkpt><trkpt lat="41.08051188642484" lon="9.386149928271154"><ele>56.0</ele><time>2026-04-30T12:27:58Z</time></trkpt><trkpt lat="41.08062552689292" lon="9.385630878377105"><ele>56.0</ele><time>2026-04-30T12:28:02Z</time></trkpt><trkpt lat="41.08068149235639" lon="9.385576811408551"><ele>58.0</ele><time>2026-04-30T12:28:04Z</time></trkpt><trkpt lat="41.08104146888623" lon="9.385982829675585"><ele>56.0</ele><time>2026-04-30T12:28:06Z</time></trkpt><trkpt lat="41.08060908443377" lon="9.385648892877049"><ele>56.0</ele><time>2026-04-30T12:28:31Z</time></trkpt><trkpt lat="41.080562249691624" lon="9.385708208254442"><ele>56.0</ele><time>2026-04-30T12:28:33Z</time></trkpt><trkpt lat="41.08051008642338" lon="9.385769739317203"><ele>56.0</ele><time>2026-04-30T12:28:35Z</time></trkpt><trkpt lat="41.080452299010254" lon="9.385812830486636"><ele>56.0</ele><time>2026-04-30T12:28:37Z</time></trkpt><trkpt lat="41.08040236294952" lon="9.385900414101066"><ele>56.0</ele><time>2026-04-30T12:28:40Z</time></trkpt><trkpt lat="41.080405944829124" lon="9.38599198510177"><ele>56.0</ele><time>2026-04-30T12:28:42.001Z</time></trkpt><trkpt lat="41.080460384190836" lon="9.38609730003079"><ele>56.0</ele><time>2026-04-30T12:28:44.001Z</time></trkpt><trkpt lat="41.080543575408285" lon="9.386132904768118"><ele>56.0</ele><time>2026-04-30T12:28:46.001Z</time></trkpt><trkpt lat="41.080650101439694" lon="9.386099524831048"><ele>55.99999999999999</ele><time>2026-04-30T12:28:48.001Z</time></trkpt><trkpt lat="41.08074392755465" lon="9.386085305980998"><ele>55.99999999999999</ele><time>2026-04-30T12:28:50.001Z</time></trkpt><trkpt lat="41.08083349420917" lon="9.386083345190604"><ele>56.0</ele><time>2026-04-30T12:28:52.001Z</time></trkpt><trkpt lat="41.080937555114474" lon="9.386019033231925"><ele>56.0</ele><time>2026-04-30T12:28:54.001Z</time></trkpt><trkpt lat="41.08102903507521" lon="9.385961700894839"><ele>55.8</ele><time>2026-04-30T12:28:56.001Z</time></trkpt><trkpt lat="41.08110875356026" lon="9.385882509029573"><ele>55.599999999999994</ele><time>2026-04-30T12:28:58.001Z</time></trkpt><trkpt lat="41.08118637017671" lon="9.385778061123121"><ele>55.4</ele><time>2026-04-30T12:29:00.001Z</time></trkpt><trkpt lat="41.081258556799604" lon="9.385693885789147"><ele>55.2</ele><time>2026-04-30T12:29:02.001Z</time></trkpt><trkpt lat="41.08134335318723" lon="9.385628084664765"><ele>55.0</ele><time>2026-04-30T12:29:04.001Z</time></trkpt><trkpt lat="41.08133751216822" lon="9.385482391173808"><ele>55.0</ele><time>2026-04-30T12:29:06.001Z</time></trkpt><trkpt lat="41.08128032103423" lon="9.385359242082412"><ele>55.0</ele><time>2026-04-30T12:29:08.001Z</time></trkpt><trkpt lat="41.08121120779345" lon="9.385247051040755"><ele>55.0</ele><time>2026-04-30T12:29:10.001Z</time></trkpt><trkpt lat="41.08114922147036" lon="9.385143667801051"><ele>55.0</ele><time>2026-04-30T12:29:12.001Z</time></trkpt><trkpt lat="41.08110294607392" lon="9.385056813361931"><ele>55.0</ele><time>2026-04-30T12:29:14.001Z</time></trkpt><trkpt lat="41.08103466176807" lon="9.384956502322709"><ele>55.0</ele><time>2026-04-30T12:29:16.001Z</time></trkpt><trkpt lat="41.080964389589994" lon="9.384843430306976"><ele>55.0</ele><time>2026-04-30T12:29:18.001Z</time></trkpt><trkpt lat="41.08090058118217" lon="9.384730553879258"><ele>55.0</ele><time>2026-04-30T12:29:20.001Z</time></trkpt><trkpt lat="41.08085304250255" lon="9.384668205758047"><ele>55.0</ele><time>2026-04-30T12:29:22.001Z</time></trkpt><trkpt lat="41.080750915664424" lon="9.384720900474917"><ele>55.0</ele><time>2026-04-30T12:29:32.001Z</time></trkpt><trkpt lat="41.080685983097986" lon="9.38484596449005"><ele>54.4</ele><time>2026-04-30T12:29:34.001Z</time></trkpt><trkpt lat="41.080626175532316" lon="9.384937179574903"><ele>53.8</ele><time>2026-04-30T12:29:36.002Z</time></trkpt><trkpt lat="41.08055854788509" lon="9.385053080731653"><ele>53.2</ele><time>2026-04-30T12:29:38.002Z</time></trkpt><trkpt lat="41.080480879654004" lon="9.385173955145959"><ele>52.6</ele><time>2026-04-30T12:29:40.002Z</time></trkpt><trkpt lat="41.080429228992514" lon="9.385234617242292"><ele>52.0</ele><time>2026-04-30T12:29:41.002Z</time></trkpt><trkpt lat="41.08037665735307" lon="9.38530203315706"><ele>51.99999999999999</ele><time>2026-04-30T12:29:42.002Z</time></trkpt><trkpt lat="41.080301414448755" lon="9.385417090242205"><ele>52.0</ele><time>2026-04-30T12:29:44.002Z</time></trkpt><trkpt lat="41.080246598190904" lon="9.385503885023736"><ele>52.0</ele><time>2026-04-30T12:29:46.002Z</time></trkpt><trkpt lat="41.080209507788155" lon="9.385574085772983"><ele>52.0</ele><time>2026-04-30T12:31:06.001Z</time></trkpt><trkpt lat="41.08016753637888" lon="9.385665205548621"><ele>51.99999999999999</ele><time>2026-04-30T12:31:08.001Z</time></trkpt><trkpt lat="41.08011385476839" lon="9.3857386379694"><ele>52.0</ele><time>2026-04-30T12:31:12.001Z</time></trkpt><trkpt lat="41.08004201127661" lon="9.385791376528264"><ele>52.8</ele><time>2026-04-30T12:31:14.001Z</time></trkpt><trkpt lat="41.079967900549455" lon="9.385859703408784"><ele>53.6</ele><time>2026-04-30T12:31:18.001Z</time></trkpt><trkpt lat="41.07998626521181" lon="9.3859778305794"><ele>54.39999999999999</ele><time>2026-04-30T12:31:20.001Z</time></trkpt><trkpt lat="41.08004109148377" lon="9.386114263119508"><ele>55.199999999999996</ele><time>2026-04-30T12:31:22.001Z</time></trkpt><trkpt lat="41.08009054442055" lon="9.386238479861504"><ele>56.0</ele><time>2026-04-30T12:31:24.001Z</time></trkpt><trkpt lat="41.080126331367474" lon="9.386319689350506"><ele>57.833333333333336</ele><time>2026-04-30T12:31:25.001Z</time></trkpt><trkpt lat="41.08016121094391" lon="9.386396762413174"><ele>59.66666666666667</ele><time>2026-04-30T12:31:26.001Z</time></trkpt><trkpt lat="41.08020326857964" lon="9.386496477931251"><ele>61.5</ele><time>2026-04-30T12:31:27.001Z</time></trkpt><trkpt lat="41.08023099181626" lon="9.38659518827578"><ele>63.33333333333333</ele><time>2026-04-30T12:31:28.001Z</time></trkpt><trkpt lat="41.08024709109083" lon="9.386709554673299"><ele>65.16666666666666</ele><time>2026-04-30T12:31:30.001Z</time></trkpt><trkpt lat="41.080266211992715" lon="9.386807751065476"><ele>67.0</ele><time>2026-04-30T12:31:38.001Z</time></trkpt><trkpt lat="41.08039331739541" lon="9.386861049607624"><ele>67.0</ele><time>2026-04-30T12:31:40.001Z</time></trkpt><trkpt lat="41.080469436843515" lon="9.386860345187662"><ele>67.0</ele><time>2026-04-30T12:31:41.001Z</time></trkpt><trkpt lat="41.08055048817369" lon="9.386862326336448"><ele>67.0</ele><time>2026-04-30T12:31:42.001Z</time></trkpt><trkpt lat="41.0806400565875" lon="9.386855927491085"><ele>67.0</ele><time>2026-04-30T12:31:43.001Z</time></trkpt><trkpt lat="41.08072676995064" lon="9.386853191731818"><ele>67.0</ele><time>2026-04-30T12:31:44.001Z</time></trkpt><trkpt lat="41.08081089718889" lon="9.38683926281272"><ele>67.0</ele><time>2026-04-30T12:31:45.001Z</time></trkpt><trkpt lat="41.080893326584366" lon="9.386816398922928"><ele>66.6</ele><time>2026-04-30T12:31:46.002Z</time></trkpt><trkpt lat="41.08097899368627" lon="9.386794853061732"><ele>66.2</ele><time>2026-04-30T12:31:47.002Z</time></trkpt><trkpt lat="41.08107776052044" lon="9.386772710577779"><ele>65.8</ele><time>2026-04-30T12:31:48.002Z</time></trkpt><trkpt lat="41.081182208107165" lon="9.38674400993042"><ele>65.4</ele><time>2026-04-30T12:31:49.002Z</time></trkpt><trkpt lat="41.08128012985023" lon="9.386706787395104"><ele>65.0</ele><time>2026-04-30T12:31:50.002Z</time></trkpt><trkpt lat="41.08136864704037" lon="9.38666923638299"><ele>65.0</ele><time>2026-04-30T12:31:51.002Z</time></trkpt><trkpt lat="41.081452801911034" lon="9.386631691621254"><ele>65.0</ele><time>2026-04-30T12:31:52.002Z</time></trkpt><trkpt lat="41.081524560554946" lon="9.386588075685172"><ele>65.0</ele><time>2026-04-30T12:31:53.002Z</time></trkpt><trkpt lat="41.081627021821916" lon="9.386517811900415"><ele>65.0</ele><time>2026-04-30T12:31:55.002Z</time></trkpt><trkpt lat="41.08173048622232" lon="9.386446981943498"><ele>65.0</ele><time>2026-04-30T12:31:57.002Z</time></trkpt><trkpt lat="41.081786785357664" lon="9.386401942099084"><ele>65.0</ele><time>2026-04-30T12:31:58.002Z</time></trkpt><trkpt lat="41.08184565166146" lon="9.386354050145746"><ele>65.0</ele><time>2026-04-30T12:31:59.002Z</time></trkpt><trkpt lat="41.08190925366775" lon="9.38630307919101"><ele>65.0</ele><time>2026-04-30T12:32:00.002Z</time></trkpt><trkpt lat="41.08197452509613" lon="9.386253191841046"><ele>65.0</ele><time>2026-04-30T12:32:01.002Z</time></trkpt><trkpt lat="41.08203756879228" lon="9.386199504636554"><ele>65.0</ele><time>2026-04-30T12:32:02.002Z</time></trkpt><trkpt lat="41.08209248109937" lon="9.38612943052821"><ele>65.0</ele><time>2026-04-30T12:32:03.002Z</time></trkpt><trkpt lat="41.0821483121777" lon="9.386029566378172"><ele>63.5</ele><time>2026-04-30T12:32:04.002Z</time></trkpt><trkpt lat="41.08221394068164" lon="9.385929457326569"><ele>62.0</ele><time>2026-04-30T12:32:05.002Z</time></trkpt><trkpt lat="41.082217754789866" lon="9.385764621501163"><ele>60.5</ele><time>2026-04-30T12:32:06.002Z</time></trkpt><trkpt lat="41.08222839466967" lon="9.385597766372616"><ele>59.0</ele><time>2026-04-30T12:32:07.002Z</time></trkpt><trkpt lat="41.08223127570426" lon="9.385428624663536"><ele>58.0</ele><time>2026-04-30T12:32:07.999Z</time></trkpt><trkpt lat="41.08223220075228" lon="9.385243060256597"><ele>57.0</ele><time>2026-04-30T12:32:08.999Z</time></trkpt><trkpt lat="41.08223659279135" lon="9.385047439014297"><ele>56.0</ele><time>2026-04-30T12:32:09.999Z</time></trkpt><trkpt lat="41.08224291128519" lon="9.38484792468498"><ele>55.0</ele><time>2026-04-30T12:32:10.999Z</time></trkpt><trkpt lat="41.082246148620264" lon="9.38464356460938"><ele>54.33333333333333</ele><time>2026-04-30T12:32:11.999Z</time></trkpt><trkpt lat="41.08225069688068" lon="9.384434323691371"><ele>53.66666666666667</ele><time>2026-04-30T12:32:13Z</time></trkpt><trkpt lat="41.08225688087587" lon="9.384221867224504"><ele>53.0</ele><time>2026-04-30T12:32:14Z</time></trkpt><trkpt lat="41.08226110312728" lon="9.384010739436045"><ele>54.333333333333336</ele><time>2026-04-30T12:32:15Z</time></trkpt><trkpt lat="41.08226433771269" lon="9.383801844146491"><ele>55.66666666666667</ele><time>2026-04-30T12:32:16Z</time></trkpt><trkpt lat="41.082272345590034" lon="9.383583246257924"><ele>57.0</ele><time>2026-04-30T12:32:17Z</time></trkpt><trkpt lat="41.08226792648914" lon="9.383388902375442"><ele>57.0</ele><time>2026-04-30T12:32:18Z</time></trkpt><trkpt lat="41.08227239763311" lon="9.383178340578738"><ele>57.0</ele><time>2026-04-30T12:32:19Z</time></trkpt><trkpt lat="41.08227565285033" lon="9.382970501149037"><ele>57.0</ele><time>2026-04-30T12:32:20Z</time></trkpt><trkpt lat="41.08228272288991" lon="9.382759592415487"><ele>58.33333333333333</ele><time>2026-04-30T12:32:21Z</time></trkpt><trkpt lat="41.08228184998356" lon="9.382541750457982"><ele>59.666666666666664</ele><time>2026-04-30T12:32:22Z</time></trkpt><trkpt lat="41.0822804243525" lon="9.382316584515065"><ele>61.0</ele><time>2026-04-30T12:32:23Z</time></trkpt><trkpt lat="41.08227992935613" lon="9.382087866080392"><ele>62.0</ele><time>2026-04-30T12:32:24Z</time></trkpt><trkpt lat="41.08228013049316" lon="9.381850727534275"><ele>63.0</ele><time>2026-04-30T12:32:25Z</time></trkpt><trkpt lat="41.08228422506968" lon="9.38162413087693"><ele>64.0</ele><time>2026-04-30T12:32:26Z</time></trkpt><trkpt lat="41.08228917464827" lon="9.381410259685666"><ele>64.5</ele><time>2026-04-30T12:32:27Z</time></trkpt><trkpt lat="41.082293007360214" lon="9.381217130860895"><ele>65.0</ele><time>2026-04-30T12:32:28Z</time></trkpt><trkpt lat="41.082297526210255" lon="9.381037859988119"><ele>65.5</ele><time>2026-04-30T12:32:29Z</time></trkpt><trkpt lat="41.08229803308025" lon="9.38085832642981"><ele>66.0</ele><time>2026-04-30T12:32:30Z</time></trkpt><trkpt lat="41.08228924783536" lon="9.38067823619942"><ele>66.5</ele><time>2026-04-30T12:32:31Z</time></trkpt><trkpt lat="41.08226447995047" lon="9.380512940259853"><ele>67.0</ele><time>2026-04-30T12:32:32Z</time></trkpt><trkpt lat="41.08220634229634" lon="9.380351261154052"><ele>67.5</ele><time>2026-04-30T12:32:33Z</time></trkpt><trkpt lat="41.082116621505286" lon="9.380202020816684"><ele>68.0</ele><time>2026-04-30T12:32:34Z</time></trkpt><trkpt lat="41.081997274154126" lon="9.38004964044103"><ele>68.0</ele><time>2026-04-30T12:32:35Z</time></trkpt><trkpt lat="41.08185837283399" lon="9.3798975674602"><ele>68.0</ele><time>2026-04-30T12:32:36Z</time></trkpt><trkpt lat="41.08171194749792" lon="9.379750503362642"><ele>68.0</ele><time>2026-04-30T12:32:37Z</time></trkpt><trkpt lat="41.08158162712883" lon="9.379607521699352"><ele>68.33333333333334</ele><time>2026-04-30T12:32:38Z</time></trkpt><trkpt lat="41.081500736864335" lon="9.379431849322062"><ele>68.66666666666667</ele><time>2026-04-30T12:32:39Z</time></trkpt><trkpt lat="41.08142252168547" lon="9.379248320429914"><ele>69.0</ele><time>2026-04-30T12:32:40Z</time></trkpt><trkpt lat="41.08135839248465" lon="9.379045321193452"><ele>69.0</ele><time>2026-04-30T12:32:41Z</time></trkpt><trkpt lat="41.08133731834039" lon="9.378862518205962"><ele>69.0</ele><time>2026-04-30T12:32:42Z</time></trkpt><trkpt lat="41.08134692434217" lon="9.37869017061176"><ele>69.0</ele><time>2026-04-30T12:32:43Z</time></trkpt><trkpt lat="41.081404851306615" lon="9.378521019714732"><ele>69.0</ele><time>2026-04-30T12:32:44Z</time></trkpt><trkpt lat="41.081484207823415" lon="9.378363242933606"><ele>70.33333333333333</ele><time>2026-04-30T12:32:45Z</time></trkpt><trkpt lat="41.08158799890995" lon="9.378192095124438"><ele>71.66666666666666</ele><time>2026-04-30T12:32:46Z</time></trkpt><trkpt lat="41.081681638261024" lon="9.378013669808016"><ele>73.0</ele><time>2026-04-30T12:32:47Z</time></trkpt><trkpt lat="41.081773138373215" lon="9.37782817979051"><ele>77.33333333333333</ele><time>2026-04-30T12:32:48Z</time></trkpt><trkpt lat="41.08180883493922" lon="9.377607472432228"><ele>81.66666666666667</ele><time>2026-04-30T12:32:49Z</time></trkpt><trkpt lat="41.08184474984006" lon="9.377374999794498"><ele>86.0</ele><time>2026-04-30T12:32:50Z</time></trkpt><trkpt lat="41.0818721389713" lon="9.377152754924076"><ele>86.25</ele><time>2026-04-30T12:32:51Z</time></trkpt><trkpt lat="41.08189527507288" lon="9.376955305743609"><ele>86.5</ele><time>2026-04-30T12:32:52Z</time></trkpt><trkpt lat="41.08193263847338" lon="9.376773081529914"><ele>86.75</ele><time>2026-04-30T12:32:53Z</time></trkpt><trkpt lat="41.08194220671737" lon="9.376608278344785"><ele>87.0</ele><time>2026-04-30T12:32:54.001Z</time></trkpt><trkpt lat="41.081969251937494" lon="9.376467095239587"><ele>86.6</ele><time>2026-04-30T12:32:55.001Z</time></trkpt><trkpt lat="41.082010568863325" lon="9.37634664690973"><ele>86.19999999999999</ele><time>2026-04-30T12:32:56.001Z</time></trkpt><trkpt lat="41.082064175748386" lon="9.376244422074235"><ele>85.8</ele><time>2026-04-30T12:32:57.001Z</time></trkpt><trkpt lat="41.08212125682322" lon="9.376142485050913"><ele>85.4</ele><time>2026-04-30T12:32:58.001Z</time></trkpt><trkpt lat="41.082198017693" lon="9.376051670653974"><ele>85.0</ele><time>2026-04-30T12:32:59.001Z</time></trkpt><trkpt lat="41.082257005215354" lon="9.375940527640191"><ele>85.0</ele><time>2026-04-30T12:33:00.001Z</time></trkpt><trkpt lat="41.08231995584789" lon="9.375859370513314"><ele>85.0</ele><time>2026-04-30T12:33:01.001Z</time></trkpt><trkpt lat="41.08238848224902" lon="9.375784152818252"><ele>85.0</ele><time>2026-04-30T12:33:02.001Z</time></trkpt><trkpt lat="41.08246336425271" lon="9.375711644343244"><ele>85.0</ele><time>2026-04-30T12:33:03.001Z</time></trkpt><trkpt lat="41.08253491253397" lon="9.37564029040545"><ele>85.0</ele><time>2026-04-30T12:33:04.001Z</time></trkpt><trkpt lat="41.082607660511734" lon="9.37557024136793"><ele>85.0</ele><time>2026-04-30T12:33:05.001Z</time></trkpt><trkpt lat="41.082689954039054" lon="9.375496836407711"><ele>87.0</ele><time>2026-04-30T12:33:06.001Z</time></trkpt><trkpt lat="41.08278078142125" lon="9.375435034450572"><ele>89.0</ele><time>2026-04-30T12:33:07.001Z</time></trkpt><trkpt lat="41.082869105442285" lon="9.375399368309001"><ele>91.0</ele><time>2026-04-30T12:33:08.001Z</time></trkpt><trkpt lat="41.08296622725129" lon="9.375385562645"><ele>93.0</ele><time>2026-04-30T12:33:09.001Z</time></trkpt><trkpt lat="41.08306306087095" lon="9.3754038958193"><ele>95.0</ele><time>2026-04-30T12:33:10.001Z</time></trkpt><trkpt lat="41.08315734157716" lon="9.375449297154585"><ele>95.0</ele><time>2026-04-30T12:33:11.001Z</time></trkpt><trkpt lat="41.08324621795423" lon="9.375519127846934"><ele>95.0</ele><time>2026-04-30T12:33:12.001Z</time></trkpt><trkpt lat="41.08334641686393" lon="9.375610509096228"><ele>95.0</ele><time>2026-04-30T12:33:13.001Z</time></trkpt><trkpt lat="41.08346717119669" lon="9.375722842267358"><ele>95.0</ele><time>2026-04-30T12:33:14.001Z</time></trkpt><trkpt lat="41.08358537152385" lon="9.37584742860586"><ele>97.25</ele><time>2026-04-30T12:33:15.001Z</time></trkpt><trkpt lat="41.0837009136802" lon="9.37595146879539"><ele>99.5</ele><time>2026-04-30T12:33:16.001Z</time></trkpt><trkpt lat="41.08382231716014" lon="9.375997968326963"><ele>101.75</ele><time>2026-04-30T12:33:17.001Z</time></trkpt><trkpt lat="41.08395879313707" lon="9.375996123902592"><ele>104.0</ele><time>2026-04-30T12:33:18.001Z</time></trkpt><trkpt lat="41.08411078377388" lon="9.375961576671028"><ele>106.33333333333333</ele><time>2026-04-30T12:33:19.001Z</time></trkpt><trkpt lat="41.08426812028547" lon="9.375899344546497"><ele>108.66666666666666</ele><time>2026-04-30T12:33:20.001Z</time></trkpt><trkpt lat="41.0844337110882" lon="9.37584533392382"><ele>111.0</ele><time>2026-04-30T12:33:21.001Z</time></trkpt><trkpt lat="41.08459157510142" lon="9.375819170872363"><ele>111.0</ele><time>2026-04-30T12:33:22.001Z</time></trkpt><trkpt lat="41.08473890535957" lon="9.3758507890416"><ele>111.0</ele><time>2026-04-30T12:33:23.001Z</time></trkpt><trkpt lat="41.084882634244515" lon="9.375897614176177"><ele>111.0</ele><time>2026-04-30T12:33:24.001Z</time></trkpt><trkpt lat="41.085002142508074" lon="9.375910886148514"><ele>111.0</ele><time>2026-04-30T12:33:25.001Z</time></trkpt><trkpt lat="41.0851225102309" lon="9.375871550822596"><ele>112.33333333333334</ele><time>2026-04-30T12:33:26.001Z</time></trkpt><trkpt lat="41.08523264582399" lon="9.375767298712523"><ele>113.66666666666667</ele><time>2026-04-30T12:33:27.001Z</time></trkpt><trkpt lat="41.08534758282306" lon="9.375605617100403"><ele>115.0</ele><time>2026-04-30T12:33:28.001Z</time></trkpt><trkpt lat="41.08548299075867" lon="9.375433161269063"><ele>118.0</ele><time>2026-04-30T12:33:29.001Z</time></trkpt><trkpt lat="41.08560244207865" lon="9.375259558688816"><ele>121.0</ele><time>2026-04-30T12:33:30.001Z</time></trkpt><trkpt lat="41.08573292612563" lon="9.375134569275849"><ele>124.0</ele><time>2026-04-30T12:33:31.001Z</time></trkpt><trkpt lat="41.08587152107044" lon="9.37504422564354"><ele>124.0</ele><time>2026-04-30T12:33:32.001Z</time></trkpt><trkpt lat="41.086030796814136" lon="9.374977328515765"><ele>124.0</ele><time>2026-04-30T12:33:33.001Z</time></trkpt><trkpt lat="41.086210928637385" lon="9.374927438998467"><ele>124.0</ele><time>2026-04-30T12:33:34.001Z</time></trkpt><trkpt lat="41.08640179098503" lon="9.374885102038668"><ele>123.33333333333334</ele><time>2026-04-30T12:33:35.001Z</time></trkpt><trkpt lat="41.0866038800782" lon="9.37483091707457"><ele>122.66666666666666</ele><time>2026-04-30T12:33:36.001Z</time></trkpt><trkpt lat="41.086812171557455" lon="9.374774965116487"><ele>122.0</ele><time>2026-04-30T12:33:37.001Z</time></trkpt><trkpt lat="41.08701942346226" lon="9.374723499964087"><ele>122.0</ele><time>2026-04-30T12:33:38.002Z</time></trkpt><trkpt lat="41.08722288337589" lon="9.37467389727128"><ele>122.0</ele><time>2026-04-30T12:33:39.002Z</time></trkpt><trkpt lat="41.087423070351974" lon="9.374626244034317"><ele>122.0</ele><time>2026-04-30T12:33:40.002Z</time></trkpt><trkpt lat="41.08761968373509" lon="9.374578005670122"><ele>122.0</ele><time>2026-04-30T12:33:41.002Z</time></trkpt><trkpt lat="41.087811011141525" lon="9.374530171999787"><ele>122.0</ele><time>2026-04-30T12:33:42.002Z</time></trkpt><trkpt lat="41.08803840467061" lon="9.374486784956385"><ele>122.0</ele><time>2026-04-30T12:33:43.002Z</time></trkpt><trkpt lat="41.088188402167575" lon="9.374430598765672"><ele>122.33333333333333</ele><time>2026-04-30T12:33:44.002Z</time></trkpt><trkpt lat="41.08836882958782" lon="9.374385898390573"><ele>122.66666666666666</ele><time>2026-04-30T12:33:45.002Z</time></trkpt><trkpt lat="41.08854362133298" lon="9.374356865416885"><ele>123.0</ele><time>2026-04-30T12:33:46.002Z</time></trkpt><trkpt lat="41.08874332973896" lon="9.37433476571181"><ele>123.0</ele><time>2026-04-30T12:33:47.002Z</time></trkpt><trkpt lat="41.08890474862406" lon="9.374258348694049"><ele>123.0</ele><time>2026-04-30T12:33:48.002Z</time></trkpt><trkpt lat="41.08908644477178" lon="9.374218679807152"><ele>123.0</ele><time>2026-04-30T12:33:49.002Z</time></trkpt><trkpt lat="41.089263568380225" lon="9.374177175817952"><ele>124.0</ele><time>2026-04-30T12:33:50.002Z</time></trkpt><trkpt lat="41.089440024378405" lon="9.374134392210099"><ele>125.0</ele><time>2026-04-30T12:33:51.002Z</time></trkpt><trkpt lat="41.089615056382996" lon="9.37409073907789"><ele>126.0</ele><time>2026-04-30T12:33:52.002Z</time></trkpt><trkpt lat="41.08979006280446" lon="9.374050047680576"><ele>128.0</ele><time>2026-04-30T12:33:53.002Z</time></trkpt><trkpt lat="41.089961150039336" lon="9.37401611596942"><ele>130.0</ele><time>2026-04-30T12:33:54.002Z</time></trkpt><trkpt lat="41.09012899323425" lon="9.373973520133818"><ele>132.0</ele><time>2026-04-30T12:33:55.002Z</time></trkpt><trkpt lat="41.09029365227146" lon="9.373930052921878"><ele>132.0</ele><time>2026-04-30T12:33:56.002Z</time></trkpt><trkpt lat="41.09046257591448" lon="9.373888764347527"><ele>132.0</ele><time>2026-04-30T12:33:57.002Z</time></trkpt><trkpt lat="41.09063160238951" lon="9.373866911516457"><ele>132.0</ele><time>2026-04-30T12:33:58.002Z</time></trkpt><trkpt lat="41.090793893607824" lon="9.373816555667288"><ele>133.66666666666666</ele><time>2026-04-30T12:33:59.002Z</time></trkpt><trkpt lat="41.09095853891064" lon="9.373773348294126"><ele>135.33333333333331</ele><time>2026-04-30T12:34:00.002Z</time></trkpt><trkpt lat="41.09112259954032" lon="9.373753237619647"><ele>137.0</ele><time>2026-04-30T12:34:01.002Z</time></trkpt><trkpt lat="41.09128519900184" lon="9.373693799069112"><ele>137.0</ele><time>2026-04-30T12:34:02.002Z</time></trkpt><trkpt lat="41.091442051431365" lon="9.373658208280187"><ele>137.0</ele><time>2026-04-30T12:34:03.002Z</time></trkpt><trkpt lat="41.09159754899642" lon="9.37362648785857"><ele>137.0</ele><time>2026-04-30T12:34:04.002Z</time></trkpt><trkpt lat="41.09175259896466" lon="9.373604309847911"><ele>137.66666666666666</ele><time>2026-04-30T12:34:05.002Z</time></trkpt><trkpt lat="41.09191276477671" lon="9.3735922226189"><ele>138.33333333333334</ele><time>2026-04-30T12:34:06.002Z</time></trkpt><trkpt lat="41.092068791610124" lon="9.373584907047162"><ele>139.0</ele><time>2026-04-30T12:34:07.002Z</time></trkpt><trkpt lat="41.09221726117674" lon="9.373566035582506"><ele>139.0</ele><time>2026-04-30T12:34:08.002Z</time></trkpt><trkpt lat="41.092374211330814" lon="9.37351311618527"><ele>139.0</ele><time>2026-04-30T12:34:09.002Z</time></trkpt><trkpt lat="41.092528852215835" lon="9.373408001519264"><ele>139.0</ele><time>2026-04-30T12:34:10.002Z</time></trkpt><trkpt lat="41.09267730468586" lon="9.373282295697535"><ele>138.66666666666669</ele><time>2026-04-30T12:34:11.002Z</time></trkpt><trkpt lat="41.092845309100724" lon="9.373177951533934"><ele>138.33333333333334</ele><time>2026-04-30T12:34:12.002Z</time></trkpt><trkpt lat="41.09297222795928" lon="9.373035728105876"><ele>138.0</ele><time>2026-04-30T12:34:13.002Z</time></trkpt><trkpt lat="41.09309086962605" lon="9.372898881673073"><ele>137.25</ele><time>2026-04-30T12:34:14.001Z</time></trkpt><trkpt lat="41.09320358521777" lon="9.372786464646587"><ele>136.5</ele><time>2026-04-30T12:34:15.001Z</time></trkpt><trkpt lat="41.09334149061692" lon="9.37271041331825"><ele>135.75</ele><time>2026-04-30T12:34:16.001Z</time></trkpt><trkpt lat="41.09348423592503" lon="9.372661598021828"><ele>135.0</ele><time>2026-04-30T12:34:17.001Z</time></trkpt><trkpt lat="41.093641029787136" lon="9.372645969904214"><ele>135.0</ele><time>2026-04-30T12:34:18.001Z</time></trkpt><trkpt lat="41.093807044622416" lon="9.3726606373769"><ele>135.0</ele><time>2026-04-30T12:34:19.001Z</time></trkpt><trkpt lat="41.09397821711542" lon="9.372692977199936"><ele>135.0</ele><time>2026-04-30T12:34:20.001Z</time></trkpt><trkpt lat="41.09413648152576" lon="9.372701627220428"><ele>134.0</ele><time>2026-04-30T12:34:21.001Z</time></trkpt><trkpt lat="41.09430860830547" lon="9.372675771901552"><ele>133.0</ele><time>2026-04-30T12:34:22.001Z</time></trkpt><trkpt lat="41.09449212537684" lon="9.372623859735674"><ele>132.0</ele><time>2026-04-30T12:34:23.001Z</time></trkpt><trkpt lat="41.09468746323179" lon="9.372562025926344"><ele>132.0</ele><time>2026-04-30T12:34:24.001Z</time></trkpt><trkpt lat="41.09488613772171" lon="9.372491904812943"><ele>132.0</ele><time>2026-04-30T12:34:25.001Z</time></trkpt><trkpt lat="41.09508559792785" lon="9.372422493168218"><ele>132.0</ele><time>2026-04-30T12:34:26.001Z</time></trkpt><trkpt lat="41.0952773156222" lon="9.37236039288937"><ele>132.33333333333334</ele><time>2026-04-30T12:34:27.001Z</time></trkpt><trkpt lat="41.0954657879098" lon="9.372301510404094"><ele>132.66666666666669</ele><time>2026-04-30T12:34:28.001Z</time></trkpt><trkpt lat="41.095650357748376" lon="9.372232803174677"><ele>133.0</ele><time>2026-04-30T12:34:29.001Z</time></trkpt><trkpt lat="41.095821044969064" lon="9.372177334427645"><ele>133.0</ele><time>2026-04-30T12:34:30.001Z</time></trkpt><trkpt lat="41.09599654177622" lon="9.372119665658893"><ele>133.0</ele><time>2026-04-30T12:34:31.001Z</time></trkpt><trkpt lat="41.096168196601084" lon="9.372065687226645"><ele>133.0</ele><time>2026-04-30T12:34:32.001Z</time></trkpt><trkpt lat="41.09632858750441" lon="9.372021275553358"><ele>133.0</ele><time>2026-04-30T12:34:33.001Z</time></trkpt><trkpt lat="41.09647619478198" lon="9.37197547837193"><ele>133.0</ele><time>2026-04-30T12:34:34.001Z</time></trkpt><trkpt lat="41.09665323955105" lon="9.371920801416234"><ele>133.0</ele><time>2026-04-30T12:34:35.001Z</time></trkpt><trkpt lat="41.096820992292386" lon="9.371880862430721"><ele>134.0</ele><time>2026-04-30T12:34:36.001Z</time></trkpt><trkpt lat="41.09698787333797" lon="9.371832818644748"><ele>135.0</ele><time>2026-04-30T12:34:37.001Z</time></trkpt><trkpt lat="41.097152887518185" lon="9.371785482945844"><ele>136.0</ele><time>2026-04-30T12:34:38.001Z</time></trkpt><trkpt lat="41.0973175006483" lon="9.37174313305068"><ele>134.66666666666669</ele><time>2026-04-30T12:34:39.001Z</time></trkpt><trkpt lat="41.097491423966005" lon="9.37170524600307"><ele>133.33333333333334</ele><time>2026-04-30T12:34:40.001Z</time></trkpt><trkpt lat="41.097664251456436" lon="9.371674720527858"><ele>132.0</ele><time>2026-04-30T12:34:41.001Z</time></trkpt><trkpt lat="41.09783789587506" lon="9.371651279968114"><ele>132.0</ele><time>2026-04-30T12:34:42.001Z</time></trkpt><trkpt lat="41.09800712286818" lon="9.371632295948917"><ele>132.0</ele><time>2026-04-30T12:34:43.001Z</time></trkpt><trkpt lat="41.098175820547524" lon="9.37164876468926"><ele>132.0</ele><time>2026-04-30T12:34:44.001Z</time></trkpt><trkpt lat="41.098355097359004" lon="9.371624483337916"><ele>131.0</ele><time>2026-04-30T12:34:45.001Z</time></trkpt><trkpt lat="41.098520980377636" lon="9.37161522249025"><ele>130.0</ele><time>2026-04-30T12:34:46.001Z</time></trkpt><trkpt lat="41.0986921618065" lon="9.371593187547957"><ele>129.0</ele><time>2026-04-30T12:34:47.001Z</time></trkpt><trkpt lat="41.09886832515725" lon="9.37158839596169"><ele>129.0</ele><time>2026-04-30T12:34:48.001Z</time></trkpt><trkpt lat="41.09904968946901" lon="9.371564177229494"><ele>129.0</ele><time>2026-04-30T12:34:49.001Z</time></trkpt><trkpt lat="41.09922911626074" lon="9.37153773352271"><ele>129.0</ele><time>2026-04-30T12:34:50.001Z</time></trkpt><trkpt lat="41.099409501019224" lon="9.371543617020102"><ele>128.33333333333334</ele><time>2026-04-30T12:34:51.001Z</time></trkpt><trkpt lat="41.09960785212209" lon="9.37156458454373"><ele>127.66666666666667</ele><time>2026-04-30T12:34:52.001Z</time></trkpt><trkpt lat="41.0997998036946" lon="9.371593941308687"><ele>127.0</ele><time>2026-04-30T12:34:53.001Z</time></trkpt><trkpt lat="41.099984975940735" lon="9.371615980456463"><ele>124.66666666666667</ele><time>2026-04-30T12:34:54.001Z</time></trkpt><trkpt lat="41.10016860493003" lon="9.371656378642408"><ele>122.33333333333334</ele><time>2026-04-30T12:34:55.001Z</time></trkpt><trkpt lat="41.10034733324927" lon="9.371655322820834"><ele>120.0</ele><time>2026-04-30T12:34:56.001Z</time></trkpt><trkpt lat="41.100524393981814" lon="9.371625021598854"><ele>120.0</ele><time>2026-04-30T12:34:57.001Z</time></trkpt><trkpt lat="41.10068218551593" lon="9.37158062355106"><ele>120.0</ele><time>2026-04-30T12:34:58.001Z</time></trkpt><trkpt lat="41.10084374900919" lon="9.371512602575427"><ele>120.0</ele><time>2026-04-30T12:34:59.001Z</time></trkpt><trkpt lat="41.100995207531014" lon="9.371409391737012"><ele>117.66666666666666</ele><time>2026-04-30T12:35:00.001Z</time></trkpt><trkpt lat="41.10115959183155" lon="9.371310241974776"><ele>115.33333333333333</ele><time>2026-04-30T12:35:01.001Z</time></trkpt><trkpt lat="41.10134597258882" lon="9.371207855669601"><ele>113.0</ele><time>2026-04-30T12:35:02.001Z</time></trkpt><trkpt lat="41.10150922366905" lon="9.37108569014816"><ele>111.0</ele><time>2026-04-30T12:35:03.001Z</time></trkpt><trkpt lat="41.10167698048164" lon="9.370986566745907"><ele>109.0</ele><time>2026-04-30T12:35:04.001Z</time></trkpt><trkpt lat="41.10184451612536" lon="9.370883579650975"><ele>107.0</ele><time>2026-04-30T12:35:05.001Z</time></trkpt><trkpt lat="41.102015156439734" lon="9.370783987141461"><ele>107.0</ele><time>2026-04-30T12:35:06.001Z</time></trkpt><trkpt lat="41.10218899970573" lon="9.370707200779322"><ele>107.0</ele><time>2026-04-30T12:35:07.001Z</time></trkpt><trkpt lat="41.10236589978165" lon="9.370654330370744"><ele>107.0</ele><time>2026-04-30T12:35:08.001Z</time></trkpt><trkpt lat="41.10253440162456" lon="9.37061724160116"><ele>106.33333333333333</ele><time>2026-04-30T12:35:09.001Z</time></trkpt><trkpt lat="41.102715693056155" lon="9.370561169061741"><ele>105.66666666666666</ele><time>2026-04-30T12:35:10.001Z</time></trkpt><trkpt lat="41.10290931201023" lon="9.370493932277896"><ele>105.0</ele><time>2026-04-30T12:35:11.001Z</time></trkpt><trkpt lat="41.10311250872476" lon="9.370391159193078"><ele>102.0</ele><time>2026-04-30T12:35:12.001Z</time></trkpt><trkpt lat="41.10331609914133" lon="9.370259689487703"><ele>99.0</ele><time>2026-04-30T12:35:13.001Z</time></trkpt><trkpt lat="41.103520593895986" lon="9.370142831066566"><ele>96.0</ele><time>2026-04-30T12:35:14.001Z</time></trkpt><trkpt lat="41.10370775108196" lon="9.369999619195255"><ele>96.0</ele><time>2026-04-30T12:35:15.001Z</time></trkpt><trkpt lat="41.103909465695466" lon="9.369892819889241"><ele>96.0</ele><time>2026-04-30T12:35:16.001Z</time></trkpt><trkpt lat="41.104130954333385" lon="9.369839828586924"><ele>96.0</ele><time>2026-04-30T12:35:17.001Z</time></trkpt><trkpt lat="41.104359965327575" lon="9.36976114857562"><ele>97.0</ele><time>2026-04-30T12:35:18.001Z</time></trkpt><trkpt lat="41.104587364648836" lon="9.36970396609491"><ele>98.0</ele><time>2026-04-30T12:35:19.001Z</time></trkpt><trkpt lat="41.104800766094115" lon="9.36964783521587"><ele>99.0</ele><time>2026-04-30T12:35:20.001Z</time></trkpt><trkpt lat="41.105006355890424" lon="9.369588348724244"><ele>97.0</ele><time>2026-04-30T12:35:21.001Z</time></trkpt><trkpt lat="41.10521043203708" lon="9.369507209256044"><ele>95.0</ele><time>2026-04-30T12:35:22.001Z</time></trkpt><trkpt lat="41.10540914263103" lon="9.369383711739223"><ele>93.0</ele><time>2026-04-30T12:35:23.001Z</time></trkpt><trkpt lat="41.105617170858935" lon="9.369234356508583"><ele>90.0</ele><time>2026-04-30T12:35:24.001Z</time></trkpt><trkpt lat="41.10583305565082" lon="9.36907938440287"><ele>87.0</ele><time>2026-04-30T12:35:25.001Z</time></trkpt><trkpt lat="41.10603495996505" lon="9.36892829752586"><ele>87.5</ele><time>2026-04-30T12:35:26.001Z</time></trkpt><trkpt lat="41.106228574550926" lon="9.368781438469"><ele>88.0</ele><time>2026-04-30T12:35:27.001Z</time></trkpt><trkpt lat="41.10649744325477" lon="9.36860731062774"><ele>86.5</ele><time>2026-04-30T12:35:28.001Z</time></trkpt><trkpt lat="41.106705782657556" lon="9.368450771244943"><ele>85.0</ele><time>2026-04-30T12:35:29.001Z</time></trkpt><trkpt lat="41.10692272414213" lon="9.368290353447545"><ele>85.0</ele><time>2026-04-30T12:35:30.001Z</time></trkpt><trkpt lat="41.10714020752037" lon="9.36812517579195"><ele>85.0</ele><time>2026-04-30T12:35:31.002Z</time></trkpt><trkpt lat="41.10733651717189" lon="9.367979195320732"><ele>85.0</ele><time>2026-04-30T12:35:32.002Z</time></trkpt><trkpt lat="41.10752801634207" lon="9.367842755808109"><ele>85.0</ele><time>2026-04-30T12:35:33.002Z</time></trkpt><trkpt lat="41.10771479137086" lon="9.367712611209038"><ele>85.0</ele><time>2026-04-30T12:35:34.002Z</time></trkpt><trkpt lat="41.1079118338274" lon="9.367630522319358"><ele>85.0</ele><time>2026-04-30T12:35:35.002Z</time></trkpt><trkpt lat="41.108113207465934" lon="9.36754742680043"><ele>85.0</ele><time>2026-04-30T12:35:36.002Z</time></trkpt><trkpt lat="41.10831374607034" lon="9.367469768202747"><ele>85.0</ele><time>2026-04-30T12:35:37.002Z</time></trkpt><trkpt lat="41.10851335357234" lon="9.367395033582584"><ele>84.33333333333333</ele><time>2026-04-30T12:35:38.002Z</time></trkpt><trkpt lat="41.1087151693392" lon="9.367318420143361"><ele>83.66666666666667</ele><time>2026-04-30T12:35:39.002Z</time></trkpt><trkpt lat="41.10891074746144" lon="9.36722347984627"><ele>83.0</ele><time>2026-04-30T12:35:40.002Z</time></trkpt><trkpt lat="41.109107155853664" lon="9.367153489596461"><ele>84.33333333333334</ele><time>2026-04-30T12:35:41.002Z</time></trkpt><trkpt lat="41.109300433837156" lon="9.367071759732207"><ele>85.66666666666667</ele><time>2026-04-30T12:35:42.002Z</time></trkpt><trkpt lat="41.1094893300926" lon="9.36698113137775"><ele>87.0</ele><time>2026-04-30T12:35:43.002Z</time></trkpt><trkpt lat="41.109670666777234" lon="9.366882471440208"><ele>87.0</ele><time>2026-04-30T12:35:44.002Z</time></trkpt><trkpt lat="41.109845238036115" lon="9.366774746804337"><ele>87.0</ele><time>2026-04-30T12:35:45.002Z</time></trkpt><trkpt lat="41.11001839444145" lon="9.36666977244999"><ele>87.0</ele><time>2026-04-30T12:35:46.002Z</time></trkpt><trkpt lat="41.11018597373773" lon="9.366562505194898"><ele>86.66666666666667</ele><time>2026-04-30T12:35:47.002Z</time></trkpt><trkpt lat="41.110359221324295" lon="9.36646523221942"><ele>86.33333333333334</ele><time>2026-04-30T12:35:48.002Z</time></trkpt><trkpt lat="41.110534763433485" lon="9.366405052290173"><ele>86.0</ele><time>2026-04-30T12:35:49.002Z</time></trkpt><trkpt lat="41.11070447945351" lon="9.366315649437338"><ele>85.33333333333334</ele><time>2026-04-30T12:35:50.002Z</time></trkpt><trkpt lat="41.11088963962452" lon="9.36624852616519"><ele>84.66666666666667</ele><time>2026-04-30T12:35:51.002Z</time></trkpt><trkpt lat="41.11106389602498" lon="9.3661749590381"><ele>84.0</ele><time>2026-04-30T12:35:52.002Z</time></trkpt><trkpt lat="41.111232964014036" lon="9.36610649216047"><ele>84.0</ele><time>2026-04-30T12:35:53.002Z</time></trkpt><trkpt lat="41.11140236625564" lon="9.366037874525867"><ele>84.0</ele><time>2026-04-30T12:35:54.002Z</time></trkpt><trkpt lat="41.11157370988079" lon="9.365975351180001"><ele>84.0</ele><time>2026-04-30T12:35:55.002Z</time></trkpt><trkpt lat="41.11173684031848" lon="9.365908431674814"><ele>84.0</ele><time>2026-04-30T12:35:56.002Z</time></trkpt><trkpt lat="41.11189862138621" lon="9.365844099491605"><ele>84.0</ele><time>2026-04-30T12:35:57.002Z</time></trkpt><trkpt lat="41.11205726587989" lon="9.365781804674526"><ele>84.0</ele><time>2026-04-30T12:35:58.002Z</time></trkpt><trkpt lat="41.11221018798485" lon="9.365725371837435"><ele>84.0</ele><time>2026-04-30T12:35:59.002Z</time></trkpt><trkpt lat="41.11236729103052" lon="9.365672323968637"><ele>84.0</ele><time>2026-04-30T12:36:00.002Z</time></trkpt><trkpt lat="41.11252109802665" lon="9.365619592153639"><ele>84.0</ele><time>2026-04-30T12:36:01.002Z</time></trkpt><trkpt lat="41.11266999162751" lon="9.365566790310604"><ele>86.0</ele><time>2026-04-30T12:36:02.002Z</time></trkpt><trkpt lat="41.112818180224714" lon="9.365506416456265"><ele>88.0</ele><time>2026-04-30T12:36:03.002Z</time></trkpt><trkpt lat="41.11297481099788" lon="9.365462424734465"><ele>90.0</ele><time>2026-04-30T12:36:04.002Z</time></trkpt><trkpt lat="41.11313356946914" lon="9.365429952925764"><ele>89.0</ele><time>2026-04-30T12:36:05.002Z</time></trkpt><trkpt lat="41.113294668179236" lon="9.365420089817405"><ele>88.0</ele><time>2026-04-30T12:36:06.002Z</time></trkpt><trkpt lat="41.113461285229995" lon="9.365430010456413"><ele>87.0</ele><time>2026-04-30T12:36:07.002Z</time></trkpt><trkpt lat="41.11362430794426" lon="9.365450372393694"><ele>87.0</ele><time>2026-04-30T12:36:08.002Z</time></trkpt><trkpt lat="41.11378354609827" lon="9.365478684938843"><ele>87.0</ele><time>2026-04-30T12:36:09.002Z</time></trkpt><trkpt lat="41.11394092358366" lon="9.365511425910281"><ele>87.0</ele><time>2026-04-30T12:36:10.002Z</time></trkpt><trkpt lat="41.11409537989547" lon="9.365541083779256"><ele>85.0</ele><time>2026-04-30T12:36:11.002Z</time></trkpt><trkpt lat="41.11424808191408" lon="9.365573553599354"><ele>83.0</ele><time>2026-04-30T12:36:12.002Z</time></trkpt><trkpt lat="41.114405459736815" lon="9.365606057923804"><ele>81.0</ele><time>2026-04-30T12:36:13.002Z</time></trkpt><trkpt lat="41.11456566906788" lon="9.36564375056631"><ele>81.0</ele><time>2026-04-30T12:36:14.002Z</time></trkpt><trkpt lat="41.11473433800368" lon="9.36567946739993"><ele>81.0</ele><time>2026-04-30T12:36:15.002Z</time></trkpt><trkpt lat="41.11491195531909" lon="9.365715987599193"><ele>81.0</ele><time>2026-04-30T12:36:16.002Z</time></trkpt><trkpt lat="41.11509096766984" lon="9.365752859821603"><ele>80.33333333333333</ele><time>2026-04-30T12:36:17.002Z</time></trkpt><trkpt lat="41.11526662554356" lon="9.365798728644226"><ele>79.66666666666666</ele><time>2026-04-30T12:36:18.002Z</time></trkpt><trkpt lat="41.11543519361673" lon="9.36583340175999"><ele>79.0</ele><time>2026-04-30T12:36:19.002Z</time></trkpt><trkpt lat="41.11560776369691" lon="9.365869021674955"><ele>79.0</ele><time>2026-04-30T12:36:20.002Z</time></trkpt><trkpt lat="41.11577947520352" lon="9.365905665867057"><ele>79.0</ele><time>2026-04-30T12:36:21.002Z</time></trkpt><trkpt lat="41.11595974556528" lon="9.365946791977713"><ele>79.0</ele><time>2026-04-30T12:36:22.002Z</time></trkpt><trkpt lat="41.11614090052254" lon="9.365986073816531"><ele>79.0</ele><time>2026-04-30T12:36:23.002Z</time></trkpt><trkpt lat="41.11633148254291" lon="9.366020864173223"><ele>79.0</ele><time>2026-04-30T12:36:24.002Z</time></trkpt><trkpt lat="41.116526002143814" lon="9.366055307662224"><ele>79.0</ele><time>2026-04-30T12:36:25.002Z</time></trkpt><trkpt lat="41.11672699972178" lon="9.366082536092788"><ele>78.0</ele><time>2026-04-30T12:36:26.002Z</time></trkpt><trkpt lat="41.11693134170575" lon="9.366104209237692"><ele>77.0</ele><time>2026-04-30T12:36:27.002Z</time></trkpt><trkpt lat="41.11713034754016" lon="9.366124415319534"><ele>76.0</ele><time>2026-04-30T12:36:28.002Z</time></trkpt><trkpt lat="41.117331583404145" lon="9.366144213763388"><ele>74.33333333333333</ele><time>2026-04-30T12:36:29.002Z</time></trkpt><trkpt lat="41.117533015648576" lon="9.36616593315628"><ele>72.66666666666667</ele><time>2026-04-30T12:36:30.002Z</time></trkpt><trkpt lat="41.1177394980453" lon="9.366184855958036"><ele>71.0</ele><time>2026-04-30T12:36:31.002Z</time></trkpt><trkpt lat="41.11794376052214" lon="9.36620646687971"><ele>71.0</ele><time>2026-04-30T12:36:32.002Z</time></trkpt><trkpt lat="41.11814582747014" lon="9.366229536859962"><ele>71.0</ele><time>2026-04-30T12:36:33.002Z</time></trkpt><trkpt lat="41.11834994214957" lon="9.366252203341757"><ele>71.0</ele><time>2026-04-30T12:36:34.002Z</time></trkpt><trkpt lat="41.11854882990168" lon="9.36627355051626"><ele>70.0</ele><time>2026-04-30T12:36:35.002Z</time></trkpt><trkpt lat="41.11874545409976" lon="9.36629276544148"><ele>69.0</ele><time>2026-04-30T12:36:36.002Z</time></trkpt><trkpt lat="41.1189398208019" lon="9.366313685777337"><ele>68.0</ele><time>2026-04-30T12:36:37.002Z</time></trkpt><trkpt lat="41.11913165585669" lon="9.366335287870427"><ele>68.0</ele><time>2026-04-30T12:36:38.001Z</time></trkpt><trkpt lat="41.1193118255441" lon="9.366355753449174"><ele>68.0</ele><time>2026-04-30T12:36:39.001Z</time></trkpt><trkpt lat="41.11948585307482" lon="9.366375717204257"><ele>68.0</ele><time>2026-04-30T12:36:40.001Z</time></trkpt><trkpt lat="41.11965268399219" lon="9.366395475628096"><ele>67.66666666666667</ele><time>2026-04-30T12:36:41.001Z</time></trkpt><trkpt lat="41.11982276111352" lon="9.366417821572139"><ele>67.33333333333333</ele><time>2026-04-30T12:36:42.001Z</time></trkpt><trkpt lat="41.119992869688794" lon="9.366436870303572"><ele>67.0</ele><time>2026-04-30T12:36:43.001Z</time></trkpt><trkpt lat="41.120163632201056" lon="9.366452162725329"><ele>67.0</ele><time>2026-04-30T12:36:44.001Z</time></trkpt><trkpt lat="41.1203347497906" lon="9.366468424650245"><ele>67.0</ele><time>2026-04-30T12:36:45.001Z</time></trkpt><trkpt lat="41.12050649353393" lon="9.366487580484527"><ele>67.0</ele><time>2026-04-30T12:36:46.001Z</time></trkpt><trkpt lat="41.120681601630736" lon="9.366510506933112"><ele>67.0</ele><time>2026-04-30T12:36:47.001Z</time></trkpt><trkpt lat="41.12085761165019" lon="9.366531056962614"><ele>67.0</ele><time>2026-04-30T12:36:48.001Z</time></trkpt><trkpt lat="41.12103203402968" lon="9.366549897848293"><ele>67.0</ele><time>2026-04-30T12:36:49.001Z</time></trkpt><trkpt lat="41.121212280392065" lon="9.366566110950435"><ele>67.0</ele><time>2026-04-30T12:36:50.001Z</time></trkpt><trkpt lat="41.12139678157072" lon="9.366590287469238"><ele>67.0</ele><time>2026-04-30T12:36:51.001Z</time></trkpt><trkpt lat="41.12158807414553" lon="9.366614166450718"><ele>67.0</ele><time>2026-04-30T12:36:52.001Z</time></trkpt><trkpt lat="41.12177576470143" lon="9.366631699733045"><ele>66.0</ele><time>2026-04-30T12:36:53.001Z</time></trkpt><trkpt lat="41.12196496868369" lon="9.366654226855683"><ele>65.0</ele><time>2026-04-30T12:36:54.001Z</time></trkpt><trkpt lat="41.12215635979779" lon="9.366676324595993"><ele>64.0</ele><time>2026-04-30T12:36:55.001Z</time></trkpt><trkpt lat="41.12234378871004" lon="9.36669722703653"><ele>65.0</ele><time>2026-04-30T12:36:56.001Z</time></trkpt><trkpt lat="41.122531443231246" lon="9.366719466692661"><ele>66.0</ele><time>2026-04-30T12:36:57.001Z</time></trkpt><trkpt lat="41.122724878545775" lon="9.36674477590358"><ele>67.0</ele><time>2026-04-30T12:36:58.001Z</time></trkpt><trkpt lat="41.1229234813624" lon="9.366767528604568"><ele>67.0</ele><time>2026-04-30T12:36:59.001Z</time></trkpt><trkpt lat="41.1231254406219" lon="9.366790290494734"><ele>67.0</ele><time>2026-04-30T12:37:00.001Z</time></trkpt><trkpt lat="41.123334389900364" lon="9.366812540291209"><ele>67.0</ele><time>2026-04-30T12:37:01.001Z</time></trkpt><trkpt lat="41.1235454921865" lon="9.366835117620237"><ele>66.33333333333333</ele><time>2026-04-30T12:37:02.001Z</time></trkpt><trkpt lat="41.123757237902666" lon="9.36686021469496"><ele>65.66666666666667</ele><time>2026-04-30T12:37:03.001Z</time></trkpt><trkpt lat="41.123967975560994" lon="9.366885188367922"><ele>65.0</ele><time>2026-04-30T12:37:04.001Z</time></trkpt><trkpt lat="41.12417846451146" lon="9.366912517397214"><ele>63.333333333333336</ele><time>2026-04-30T12:37:05.001Z</time></trkpt><trkpt lat="41.12439321237872" lon="9.366937641351472"><ele>61.66666666666667</ele><time>2026-04-30T12:37:06.001Z</time></trkpt><trkpt lat="41.124618128469976" lon="9.366965699030336"><ele>60.0</ele><time>2026-04-30T12:37:07.001Z</time></trkpt><trkpt lat="41.12482076904789" lon="9.366989449151825"><ele>60.33333333333333</ele><time>2026-04-30T12:37:08.001Z</time></trkpt><trkpt lat="41.12501220512364" lon="9.367011578705432"><ele>60.666666666666664</ele><time>2026-04-30T12:37:09.001Z</time></trkpt><trkpt lat="41.12518684926232" lon="9.367023027564965"><ele>61.0</ele><time>2026-04-30T12:37:10.001Z</time></trkpt><trkpt lat="41.125356207890086" lon="9.367038621143767"><ele>61.0</ele><time>2026-04-30T12:37:11.001Z</time></trkpt><trkpt lat="41.12552149015175" lon="9.367003867500204"><ele>61.0</ele><time>2026-04-30T12:37:12.001Z</time></trkpt><trkpt lat="41.12568091416031" lon="9.366920074798573"><ele>61.0</ele><time>2026-04-30T12:37:13.001Z</time></trkpt><trkpt lat="41.12584372801956" lon="9.366837832810308"><ele>61.666666666666664</ele><time>2026-04-30T12:37:14.002Z</time></trkpt><trkpt lat="41.12600882143599" lon="9.36675199603774"><ele>62.33333333333333</ele><time>2026-04-30T12:37:15.002Z</time></trkpt><trkpt lat="41.12618113749612" lon="9.36666407197137"><ele>63.0</ele><time>2026-04-30T12:37:16.002Z</time></trkpt><trkpt lat="41.126364940968145" lon="9.366570239363964"><ele>63.0</ele><time>2026-04-30T12:37:17.002Z</time></trkpt><trkpt lat="41.126553025295756" lon="9.366477355437276"><ele>63.0</ele><time>2026-04-30T12:37:18.002Z</time></trkpt><trkpt lat="41.12674637228619" lon="9.366380938903555"><ele>63.0</ele><time>2026-04-30T12:37:19.002Z</time></trkpt><trkpt lat="41.126926460241606" lon="9.36628870303579"><ele>64.33333333333333</ele><time>2026-04-30T12:37:20.002Z</time></trkpt><trkpt lat="41.12710248455517" lon="9.366220147724501"><ele>65.66666666666666</ele><time>2026-04-30T12:37:21.002Z</time></trkpt><trkpt lat="41.12728060227248" lon="9.366178393688946"><ele>67.0</ele><time>2026-04-30T12:37:22.002Z</time></trkpt><trkpt lat="41.127447350241695" lon="9.366181010138288"><ele>67.0</ele><time>2026-04-30T12:37:23.002Z</time></trkpt><trkpt lat="41.12761475628683" lon="9.366215114475315"><ele>67.0</ele><time>2026-04-30T12:37:24.002Z</time></trkpt><trkpt lat="41.1277919554879" lon="9.366294608986761"><ele>67.0</ele><time>2026-04-30T12:37:25.002Z</time></trkpt><trkpt lat="41.12797352579569" lon="9.366390786699732"><ele>63.666666666666664</ele><time>2026-04-30T12:37:26.002Z</time></trkpt><trkpt lat="41.12816695136756" lon="9.366493296856277"><ele>60.33333333333333</ele><time>2026-04-30T12:37:27.002Z</time></trkpt><trkpt lat="41.12835842593229" lon="9.366592025455192"><ele>57.0</ele><time>2026-04-30T12:37:28.002Z</time></trkpt><trkpt lat="41.12852900485475" lon="9.36668271147873"><ele>57.0</ele><time>2026-04-30T12:37:29.002Z</time></trkpt><trkpt lat="41.128682653454526" lon="9.366758341177034"><ele>57.0</ele><time>2026-04-30T12:37:30.002Z</time></trkpt><trkpt lat="41.128820763265125" lon="9.36681773764246"><ele>57.0</ele><time>2026-04-30T12:37:31.002Z</time></trkpt><trkpt lat="41.12894926807919" lon="9.366829149010876"><ele>57.0</ele><time>2026-04-30T12:37:32.002Z</time></trkpt><trkpt lat="41.12907926083696" lon="9.366798945311542"><ele>56.33333333333333</ele><time>2026-04-30T12:37:33.002Z</time></trkpt><trkpt lat="41.12920780082122" lon="9.366717213810613"><ele>55.666666666666664</ele><time>2026-04-30T12:37:34.002Z</time></trkpt><trkpt lat="41.12934371032818" lon="9.366624863044148"><ele>55.0</ele><time>2026-04-30T12:37:35.002Z</time></trkpt><trkpt lat="41.12948635887973" lon="9.36653139475627"><ele>55.0</ele><time>2026-04-30T12:37:36.002Z</time></trkpt><trkpt lat="41.129638771763574" lon="9.366441550259049"><ele>55.0</ele><time>2026-04-30T12:37:37.002Z</time></trkpt><trkpt lat="41.12978641406199" lon="9.366349947593973"><ele>55.0</ele><time>2026-04-30T12:37:38.002Z</time></trkpt><trkpt lat="41.12992759588148" lon="9.366252867816318"><ele>55.666666666666664</ele><time>2026-04-30T12:37:39.002Z</time></trkpt><trkpt lat="41.13006997563808" lon="9.366175274527459"><ele>56.33333333333333</ele><time>2026-04-30T12:37:40.002Z</time></trkpt><trkpt lat="41.130233859213384" lon="9.366143914670339"><ele>57.0</ele><time>2026-04-30T12:37:41.002Z</time></trkpt><trkpt lat="41.130390770256" lon="9.366146950903286"><ele>57.0</ele><time>2026-04-30T12:37:42.002Z</time></trkpt><trkpt lat="41.13055566896421" lon="9.366209899196338"><ele>57.0</ele><time>2026-04-30T12:37:43.002Z</time></trkpt><trkpt lat="41.13073666382454" lon="9.366242091440387"><ele>57.0</ele><time>2026-04-30T12:37:44.002Z</time></trkpt><trkpt lat="41.13091453746387" lon="9.366293526430674"><ele>56.33333333333333</ele><time>2026-04-30T12:37:45.002Z</time></trkpt><trkpt lat="41.13109206981924" lon="9.36635557721536"><ele>55.666666666666664</ele><time>2026-04-30T12:37:46.002Z</time></trkpt><trkpt lat="41.131274738813474" lon="9.366414261229941"><ele>55.0</ele><time>2026-04-30T12:37:47.002Z</time></trkpt><trkpt lat="41.13144531204539" lon="9.36645878292286"><ele>53.33333333333333</ele><time>2026-04-30T12:37:48.002Z</time></trkpt><trkpt lat="41.131599214832875" lon="9.366529780926815"><ele>51.66666666666667</ele><time>2026-04-30T12:37:49.002Z</time></trkpt><trkpt lat="41.13174694284238" lon="9.3665968714934"><ele>50.0</ele><time>2026-04-30T12:37:50.002Z</time></trkpt><trkpt lat="41.13188666497462" lon="9.36666105847708"><ele>50.0</ele><time>2026-04-30T12:37:51.002Z</time></trkpt><trkpt lat="41.132026094823395" lon="9.366722614242551"><ele>50.0</ele><time>2026-04-30T12:37:52.002Z</time></trkpt><trkpt lat="41.132161671415" lon="9.366778824388486"><ele>50.0</ele><time>2026-04-30T12:37:53.002Z</time></trkpt><trkpt lat="41.13229199852795" lon="9.366836388759548"><ele>50.0</ele><time>2026-04-30T12:37:54.002Z</time></trkpt><trkpt lat="41.132418186346996" lon="9.366888586516373"><ele>49.75</ele><time>2026-04-30T12:37:55.002Z</time></trkpt><trkpt lat="41.132533715078665" lon="9.366943045769077"><ele>49.5</ele><time>2026-04-30T12:37:56.002Z</time></trkpt><trkpt lat="41.132636431697236" lon="9.367017025414741"><ele>49.25</ele><time>2026-04-30T12:37:57.002Z</time></trkpt><trkpt lat="41.132720376640854" lon="9.367131324662969"><ele>49.0</ele><time>2026-04-30T12:37:58.002Z</time></trkpt><trkpt lat="41.13277716218006" lon="9.36727703692863"><ele>48.25</ele><time>2026-04-30T12:37:59.002Z</time></trkpt><trkpt lat="41.13281583464308" lon="9.367455239258355"><ele>47.5</ele><time>2026-04-30T12:38:00.002Z</time></trkpt><trkpt lat="41.132862087586666" lon="9.367634844692446"><ele>46.75</ele><time>2026-04-30T12:38:01.002Z</time></trkpt><trkpt lat="41.13291221361548" lon="9.367785639147082"><ele>46.0</ele><time>2026-04-30T12:38:02.002Z</time></trkpt><trkpt lat="41.13296314398477" lon="9.367931380462132"><ele>46.0</ele><time>2026-04-30T12:38:03.002Z</time></trkpt><trkpt lat="41.133059003731155" lon="9.368034011207923"><ele>46.0</ele><time>2026-04-30T12:38:04.002Z</time></trkpt><trkpt lat="41.133187993050534" lon="9.36807421743043"><ele>46.0</ele><time>2026-04-30T12:38:05.002Z</time></trkpt><trkpt lat="41.13331831916022" lon="9.368096473884803"><ele>46.0</ele><time>2026-04-30T12:38:06.002Z</time></trkpt><trkpt lat="41.13346094116208" lon="9.368104764224121"><ele>45.75</ele><time>2026-04-30T12:38:07.002Z</time></trkpt><trkpt lat="41.133601340543116" lon="9.368108510239901"><ele>45.5</ele><time>2026-04-30T12:38:08.002Z</time></trkpt><trkpt lat="41.13374885913683" lon="9.368113654183137"><ele>45.25</ele><time>2026-04-30T12:38:09.002Z</time></trkpt><trkpt lat="41.13389977030256" lon="9.36811850625913"><ele>45.0</ele><time>2026-04-30T12:38:10.002Z</time></trkpt><trkpt lat="41.13405424172182" lon="9.368122485768811"><ele>45.333333333333336</ele><time>2026-04-30T12:38:11.002Z</time></trkpt><trkpt lat="41.134216996653414" lon="9.368127699139105"><ele>45.66666666666667</ele><time>2026-04-30T12:38:12.002Z</time></trkpt><trkpt lat="41.1343815398719" lon="9.368129057913512"><ele>46.0</ele><time>2026-04-30T12:38:13.002Z</time></trkpt><trkpt lat="41.1345456564333" lon="9.36813351365475"><ele>46.0</ele><time>2026-04-30T12:38:14.002Z</time></trkpt><trkpt lat="41.13470587676593" lon="9.368140138501934"><ele>46.0</ele><time>2026-04-30T12:38:15.002Z</time></trkpt><trkpt lat="41.1348676297409" lon="9.368141882816637"><ele>46.0</ele><time>2026-04-30T12:38:16.002Z</time></trkpt><trkpt lat="41.13503477456306" lon="9.368138074210368"><ele>45.66666666666667</ele><time>2026-04-30T12:38:17.002Z</time></trkpt><trkpt lat="41.13520999449956" lon="9.3681233888318"><ele>45.333333333333336</ele><time>2026-04-30T12:38:18.002Z</time></trkpt><trkpt lat="41.135383177693754" lon="9.368105611694409"><ele>45.0</ele><time>2026-04-30T12:38:19.002Z</time></trkpt><trkpt lat="41.135555112244404" lon="9.368084079083442"><ele>45.333333333333336</ele><time>2026-04-30T12:38:20.002Z</time></trkpt><trkpt lat="41.13572584943683" lon="9.368073780938722"><ele>45.66666666666667</ele><time>2026-04-30T12:38:21.002Z</time></trkpt><trkpt lat="41.135890378089286" lon="9.368061633971319"><ele>46.0</ele><time>2026-04-30T12:38:22.002Z</time></trkpt><trkpt lat="41.13605136237262" lon="9.368052084597108"><ele>46.0</ele><time>2026-04-30T12:38:23.002Z</time></trkpt><trkpt lat="41.136209070973685" lon="9.368038174721912"><ele>46.0</ele><time>2026-04-30T12:38:24.003Z</time></trkpt><trkpt lat="41.13636186311546" lon="9.368047794374654"><ele>46.0</ele><time>2026-04-30T12:38:25.003Z</time></trkpt><trkpt lat="41.136513477239866" lon="9.368016426900402"><ele>45.333333333333336</ele><time>2026-04-30T12:38:26.002Z</time></trkpt><trkpt lat="41.136663270461355" lon="9.368026844373771"><ele>44.666666666666664</ele><time>2026-04-30T12:38:27.002Z</time></trkpt><trkpt lat="41.13681158836908" lon="9.368071538664116"><ele>44.0</ele><time>2026-04-30T12:38:28.002Z</time></trkpt><trkpt lat="41.13695629058847" lon="9.368148126180118"><ele>44.0</ele><time>2026-04-30T12:38:29.002Z</time></trkpt><trkpt lat="41.1370966171358" lon="9.368252917318465"><ele>44.0</ele><time>2026-04-30T12:38:30.002Z</time></trkpt><trkpt lat="41.137240090403395" lon="9.368364643359397"><ele>44.0</ele><time>2026-04-30T12:38:31.002Z</time></trkpt><trkpt lat="41.137383596343525" lon="9.368499591577912"><ele>44.0</ele><time>2026-04-30T12:38:32.002Z</time></trkpt><trkpt lat="41.137521681713594" lon="9.368613280348944"><ele>44.0</ele><time>2026-04-30T12:38:33.002Z</time></trkpt><trkpt lat="41.13766779233091" lon="9.368708281424755"><ele>44.0</ele><time>2026-04-30T12:38:34.002Z</time></trkpt><trkpt lat="41.13780398029732" lon="9.368823601462108"><ele>43.33333333333333</ele><time>2026-04-30T12:38:35.002Z</time></trkpt><trkpt lat="41.137942918469825" lon="9.368936332894947"><ele>42.666666666666664</ele><time>2026-04-30T12:38:36.002Z</time></trkpt><trkpt lat="41.138082228531744" lon="9.369051656006583"><ele>42.0</ele><time>2026-04-30T12:38:37.002Z</time></trkpt><trkpt lat="41.138227667931396" lon="9.369178753067242"><ele>43.333333333333336</ele><time>2026-04-30T12:38:38.002Z</time></trkpt><trkpt lat="41.13836636252698" lon="9.369295286875209"><ele>44.66666666666667</ele><time>2026-04-30T12:38:39.002Z</time></trkpt><trkpt lat="41.13850201981093" lon="9.369403266008238"><ele>46.0</ele><time>2026-04-30T12:38:40.002Z</time></trkpt><trkpt lat="41.13863877231127" lon="9.369516554493615"><ele>46.0</ele><time>2026-04-30T12:38:41.002Z</time></trkpt><trkpt lat="41.13877328445026" lon="9.369629468996756"><ele>46.0</ele><time>2026-04-30T12:38:42.002Z</time></trkpt><trkpt lat="41.13890826159278" lon="9.369740239282022"><ele>46.0</ele><time>2026-04-30T12:38:43.002Z</time></trkpt><trkpt lat="41.13904067257721" lon="9.369848878048714"><ele>45.0</ele><time>2026-04-30T12:38:44.002Z</time></trkpt><trkpt lat="41.13917523660907" lon="9.369939959029765"><ele>44.0</ele><time>2026-04-30T12:38:45.002Z</time></trkpt><trkpt lat="41.139320651217425" lon="9.370024395237644"><ele>43.0</ele><time>2026-04-30T12:38:46.001Z</time></trkpt><trkpt lat="41.13948100913483" lon="9.370083195666723"><ele>43.0</ele><time>2026-04-30T12:38:47.001Z</time></trkpt><trkpt lat="41.13964353317009" lon="9.370124558110488"><ele>43.0</ele><time>2026-04-30T12:38:48.001Z</time></trkpt><trkpt lat="41.13981253849664" lon="9.370168519076929"><ele>43.0</ele><time>2026-04-30T12:38:49.001Z</time></trkpt><trkpt lat="41.13997716278789" lon="9.370213822375941"><ele>42.66666666666667</ele><time>2026-04-30T12:38:50.001Z</time></trkpt><trkpt lat="41.14013448291053" lon="9.37025998329875"><ele>42.333333333333336</ele><time>2026-04-30T12:38:51.001Z</time></trkpt><trkpt lat="41.14028829121655" lon="9.370308004132019"><ele>42.0</ele><time>2026-04-30T12:38:52.001Z</time></trkpt><trkpt lat="41.140432897991964" lon="9.370349979907068"><ele>42.0</ele><time>2026-04-30T12:38:53.001Z</time></trkpt><trkpt lat="41.140580151962396" lon="9.370389616747925"><ele>42.0</ele><time>2026-04-30T12:38:54.001Z</time></trkpt><trkpt lat="41.14072709283128" lon="9.37043110553806"><ele>42.0</ele><time>2026-04-30T12:38:55.001Z</time></trkpt><trkpt lat="41.14086006421341" lon="9.370466514142409"><ele>42.0</ele><time>2026-04-30T12:38:56.001Z</time></trkpt><trkpt lat="41.14097972367758" lon="9.370503616129566"><ele>42.2</ele><time>2026-04-30T12:38:57.001Z</time></trkpt><trkpt lat="41.14109023005275" lon="9.370525670417534"><ele>42.400000000000006</ele><time>2026-04-30T12:38:58.001Z</time></trkpt><trkpt lat="41.141190004108324" lon="9.370545775698224"><ele>42.599999999999994</ele><time>2026-04-30T12:38:59.001Z</time></trkpt><trkpt lat="41.141278103552565" lon="9.370488926419762"><ele>42.8</ele><time>2026-04-30T12:39:00.001Z</time></trkpt><trkpt lat="41.14136689083252" lon="9.370445242121306"><ele>43.0</ele><time>2026-04-30T12:39:01.001Z</time></trkpt><trkpt lat="41.14146322982835" lon="9.370391208815235"><ele>43.5</ele><time>2026-04-30T12:39:02.001Z</time></trkpt><trkpt lat="41.141567685661265" lon="9.370336268410451"><ele>44.0</ele><time>2026-04-30T12:39:03.001Z</time></trkpt><trkpt lat="41.14168148349733" lon="9.370282918963168"><ele>44.5</ele><time>2026-04-30T12:39:04.001Z</time></trkpt><trkpt lat="41.14181011362191" lon="9.370225156108345"><ele>45.0</ele><time>2026-04-30T12:39:05.001Z</time></trkpt><trkpt lat="41.14194663119236" lon="9.370164367884469"><ele>45.0</ele><time>2026-04-30T12:39:06.001Z</time></trkpt><trkpt lat="41.14207388772996" lon="9.370109554779608"><ele>45.0</ele><time>2026-04-30T12:39:07.001Z</time></trkpt><trkpt lat="41.142212728845266" lon="9.370053375554939"><ele>45.0</ele><time>2026-04-30T12:39:08.001Z</time></trkpt><trkpt lat="41.142362429279714" lon="9.370000115264105"><ele>45.0</ele><time>2026-04-30T12:39:09.001Z</time></trkpt><trkpt lat="41.14252290412863" lon="9.36995412968315"><ele>43.666666666666664</ele><time>2026-04-30T12:39:10.001Z</time></trkpt><trkpt lat="41.14269362163563" lon="9.369917928883504"><ele>42.33333333333333</ele><time>2026-04-30T12:39:11.001Z</time></trkpt><trkpt lat="41.14287284624556" lon="9.369888076861924"><ele>41.0</ele><time>2026-04-30T12:39:12.001Z</time></trkpt><trkpt lat="41.14304704663422" lon="9.369858820093787"><ele>39.33333333333333</ele><time>2026-04-30T12:39:13.001Z</time></trkpt><trkpt lat="41.14322010396596" lon="9.369823774846532"><ele>37.666666666666664</ele><time>2026-04-30T12:39:14.001Z</time></trkpt><trkpt lat="41.14338803675145" lon="9.369786908558474"><ele>36.0</ele><time>2026-04-30T12:39:15.001Z</time></trkpt><trkpt lat="41.14354805253053" lon="9.36975233398572"><ele>36.0</ele><time>2026-04-30T12:39:16.001Z</time></trkpt><trkpt lat="41.143699616579305" lon="9.369721568629126"><ele>36.0</ele><time>2026-04-30T12:39:17.001Z</time></trkpt><trkpt lat="41.14384472375873" lon="9.36969205042624"><ele>36.0</ele><time>2026-04-30T12:39:18.001Z</time></trkpt><trkpt lat="41.14398954804593" lon="9.369664251763307"><ele>36.0</ele><time>2026-04-30T12:39:19.001Z</time></trkpt><trkpt lat="41.14413548110219" lon="9.36964215910135"><ele>37.0</ele><time>2026-04-30T12:39:20.001Z</time></trkpt><trkpt lat="41.14428117222483" lon="9.369631457812508"><ele>38.0</ele><time>2026-04-30T12:39:21.001Z</time></trkpt><trkpt lat="41.14442842293858" lon="9.369635780768121"><ele>39.0</ele><time>2026-04-30T12:39:22.001Z</time></trkpt><trkpt lat="41.14457521137252" lon="9.369654213167532"><ele>40.0</ele><time>2026-04-30T12:39:23.001Z</time></trkpt><trkpt lat="41.14472406244233" lon="9.369684005295202"><ele>39.66666666666667</ele><time>2026-04-30T12:39:24.001Z</time></trkpt><trkpt lat="41.14487607262232" lon="9.369717358136924"><ele>39.333333333333336</ele><time>2026-04-30T12:39:25.001Z</time></trkpt><trkpt lat="41.14502345524398" lon="9.369749812957314"><ele>39.0</ele><time>2026-04-30T12:39:26.001Z</time></trkpt><trkpt lat="41.145176090329734" lon="9.369773669502774"><ele>39.0</ele><time>2026-04-30T12:39:27.001Z</time></trkpt><trkpt lat="41.145333315022626" lon="9.369786526108504"><ele>39.0</ele><time>2026-04-30T12:39:28.001Z</time></trkpt><trkpt lat="41.14549548594937" lon="9.369761814285956"><ele>39.0</ele><time>2026-04-30T12:39:29.001Z</time></trkpt><trkpt lat="41.145671096425076" lon="9.369705324938666"><ele>39.666666666666664</ele><time>2026-04-30T12:39:30.001Z</time></trkpt><trkpt lat="41.14584492253307" lon="9.369632612216353"><ele>40.33333333333333</ele><time>2026-04-30T12:39:31.001Z</time></trkpt><trkpt lat="41.14600698956271" lon="9.369557309756985"><ele>41.0</ele><time>2026-04-30T12:39:32.001Z</time></trkpt><trkpt lat="41.146164253514435" lon="9.369485291261276"><ele>41.0</ele><time>2026-04-30T12:39:33.001Z</time></trkpt><trkpt lat="41.14632678114373" lon="9.369422100632635"><ele>41.0</ele><time>2026-04-30T12:39:34.001Z</time></trkpt><trkpt lat="41.14648863899984" lon="9.369381985484152"><ele>41.0</ele><time>2026-04-30T12:39:35.001Z</time></trkpt><trkpt lat="41.14665261417101" lon="9.369368405735493"><ele>41.33333333333333</ele><time>2026-04-30T12:39:36.001Z</time></trkpt><trkpt lat="41.14681614853967" lon="9.369379485005494"><ele>41.666666666666664</ele><time>2026-04-30T12:39:37.001Z</time></trkpt><trkpt lat="41.14697242258279" lon="9.369399450077236"><ele>42.0</ele><time>2026-04-30T12:39:38.001Z</time></trkpt><trkpt lat="41.147124842650975" lon="9.36941979895687"><ele>42.0</ele><time>2026-04-30T12:39:39.001Z</time></trkpt><trkpt lat="41.14726980667325" lon="9.369450459417637"><ele>42.0</ele><time>2026-04-30T12:39:40.001Z</time></trkpt><trkpt lat="41.1474095914155" lon="9.369490209698593"><ele>42.0</ele><time>2026-04-30T12:39:41.001Z</time></trkpt><trkpt lat="41.147547916690236" lon="9.369539841821977"><ele>42.0</ele><time>2026-04-30T12:39:42.001Z</time></trkpt><trkpt lat="41.14768518504537" lon="9.369601439266743"><ele>42.333333333333336</ele><time>2026-04-30T12:39:43.001Z</time></trkpt><trkpt lat="41.14782481412438" lon="9.369667220681873"><ele>42.66666666666667</ele><time>2026-04-30T12:39:44.002Z</time></trkpt><trkpt lat="41.14796826401869" lon="9.369735310072043"><ele>43.0</ele><time>2026-04-30T12:39:45.002Z</time></trkpt><trkpt lat="41.148118487373736" lon="9.369796487613009"><ele>43.333333333333336</ele><time>2026-04-30T12:39:46.002Z</time></trkpt><trkpt lat="41.148273157642016" lon="9.369835236328449"><ele>43.666666666666664</ele><time>2026-04-30T12:39:47.002Z</time></trkpt><trkpt lat="41.14843473796563" lon="9.369852592053771"><ele>44.0</ele><time>2026-04-30T12:39:48.002Z</time></trkpt><trkpt lat="41.14860410717948" lon="9.369858242513812"><ele>44.0</ele><time>2026-04-30T12:39:49.002Z</time></trkpt><trkpt lat="41.14877744410294" lon="9.369854255828324"><ele>44.0</ele><time>2026-04-30T12:39:50.002Z</time></trkpt><trkpt lat="41.14895072947311" lon="9.369849186062508"><ele>44.0</ele><time>2026-04-30T12:39:51.002Z</time></trkpt><trkpt lat="41.14912533872422" lon="9.369848337282617"><ele>42.666666666666664</ele><time>2026-04-30T12:39:52.002Z</time></trkpt><trkpt lat="41.149298078735185" lon="9.369849981964816"><ele>41.333333333333336</ele><time>2026-04-30T12:39:53.002Z</time></trkpt><trkpt lat="41.149470545867004" lon="9.369853246326459"><ele>40.0</ele><time>2026-04-30T12:39:54.002Z</time></trkpt><trkpt lat="41.14963998775229" lon="9.36985168823022"><ele>40.0</ele><time>2026-04-30T12:39:55.002Z</time></trkpt><trkpt lat="41.14980264778194" lon="9.369849151099357"><ele>40.0</ele><time>2026-04-30T12:39:56.002Z</time></trkpt><trkpt lat="41.14996867202118" lon="9.369850180785505"><ele>40.0</ele><time>2026-04-30T12:39:57.002Z</time></trkpt><trkpt lat="41.15013418053108" lon="9.369860261174143"><ele>39.333333333333336</ele><time>2026-04-30T12:39:58.002Z</time></trkpt><trkpt lat="41.15030557653339" lon="9.369887121410827"><ele>38.666666666666664</ele><time>2026-04-30T12:39:59.002Z</time></trkpt><trkpt lat="41.15048394022499" lon="9.369936498832326"><ele>38.0</ele><time>2026-04-30T12:40:00.002Z</time></trkpt><trkpt lat="41.15066847454036" lon="9.370005160023894"><ele>37.33333333333333</ele><time>2026-04-30T12:40:01.002Z</time></trkpt><trkpt lat="41.15084493592331" lon="9.37007477171039"><ele>36.666666666666664</ele><time>2026-04-30T12:40:02.002Z</time></trkpt><trkpt lat="41.15102107643823" lon="9.370147293472694"><ele>36.0</ele><time>2026-04-30T12:40:03.002Z</time></trkpt><trkpt lat="41.15119649443094" lon="9.370220051731184"><ele>36.0</ele><time>2026-04-30T12:40:04.002Z</time></trkpt><trkpt lat="41.15137151459334" lon="9.370292239838836"><ele>36.0</ele><time>2026-04-30T12:40:05.002Z</time></trkpt><trkpt lat="41.15154625358476" lon="9.370365801358346"><ele>36.0</ele><time>2026-04-30T12:40:06.002Z</time></trkpt><trkpt lat="41.151718367977644" lon="9.37043798352527"><ele>35.333333333333336</ele><time>2026-04-30T12:40:07.002Z</time></trkpt><trkpt lat="41.15188873321185" lon="9.370509188993182"><ele>34.66666666666667</ele><time>2026-04-30T12:40:08.002Z</time></trkpt><trkpt lat="41.15205844942215" lon="9.370581203222622"><ele>34.0</ele><time>2026-04-30T12:40:09.002Z</time></trkpt><trkpt lat="41.152231705471706" lon="9.370656692114771"><ele>33.333333333333336</ele><time>2026-04-30T12:40:10.002Z</time></trkpt><trkpt lat="41.152402805247505" lon="9.370731062938109"><ele>32.666666666666664</ele><time>2026-04-30T12:40:11.002Z</time></trkpt><trkpt lat="41.15257487357681" lon="9.370806269994592"><ele>32.0</ele><time>2026-04-30T12:40:12.002Z</time></trkpt><trkpt lat="41.152748528102336" lon="9.370878231634348"><ele>32.0</ele><time>2026-04-30T12:40:13.002Z</time></trkpt><trkpt lat="41.15292254781611" lon="9.37095000707324"><ele>32.0</ele><time>2026-04-30T12:40:14.002Z</time></trkpt><trkpt lat="41.153095083558135" lon="9.371020985850022"><ele>32.0</ele><time>2026-04-30T12:40:15.002Z</time></trkpt><trkpt lat="41.153268217276114" lon="9.371094214291304"><ele>33.33333333333333</ele><time>2026-04-30T12:40:16.002Z</time></trkpt><trkpt lat="41.15344007116292" lon="9.371165472321305"><ele>34.666666666666664</ele><time>2026-04-30T12:40:17.002Z</time></trkpt><trkpt lat="41.153614580324934" lon="9.371238412605848"><ele>36.0</ele><time>2026-04-30T12:40:18.002Z</time></trkpt><trkpt lat="41.153791285523674" lon="9.37131147053498"><ele>35.666666666666664</ele><time>2026-04-30T12:40:19.002Z</time></trkpt><trkpt lat="41.153972596060584" lon="9.371387991399901"><ele>35.33333333333333</ele><time>2026-04-30T12:40:20.002Z</time></trkpt><trkpt lat="41.15415630766118" lon="9.371466059009519"><ele>35.0</ele><time>2026-04-30T12:40:21.002Z</time></trkpt><trkpt lat="41.1543423399465" lon="9.37154125854936"><ele>35.0</ele><time>2026-04-30T12:40:22.002Z</time></trkpt><trkpt lat="41.154529817075414" lon="9.37161717569343"><ele>35.0</ele><time>2026-04-30T12:40:23.002Z</time></trkpt><trkpt lat="41.15472015354602" lon="9.371695971713864"><ele>35.0</ele><time>2026-04-30T12:40:24.002Z</time></trkpt><trkpt lat="41.154909598934154" lon="9.371775527135874"><ele>35.0</ele><time>2026-04-30T12:40:25.002Z</time></trkpt><trkpt lat="41.15509963176288" lon="9.371858276283806"><ele>35.0</ele><time>2026-04-30T12:40:26.002Z</time></trkpt><trkpt lat="41.155288526371194" lon="9.371940036189905"><ele>35.0</ele><time>2026-04-30T12:40:27.002Z</time></trkpt><trkpt lat="41.15547700797865" lon="9.372018201561096"><ele>35.0</ele><time>2026-04-30T12:40:28.002Z</time></trkpt><trkpt lat="41.1556637529032" lon="9.37209302835621"><ele>35.0</ele><time>2026-04-30T12:40:29.002Z</time></trkpt><trkpt lat="41.15585265138246" lon="9.37216674027307"><ele>35.0</ele><time>2026-04-30T12:40:30.002Z</time></trkpt><trkpt lat="41.15604162061366" lon="9.372240614028739"><ele>35.0</ele><time>2026-04-30T12:40:31.002Z</time></trkpt><trkpt lat="41.156227979397876" lon="9.372313305643184"><ele>35.0</ele><time>2026-04-30T12:40:32.002Z</time></trkpt><trkpt lat="41.156415532257455" lon="9.372381871512944"><ele>35.0</ele><time>2026-04-30T12:40:33.002Z</time></trkpt><trkpt lat="41.15660479748312" lon="9.372446166534148"><ele>35.0</ele><time>2026-04-30T12:40:34.002Z</time></trkpt><trkpt lat="41.156796108913476" lon="9.372503983837706"><ele>35.0</ele><time>2026-04-30T12:40:35.002Z</time></trkpt><trkpt lat="41.15698370347779" lon="9.372547023173814"><ele>35.0</ele><time>2026-04-30T12:40:36.002Z</time></trkpt><trkpt lat="41.15716812508978" lon="9.372573626888414"><ele>35.0</ele><time>2026-04-30T12:40:37.002Z</time></trkpt><trkpt lat="41.15735481734642" lon="9.372586226665137"><ele>35.0</ele><time>2026-04-30T12:40:38.002Z</time></trkpt><trkpt lat="41.15754192596668" lon="9.372584887469573"><ele>35.0</ele><time>2026-04-30T12:40:39.002Z</time></trkpt><trkpt lat="41.15773041669196" lon="9.372567490392361"><ele>34.0</ele><time>2026-04-30T12:40:40.002Z</time></trkpt><trkpt lat="41.15791470897453" lon="9.372533570717879"><ele>33.0</ele><time>2026-04-30T12:40:41.002Z</time></trkpt><trkpt lat="41.1580923071699" lon="9.37248564161846"><ele>32.0</ele><time>2026-04-30T12:40:42.001Z</time></trkpt><trkpt lat="41.158266514066746" lon="9.37242334115358"><ele>31.0</ele><time>2026-04-30T12:40:43.001Z</time></trkpt><trkpt lat="41.15844270975904" lon="9.372347715885589"><ele>30.0</ele><time>2026-04-30T12:40:44.001Z</time></trkpt><trkpt lat="41.15861111510418" lon="9.372258804176644"><ele>29.0</ele><time>2026-04-30T12:40:45.001Z</time></trkpt><trkpt lat="41.158774423129216" lon="9.37215391854181"><ele>29.0</ele><time>2026-04-30T12:40:46.001Z</time></trkpt><trkpt lat="41.158932803602504" lon="9.37203133625034"><ele>29.0</ele><time>2026-04-30T12:40:47.001Z</time></trkpt><trkpt lat="41.15908653934299" lon="9.371899497672429"><ele>29.0</ele><time>2026-04-30T12:40:48.001Z</time></trkpt><trkpt lat="41.159238809864824" lon="9.371762247839836"><ele>26.0</ele><time>2026-04-30T12:40:49.001Z</time></trkpt><trkpt lat="41.15939356737652" lon="9.371616888638204"><ele>23.0</ele><time>2026-04-30T12:40:50.001Z</time></trkpt><trkpt lat="41.15954722427477" lon="9.371470394035017"><ele>20.0</ele><time>2026-04-30T12:40:51.001Z</time></trkpt><trkpt lat="41.15970425477564" lon="9.371327300001393"><ele>19.666666666666668</ele><time>2026-04-30T12:40:52.001Z</time></trkpt><trkpt lat="41.15987290075928" lon="9.371190685398544"><ele>19.333333333333332</ele><time>2026-04-30T12:40:53.001Z</time></trkpt><trkpt lat="41.16005557402125" lon="9.371065976611227"><ele>19.0</ele><time>2026-04-30T12:40:54.001Z</time></trkpt><trkpt lat="41.1602412539277" lon="9.370961892387564"><ele>19.0</ele><time>2026-04-30T12:40:55.001Z</time></trkpt><trkpt lat="41.1604300735176" lon="9.370877480684381"><ele>19.0</ele><time>2026-04-30T12:40:56.001Z</time></trkpt><trkpt lat="41.16061779695245" lon="9.370814142611732"><ele>19.0</ele><time>2026-04-30T12:40:57.001Z</time></trkpt><trkpt lat="41.16081118336046" lon="9.370767078675456"><ele>16.333333333333332</ele><time>2026-04-30T12:40:58.001Z</time></trkpt><trkpt lat="41.16101315996783" lon="9.370740645347013"><ele>13.666666666666666</ele><time>2026-04-30T12:40:59.001Z</time></trkpt><trkpt lat="41.161211495231285" lon="9.370728930758897"><ele>11.0</ele><time>2026-04-30T12:41:00.001Z</time></trkpt><trkpt lat="41.16140583320524" lon="9.370722703272085"><ele>10.333333333333332</ele><time>2026-04-30T12:41:01.001Z</time></trkpt><trkpt lat="41.1615969498555" lon="9.370715215196817"><ele>9.666666666666666</ele><time>2026-04-30T12:41:02.001Z</time></trkpt><trkpt lat="41.16178826956151" lon="9.370708229322096"><ele>9.0</ele><time>2026-04-30T12:41:03.001Z</time></trkpt><trkpt lat="41.161981593492435" lon="9.370705155580922"><ele>9.0</ele><time>2026-04-30T12:41:04.001Z</time></trkpt><trkpt lat="41.16217480049129" lon="9.37070227150476"><ele>9.0</ele><time>2026-04-30T12:41:05.001Z</time></trkpt><trkpt lat="41.16236291967839" lon="9.370693385267563"><ele>9.0</ele><time>2026-04-30T12:41:06.001Z</time></trkpt><trkpt lat="41.162547539057236" lon="9.37068540686871"><ele>10.0</ele><time>2026-04-30T12:41:07.001Z</time></trkpt><trkpt lat="41.16273200533084" lon="9.370678578392965"><ele>11.0</ele><time>2026-04-30T12:41:08.001Z</time></trkpt><trkpt lat="41.16291448089304" lon="9.370674860242852"><ele>12.0</ele><time>2026-04-30T12:41:09.001Z</time></trkpt><trkpt lat="41.16310497173228" lon="9.37066450845085"><ele>11.666666666666666</ele><time>2026-04-30T12:41:10.001Z</time></trkpt><trkpt lat="41.16329935778108" lon="9.370648597087396"><ele>11.333333333333332</ele><time>2026-04-30T12:41:11.001Z</time></trkpt><trkpt lat="41.16349732258481" lon="9.370631713818145"><ele>11.0</ele><time>2026-04-30T12:41:12.001Z</time></trkpt><trkpt lat="41.16368917381189" lon="9.37061954140945"><ele>11.0</ele><time>2026-04-30T12:41:13.001Z</time></trkpt><trkpt lat="41.16388157145944" lon="9.370610789006182"><ele>11.0</ele><time>2026-04-30T12:41:14.001Z</time></trkpt><trkpt lat="41.164070796327536" lon="9.370602675560887"><ele>11.0</ele><time>2026-04-30T12:41:15.001Z</time></trkpt><trkpt lat="41.164258282130746" lon="9.370592883637444"><ele>10.333333333333332</ele><time>2026-04-30T12:41:16.001Z</time></trkpt><trkpt lat="41.164444846631476" lon="9.37058174538742"><ele>9.666666666666666</ele><time>2026-04-30T12:41:17.001Z</time></trkpt><trkpt lat="41.164630387112034" lon="9.370571422160458"><ele>9.0</ele><time>2026-04-30T12:41:18.001Z</time></trkpt><trkpt lat="41.16481823753297" lon="9.37056414942487"><ele>9.666666666666666</ele><time>2026-04-30T12:41:19.001Z</time></trkpt><trkpt lat="41.16499541737526" lon="9.370553277119992"><ele>10.333333333333332</ele><time>2026-04-30T12:41:20.001Z</time></trkpt><trkpt lat="41.165166587701584" lon="9.370538251833171"><ele>11.0</ele><time>2026-04-30T12:41:21.001Z</time></trkpt><trkpt lat="41.16535109690557" lon="9.370529765239846"><ele>12.666666666666666</ele><time>2026-04-30T12:41:22.001Z</time></trkpt><trkpt lat="41.16553719972907" lon="9.37052067448604"><ele>14.333333333333332</ele><time>2026-04-30T12:41:23.001Z</time></trkpt><trkpt lat="41.165690512386455" lon="9.370500238812209"><ele>16.0</ele><time>2026-04-30T12:41:24.001Z</time></trkpt><trkpt lat="41.16586085451271" lon="9.370489398776087"><ele>16.333333333333332</ele><time>2026-04-30T12:41:25.001Z</time></trkpt><trkpt lat="41.16602301803787" lon="9.370479744827227"><ele>16.666666666666668</ele><time>2026-04-30T12:41:26.001Z</time></trkpt><trkpt lat="41.16617529753776" lon="9.370468850405752"><ele>17.0</ele><time>2026-04-30T12:41:27.001Z</time></trkpt><trkpt lat="41.16632428762062" lon="9.370455188196923"><ele>17.0</ele><time>2026-04-30T12:41:28.001Z</time></trkpt><trkpt lat="41.16647172864935" lon="9.370446217081808"><ele>17.0</ele><time>2026-04-30T12:41:29.001Z</time></trkpt><trkpt lat="41.16662869967374" lon="9.370445792069159"><ele>17.0</ele><time>2026-04-30T12:41:30.001Z</time></trkpt><trkpt lat="41.16678754971429" lon="9.370435904058652"><ele>15.666666666666668</ele><time>2026-04-30T12:41:31.001Z</time></trkpt><trkpt lat="41.16695093207539" lon="9.370424502398754"><ele>14.333333333333332</ele><time>2026-04-30T12:41:32.001Z</time></trkpt><trkpt lat="41.16711837920887" lon="9.370413276553888"><ele>13.0</ele><time>2026-04-30T12:41:33.001Z</time></trkpt><trkpt lat="41.16729451233612" lon="9.37040246666482"><ele>12.333333333333332</ele><time>2026-04-30T12:41:34.001Z</time></trkpt><trkpt lat="41.16746953873629" lon="9.370388075070023"><ele>11.666666666666666</ele><time>2026-04-30T12:41:35.001Z</time></trkpt><trkpt lat="41.16763756977082" lon="9.370373420501037"><ele>11.0</ele><time>2026-04-30T12:41:36.001Z</time></trkpt><trkpt lat="41.16780544265524" lon="9.370367259057785"><ele>11.0</ele><time>2026-04-30T12:41:37.001Z</time></trkpt><trkpt lat="41.16797143087595" lon="9.370357035381856"><ele>11.0</ele><time>2026-04-30T12:41:38.001Z</time></trkpt><trkpt lat="41.16813894449856" lon="9.37034291868869"><ele>11.0</ele><time>2026-04-30T12:41:39.001Z</time></trkpt><trkpt lat="41.16830276427058" lon="9.370334008030884"><ele>12.0</ele><time>2026-04-30T12:41:40.001Z</time></trkpt><trkpt lat="41.16846267603903" lon="9.37032469085034"><ele>13.0</ele><time>2026-04-30T12:41:41.001Z</time></trkpt><trkpt lat="41.16862419636341" lon="9.370317910147033"><ele>14.0</ele><time>2026-04-30T12:41:42.001Z</time></trkpt><trkpt lat="41.168795026293814" lon="9.37030385229574"><ele>14.0</ele><time>2026-04-30T12:41:43.001Z</time></trkpt><trkpt lat="41.1689740758236" lon="9.370283142598478"><ele>14.0</ele><time>2026-04-30T12:41:44.001Z</time></trkpt><trkpt lat="41.169161222773546" lon="9.370262133216595"><ele>14.0</ele><time>2026-04-30T12:41:45.001Z</time></trkpt><trkpt lat="41.169349235916386" lon="9.370243963219549"><ele>13.0</ele><time>2026-04-30T12:41:46.001Z</time></trkpt><trkpt lat="41.16953069526646" lon="9.370236804235502"><ele>12.0</ele><time>2026-04-30T12:41:47.001Z</time></trkpt><trkpt lat="41.16970220904662" lon="9.370197903098518"><ele>11.0</ele><time>2026-04-30T12:41:48.001Z</time></trkpt><trkpt lat="41.16986541205502" lon="9.370121212786152"><ele>10.333333333333332</ele><time>2026-04-30T12:41:49.001Z</time></trkpt><trkpt lat="41.17002926116746" lon="9.370033889243038"><ele>9.666666666666666</ele><time>2026-04-30T12:41:50.001Z</time></trkpt><trkpt lat="41.17020035947133" lon="9.369975697357644"><ele>9.0</ele><time>2026-04-30T12:41:51.001Z</time></trkpt><trkpt lat="41.1703602246809" lon="9.369889005898742"><ele>9.0</ele><time>2026-04-30T12:41:52.001Z</time></trkpt><trkpt lat="41.170521012233465" lon="9.369825729504793"><ele>9.0</ele><time>2026-04-30T12:41:53.001Z</time></trkpt><trkpt lat="41.17067679851716" lon="9.369754051468037"><ele>9.0</ele><time>2026-04-30T12:41:54.001Z</time></trkpt><trkpt lat="41.17082166543056" lon="9.36967455964968"><ele>9.0</ele><time>2026-04-30T12:41:55.001Z</time></trkpt><trkpt lat="41.170966918080346" lon="9.36960494306001"><ele>9.0</ele><time>2026-04-30T12:41:56.001Z</time></trkpt><trkpt lat="41.17110715992426" lon="9.369530923975208"><ele>9.0</ele><time>2026-04-30T12:41:57.001Z</time></trkpt><trkpt lat="41.1712380065993" lon="9.369446637477292"><ele>9.0</ele><time>2026-04-30T12:41:58.001Z</time></trkpt><trkpt lat="41.17136669180855" lon="9.369347020987759"><ele>9.0</ele><time>2026-04-30T12:41:59.001Z</time></trkpt><trkpt lat="41.17150192199287" lon="9.369242520906486"><ele>9.0</ele><time>2026-04-30T12:42:00.001Z</time></trkpt><trkpt lat="41.1716413941949" lon="9.369155611202684"><ele>8.666666666666666</ele><time>2026-04-30T12:42:01.001Z</time></trkpt><trkpt lat="41.17178426706437" lon="9.369077804744533"><ele>8.333333333333332</ele><time>2026-04-30T12:42:02.001Z</time></trkpt><trkpt lat="41.17192933171774" lon="9.369038375696247"><ele>8.0</ele><time>2026-04-30T12:42:03.001Z</time></trkpt><trkpt lat="41.172075459458014" lon="9.369006564243303"><ele>8.0</ele><time>2026-04-30T12:42:04.001Z</time></trkpt><trkpt lat="41.17223157775175" lon="9.368955570422585"><ele>8.0</ele><time>2026-04-30T12:42:05.001Z</time></trkpt><trkpt lat="41.172371838127816" lon="9.3688865633526"><ele>8.0</ele><time>2026-04-30T12:42:06.001Z</time></trkpt><trkpt lat="41.17249377546369" lon="9.368842772977839"><ele>8.0</ele><time>2026-04-30T12:42:07.001Z</time></trkpt><trkpt lat="41.17261858269812" lon="9.368783148714515"><ele>8.75</ele><time>2026-04-30T12:42:08.001Z</time></trkpt><trkpt lat="41.17271431363394" lon="9.368669387827326"><ele>9.5</ele><time>2026-04-30T12:42:09.001Z</time></trkpt><trkpt lat="41.17277973165638" lon="9.368539750102613"><ele>10.25</ele><time>2026-04-30T12:42:10.001Z</time></trkpt><trkpt lat="41.17285727076526" lon="9.368443066149407"><ele>11.0</ele><time>2026-04-30T12:42:11.001Z</time></trkpt><trkpt lat="41.17293254403151" lon="9.368344896611667"><ele>11.0</ele><time>2026-04-30T12:42:12.001Z</time></trkpt><trkpt lat="41.173035428956496" lon="9.368226267150298"><ele>11.0</ele><time>2026-04-30T12:42:13.001Z</time></trkpt><trkpt lat="41.17313872311201" lon="9.368173539396116"><ele>11.0</ele><time>2026-04-30T12:42:14.001Z</time></trkpt><trkpt lat="41.17323883383261" lon="9.368103445665245"><ele>11.0</ele><time>2026-04-30T12:42:15.001Z</time></trkpt><trkpt lat="41.173334245870585" lon="9.368019812225608"><ele>10.333333333333332</ele><time>2026-04-30T12:42:16.001Z</time></trkpt><trkpt lat="41.17340301790986" lon="9.367973713908631"><ele>9.666666666666666</ele><time>2026-04-30T12:42:17.001Z</time></trkpt><trkpt lat="41.17345844420166" lon="9.367928572463773"><ele>9.0</ele><time>2026-04-30T12:42:18.001Z</time></trkpt><trkpt lat="41.173536207867585" lon="9.367887010090103"><ele>8.333333333333334</ele><time>2026-04-30T12:42:20.001Z</time></trkpt><trkpt lat="41.17361318882926" lon="9.367837061351322"><ele>7.666666666666667</ele><time>2026-04-30T12:42:23.001Z</time></trkpt><trkpt lat="41.17368610795969" lon="9.367832980654066"><ele>7.0</ele><time>2026-04-30T12:42:25.001Z</time></trkpt><trkpt lat="41.17381070524047" lon="9.367847715660846"><ele>7.000000000000001</ele><time>2026-04-30T12:42:27.001Z</time></trkpt><trkpt lat="41.173925937000796" lon="9.367827712414975"><ele>7.0</ele><time>2026-04-30T12:42:29.001Z</time></trkpt><trkpt lat="41.17398162610685" lon="9.367785696779707"><ele>7.0</ele><time>2026-04-30T12:42:30.001Z</time></trkpt><trkpt lat="41.17403316530721" lon="9.36773460546315"><ele>7.0</ele><time>2026-04-30T12:42:31.001Z</time></trkpt><trkpt lat="41.17408427889386" lon="9.36768551553498"><ele>7.000000000000001</ele><time>2026-04-30T12:42:32.001Z</time></trkpt><trkpt lat="41.17414675857202" lon="9.367645486094856"><ele>7.0</ele><time>2026-04-30T12:42:33.001Z</time></trkpt><trkpt lat="41.174218032261734" lon="9.367620698264712"><ele>7.166666666666667</ele><time>2026-04-30T12:42:34.001Z</time></trkpt><trkpt lat="41.17429223666937" lon="9.367607970558803"><ele>7.333333333333334</ele><time>2026-04-30T12:42:35.001Z</time></trkpt><trkpt lat="41.17437056970181" lon="9.3675977354964"><ele>7.5</ele><time>2026-04-30T12:42:36.001Z</time></trkpt><trkpt lat="41.17445004105767" lon="9.367588406599662"><ele>7.666666666666666</ele><time>2026-04-30T12:42:37.001Z</time></trkpt><trkpt lat="41.17452572711552" lon="9.367577411604053"><ele>7.833333333333333</ele><time>2026-04-30T12:42:38.001Z</time></trkpt><trkpt lat="41.17460362712517" lon="9.367569798416227"><ele>8.0</ele><time>2026-04-30T12:42:39.001Z</time></trkpt><trkpt lat="41.17468500049262" lon="9.36756633737236"><ele>7.999999999999999</ele><time>2026-04-30T12:42:40.001Z</time></trkpt><trkpt lat="41.17476004762896" lon="9.367565747355265"><ele>8.0</ele><time>2026-04-30T12:42:41.001Z</time></trkpt><trkpt lat="41.17483645542906" lon="9.367562553830867"><ele>8.0</ele><time>2026-04-30T12:42:42.001Z</time></trkpt><trkpt lat="41.17492301314945" lon="9.367566177705621"><ele>8.0</ele><time>2026-04-30T12:42:43.001Z</time></trkpt><trkpt lat="41.17501831596478" lon="9.367573945752284"><ele>7.999999999999999</ele><time>2026-04-30T12:42:44.001Z</time></trkpt><trkpt lat="41.17510847778769" lon="9.367584737909446"><ele>8.0</ele><time>2026-04-30T12:42:45.001Z</time></trkpt><trkpt lat="41.17520222927617" lon="9.367599967386953"><ele>7.6000000000000005</ele><time>2026-04-30T12:42:46.001Z</time></trkpt><trkpt lat="41.17529291314489" lon="9.367621917635754"><ele>7.200000000000001</ele><time>2026-04-30T12:42:47.001Z</time></trkpt><trkpt lat="41.17538203654206" lon="9.36764658498229"><ele>6.8</ele><time>2026-04-30T12:42:48.001Z</time></trkpt><trkpt lat="41.17547129325366" lon="9.367676279031212"><ele>6.4</ele><time>2026-04-30T12:42:49.001Z</time></trkpt><trkpt lat="41.17555917225874" lon="9.3677099116238"><ele>6.0</ele><time>2026-04-30T12:42:50.001Z</time></trkpt><trkpt lat="41.175644967453" lon="9.36774965096373"><ele>5.833333333333333</ele><time>2026-04-30T12:42:51.001Z</time></trkpt><trkpt lat="41.17572728592806" lon="9.367790248566081"><ele>5.666666666666667</ele><time>2026-04-30T12:42:52.001Z</time></trkpt><trkpt lat="41.175804129914304" lon="9.367836818506905"><ele>5.5</ele><time>2026-04-30T12:42:53.001Z</time></trkpt><trkpt lat="41.17586665076331" lon="9.367892928066052"><ele>5.333333333333334</ele><time>2026-04-30T12:42:54.001Z</time></trkpt><trkpt lat="41.175921949082266" lon="9.36796071531961"><ele>5.166666666666667</ele><time>2026-04-30T12:42:55.001Z</time></trkpt><trkpt lat="41.17596978377242" lon="9.368042108580275"><ele>5.0</ele><time>2026-04-30T12:42:56.001Z</time></trkpt><trkpt lat="41.176024448901856" lon="9.368127085433251"><ele>4.8</ele><time>2026-04-30T12:42:57.001Z</time></trkpt><trkpt lat="41.17608170028338" lon="9.368210735319037"><ele>4.6</ele><time>2026-04-30T12:42:58.001Z</time></trkpt><trkpt lat="41.1761390013909" lon="9.3683025899409"><ele>4.4</ele><time>2026-04-30T12:42:59.001Z</time></trkpt><trkpt lat="41.17618260087813" lon="9.368412916132215"><ele>4.2</ele><time>2026-04-30T12:43:00.001Z</time></trkpt><trkpt lat="41.176224420194906" lon="9.368544078145582"><ele>4.0</ele><time>2026-04-30T12:43:01.001Z</time></trkpt><trkpt lat="41.17626083335726" lon="9.368694985305712"><ele>3.25</ele><time>2026-04-30T12:43:02.001Z</time></trkpt><trkpt lat="41.17629919517507" lon="9.368862622786812"><ele>2.5</ele><time>2026-04-30T12:43:03.001Z</time></trkpt><trkpt lat="41.17635210906499" lon="9.369034878798276"><ele>1.75</ele><time>2026-04-30T12:43:04.001Z</time></trkpt><trkpt lat="41.17641991574006" lon="9.369193434063401"><ele>1.0</ele><time>2026-04-30T12:43:05.001Z</time></trkpt><trkpt lat="41.176498891208105" lon="9.369334378194113"><ele>1.4</ele><time>2026-04-30T12:43:06.001Z</time></trkpt><trkpt lat="41.176582703061214" lon="9.369451189677333"><ele>1.8</ele><time>2026-04-30T12:43:07.001Z</time></trkpt><trkpt lat="41.176659640369664" lon="9.369540200326576"><ele>2.1999999999999997</ele><time>2026-04-30T12:43:08.001Z</time></trkpt><trkpt lat="41.17673004982923" lon="9.369616260357741"><ele>2.6</ele><time>2026-04-30T12:43:09.001Z</time></trkpt><trkpt lat="41.176791148792944" lon="9.36967103990346"><ele>3.0</ele><time>2026-04-30T12:43:10.001Z</time></trkpt><trkpt lat="41.17684736991892" lon="9.369711573828356"><ele>3.0</ele><time>2026-04-30T12:43:11.001Z</time></trkpt><trkpt lat="41.17697214618513" lon="9.369766853532216"><ele>3.0</ele><time>2026-04-30T12:43:13.001Z</time></trkpt><trkpt lat="41.17703841167314" lon="9.36979574307925"><ele>3.0</ele><time>2026-04-30T12:43:14.001Z</time></trkpt><trkpt lat="41.17715138015913" lon="9.369872604110004"><ele>3.0</ele><time>2026-04-30T12:43:16.001Z</time></trkpt><trkpt lat="41.17720499922924" lon="9.36992736479425"><ele>3.0</ele><time>2026-04-30T12:43:17.001Z</time></trkpt><trkpt lat="41.17725575872235" lon="9.369997016038445"><ele>3.0</ele><time>2026-04-30T12:43:18.001Z</time></trkpt><trkpt lat="41.17730869490712" lon="9.37007520134747"><ele>3.0</ele><time>2026-04-30T12:43:19.001Z</time></trkpt><trkpt lat="41.177367450431454" lon="9.37014400929018"><ele>3.0</ele><time>2026-04-30T12:43:20.001Z</time></trkpt><trkpt lat="41.177405304025285" lon="9.370224671085305"><ele>3.0</ele><time>2026-04-30T12:43:21.001Z</time></trkpt><trkpt lat="41.17760556691917" lon="9.370227621607155"><ele>3.0</ele><time>2026-04-30T12:43:23.001Z</time></trkpt><trkpt lat="41.17769933751084" lon="9.370201147477161"><ele>4.0</ele><time>2026-04-30T12:43:24.001Z</time></trkpt><trkpt lat="41.17779259391059" lon="9.37021919313224"><ele>5.0</ele><time>2026-04-30T12:43:25.001Z</time></trkpt><trkpt lat="41.17787709118908" lon="9.37025348679462"><ele>6.000000000000001</ele><time>2026-04-30T12:43:26.001Z</time></trkpt><trkpt lat="41.17795490587841" lon="9.370309753388531"><ele>7.0</ele><time>2026-04-30T12:43:27.001Z</time></trkpt><trkpt lat="41.178033683418235" lon="9.370383792934344"><ele>8.0</ele><time>2026-04-30T12:43:28.001Z</time></trkpt><trkpt lat="41.178105563563925" lon="9.370464996256125"><ele>8.200000000000001</ele><time>2026-04-30T12:43:29.001Z</time></trkpt><trkpt lat="41.178167782624854" lon="9.370547220918558"><ele>8.4</ele><time>2026-04-30T12:43:30.001Z</time></trkpt><trkpt lat="41.17823840456318" lon="9.370609595703641"><ele>8.600000000000001</ele><time>2026-04-30T12:43:31.001Z</time></trkpt><trkpt lat="41.17832274834973" lon="9.37064562095911"><ele>8.8</ele><time>2026-04-30T12:43:32.001Z</time></trkpt><trkpt lat="41.17841745985826" lon="9.370660044234299"><ele>9.0</ele><time>2026-04-30T12:43:33.001Z</time></trkpt><trkpt lat="41.178521744407426" lon="9.37066516606178"><ele>9.0</ele><time>2026-04-30T12:43:34.001Z</time></trkpt><trkpt lat="41.17862775442184" lon="9.370662006527514"><ele>9.0</ele><time>2026-04-30T12:43:35.001Z</time></trkpt><trkpt lat="41.178733363519385" lon="9.370663803096592"><ele>9.0</ele><time>2026-04-30T12:43:36.001Z</time></trkpt><trkpt lat="41.178836806016626" lon="9.370656342374403"><ele>9.0</ele><time>2026-04-30T12:43:37.001Z</time></trkpt><trkpt lat="41.17893729755039" lon="9.370636430193487"><ele>9.0</ele><time>2026-04-30T12:43:38.001Z</time></trkpt><trkpt lat="41.179036602263935" lon="9.370589953044192"><ele>12.0</ele><time>2026-04-30T12:43:39.001Z</time></trkpt><trkpt lat="41.17913422336452" lon="9.370523130494126"><ele>15.0</ele><time>2026-04-30T12:43:40.001Z</time></trkpt><trkpt lat="41.17923368355269" lon="9.370447243677166"><ele>18.0</ele><time>2026-04-30T12:43:41.001Z</time></trkpt><trkpt lat="41.179327237278" lon="9.370363743320782"><ele>21.0</ele><time>2026-04-30T12:43:42.001Z</time></trkpt><trkpt lat="41.17941993611218" lon="9.370275154803632"><ele>21.0</ele><time>2026-04-30T12:43:43.001Z</time></trkpt><trkpt lat="41.179506572160136" lon="9.370183661555718"><ele>21.0</ele><time>2026-04-30T12:43:44.001Z</time></trkpt><trkpt lat="41.17958827237574" lon="9.370095726888081"><ele>21.0</ele><time>2026-04-30T12:43:45.001Z</time></trkpt><trkpt lat="41.179679288688305" lon="9.36999340974598"><ele>21.0</ele><time>2026-04-30T12:43:46.001Z</time></trkpt><trkpt lat="41.17976555589563" lon="9.36986993128334"><ele>21.0</ele><time>2026-04-30T12:43:47.001Z</time></trkpt><trkpt lat="41.1798337055955" lon="9.369737891640302"><ele>21.0</ele><time>2026-04-30T12:43:48.001Z</time></trkpt><trkpt lat="41.179874772218476" lon="9.369602078028981"><ele>21.0</ele><time>2026-04-30T12:43:49.001Z</time></trkpt><trkpt lat="41.17990092767148" lon="9.369458219129127"><ele>21.0</ele><time>2026-04-30T12:43:50.001Z</time></trkpt><trkpt lat="41.17991210180811" lon="9.369327507215864"><ele>21.0</ele><time>2026-04-30T12:43:51.001Z</time></trkpt><trkpt lat="41.17993059723319" lon="9.369218047079103"><ele>22.833333333333332</ele><time>2026-04-30T12:43:52.001Z</time></trkpt><trkpt lat="41.179973331198084" lon="9.369135326404663"><ele>24.666666666666664</ele><time>2026-04-30T12:43:53.001Z</time></trkpt><trkpt lat="41.18002883263597" lon="9.369095570691641"><ele>26.5</ele><time>2026-04-30T12:43:54.001Z</time></trkpt><trkpt lat="41.180100727790666" lon="9.369101707857618"><ele>28.333333333333332</ele><time>2026-04-30T12:43:55.001Z</time></trkpt><trkpt lat="41.180172014685816" lon="9.369154185812217"><ele>30.166666666666664</ele><time>2026-04-30T12:43:56.001Z</time></trkpt><trkpt lat="41.18025057667164" lon="9.369233144682912"><ele>32.0</ele><time>2026-04-30T12:43:57.001Z</time></trkpt><trkpt lat="41.18033082257651" lon="9.369317654048931"><ele>31.999999999999996</ele><time>2026-04-30T12:43:58.001Z</time></trkpt><trkpt lat="41.18040796406915" lon="9.369412873205613"><ele>32.0</ele><time>2026-04-30T12:43:59.001Z</time></trkpt><trkpt lat="41.18047383135945" lon="9.369511627351779"><ele>32.0</ele><time>2026-04-30T12:44:00.001Z</time></trkpt><trkpt lat="41.18052817389743" lon="9.369598695466582"><ele>32.0</ele><time>2026-04-30T12:44:01.001Z</time></trkpt><trkpt lat="41.18058341547163" lon="9.369662395731554"><ele>31.999999999999996</ele><time>2026-04-30T12:44:02.001Z</time></trkpt><trkpt lat="41.18065312566454" lon="9.369688453533872"><ele>32.0</ele><time>2026-04-30T12:44:03.001Z</time></trkpt><trkpt lat="41.18071827743653" lon="9.369655477339851"><ele>32.5</ele><time>2026-04-30T12:44:04.001Z</time></trkpt><trkpt lat="41.180762988457076" lon="9.369577945534358"><ele>33.0</ele><time>2026-04-30T12:44:05.001Z</time></trkpt><trkpt lat="41.18077374817469" lon="9.369471008830242"><ele>33.5</ele><time>2026-04-30T12:44:06.001Z</time></trkpt><trkpt lat="41.18076980364156" lon="9.3693482350152"><ele>34.0</ele><time>2026-04-30T12:44:07.001Z</time></trkpt><trkpt lat="41.18077213168582" lon="9.369217256627413"><ele>34.5</ele><time>2026-04-30T12:44:08.001Z</time></trkpt><trkpt lat="41.180779929097056" lon="9.369097676148336"><ele>35.0</ele><time>2026-04-30T12:44:09.001Z</time></trkpt><trkpt lat="41.18080361189269" lon="9.368989330739863"><ele>35.0</ele><time>2026-04-30T12:44:10.001Z</time></trkpt><trkpt lat="41.18084196386059" lon="9.368889952366327"><ele>35.0</ele><time>2026-04-30T12:44:11.001Z</time></trkpt><trkpt lat="41.18089636329674" lon="9.368815634466353"><ele>35.0</ele><time>2026-04-30T12:44:12.001Z</time></trkpt><trkpt lat="41.180959877201936" lon="9.368781399221238"><ele>35.0</ele><time>2026-04-30T12:44:13.001Z</time></trkpt><trkpt lat="41.18104419752569" lon="9.368783170286608"><ele>35.0</ele><time>2026-04-30T12:44:14.001Z</time></trkpt><trkpt lat="41.18114246145515" lon="9.368816389558411"><ele>35.0</ele><time>2026-04-30T12:44:15.001Z</time></trkpt><trkpt lat="41.18124561707978" lon="9.368860337823183"><ele>35.0</ele><time>2026-04-30T12:44:16.001Z</time></trkpt><trkpt lat="41.18134453492082" lon="9.368899217508606"><ele>35.0</ele><time>2026-04-30T12:44:17.001Z</time></trkpt><trkpt lat="41.181431594063405" lon="9.36893383075324"><ele>35.0</ele><time>2026-04-30T12:44:18.001Z</time></trkpt><trkpt lat="41.18151654911123" lon="9.368966401560494"><ele>35.0</ele><time>2026-04-30T12:44:19.001Z</time></trkpt><trkpt lat="41.18160417270243" lon="9.369001691138607"><ele>35.0</ele><time>2026-04-30T12:44:20.001Z</time></trkpt><trkpt lat="41.181684889774814" lon="9.369039805596048"><ele>35.666666666666664</ele><time>2026-04-30T12:44:21.001Z</time></trkpt><trkpt lat="41.1817588106498" lon="9.369068014917245"><ele>36.33333333333333</ele><time>2026-04-30T12:44:22.001Z</time></trkpt><trkpt lat="41.181840072986695" lon="9.369057981518909"><ele>37.0</ele><time>2026-04-30T12:44:23.001Z</time></trkpt><trkpt lat="41.181928505372525" lon="9.369021966584942"><ele>37.666666666666664</ele><time>2026-04-30T12:44:24.001Z</time></trkpt><trkpt lat="41.18200998449164" lon="9.368963436911866"><ele>38.333333333333336</ele><time>2026-04-30T12:44:25.001Z</time></trkpt><trkpt lat="41.18208081728673" lon="9.368892939812339"><ele>39.0</ele><time>2026-04-30T12:44:26.001Z</time></trkpt><trkpt lat="41.182149889340636" lon="9.36880633460028"><ele>40.4</ele><time>2026-04-30T12:44:27.001Z</time></trkpt><trkpt lat="41.18221481042486" lon="9.368691833296099"><ele>41.8</ele><time>2026-04-30T12:44:28.001Z</time></trkpt><trkpt lat="41.18226846277641" lon="9.368581465430415"><ele>43.199999999999996</ele><time>2026-04-30T12:44:29.001Z</time></trkpt><trkpt lat="41.18231768977306" lon="9.368474476679971"><ele>44.599999999999994</ele><time>2026-04-30T12:44:30.001Z</time></trkpt><trkpt lat="41.182364090525134" lon="9.368385561836382"><ele>46.0</ele><time>2026-04-30T12:44:31.001Z</time></trkpt><trkpt lat="41.18243204285742" lon="9.368310981730367"><ele>46.0</ele><time>2026-04-30T12:44:33.001Z</time></trkpt><trkpt lat="41.18244822060151" lon="9.368226001651104"><ele>46.0</ele><time>2026-04-30T12:44:59.999Z</time></trkpt><trkpt lat="41.18251076796911" lon="9.368075517488682"><ele>46.0</ele><time>2026-04-30T12:45:02Z</time></trkpt><trkpt lat="41.182551410487626" lon="9.36800034991969"><ele>46.0</ele><time>2026-04-30T12:45:03Z</time></trkpt><trkpt lat="41.182595855413105" lon="9.367911518750557"><ele>46.0</ele><time>2026-04-30T12:45:04Z</time></trkpt><trkpt lat="41.182630098206594" lon="9.367811923305329"><ele>46.0</ele><time>2026-04-30T12:45:05Z</time></trkpt><trkpt lat="41.18266643253919" lon="9.367700423482164"><ele>48.0</ele><time>2026-04-30T12:45:06Z</time></trkpt><trkpt lat="41.1826775238289" lon="9.36757811961985"><ele>50.0</ele><time>2026-04-30T12:45:07Z</time></trkpt><trkpt lat="41.18268581131866" lon="9.367466213563635"><ele>51.99999999999999</ele><time>2026-04-30T12:45:08Z</time></trkpt><trkpt lat="41.18273496470915" lon="9.367373027063742"><ele>54.0</ele><time>2026-04-30T12:45:09Z</time></trkpt><trkpt lat="41.18281424832107" lon="9.3673118585733"><ele>56.0</ele><time>2026-04-30T12:45:10Z</time></trkpt><trkpt lat="41.18290736716164" lon="9.367267274114715"><ele>56.0</ele><time>2026-04-30T12:45:11Z</time></trkpt><trkpt lat="41.182981397617326" lon="9.367207041606333"><ele>55.99999999999999</ele><time>2026-04-30T12:45:12Z</time></trkpt><trkpt lat="41.183038948785885" lon="9.367118981505685"><ele>55.99999999999999</ele><time>2026-04-30T12:45:13Z</time></trkpt><trkpt lat="41.18309393958409" lon="9.367012946788474"><ele>56.0</ele><time>2026-04-30T12:45:14Z</time></trkpt><trkpt lat="41.18307989126528" lon="9.366866453064057"><ele>56.0</ele><time>2026-04-30T12:45:15Z</time></trkpt><trkpt lat="41.18306936109901" lon="9.366716195279299"><ele>58.0</ele><time>2026-04-30T12:45:16Z</time></trkpt><trkpt lat="41.18305481928756" lon="9.366559797371968"><ele>60.0</ele><time>2026-04-30T12:45:17Z</time></trkpt><trkpt lat="41.183042561567355" lon="9.36639097413001"><ele>62.0</ele><time>2026-04-30T12:45:18Z</time></trkpt><trkpt lat="41.18303137688085" lon="9.366217122820832"><ele>64.0</ele><time>2026-04-30T12:45:19Z</time></trkpt><trkpt lat="41.18301647848778" lon="9.366043109907856"><ele>64.25</ele><time>2026-04-30T12:45:20Z</time></trkpt><trkpt lat="41.18299819093598" lon="9.365866100230656"><ele>64.5</ele><time>2026-04-30T12:45:21Z</time></trkpt><trkpt lat="41.18297067210996" lon="9.365697621367726"><ele>64.75</ele><time>2026-04-30T12:45:22Z</time></trkpt><trkpt lat="41.18293345373035" lon="9.36553945907055"><ele>65.0</ele><time>2026-04-30T12:45:23Z</time></trkpt><trkpt lat="41.18290661377725" lon="9.365389724100458"><ele>65.0</ele><time>2026-04-30T12:45:24Z</time></trkpt><trkpt lat="41.182861347902794" lon="9.365216427317227"><ele>65.0</ele><time>2026-04-30T12:45:25Z</time></trkpt><trkpt lat="41.18282408016238" lon="9.365077120401498"><ele>65.0</ele><time>2026-04-30T12:45:26Z</time></trkpt><trkpt lat="41.182788181786336" lon="9.364946883383917"><ele>65.0</ele><time>2026-04-30T12:45:27Z</time></trkpt><trkpt lat="41.18275558094059" lon="9.364811642374775"><ele>64.2</ele><time>2026-04-30T12:45:28Z</time></trkpt><trkpt lat="41.182723789809025" lon="9.364675276469674"><ele>63.4</ele><time>2026-04-30T12:45:29Z</time></trkpt><trkpt lat="41.182690643456596" lon="9.364529220653173"><ele>62.599999999999994</ele><time>2026-04-30T12:45:30Z</time></trkpt><trkpt lat="41.18266591638407" lon="9.36439468618387"><ele>61.8</ele><time>2026-04-30T12:45:31Z</time></trkpt><trkpt lat="41.18263897364673" lon="9.364263669497621"><ele>61.0</ele><time>2026-04-30T12:45:32Z</time></trkpt><trkpt lat="41.18265223982908" lon="9.364137455989658"><ele>61.0</ele><time>2026-04-30T12:45:33Z</time></trkpt><trkpt lat="41.1826946112132" lon="9.364020505998115"><ele>61.0</ele><time>2026-04-30T12:45:34Z</time></trkpt><trkpt lat="41.18275399913948" lon="9.363901078671187"><ele>61.0</ele><time>2026-04-30T12:45:35Z</time></trkpt><trkpt lat="41.18281898870353" lon="9.363760728739068"><ele>61.0</ele><time>2026-04-30T12:45:36Z</time></trkpt><trkpt lat="41.182878074974276" lon="9.36360575724428"><ele>60.5</ele><time>2026-04-30T12:45:37Z</time></trkpt><trkpt lat="41.1829485545105" lon="9.363459245032208"><ele>60.0</ele><time>2026-04-30T12:45:38Z</time></trkpt><trkpt lat="41.18301994203676" lon="9.363309764171513"><ele>59.5</ele><time>2026-04-30T12:45:39Z</time></trkpt><trkpt lat="41.18309071836166" lon="9.363161193297355"><ele>59.0</ele><time>2026-04-30T12:45:40Z</time></trkpt><trkpt lat="41.183159946270656" lon="9.363020989135013"><ele>60.400000000000006</ele><time>2026-04-30T12:45:41Z</time></trkpt><trkpt lat="41.18322294607195" lon="9.362889557911998"><ele>61.800000000000004</ele><time>2026-04-30T12:45:42Z</time></trkpt><trkpt lat="41.183279764473454" lon="9.362780472448307"><ele>63.199999999999996</ele><time>2026-04-30T12:45:43Z</time></trkpt><trkpt lat="41.18336751150304" lon="9.362733134659653"><ele>64.6</ele><time>2026-04-30T12:45:44Z</time></trkpt><trkpt lat="41.18345474898326" lon="9.362714747941844"><ele>66.0</ele><time>2026-04-30T12:45:45Z</time></trkpt><trkpt lat="41.18354678829395" lon="9.362682335607548"><ele>66.0</ele><time>2026-04-30T12:45:46Z</time></trkpt><trkpt lat="41.18362707007894" lon="9.362663599293741"><ele>66.0</ele><time>2026-04-30T12:45:47Z</time></trkpt><trkpt lat="41.183749072543314" lon="9.362690302241674"><ele>66.0</ele><time>2026-04-30T12:45:49Z</time></trkpt><trkpt lat="41.18380137860769" lon="9.36276167784005"><ele>66.0</ele><time>2026-04-30T12:45:50Z</time></trkpt><trkpt lat="41.18384007080955" lon="9.362870083602019"><ele>66.0</ele><time>2026-04-30T12:45:51Z</time></trkpt><trkpt lat="41.18387529789474" lon="9.363004748649972"><ele>66.2</ele><time>2026-04-30T12:45:52Z</time></trkpt><trkpt lat="41.183910690606325" lon="9.363150302019694"><ele>66.39999999999999</ele><time>2026-04-30T12:45:53Z</time></trkpt><trkpt lat="41.18394630255361" lon="9.363298917667576"><ele>66.6</ele><time>2026-04-30T12:45:54Z</time></trkpt><trkpt lat="41.18397870171009" lon="9.36342371720002"><ele>66.8</ele><time>2026-04-30T12:45:55Z</time></trkpt><trkpt lat="41.18400687825425" lon="9.36352396249274"><ele>67.0</ele><time>2026-04-30T12:45:56Z</time></trkpt><trkpt lat="41.184044975132345" lon="9.363661070239262"><ele>68.4</ele><time>2026-04-30T12:45:58Z</time></trkpt><trkpt lat="41.18407939541994" lon="9.363786824190658"><ele>69.80000000000001</ele><time>2026-04-30T12:46:00Z</time></trkpt><trkpt lat="41.18412421984706" lon="9.363922341112199"><ele>71.2</ele><time>2026-04-30T12:46:02Z</time></trkpt><trkpt lat="41.1841532127886" lon="9.364050320511783"><ele>72.60000000000001</ele><time>2026-04-30T12:46:04Z</time></trkpt><trkpt lat="41.18415555140852" lon="9.364138796577512"><ele>74.0</ele><time>2026-04-30T12:46:06Z</time></trkpt><trkpt lat="41.184068519387075" lon="9.364155081341972"><ele>74.0</ele><time>2026-04-30T12:46:07Z</time></trkpt><trkpt lat="41.18400079358791" lon="9.364201529549693"><ele>74.0</ele><time>2026-04-30T12:46:09Z</time></trkpt><trkpt lat="41.18419656843185" lon="9.36422984042145"><ele>74.0</ele><time>2026-04-30T12:46:12Z</time></trkpt><trkpt lat="41.183942352032304" lon="9.364241609498434"><ele>74.0</ele><time>2026-04-30T12:48:06Z</time></trkpt><trkpt lat="41.18400370196528" lon="9.36439325135878"><ele>74.0</ele><time>2026-04-30T12:48:10Z</time></trkpt><trkpt lat="41.18407737238305" lon="9.364398655994927"><ele>74.0</ele><time>2026-04-30T12:49:08.999Z</time></trkpt><trkpt lat="41.184091990384744" lon="9.364489654366757"><ele>74.0</ele><time>2026-04-30T12:49:27.999Z</time></trkpt><trkpt lat="41.18408491540487" lon="9.36440607438665"><ele>74.0</ele><time>2026-04-30T12:54:29Z</time></trkpt><trkpt lat="41.18410390855263" lon="9.364320086007238"><ele>74.0</ele><time>2026-04-30T12:58:14Z</time></trkpt><trkpt lat="41.184102316069215" lon="9.364183963487138"><ele>74.0</ele><time>2026-04-30T12:58:18Z</time></trkpt><trkpt lat="41.184148081622446" lon="9.364093043937695"><ele>74.0</ele><time>2026-04-30T12:58:27Z</time></trkpt><trkpt lat="41.18416213007551" lon="9.364009108988167"><ele>74.0</ele><time>2026-04-30T12:58:29.001Z</time></trkpt><trkpt lat="41.18412141495421" lon="9.363868102853605"><ele>74.0</ele><time>2026-04-30T12:58:31.001Z</time></trkpt><trkpt lat="41.184088679455684" lon="9.363724019490927"><ele>74.0</ele><time>2026-04-30T12:58:33.001Z</time></trkpt><trkpt lat="41.18404121350114" lon="9.363553901521136"><ele>72.60000000000001</ele><time>2026-04-30T12:58:35.001Z</time></trkpt><trkpt lat="41.18399727058828" lon="9.363452970962166"><ele>71.2</ele><time>2026-04-30T12:58:36.001Z</time></trkpt><trkpt lat="41.183970822645065" lon="9.363343051152563"><ele>69.80000000000001</ele><time>2026-04-30T12:58:37.001Z</time></trkpt><trkpt lat="41.18394024355928" lon="9.363222845102129"><ele>68.4</ele><time>2026-04-30T12:58:38.001Z</time></trkpt><trkpt lat="41.183911793565024" lon="9.363105029053695"><ele>67.0</ele><time>2026-04-30T12:58:39.001Z</time></trkpt><trkpt lat="41.183885014580746" lon="9.362991830756068"><ele>66.83333333333333</ele><time>2026-04-30T12:58:40.001Z</time></trkpt><trkpt lat="41.18385522038066" lon="9.362885586041727"><ele>66.66666666666666</ele><time>2026-04-30T12:58:41.001Z</time></trkpt><trkpt lat="41.18381982748636" lon="9.362786446947629"><ele>66.5</ele><time>2026-04-30T12:58:42.001Z</time></trkpt><trkpt lat="41.18376869318811" lon="9.36270638324278"><ele>66.33333333333333</ele><time>2026-04-30T12:58:43.001Z</time></trkpt><trkpt lat="41.1837175491149" lon="9.36262475566127"><ele>66.16666666666667</ele><time>2026-04-30T12:58:44.001Z</time></trkpt><trkpt lat="41.18362591581429" lon="9.362606559026027"><ele>66.0</ele><time>2026-04-30T12:58:45.001Z</time></trkpt><trkpt lat="41.183536576929775" lon="9.362658032682319"><ele>66.0</ele><time>2026-04-30T12:58:46.001Z</time></trkpt><trkpt lat="41.18345339939042" lon="9.362683814633225"><ele>66.0</ele><time>2026-04-30T12:58:47.001Z</time></trkpt><trkpt lat="41.18337763877261" lon="9.362720182640151"><ele>66.0</ele><time>2026-04-30T12:58:48.001Z</time></trkpt><trkpt lat="41.1832992699751" lon="9.362746881092331"><ele>66.0</ele><time>2026-04-30T12:58:49.001Z</time></trkpt><trkpt lat="41.183226908198954" lon="9.36281646189086"><ele>66.0</ele><time>2026-04-30T12:58:50.001Z</time></trkpt><trkpt lat="41.1831666810163" lon="9.36293557249673"><ele>66.0</ele><time>2026-04-30T12:58:51.001Z</time></trkpt><trkpt lat="41.18310678129869" lon="9.363058574607075"><ele>64.39999999999999</ele><time>2026-04-30T12:58:52.001Z</time></trkpt><trkpt lat="41.18304976856605" lon="9.363177955298191"><ele>62.8</ele><time>2026-04-30T12:58:53.001Z</time></trkpt><trkpt lat="41.182995455060066" lon="9.363295249456934"><ele>61.199999999999996</ele><time>2026-04-30T12:58:54.001Z</time></trkpt><trkpt lat="41.182941142948806" lon="9.363412540604683"><ele>59.599999999999994</ele><time>2026-04-30T12:58:55.001Z</time></trkpt><trkpt lat="41.182887529633284" lon="9.363528322648843"><ele>58.0</ele><time>2026-04-30T12:58:56.001Z</time></trkpt><trkpt lat="41.18283554084289" lon="9.363640596406873"><ele>58.0</ele><time>2026-04-30T12:58:57.001Z</time></trkpt><trkpt lat="41.182783601023" lon="9.363752764380571"><ele>58.0</ele><time>2026-04-30T12:58:58.001Z</time></trkpt><trkpt lat="41.182744994559705" lon="9.36387388864561"><ele>58.0</ele><time>2026-04-30T12:58:59.001Z</time></trkpt><trkpt lat="41.182692926797166" lon="9.363977247683593"><ele>58.0</ele><time>2026-04-30T12:59:00.001Z</time></trkpt><trkpt lat="41.182650061888395" lon="9.364080716987413"><ele>58.0</ele><time>2026-04-30T12:59:01.001Z</time></trkpt><trkpt lat="41.18261569218978" lon="9.364191988049367"><ele>58.599999999999994</ele><time>2026-04-30T12:59:02.001Z</time></trkpt><trkpt lat="41.18261575259495" lon="9.36431582236679"><ele>59.199999999999996</ele><time>2026-04-30T12:59:03.001Z</time></trkpt><trkpt lat="41.182653855514694" lon="9.364422526518561"><ele>59.8</ele><time>2026-04-30T12:59:04.001Z</time></trkpt><trkpt lat="41.18267586262214" lon="9.364538075485608"><ele>60.4</ele><time>2026-04-30T12:59:05.001Z</time></trkpt><trkpt lat="41.182703378931414" lon="9.364653596851623"><ele>61.0</ele><time>2026-04-30T12:59:06.001Z</time></trkpt><trkpt lat="41.18273368762643" lon="9.364772504182593"><ele>61.8</ele><time>2026-04-30T12:59:07.001Z</time></trkpt><trkpt lat="41.182765250280035" lon="9.364899692977309"><ele>62.599999999999994</ele><time>2026-04-30T12:59:08.001Z</time></trkpt><trkpt lat="41.182794044587766" lon="9.365037780041643"><ele>63.4</ele><time>2026-04-30T12:59:09.001Z</time></trkpt><trkpt lat="41.18282887047754" lon="9.3651703961235"><ele>64.2</ele><time>2026-04-30T12:59:10.001Z</time></trkpt><trkpt lat="41.18286447508937" lon="9.365305722972726"><ele>65.0</ele><time>2026-04-30T12:59:11.001Z</time></trkpt><trkpt lat="41.182899512585905" lon="9.36545053055073"><ele>65.25</ele><time>2026-04-30T12:59:12.001Z</time></trkpt><trkpt lat="41.18293164764464" lon="9.365603602398384"><ele>65.5</ele><time>2026-04-30T12:59:13.001Z</time></trkpt><trkpt lat="41.182965215888466" lon="9.365769430943123"><ele>65.75</ele><time>2026-04-30T12:59:14.001Z</time></trkpt><trkpt lat="41.18299186575767" lon="9.365942610682739"><ele>66.0</ele><time>2026-04-30T12:59:15.001Z</time></trkpt><trkpt lat="41.18300615557056" lon="9.366121859919351"><ele>66.0</ele><time>2026-04-30T12:59:16.001Z</time></trkpt><trkpt lat="41.183016529370704" lon="9.366298924040967"><ele>66.0</ele><time>2026-04-30T12:59:17.001Z</time></trkpt><trkpt lat="41.18302945684637" lon="9.366470723478606"><ele>66.0</ele><time>2026-04-30T12:59:18.001Z</time></trkpt><trkpt lat="41.18304328675767" lon="9.366622632202246"><ele>66.0</ele><time>2026-04-30T12:59:19.001Z</time></trkpt><trkpt lat="41.18305565801237" lon="9.366757944490592"><ele>65.66666666666667</ele><time>2026-04-30T12:59:20.001Z</time></trkpt><trkpt lat="41.183065491732975" lon="9.366872578083163"><ele>65.33333333333333</ele><time>2026-04-30T12:59:21.001Z</time></trkpt><trkpt lat="41.18306727970598" lon="9.366974745678784"><ele>65.0</ele><time>2026-04-30T12:59:22.001Z</time></trkpt><trkpt lat="41.18304768399934" lon="9.367068795806034"><ele>64.66666666666666</ele><time>2026-04-30T12:59:23.001Z</time></trkpt><trkpt lat="41.18300623841451" lon="9.36714644819012"><ele>64.33333333333333</ele><time>2026-04-30T12:59:24.001Z</time></trkpt><trkpt lat="41.182951787214364" lon="9.367216448965346"><ele>64.0</ele><time>2026-04-30T12:59:25.001Z</time></trkpt><trkpt lat="41.18288114591056" lon="9.367267621195127"><ele>62.857142857142854</ele><time>2026-04-30T12:59:25.999Z</time></trkpt><trkpt lat="41.182804250622965" lon="9.367301178534314"><ele>61.71428571428571</ele><time>2026-04-30T12:59:26.999Z</time></trkpt><trkpt lat="41.18273955829375" lon="9.367348126631802"><ele>60.57142857142857</ele><time>2026-04-30T12:59:27.999Z</time></trkpt><trkpt lat="41.182693078812505" lon="9.36741761390481"><ele>59.42857142857143</ele><time>2026-04-30T12:59:28.999Z</time></trkpt><trkpt lat="41.182665365691754" lon="9.367507034067645"><ele>58.285714285714285</ele><time>2026-04-30T12:59:29.999Z</time></trkpt><trkpt lat="41.18264794507095" lon="9.367601746947303"><ele>57.14285714285714</ele><time>2026-04-30T12:59:30.999Z</time></trkpt><trkpt lat="41.18263595647444" lon="9.367699886842647"><ele>56.0</ele><time>2026-04-30T12:59:31.999Z</time></trkpt><trkpt lat="41.18261978960343" lon="9.367802344425666"><ele>56.0</ele><time>2026-04-30T12:59:32.999Z</time></trkpt><trkpt lat="41.1825869476793" lon="9.367902926749789"><ele>55.99999999999999</ele><time>2026-04-30T12:59:33.999Z</time></trkpt><trkpt lat="41.18253790913606" lon="9.368001241405898"><ele>55.99999999999999</ele><time>2026-04-30T12:59:34.999Z</time></trkpt><trkpt lat="41.18248521753254" lon="9.368105725135042"><ele>56.0</ele><time>2026-04-30T12:59:35.999Z</time></trkpt><trkpt lat="41.18243359692021" lon="9.368214548089165"><ele>56.0</ele><time>2026-04-30T12:59:36.999Z</time></trkpt><trkpt lat="41.182376512585776" lon="9.368330169121016"><ele>54.8</ele><time>2026-04-30T12:59:37.999Z</time></trkpt><trkpt lat="41.18230997458597" lon="9.368426582515454"><ele>53.599999999999994</ele><time>2026-04-30T12:59:38.999Z</time></trkpt><trkpt lat="41.18226760648879" lon="9.368553527727922"><ele>52.4</ele><time>2026-04-30T12:59:39.999Z</time></trkpt><trkpt lat="41.18221450851759" lon="9.368666364008783"><ele>51.2</ele><time>2026-04-30T12:59:40.999Z</time></trkpt><trkpt lat="41.18215604681392" lon="9.368769412690595"><ele>50.0</ele><time>2026-04-30T12:59:41.999Z</time></trkpt><trkpt lat="41.182091125274226" lon="9.368860589337668"><ele>47.8</ele><time>2026-04-30T12:59:42.999Z</time></trkpt><trkpt lat="41.18201778376363" lon="9.368937366170806"><ele>45.6</ele><time>2026-04-30T12:59:43.999Z</time></trkpt><trkpt lat="41.18193627601925" lon="9.368998514291805"><ele>43.4</ele><time>2026-04-30T12:59:45Z</time></trkpt><trkpt lat="41.18184779812694" lon="9.369038585493076"><ele>41.2</ele><time>2026-04-30T12:59:46Z</time></trkpt><trkpt lat="41.18175454709362" lon="9.369042776603173"><ele>39.0</ele><time>2026-04-30T12:59:47Z</time></trkpt><trkpt lat="41.18165272789173" lon="9.369012877370613"><ele>39.0</ele><time>2026-04-30T12:59:48Z</time></trkpt><trkpt lat="41.18153565752721" lon="9.368965991491276"><ele>39.0</ele><time>2026-04-30T12:59:49Z</time></trkpt><trkpt lat="41.18141316936922" lon="9.368911556748019"><ele>39.0</ele><time>2026-04-30T12:59:50Z</time></trkpt><trkpt lat="41.18128975184959" lon="9.368858638198198"><ele>39.0</ele><time>2026-04-30T12:59:51Z</time></trkpt><trkpt lat="41.18117828296379" lon="9.36881737771371"><ele>39.6</ele><time>2026-04-30T12:59:52Z</time></trkpt><trkpt lat="41.18108077075793" lon="9.36878215362524"><ele>40.2</ele><time>2026-04-30T12:59:53Z</time></trkpt><trkpt lat="41.18099372037656" lon="9.36874295085946"><ele>40.800000000000004</ele><time>2026-04-30T12:59:54Z</time></trkpt><trkpt lat="41.18090472671975" lon="9.368761778242293"><ele>41.4</ele><time>2026-04-30T12:59:55Z</time></trkpt><trkpt lat="41.18083563614528" lon="9.36884362715401"><ele>42.0</ele><time>2026-04-30T12:59:56Z</time></trkpt><trkpt lat="41.18079090700054" lon="9.368965977939785"><ele>40.6</ele><time>2026-04-30T12:59:57Z</time></trkpt><trkpt lat="41.18075614129228" lon="9.369103892647898"><ele>39.2</ele><time>2026-04-30T12:59:58Z</time></trkpt><trkpt lat="41.180742472587006" lon="9.3692519177315"><ele>37.8</ele><time>2026-04-30T12:59:59Z</time></trkpt><trkpt lat="41.18074111878038" lon="9.369377644467837"><ele>36.4</ele><time>2026-04-30T13:00:00Z</time></trkpt><trkpt lat="41.1807400727504" lon="9.369490284217708"><ele>35.0</ele><time>2026-04-30T13:00:01Z</time></trkpt><trkpt lat="41.180740812628216" lon="9.369587842428022"><ele>35.0</ele><time>2026-04-30T13:00:02Z</time></trkpt><trkpt lat="41.180696636288374" lon="9.369652670018933"><ele>35.0</ele><time>2026-04-30T13:00:03Z</time></trkpt><trkpt lat="41.1805847712225" lon="9.36964723397838"><ele>35.0</ele><time>2026-04-30T13:00:05Z</time></trkpt><trkpt lat="41.18054035721746" lon="9.369562495570262"><ele>35.0</ele><time>2026-04-30T13:00:06Z</time></trkpt><trkpt lat="41.180481315598755" lon="9.369463011968856"><ele>35.0</ele><time>2026-04-30T13:00:07Z</time></trkpt><trkpt lat="41.18039670188873" lon="9.36937734312566"><ele>34.4</ele><time>2026-04-30T13:00:08Z</time></trkpt><trkpt lat="41.180322407728035" lon="9.369286885525579"><ele>33.8</ele><time>2026-04-30T13:00:09Z</time></trkpt><trkpt lat="41.18024606336059" lon="9.369206262811945"><ele>33.2</ele><time>2026-04-30T13:00:10Z</time></trkpt><trkpt lat="41.18017070674108" lon="9.369136659649154"><ele>32.6</ele><time>2026-04-30T13:00:11Z</time></trkpt><trkpt lat="41.18010054490211" lon="9.369076487941312"><ele>32.0</ele><time>2026-04-30T13:00:12Z</time></trkpt><trkpt lat="41.180015610236275" lon="9.36906557486838"><ele>32.0</ele><time>2026-04-30T13:00:13Z</time></trkpt><trkpt lat="41.179935290450736" lon="9.369119639646954"><ele>32.0</ele><time>2026-04-30T13:00:14Z</time></trkpt><trkpt lat="41.17989417640727" lon="9.369232435207147"><ele>32.0</ele><time>2026-04-30T13:00:15Z</time></trkpt><trkpt lat="41.17989091971369" lon="9.369379231216309"><ele>32.0</ele><time>2026-04-30T13:00:16Z</time></trkpt><trkpt lat="41.17987203188016" lon="9.369544584167823"><ele>32.0</ele><time>2026-04-30T13:00:17Z</time></trkpt><trkpt lat="41.17983258979983" lon="9.369696842255685"><ele>29.25</ele><time>2026-04-30T13:00:18Z</time></trkpt><trkpt lat="41.17977709700166" lon="9.369822880658456"><ele>26.5</ele><time>2026-04-30T13:00:19Z</time></trkpt><trkpt lat="41.17968778765754" lon="9.369918425919712"><ele>23.75</ele><time>2026-04-30T13:00:20Z</time></trkpt><trkpt lat="41.17959430465291" lon="9.370030126474223"><ele>21.0</ele><time>2026-04-30T13:00:21Z</time></trkpt><trkpt lat="41.1795007455571" lon="9.370135993858462"><ele>21.0</ele><time>2026-04-30T13:00:22Z</time></trkpt><trkpt lat="41.17940663490451" lon="9.370237024979282"><ele>21.0</ele><time>2026-04-30T13:00:23Z</time></trkpt><trkpt lat="41.179312433214776" lon="9.370331459750314"><ele>21.0</ele><time>2026-04-30T13:00:24Z</time></trkpt><trkpt lat="41.17921790620696" lon="9.370418646589437"><ele>21.0</ele><time>2026-04-30T13:00:25Z</time></trkpt><trkpt lat="41.1791207216277" lon="9.370494987691574"><ele>19.5</ele><time>2026-04-30T13:00:26Z</time></trkpt><trkpt lat="41.179028770542864" lon="9.370584303016368"><ele>18.0</ele><time>2026-04-30T13:00:27Z</time></trkpt><trkpt lat="41.178920090835014" lon="9.370629427694778"><ele>16.5</ele><time>2026-04-30T13:00:28Z</time></trkpt><trkpt lat="41.1787929570771" lon="9.370643611512708"><ele>15.0</ele><time>2026-04-30T13:00:29Z</time></trkpt><trkpt lat="41.178660513003074" lon="9.370626293799557"><ele>13.5</ele><time>2026-04-30T13:00:30Z</time></trkpt><trkpt lat="41.178532506326675" lon="9.370626701873148"><ele>12.0</ele><time>2026-04-30T13:00:31Z</time></trkpt><trkpt lat="41.17841645939341" lon="9.37062288969402"><ele>10.5</ele><time>2026-04-30T13:00:32Z</time></trkpt><trkpt lat="41.17831279148689" lon="9.370621318893079"><ele>9.0</ele><time>2026-04-30T13:00:33Z</time></trkpt><trkpt lat="41.17821811613667" lon="9.370558299458194"><ele>8.8</ele><time>2026-04-30T13:00:34Z</time></trkpt><trkpt lat="41.17812777648362" lon="9.370462844679889"><ele>8.600000000000001</ele><time>2026-04-30T13:00:35Z</time></trkpt><trkpt lat="41.17803725384676" lon="9.370356498011828"><ele>8.4</ele><time>2026-04-30T13:00:36Z</time></trkpt><trkpt lat="41.177944648740976" lon="9.37027186794002"><ele>8.200000000000001</ele><time>2026-04-30T13:00:37Z</time></trkpt><trkpt lat="41.17786262926198" lon="9.370209637387429"><ele>8.0</ele><time>2026-04-30T13:00:38Z</time></trkpt><trkpt lat="41.177786359581106" lon="9.370159327854996"><ele>8.0</ele><time>2026-04-30T13:00:39Z</time></trkpt><trkpt lat="41.177716746367324" lon="9.370099202081509"><ele>7.999999999999999</ele><time>2026-04-30T13:00:40Z</time></trkpt><trkpt lat="41.177662131967075" lon="9.370018021832665"><ele>8.0</ele><time>2026-04-30T13:00:41Z</time></trkpt><trkpt lat="41.177617901081426" lon="9.369932910135606"><ele>8.0</ele><time>2026-04-30T13:00:42Z</time></trkpt><trkpt lat="41.17757437103383" lon="9.369860204151765"><ele>7.999999999999999</ele><time>2026-04-30T13:00:43Z</time></trkpt><trkpt lat="41.177516517158345" lon="9.369815516017502"><ele>8.0</ele><time>2026-04-30T13:00:44Z</time></trkpt><trkpt lat="41.177453678915235" lon="9.36980317516093"><ele>8.0</ele><time>2026-04-30T13:00:45Z</time></trkpt><trkpt lat="41.177387290019766" lon="9.369832451074808"><ele>7.999999999999999</ele><time>2026-04-30T13:00:46Z</time></trkpt><trkpt lat="41.177341145471885" lon="9.369892172096465"><ele>8.0</ele><time>2026-04-30T13:00:47Z</time></trkpt><trkpt lat="41.17731871075939" lon="9.369971792276292"><ele>8.0</ele><time>2026-04-30T13:00:48Z</time></trkpt><trkpt lat="41.17732429571103" lon="9.370064181437703"><ele>8.0</ele><time>2026-04-30T13:00:49Z</time></trkpt><trkpt lat="41.17735332287236" lon="9.370164402338565"><ele>7.999999999999999</ele><time>2026-04-30T13:00:50.001Z</time></trkpt><trkpt lat="41.17737951054126" lon="9.370274495969468"><ele>8.0</ele><time>2026-04-30T13:00:51.001Z</time></trkpt><trkpt lat="41.177384487180255" lon="9.370404438033457"><ele>7.0</ele><time>2026-04-30T13:00:52.001Z</time></trkpt><trkpt lat="41.1773682928831" lon="9.37055470823398"><ele>6.0</ele><time>2026-04-30T13:00:53.001Z</time></trkpt><trkpt lat="41.17731545414283" lon="9.370683419791396"><ele>5.0</ele><time>2026-04-30T13:00:54.001Z</time></trkpt><trkpt lat="41.17728803054474" lon="9.370840779639515"><ele>4.0</ele><time>2026-04-30T13:00:55.001Z</time></trkpt><trkpt lat="41.17724300732646" lon="9.370998980513837"><ele>4.25</ele><time>2026-04-30T13:00:56.001Z</time></trkpt><trkpt lat="41.17720791209633" lon="9.371157189398847"><ele>4.5</ele><time>2026-04-30T13:00:57.001Z</time></trkpt><trkpt lat="41.17718821503152" lon="9.371311104365635"><ele>4.75</ele><time>2026-04-30T13:00:58.001Z</time></trkpt><trkpt lat="41.17718497042455" lon="9.371467097594925"><ele>5.0</ele><time>2026-04-30T13:00:59.001Z</time></trkpt><trkpt lat="41.17720450218813" lon="9.37162241241122"><ele>5.0</ele><time>2026-04-30T13:01:00.001Z</time></trkpt><trkpt lat="41.177246271112054" lon="9.37178057200371"><ele>5.0</ele><time>2026-04-30T13:01:01.001Z</time></trkpt><trkpt lat="41.177310829157705" lon="9.37193299552466"><ele>5.0</ele><time>2026-04-30T13:01:02.001Z</time></trkpt><trkpt lat="41.177390914889266" lon="9.372067483023754"><ele>5.0</ele><time>2026-04-30T13:01:03.001Z</time></trkpt><trkpt lat="41.177489307825226" lon="9.372166251263996"><ele>8.5</ele><time>2026-04-30T13:01:04.001Z</time></trkpt><trkpt lat="41.17760710246475" lon="9.37223939678688"><ele>12.0</ele><time>2026-04-30T13:01:05.001Z</time></trkpt><trkpt lat="41.17773764580004" lon="9.372298667894784"><ele>15.5</ele><time>2026-04-30T13:01:06.001Z</time></trkpt><trkpt lat="41.177870424605715" lon="9.37236433436849"><ele>19.0</ele><time>2026-04-30T13:01:07.001Z</time></trkpt><trkpt lat="41.1780032608178" lon="9.372433050253264"><ele>19.0</ele><time>2026-04-30T13:01:08.001Z</time></trkpt><trkpt lat="41.17812722448256" lon="9.372500150848472"><ele>19.0</ele><time>2026-04-30T13:01:09.001Z</time></trkpt><trkpt lat="41.17823959515645" lon="9.372571029185657"><ele>19.0</ele><time>2026-04-30T13:01:10.001Z</time></trkpt><trkpt lat="41.17834147028082" lon="9.372635879955954"><ele>19.0</ele><time>2026-04-30T13:01:11.001Z</time></trkpt><trkpt lat="41.178435390512774" lon="9.372698867108534"><ele>19.6</ele><time>2026-04-30T13:01:12.001Z</time></trkpt><trkpt lat="41.178528980307895" lon="9.372768059250731"><ele>20.2</ele><time>2026-04-30T13:01:13.001Z</time></trkpt><trkpt lat="41.17860610704447" lon="9.372850676693623"><ele>20.8</ele><time>2026-04-30T13:01:14.001Z</time></trkpt><trkpt lat="41.17866547518573" lon="9.37294894601679"><ele>21.400000000000002</ele><time>2026-04-30T13:01:15.001Z</time></trkpt><trkpt lat="41.178704971310836" lon="9.373066143479642"><ele>22.0</ele><time>2026-04-30T13:01:16.001Z</time></trkpt><trkpt lat="41.17872813555487" lon="9.373195989204754"><ele>22.0</ele><time>2026-04-30T13:01:17.001Z</time></trkpt><trkpt lat="41.17873649334888" lon="9.373332279141323"><ele>22.0</ele><time>2026-04-30T13:01:18.001Z</time></trkpt><trkpt lat="41.17873965413936" lon="9.373471854052003"><ele>22.0</ele><time>2026-04-30T13:01:19.001Z</time></trkpt><trkpt lat="41.178742591630176" lon="9.373612530663888"><ele>22.0</ele><time>2026-04-30T13:01:20.001Z</time></trkpt><trkpt lat="41.17874741308999" lon="9.373760520862078"><ele>22.0</ele><time>2026-04-30T13:01:21.001Z</time></trkpt><trkpt lat="41.17875092189221" lon="9.373912503570631"><ele>22.5</ele><time>2026-04-30T13:01:22.001Z</time></trkpt><trkpt lat="41.17875213789911" lon="9.374068201050466"><ele>23.0</ele><time>2026-04-30T13:01:23.001Z</time></trkpt><trkpt lat="41.17875342384437" lon="9.37423012035646"><ele>23.5</ele><time>2026-04-30T13:01:24.001Z</time></trkpt><trkpt lat="41.178748008942996" lon="9.374399373496683"><ele>24.0</ele><time>2026-04-30T13:01:25.001Z</time></trkpt><trkpt lat="41.178740327539465" lon="9.374569635366386"><ele>24.25</ele><time>2026-04-30T13:01:26.001Z</time></trkpt><trkpt lat="41.1787285784222" lon="9.374730089300476"><ele>24.5</ele><time>2026-04-30T13:01:27.001Z</time></trkpt><trkpt lat="41.17871724552302" lon="9.374890784656083"><ele>24.75</ele><time>2026-04-30T13:01:28.001Z</time></trkpt><trkpt lat="41.178704200768266" lon="9.375039574019086"><ele>25.0</ele><time>2026-04-30T13:01:29.001Z</time></trkpt><trkpt lat="41.178694284710936" lon="9.375179497250246"><ele>25.0</ele><time>2026-04-30T13:01:30.001Z</time></trkpt><trkpt lat="41.17868908684923" lon="9.375317137430672"><ele>25.0</ele><time>2026-04-30T13:01:31Z</time></trkpt><trkpt lat="41.1786853901376" lon="9.375455317516822"><ele>25.0</ele><time>2026-04-30T13:01:32Z</time></trkpt><trkpt lat="41.17868216632223" lon="9.37559290263583"><ele>25.0</ele><time>2026-04-30T13:01:33Z</time></trkpt><trkpt lat="41.178677242789604" lon="9.375733035139433"><ele>25.0</ele><time>2026-04-30T13:01:34Z</time></trkpt><trkpt lat="41.17867637742928" lon="9.375873616657861"><ele>25.2</ele><time>2026-04-30T13:01:35Z</time></trkpt><trkpt lat="41.17868068816912" lon="9.376016599644332"><ele>25.4</ele><time>2026-04-30T13:01:36Z</time></trkpt><trkpt lat="41.17868606419944" lon="9.3761612292474"><ele>25.6</ele><time>2026-04-30T13:01:37Z</time></trkpt><trkpt lat="41.17869470654668" lon="9.37630482147283"><ele>25.8</ele><time>2026-04-30T13:01:38Z</time></trkpt><trkpt lat="41.17870216952209" lon="9.376442579735148"><ele>26.0</ele><time>2026-04-30T13:01:39Z</time></trkpt><trkpt lat="41.17870564530947" lon="9.376575221327952"><ele>26.200000000000003</ele><time>2026-04-30T13:01:40Z</time></trkpt><trkpt lat="41.178712635456634" lon="9.376708031196292"><ele>26.400000000000002</ele><time>2026-04-30T13:01:41Z</time></trkpt><trkpt lat="41.17868774120669" lon="9.376888902088265"><ele>26.6</ele><time>2026-04-30T13:01:42Z</time></trkpt><trkpt lat="41.178726966025955" lon="9.376963492103723"><ele>26.8</ele><time>2026-04-30T13:01:43Z</time></trkpt><trkpt lat="41.17873500413644" lon="9.377083194769758"><ele>27.0</ele><time>2026-04-30T13:01:44Z</time></trkpt><trkpt lat="41.17874110835087" lon="9.377197138817278"><ele>26.5</ele><time>2026-04-30T13:01:45Z</time></trkpt><trkpt lat="41.178745773561175" lon="9.37730140159503"><ele>26.0</ele><time>2026-04-30T13:01:46Z</time></trkpt><trkpt lat="41.1787495566834" lon="9.37740358351994"><ele>25.5</ele><time>2026-04-30T13:01:47Z</time></trkpt><trkpt lat="41.17875506956837" lon="9.377508664060848"><ele>25.0</ele><time>2026-04-30T13:01:48Z</time></trkpt><trkpt lat="41.17873727410912" lon="9.377620718427988"><ele>24.5</ele><time>2026-04-30T13:01:49Z</time></trkpt><trkpt lat="41.17873245887658" lon="9.377720649095929"><ele>24.0</ele><time>2026-04-30T13:01:50Z</time></trkpt><trkpt lat="41.178748324159876" lon="9.377842647848482"><ele>24.0</ele><time>2026-04-30T13:01:51Z</time></trkpt><trkpt lat="41.1787383333912" lon="9.377974367361967"><ele>24.0</ele><time>2026-04-30T13:01:52Z</time></trkpt><trkpt lat="41.178724775896576" lon="9.378120083812487"><ele>24.0</ele><time>2026-04-30T13:01:53Z</time></trkpt><trkpt lat="41.178709549771014" lon="9.378273379851583"><ele>24.0</ele><time>2026-04-30T13:01:54Z</time></trkpt><trkpt lat="41.17869900222212" lon="9.378417338601947"><ele>24.0</ele><time>2026-04-30T13:01:55Z</time></trkpt><trkpt lat="41.17869686174717" lon="9.378568257326057"><ele>23.2</ele><time>2026-04-30T13:01:56Z</time></trkpt><trkpt lat="41.178702231070694" lon="9.37871112849043"><ele>22.4</ele><time>2026-04-30T13:01:57Z</time></trkpt><trkpt lat="41.1787119548608" lon="9.378845876776973"><ele>21.6</ele><time>2026-04-30T13:01:58Z</time></trkpt><trkpt lat="41.17872416595914" lon="9.378981947936529"><ele>20.8</ele><time>2026-04-30T13:01:59Z</time></trkpt><trkpt lat="41.17873533364972" lon="9.379122809600705"><ele>20.0</ele><time>2026-04-30T13:02:00Z</time></trkpt><trkpt lat="41.17874924746925" lon="9.37926848760745"><ele>19.6</ele><time>2026-04-30T13:02:01Z</time></trkpt><trkpt lat="41.17876109166524" lon="9.379411140135089"><ele>19.2</ele><time>2026-04-30T13:02:02Z</time></trkpt><trkpt lat="41.17877227334191" lon="9.379547096574779"><ele>18.8</ele><time>2026-04-30T13:02:03Z</time></trkpt><trkpt lat="41.17878365365935" lon="9.379683381967551"><ele>18.4</ele><time>2026-04-30T13:02:04Z</time></trkpt><trkpt lat="41.17879528005927" lon="9.379822128978644"><ele>18.0</ele><time>2026-04-30T13:02:05Z</time></trkpt><trkpt lat="41.17880817157904" lon="9.379962318694789"><ele>17.6</ele><time>2026-04-30T13:02:06Z</time></trkpt><trkpt lat="41.17882026121647" lon="9.380100491010454"><ele>17.200000000000003</ele><time>2026-04-30T13:02:07Z</time></trkpt><trkpt lat="41.17883005356082" lon="9.38023173771033"><ele>16.8</ele><time>2026-04-30T13:02:08Z</time></trkpt><trkpt lat="41.178841543551314" lon="9.380360411353147"><ele>16.400000000000002</ele><time>2026-04-30T13:02:09Z</time></trkpt><trkpt lat="41.178854109193324" lon="9.380486478293278"><ele>16.0</ele><time>2026-04-30T13:02:10Z</time></trkpt><trkpt lat="41.178871185510154" lon="9.380609415533938"><ele>15.600000000000001</ele><time>2026-04-30T13:02:11Z</time></trkpt><trkpt lat="41.178895879230716" lon="9.380731613592868"><ele>15.200000000000001</ele><time>2026-04-30T13:02:12Z</time></trkpt><trkpt lat="41.17892530817157" lon="9.380852171215338"><ele>14.799999999999999</ele><time>2026-04-30T13:02:13Z</time></trkpt><trkpt lat="41.17895955587769" lon="9.380975509218024"><ele>14.399999999999999</ele><time>2026-04-30T13:02:14Z</time></trkpt><trkpt lat="41.178999896800576" lon="9.381102953499331"><ele>14.0</ele><time>2026-04-30T13:02:15Z</time></trkpt><trkpt lat="41.179041471209985" lon="9.381220678234722"><ele>14.0</ele><time>2026-04-30T13:02:16Z</time></trkpt><trkpt lat="41.17908860120617" lon="9.381334860462417"><ele>13.999999999999998</ele><time>2026-04-30T13:02:17Z</time></trkpt><trkpt lat="41.17913711803284" lon="9.381439629748787"><ele>13.999999999999998</ele><time>2026-04-30T13:02:18Z</time></trkpt><trkpt lat="41.17918687688823" lon="9.381538056807239"><ele>14.0</ele><time>2026-04-30T13:02:19Z</time></trkpt><trkpt lat="41.179237084787694" lon="9.381632973141274"><ele>14.0</ele><time>2026-04-30T13:02:20Z</time></trkpt><trkpt lat="41.179289953917554" lon="9.381720976465848"><ele>13.500000000000002</ele><time>2026-04-30T13:02:21Z</time></trkpt><trkpt lat="41.17934146140715" lon="9.381808580279378"><ele>13.0</ele><time>2026-04-30T13:02:22Z</time></trkpt><trkpt lat="41.17939579315558" lon="9.381889302723115"><ele>12.5</ele><time>2026-04-30T13:02:23Z</time></trkpt><trkpt lat="41.179450025356225" lon="9.38196514990147"><ele>12.0</ele><time>2026-04-30T13:02:24Z</time></trkpt><trkpt lat="41.17950765295525" lon="9.38202917577651"><ele>11.5</ele><time>2026-04-30T13:02:25Z</time></trkpt><trkpt lat="41.17957311727536" lon="9.382085067951149"><ele>11.0</ele><time>2026-04-30T13:02:26Z</time></trkpt><trkpt lat="41.179646360929674" lon="9.382144037699794"><ele>10.333333333333332</ele><time>2026-04-30T13:02:27Z</time></trkpt><trkpt lat="41.179717840701464" lon="9.382193636090562"><ele>9.666666666666666</ele><time>2026-04-30T13:02:28Z</time></trkpt><trkpt lat="41.179777630583544" lon="9.38222287895288"><ele>9.0</ele><time>2026-04-30T13:02:29Z</time></trkpt><trkpt lat="41.179858193251086" lon="9.382262667382461"><ele>8.333333333333334</ele><time>2026-04-30T13:02:31.001Z</time></trkpt><trkpt lat="41.179939703900416" lon="9.382295706361326"><ele>7.666666666666667</ele><time>2026-04-30T13:02:34.001Z</time></trkpt><trkpt lat="41.180040049803466" lon="9.382332726243915"><ele>7.0</ele><time>2026-04-30T13:02:36.001Z</time></trkpt><trkpt lat="41.18015516229158" lon="9.382385304780591"><ele>6.833333333333334</ele><time>2026-04-30T13:02:38.001Z</time></trkpt><trkpt lat="41.18022168839086" lon="9.382416565526166"><ele>6.666666666666667</ele><time>2026-04-30T13:02:39.001Z</time></trkpt><trkpt lat="41.18029250663438" lon="9.38244320855231"><ele>6.5</ele><time>2026-04-30T13:02:40.001Z</time></trkpt><trkpt lat="41.18036695367319" lon="9.38247298897303"><ele>6.333333333333334</ele><time>2026-04-30T13:02:41.001Z</time></trkpt><trkpt lat="41.18044531266904" lon="9.382500726372838"><ele>6.166666666666667</ele><time>2026-04-30T13:02:42.001Z</time></trkpt><trkpt lat="41.1805226322009" lon="9.382532296277697"><ele>6.0</ele><time>2026-04-30T13:02:43.001Z</time></trkpt><trkpt lat="41.180599204746585" lon="9.382559509242329"><ele>5.999999999999999</ele><time>2026-04-30T13:02:44.001Z</time></trkpt><trkpt lat="41.18067168713368" lon="9.382592776725975"><ele>6.0</ele><time>2026-04-30T13:02:45.001Z</time></trkpt><trkpt lat="41.18073869826287" lon="9.382634933469543"><ele>6.0</ele><time>2026-04-30T13:02:46.001Z</time></trkpt><trkpt lat="41.18079703164722" lon="9.382695063015525"><ele>6.0</ele><time>2026-04-30T13:02:47.001Z</time></trkpt><trkpt lat="41.180841064474386" lon="9.38277116034675"><ele>6.0</ele><time>2026-04-30T13:02:48.001Z</time></trkpt><trkpt lat="41.18087019684996" lon="9.38285114518498"><ele>5.999999999999999</ele><time>2026-04-30T13:02:49.001Z</time></trkpt><trkpt lat="41.180891752206755" lon="9.382930068525816"><ele>6.0</ele><time>2026-04-30T13:02:50.001Z</time></trkpt><trkpt lat="41.18088090868122" lon="9.383022623050552"><ele>5.0</ele><time>2026-04-30T13:02:52.001Z</time></trkpt></trkseg></trk></gpx>